<?xml version="1.0" encoding="UTF-8" standalone="no" ?>
<gpx xmlns="http://www.topografix.com/GPX/1/1" xmlns:xsi="http://www.w3.org/2001/XMLSchema-instance" xsi:schemaLocation="http://www.topografix.com/GPX/1/1 http://www.topografix.com/GPX/1/1/gpx.xsd" version="1.1" creator="VisuGPX - https://www.visugpx.com">
  <metadata>
    <name>Passerelles Monteynard</name>
    <desc><![CDATA[Sortie un poil physique mais les descentes sont très sympas.
]]></desc>
  </metadata>
  <trk>
    <name><![CDATA[passerelles terrain]]></name>
    <trkseg>
      <trkpt lat="44.91503" lon="5.65832">
        <ele>619.71</ele>
        <time>2013-06-30T08:53:52Z</time>
      </trkpt>
      <trkpt lat="44.91503" lon="5.65832">
        <ele>617.78</ele>
        <time>2013-06-30T08:53:53Z</time>
      </trkpt>
      <trkpt lat="44.91503" lon="5.65832">
        <ele>622.11</ele>
        <time>2013-06-30T08:53:55Z</time>
      </trkpt>
      <trkpt lat="44.91503" lon="5.65832">
        <ele>612.5</ele>
        <time>2013-06-30T08:53:58Z</time>
      </trkpt>
      <trkpt lat="44.91503" lon="5.65832">
        <ele>620.67</ele>
        <time>2013-06-30T08:53:59Z</time>
      </trkpt>
      <trkpt lat="44.91504" lon="5.6583">
        <ele>615.38</ele>
        <time>2013-06-30T08:54:16Z</time>
      </trkpt>
      <trkpt lat="44.91504" lon="5.6583">
        <ele>620.19</ele>
        <time>2013-06-30T08:54:17Z</time>
      </trkpt>
      <trkpt lat="44.91503" lon="5.65827">
        <ele>619.23</ele>
        <time>2013-06-30T08:54:37Z</time>
      </trkpt>
      <trkpt lat="44.91503" lon="5.65826">
        <ele>619.23</ele>
        <time>2013-06-30T08:54:58Z</time>
      </trkpt>
      <trkpt lat="44.91503" lon="5.65827">
        <ele>618.75</ele>
        <time>2013-06-30T08:55:14Z</time>
      </trkpt>
      <trkpt lat="44.91503" lon="5.65828">
        <ele>618.75</ele>
        <time>2013-06-30T08:55:34Z</time>
      </trkpt>
      <trkpt lat="44.91504" lon="5.65828">
        <ele>618.75</ele>
        <time>2013-06-30T08:55:54Z</time>
      </trkpt>
      <trkpt lat="44.91504" lon="5.65829">
        <ele>618.75</ele>
        <time>2013-06-30T08:56:16Z</time>
      </trkpt>
      <trkpt lat="44.91504" lon="5.65829">
        <ele>619.23</ele>
        <time>2013-06-30T08:56:35Z</time>
      </trkpt>
      <trkpt lat="44.91503" lon="5.65829">
        <ele>619.23</ele>
        <time>2013-06-30T08:56:55Z</time>
      </trkpt>
      <trkpt lat="44.91503" lon="5.65829">
        <ele>619.23</ele>
        <time>2013-06-30T08:57:20Z</time>
      </trkpt>
      <trkpt lat="44.91504" lon="5.65828">
        <ele>618.75</ele>
        <time>2013-06-30T08:57:38Z</time>
      </trkpt>
      <trkpt lat="44.91504" lon="5.65829">
        <ele>619.23</ele>
        <time>2013-06-30T08:57:57Z</time>
      </trkpt>
      <trkpt lat="44.91503" lon="5.65829">
        <ele>619.71</ele>
        <time>2013-06-30T08:58:14Z</time>
      </trkpt>
      <trkpt lat="44.91501" lon="5.65823">
        <ele>620.19</ele>
        <time>2013-06-30T08:58:29Z</time>
      </trkpt>
      <trkpt lat="44.91502" lon="5.65817">
        <ele>620.67</ele>
        <time>2013-06-30T08:58:39Z</time>
      </trkpt>
      <trkpt lat="44.91503" lon="5.65816">
        <ele>620.67</ele>
        <time>2013-06-30T08:58:53Z</time>
      </trkpt>
      <trkpt lat="44.91503" lon="5.65816">
        <ele>620.67</ele>
        <time>2013-06-30T08:59:17Z</time>
      </trkpt>
      <trkpt lat="44.91504" lon="5.65817">
        <ele>621.15</ele>
        <time>2013-06-30T08:59:37Z</time>
      </trkpt>
      <trkpt lat="44.91503" lon="5.6582">
        <ele>620.19</ele>
        <time>2013-06-30T08:59:48Z</time>
      </trkpt>
      <trkpt lat="44.91503" lon="5.6582">
        <ele>620.67</ele>
        <time>2013-06-30T09:00:10Z</time>
      </trkpt>
      <trkpt lat="44.91503" lon="5.6582">
        <ele>620.19</ele>
        <time>2013-06-30T09:00:34Z</time>
      </trkpt>
      <trkpt lat="44.91502" lon="5.6582">
        <ele>620.19</ele>
        <time>2013-06-30T09:01:05Z</time>
      </trkpt>
      <trkpt lat="44.915" lon="5.65819">
        <ele>619.71</ele>
        <time>2013-06-30T09:01:17Z</time>
      </trkpt>
      <trkpt lat="44.915" lon="5.65817">
        <ele>619.71</ele>
        <time>2013-06-30T09:01:35Z</time>
      </trkpt>
      <trkpt lat="44.915" lon="5.65818">
        <ele>619.23</ele>
        <time>2013-06-30T09:01:55Z</time>
      </trkpt>
      <trkpt lat="44.915" lon="5.65818">
        <ele>619.71</ele>
        <time>2013-06-30T09:02:19Z</time>
      </trkpt>
      <trkpt lat="44.915" lon="5.65818">
        <ele>619.23</ele>
        <time>2013-06-30T09:02:45Z</time>
      </trkpt>
      <trkpt lat="44.915" lon="5.65819">
        <ele>619.23</ele>
        <time>2013-06-30T09:03:08Z</time>
      </trkpt>
      <trkpt lat="44.915" lon="5.65819">
        <ele>618.75</ele>
        <time>2013-06-30T09:03:23Z</time>
      </trkpt>
      <trkpt lat="44.915" lon="5.65819">
        <ele>619.23</ele>
        <time>2013-06-30T09:03:44Z</time>
      </trkpt>
      <trkpt lat="44.915" lon="5.65819">
        <ele>618.75</ele>
        <time>2013-06-30T09:03:58Z</time>
      </trkpt>
      <trkpt lat="44.915" lon="5.65819">
        <ele>618.75</ele>
        <time>2013-06-30T09:04:00Z</time>
      </trkpt>
      <trkpt lat="44.91501" lon="5.65817">
        <ele>618.75</ele>
        <time>2013-06-30T09:04:02Z</time>
      </trkpt>
      <trkpt lat="44.915" lon="5.65822">
        <ele>618.26</ele>
        <time>2013-06-30T09:04:15Z</time>
      </trkpt>
      <trkpt lat="44.915" lon="5.65821">
        <ele>618.75</ele>
        <time>2013-06-30T09:04:29Z</time>
      </trkpt>
      <trkpt lat="44.915" lon="5.65814">
        <ele>619.23</ele>
        <time>2013-06-30T09:04:38Z</time>
      </trkpt>
      <trkpt lat="44.915" lon="5.65813">
        <ele>618.75</ele>
        <time>2013-06-30T09:04:57Z</time>
      </trkpt>
      <trkpt lat="44.915" lon="5.65813">
        <ele>618.26</ele>
        <time>2013-06-30T09:05:18Z</time>
      </trkpt>
      <trkpt lat="44.915" lon="5.65813">
        <ele>618.75</ele>
        <time>2013-06-30T09:05:28Z</time>
      </trkpt>
      <trkpt lat="44.91501" lon="5.65813">
        <ele>618.26</ele>
        <time>2013-06-30T09:05:37Z</time>
      </trkpt>
      <trkpt lat="44.91504" lon="5.65816">
        <ele>618.75</ele>
        <time>2013-06-30T09:05:40Z</time>
      </trkpt>
      <trkpt lat="44.91517" lon="5.65802">
        <ele>620.67</ele>
        <time>2013-06-30T09:05:50Z</time>
      </trkpt>
      <trkpt lat="44.91519" lon="5.65801">
        <ele>620.67</ele>
        <time>2013-06-30T09:05:51Z</time>
      </trkpt>
      <trkpt lat="44.91518" lon="5.65792">
        <ele>621.63</ele>
        <time>2013-06-30T09:05:55Z</time>
      </trkpt>
      <trkpt lat="44.91496" lon="5.65788">
        <ele>620.67</ele>
        <time>2013-06-30T09:06:03Z</time>
      </trkpt>
      <trkpt lat="44.91492" lon="5.65787">
        <ele>620.19</ele>
        <time>2013-06-30T09:06:04Z</time>
      </trkpt>
      <trkpt lat="44.91487" lon="5.65785">
        <ele>619.23</ele>
        <time>2013-06-30T09:06:05Z</time>
      </trkpt>
      <trkpt lat="44.91483" lon="5.65782">
        <ele>620.67</ele>
        <time>2013-06-30T09:06:06Z</time>
      </trkpt>
      <trkpt lat="44.91479" lon="5.65779">
        <ele>617.3</ele>
        <time>2013-06-30T09:06:07Z</time>
      </trkpt>
      <trkpt lat="44.91474" lon="5.65775">
        <ele>617.78</ele>
        <time>2013-06-30T09:06:08Z</time>
      </trkpt>
      <trkpt lat="44.91469" lon="5.6577">
        <ele>618.26</ele>
        <time>2013-06-30T09:06:09Z</time>
      </trkpt>
      <trkpt lat="44.91464" lon="5.65765">
        <ele>617.3</ele>
        <time>2013-06-30T09:06:10Z</time>
      </trkpt>
      <trkpt lat="44.91451" lon="5.65753">
        <ele>617.3</ele>
        <time>2013-06-30T09:06:13Z</time>
      </trkpt>
      <trkpt lat="44.91446" lon="5.6575">
        <ele>616.82</ele>
        <time>2013-06-30T09:06:14Z</time>
      </trkpt>
      <trkpt lat="44.91443" lon="5.65749">
        <ele>616.82</ele>
        <time>2013-06-30T09:06:15Z</time>
      </trkpt>
      <trkpt lat="44.91439" lon="5.65748">
        <ele>616.82</ele>
        <time>2013-06-30T09:06:16Z</time>
      </trkpt>
      <trkpt lat="44.91435" lon="5.65747">
        <ele>616.82</ele>
        <time>2013-06-30T09:06:17Z</time>
      </trkpt>
      <trkpt lat="44.9143" lon="5.65747">
        <ele>616.34</ele>
        <time>2013-06-30T09:06:18Z</time>
      </trkpt>
      <trkpt lat="44.91425" lon="5.65746">
        <ele>615.86</ele>
        <time>2013-06-30T09:06:19Z</time>
      </trkpt>
      <trkpt lat="44.91421" lon="5.65745">
        <ele>615.86</ele>
        <time>2013-06-30T09:06:20Z</time>
      </trkpt>
      <trkpt lat="44.91347" lon="5.65732">
        <ele>613.46</ele>
        <time>2013-06-30T09:06:33Z</time>
      </trkpt>
      <trkpt lat="44.91341" lon="5.6573">
        <ele>613.46</ele>
        <time>2013-06-30T09:06:34Z</time>
      </trkpt>
      <trkpt lat="44.91335" lon="5.65727">
        <ele>613.46</ele>
        <time>2013-06-30T09:06:35Z</time>
      </trkpt>
      <trkpt lat="44.9133" lon="5.65722">
        <ele>613.46</ele>
        <time>2013-06-30T09:06:36Z</time>
      </trkpt>
      <trkpt lat="44.91316" lon="5.65701">
        <ele>616.34</ele>
        <time>2013-06-30T09:06:41Z</time>
      </trkpt>
      <trkpt lat="44.91302" lon="5.65672">
        <ele>618.26</ele>
        <time>2013-06-30T09:06:52Z</time>
      </trkpt>
      <trkpt lat="44.91295" lon="5.65665">
        <ele>619.23</ele>
        <time>2013-06-30T09:07:02Z</time>
      </trkpt>
      <trkpt lat="44.91295" lon="5.65665">
        <ele>619.23</ele>
        <time>2013-06-30T09:07:22Z</time>
      </trkpt>
      <trkpt lat="44.91294" lon="5.65664">
        <ele>619.23</ele>
        <time>2013-06-30T09:07:23Z</time>
      </trkpt>
      <trkpt lat="44.91293" lon="5.65662">
        <ele>619.23</ele>
        <time>2013-06-30T09:07:24Z</time>
      </trkpt>
      <trkpt lat="44.91291" lon="5.65661">
        <ele>618.75</ele>
        <time>2013-06-30T09:07:25Z</time>
      </trkpt>
      <trkpt lat="44.91288" lon="5.65659">
        <ele>618.75</ele>
        <time>2013-06-30T09:07:26Z</time>
      </trkpt>
      <trkpt lat="44.91285" lon="5.65658">
        <ele>619.23</ele>
        <time>2013-06-30T09:07:27Z</time>
      </trkpt>
      <trkpt lat="44.91282" lon="5.65658">
        <ele>618.75</ele>
        <time>2013-06-30T09:07:28Z</time>
      </trkpt>
      <trkpt lat="44.91279" lon="5.65657">
        <ele>618.75</ele>
        <time>2013-06-30T09:07:29Z</time>
      </trkpt>
      <trkpt lat="44.91241" lon="5.65675">
        <ele>618.26</ele>
        <time>2013-06-30T09:07:40Z</time>
      </trkpt>
      <trkpt lat="44.91208" lon="5.65682">
        <ele>618.75</ele>
        <time>2013-06-30T09:07:51Z</time>
      </trkpt>
      <trkpt lat="44.91178" lon="5.65631">
        <ele>621.15</ele>
        <time>2013-06-30T09:08:06Z</time>
      </trkpt>
      <trkpt lat="44.91148" lon="5.656">
        <ele>622.59</ele>
        <time>2013-06-30T09:08:20Z</time>
      </trkpt>
      <trkpt lat="44.91114" lon="5.65588">
        <ele>624.99</ele>
        <time>2013-06-30T09:08:34Z</time>
      </trkpt>
      <trkpt lat="44.91082" lon="5.65579">
        <ele>628.36</ele>
        <time>2013-06-30T09:08:48Z</time>
      </trkpt>
      <trkpt lat="44.91054" lon="5.65572">
        <ele>631.24</ele>
        <time>2013-06-30T09:09:03Z</time>
      </trkpt>
      <trkpt lat="44.91034" lon="5.65568">
        <ele>634.61</ele>
        <time>2013-06-30T09:09:15Z</time>
      </trkpt>
      <trkpt lat="44.91013" lon="5.65568">
        <ele>637.49</ele>
        <time>2013-06-30T09:09:28Z</time>
      </trkpt>
      <trkpt lat="44.91011" lon="5.65568">
        <ele>637.49</ele>
        <time>2013-06-30T09:09:29Z</time>
      </trkpt>
      <trkpt lat="44.91009" lon="5.65569">
        <ele>637.49</ele>
        <time>2013-06-30T09:09:30Z</time>
      </trkpt>
      <trkpt lat="44.91007" lon="5.65568">
        <ele>637.97</ele>
        <time>2013-06-30T09:09:31Z</time>
      </trkpt>
      <trkpt lat="44.91006" lon="5.65567">
        <ele>637.97</ele>
        <time>2013-06-30T09:09:32Z</time>
      </trkpt>
      <trkpt lat="44.91004" lon="5.65567">
        <ele>638.45</ele>
        <time>2013-06-30T09:09:33Z</time>
      </trkpt>
      <trkpt lat="44.91002" lon="5.65567">
        <ele>638.45</ele>
        <time>2013-06-30T09:09:34Z</time>
      </trkpt>
      <trkpt lat="44.91" lon="5.65566">
        <ele>637.97</ele>
        <time>2013-06-30T09:09:35Z</time>
      </trkpt>
      <trkpt lat="44.90998" lon="5.65566">
        <ele>638.93</ele>
        <time>2013-06-30T09:09:36Z</time>
      </trkpt>
      <trkpt lat="44.90996" lon="5.65566">
        <ele>638.45</ele>
        <time>2013-06-30T09:09:37Z</time>
      </trkpt>
      <trkpt lat="44.90994" lon="5.65566">
        <ele>638.93</ele>
        <time>2013-06-30T09:09:38Z</time>
      </trkpt>
      <trkpt lat="44.90992" lon="5.65565">
        <ele>638.93</ele>
        <time>2013-06-30T09:09:39Z</time>
      </trkpt>
      <trkpt lat="44.9099" lon="5.65566">
        <ele>639.41</ele>
        <time>2013-06-30T09:09:40Z</time>
      </trkpt>
      <trkpt lat="44.90963" lon="5.65567">
        <ele>638.93</ele>
        <time>2013-06-30T09:09:50Z</time>
      </trkpt>
      <trkpt lat="44.90939" lon="5.65581">
        <ele>640.38</ele>
        <time>2013-06-30T09:10:00Z</time>
      </trkpt>
      <trkpt lat="44.90911" lon="5.65599">
        <ele>643.26</ele>
        <time>2013-06-30T09:10:12Z</time>
      </trkpt>
      <trkpt lat="44.90909" lon="5.656">
        <ele>643.74</ele>
        <time>2013-06-30T09:10:13Z</time>
      </trkpt>
      <trkpt lat="44.9088" lon="5.65602">
        <ele>645.18</ele>
        <time>2013-06-30T09:10:25Z</time>
      </trkpt>
      <trkpt lat="44.90852" lon="5.65593">
        <ele>647.59</ele>
        <time>2013-06-30T09:10:38Z</time>
      </trkpt>
      <trkpt lat="44.90844" lon="5.65596">
        <ele>649.03</ele>
        <time>2013-06-30T09:10:43Z</time>
      </trkpt>
      <trkpt lat="44.90843" lon="5.65598">
        <ele>649.51</ele>
        <time>2013-06-30T09:10:44Z</time>
      </trkpt>
      <trkpt lat="44.90842" lon="5.656">
        <ele>649.03</ele>
        <time>2013-06-30T09:10:45Z</time>
      </trkpt>
      <trkpt lat="44.9084" lon="5.65609">
        <ele>649.99</ele>
        <time>2013-06-30T09:10:48Z</time>
      </trkpt>
      <trkpt lat="44.9084" lon="5.65611">
        <ele>649.99</ele>
        <time>2013-06-30T09:10:49Z</time>
      </trkpt>
      <trkpt lat="44.90839" lon="5.65613">
        <ele>650.47</ele>
        <time>2013-06-30T09:10:50Z</time>
      </trkpt>
      <trkpt lat="44.90839" lon="5.65616">
        <ele>650.95</ele>
        <time>2013-06-30T09:10:51Z</time>
      </trkpt>
      <trkpt lat="44.90839" lon="5.65619">
        <ele>650.47</ele>
        <time>2013-06-30T09:10:52Z</time>
      </trkpt>
      <trkpt lat="44.9084" lon="5.65622">
        <ele>650.95</ele>
        <time>2013-06-30T09:10:53Z</time>
      </trkpt>
      <trkpt lat="44.9084" lon="5.65624">
        <ele>651.43</ele>
        <time>2013-06-30T09:10:54Z</time>
      </trkpt>
      <trkpt lat="44.9084" lon="5.65628">
        <ele>651.91</ele>
        <time>2013-06-30T09:10:55Z</time>
      </trkpt>
      <trkpt lat="44.9084" lon="5.6563">
        <ele>651.91</ele>
        <time>2013-06-30T09:10:56Z</time>
      </trkpt>
      <trkpt lat="44.90841" lon="5.65633">
        <ele>652.39</ele>
        <time>2013-06-30T09:10:57Z</time>
      </trkpt>
      <trkpt lat="44.90841" lon="5.65635">
        <ele>652.39</ele>
        <time>2013-06-30T09:10:58Z</time>
      </trkpt>
      <trkpt lat="44.90856" lon="5.65665">
        <ele>654.8</ele>
        <time>2013-06-30T09:11:11Z</time>
      </trkpt>
      <trkpt lat="44.90872" lon="5.65682">
        <ele>657.68</ele>
        <time>2013-06-30T09:11:23Z</time>
      </trkpt>
      <trkpt lat="44.90883" lon="5.65693">
        <ele>659.12</ele>
        <time>2013-06-30T09:11:31Z</time>
      </trkpt>
      <trkpt lat="44.90899" lon="5.65714">
        <ele>661.04</ele>
        <time>2013-06-30T09:11:43Z</time>
      </trkpt>
      <trkpt lat="44.90916" lon="5.65736">
        <ele>663.45</ele>
        <time>2013-06-30T09:11:55Z</time>
      </trkpt>
      <trkpt lat="44.9093" lon="5.65754">
        <ele>665.85</ele>
        <time>2013-06-30T09:12:06Z</time>
      </trkpt>
      <trkpt lat="44.90937" lon="5.65763">
        <ele>666.33</ele>
        <time>2013-06-30T09:12:11Z</time>
      </trkpt>
      <trkpt lat="44.90953" lon="5.65784">
        <ele>669.22</ele>
        <time>2013-06-30T09:12:23Z</time>
      </trkpt>
      <trkpt lat="44.90966" lon="5.65805">
        <ele>670.66</ele>
        <time>2013-06-30T09:12:35Z</time>
      </trkpt>
      <trkpt lat="44.90984" lon="5.65826">
        <ele>673.06</ele>
        <time>2013-06-30T09:12:46Z</time>
      </trkpt>
      <trkpt lat="44.91009" lon="5.65854">
        <ele>675.46</ele>
        <time>2013-06-30T09:13:00Z</time>
      </trkpt>
      <trkpt lat="44.91015" lon="5.65863">
        <ele>676.42</ele>
        <time>2013-06-30T09:13:04Z</time>
      </trkpt>
      <trkpt lat="44.91024" lon="5.65873">
        <ele>676.91</ele>
        <time>2013-06-30T09:13:09Z</time>
      </trkpt>
      <trkpt lat="44.91042" lon="5.65897">
        <ele>679.31</ele>
        <time>2013-06-30T09:13:21Z</time>
      </trkpt>
      <trkpt lat="44.91055" lon="5.65915">
        <ele>681.23</ele>
        <time>2013-06-30T09:13:31Z</time>
      </trkpt>
      <trkpt lat="44.91068" lon="5.65935">
        <ele>683.63</ele>
        <time>2013-06-30T09:13:41Z</time>
      </trkpt>
      <trkpt lat="44.9107" lon="5.65938">
        <ele>684.12</ele>
        <time>2013-06-30T09:13:43Z</time>
      </trkpt>
      <trkpt lat="44.91071" lon="5.6594">
        <ele>684.12</ele>
        <time>2013-06-30T09:13:44Z</time>
      </trkpt>
      <trkpt lat="44.91072" lon="5.65942">
        <ele>684.6</ele>
        <time>2013-06-30T09:13:45Z</time>
      </trkpt>
      <trkpt lat="44.91073" lon="5.65944">
        <ele>685.08</ele>
        <time>2013-06-30T09:13:46Z</time>
      </trkpt>
      <trkpt lat="44.91075" lon="5.65945">
        <ele>685.08</ele>
        <time>2013-06-30T09:13:47Z</time>
      </trkpt>
      <trkpt lat="44.91077" lon="5.65947">
        <ele>685.56</ele>
        <time>2013-06-30T09:13:48Z</time>
      </trkpt>
      <trkpt lat="44.91078" lon="5.65949">
        <ele>684.6</ele>
        <time>2013-06-30T09:13:49Z</time>
      </trkpt>
      <trkpt lat="44.91079" lon="5.65952">
        <ele>685.56</ele>
        <time>2013-06-30T09:13:50Z</time>
      </trkpt>
      <trkpt lat="44.91081" lon="5.65954">
        <ele>685.56</ele>
        <time>2013-06-30T09:13:51Z</time>
      </trkpt>
      <trkpt lat="44.91089" lon="5.65966">
        <ele>687</ele>
        <time>2013-06-30T09:13:56Z</time>
      </trkpt>
      <trkpt lat="44.9109" lon="5.65969">
        <ele>686.52</ele>
        <time>2013-06-30T09:13:57Z</time>
      </trkpt>
      <trkpt lat="44.91091" lon="5.65971">
        <ele>687</ele>
        <time>2013-06-30T09:13:58Z</time>
      </trkpt>
      <trkpt lat="44.91093" lon="5.65974">
        <ele>687.48</ele>
        <time>2013-06-30T09:13:59Z</time>
      </trkpt>
      <trkpt lat="44.91094" lon="5.65976">
        <ele>687</ele>
        <time>2013-06-30T09:14:00Z</time>
      </trkpt>
      <trkpt lat="44.91096" lon="5.65979">
        <ele>687.96</ele>
        <time>2013-06-30T09:14:01Z</time>
      </trkpt>
      <trkpt lat="44.91097" lon="5.65982">
        <ele>687.48</ele>
        <time>2013-06-30T09:14:02Z</time>
      </trkpt>
      <trkpt lat="44.91099" lon="5.65984">
        <ele>687.96</ele>
        <time>2013-06-30T09:14:03Z</time>
      </trkpt>
      <trkpt lat="44.91101" lon="5.65987">
        <ele>687.96</ele>
        <time>2013-06-30T09:14:04Z</time>
      </trkpt>
      <trkpt lat="44.91102" lon="5.65989">
        <ele>688.44</ele>
        <time>2013-06-30T09:14:05Z</time>
      </trkpt>
      <trkpt lat="44.91104" lon="5.65991">
        <ele>688.44</ele>
        <time>2013-06-30T09:14:06Z</time>
      </trkpt>
      <trkpt lat="44.91105" lon="5.65994">
        <ele>688.92</ele>
        <time>2013-06-30T09:14:07Z</time>
      </trkpt>
      <trkpt lat="44.91106" lon="5.65997">
        <ele>688.44</ele>
        <time>2013-06-30T09:14:08Z</time>
      </trkpt>
      <trkpt lat="44.91106" lon="5.66001">
        <ele>688.92</ele>
        <time>2013-06-30T09:14:09Z</time>
      </trkpt>
      <trkpt lat="44.91107" lon="5.66009">
        <ele>689.4</ele>
        <time>2013-06-30T09:14:12Z</time>
      </trkpt>
      <trkpt lat="44.91108" lon="5.66011">
        <ele>689.88</ele>
        <time>2013-06-30T09:14:13Z</time>
      </trkpt>
      <trkpt lat="44.91108" lon="5.66014">
        <ele>690.36</ele>
        <time>2013-06-30T09:14:14Z</time>
      </trkpt>
      <trkpt lat="44.9109" lon="5.66037">
        <ele>692.29</ele>
        <time>2013-06-30T09:14:26Z</time>
      </trkpt>
      <trkpt lat="44.91073" lon="5.66043">
        <ele>694.21</ele>
        <time>2013-06-30T09:14:36Z</time>
      </trkpt>
      <trkpt lat="44.91065" lon="5.66048">
        <ele>695.65</ele>
        <time>2013-06-30T09:14:42Z</time>
      </trkpt>
      <trkpt lat="44.91049" lon="5.66055">
        <ele>697.57</ele>
        <time>2013-06-30T09:14:52Z</time>
      </trkpt>
      <trkpt lat="44.91046" lon="5.66055">
        <ele>697.57</ele>
        <time>2013-06-30T09:14:54Z</time>
      </trkpt>
      <trkpt lat="44.91025" lon="5.66064">
        <ele>699.98</ele>
        <time>2013-06-30T09:15:04Z</time>
      </trkpt>
      <trkpt lat="44.91005" lon="5.6608">
        <ele>701.42</ele>
        <time>2013-06-30T09:15:15Z</time>
      </trkpt>
      <trkpt lat="44.90991" lon="5.66101">
        <ele>703.82</ele>
        <time>2013-06-30T09:15:25Z</time>
      </trkpt>
      <trkpt lat="44.90991" lon="5.66104">
        <ele>703.82</ele>
        <time>2013-06-30T09:15:26Z</time>
      </trkpt>
      <trkpt lat="44.9099" lon="5.66106">
        <ele>704.78</ele>
        <time>2013-06-30T09:15:27Z</time>
      </trkpt>
      <trkpt lat="44.90988" lon="5.6611">
        <ele>704.78</ele>
        <time>2013-06-30T09:15:29Z</time>
      </trkpt>
      <trkpt lat="44.90987" lon="5.66111">
        <ele>704.3</ele>
        <time>2013-06-30T09:15:30Z</time>
      </trkpt>
      <trkpt lat="44.90972" lon="5.66138">
        <ele>707.19</ele>
        <time>2013-06-30T09:15:41Z</time>
      </trkpt>
      <trkpt lat="44.90956" lon="5.66167">
        <ele>709.11</ele>
        <time>2013-06-30T09:15:54Z</time>
      </trkpt>
      <trkpt lat="44.90949" lon="5.66179">
        <ele>710.07</ele>
        <time>2013-06-30T09:15:59Z</time>
      </trkpt>
      <trkpt lat="44.90945" lon="5.66181">
        <ele>710.07</ele>
        <time>2013-06-30T09:16:01Z</time>
      </trkpt>
      <trkpt lat="44.9094" lon="5.66178">
        <ele>710.55</ele>
        <time>2013-06-30T09:16:04Z</time>
      </trkpt>
      <trkpt lat="44.9094" lon="5.66165">
        <ele>711.03</ele>
        <time>2013-06-30T09:16:08Z</time>
      </trkpt>
      <trkpt lat="44.90956" lon="5.66141">
        <ele>713.44</ele>
        <time>2013-06-30T09:16:21Z</time>
      </trkpt>
      <trkpt lat="44.90965" lon="5.66121">
        <ele>715.84</ele>
        <time>2013-06-30T09:16:31Z</time>
      </trkpt>
      <trkpt lat="44.9097" lon="5.66101">
        <ele>718.24</ele>
        <time>2013-06-30T09:16:40Z</time>
      </trkpt>
      <trkpt lat="44.9097" lon="5.66094">
        <ele>718.24</ele>
        <time>2013-06-30T09:16:43Z</time>
      </trkpt>
      <trkpt lat="44.90971" lon="5.66077">
        <ele>720.16</ele>
        <time>2013-06-30T09:16:50Z</time>
      </trkpt>
      <trkpt lat="44.90975" lon="5.6605">
        <ele>723.05</ele>
        <time>2013-06-30T09:17:01Z</time>
      </trkpt>
      <trkpt lat="44.90982" lon="5.66018">
        <ele>724.97</ele>
        <time>2013-06-30T09:17:15Z</time>
      </trkpt>
      <trkpt lat="44.90984" lon="5.6599">
        <ele>728.34</ele>
        <time>2013-06-30T09:17:29Z</time>
      </trkpt>
      <trkpt lat="44.90975" lon="5.65982">
        <ele>729.3</ele>
        <time>2013-06-30T09:17:36Z</time>
      </trkpt>
      <trkpt lat="44.90972" lon="5.6598">
        <ele>730.74</ele>
        <time>2013-06-30T09:17:44Z</time>
      </trkpt>
      <trkpt lat="44.90969" lon="5.65975">
        <ele>731.22</ele>
        <time>2013-06-30T09:17:47Z</time>
      </trkpt>
      <trkpt lat="44.90968" lon="5.65969">
        <ele>732.66</ele>
        <time>2013-06-30T09:17:54Z</time>
      </trkpt>
      <trkpt lat="44.9095" lon="5.65952">
        <ele>735.55</ele>
        <time>2013-06-30T09:18:06Z</time>
      </trkpt>
      <trkpt lat="44.90946" lon="5.65945">
        <ele>736.99</ele>
        <time>2013-06-30T09:18:14Z</time>
      </trkpt>
      <trkpt lat="44.90933" lon="5.65931">
        <ele>739.39</ele>
        <time>2013-06-30T09:18:27Z</time>
      </trkpt>
      <trkpt lat="44.90925" lon="5.65926">
        <ele>742.76</ele>
        <time>2013-06-30T09:18:42Z</time>
      </trkpt>
      <trkpt lat="44.90922" lon="5.65923">
        <ele>743.72</ele>
        <time>2013-06-30T09:18:46Z</time>
      </trkpt>
      <trkpt lat="44.90914" lon="5.65917">
        <ele>744.2</ele>
        <time>2013-06-30T09:18:49Z</time>
      </trkpt>
      <trkpt lat="44.90893" lon="5.65902">
        <ele>746.6</ele>
        <time>2013-06-30T09:19:00Z</time>
      </trkpt>
      <trkpt lat="44.90869" lon="5.65884">
        <ele>749.49</ele>
        <time>2013-06-30T09:19:12Z</time>
      </trkpt>
      <trkpt lat="44.90867" lon="5.65882">
        <ele>749.49</ele>
        <time>2013-06-30T09:19:14Z</time>
      </trkpt>
      <trkpt lat="44.90845" lon="5.65861">
        <ele>752.85</ele>
        <time>2013-06-30T09:19:28Z</time>
      </trkpt>
      <trkpt lat="44.90823" lon="5.65842">
        <ele>755.25</ele>
        <time>2013-06-30T09:19:39Z</time>
      </trkpt>
      <trkpt lat="44.90803" lon="5.65827">
        <ele>758.14</ele>
        <time>2013-06-30T09:19:51Z</time>
      </trkpt>
      <trkpt lat="44.9078" lon="5.6581">
        <ele>761.5</ele>
        <time>2013-06-30T09:20:05Z</time>
      </trkpt>
      <trkpt lat="44.90762" lon="5.65795">
        <ele>763.42</ele>
        <time>2013-06-30T09:20:17Z</time>
      </trkpt>
      <trkpt lat="44.90737" lon="5.65779">
        <ele>765.83</ele>
        <time>2013-06-30T09:20:31Z</time>
      </trkpt>
      <trkpt lat="44.90712" lon="5.65775">
        <ele>769.19</ele>
        <time>2013-06-30T09:20:47Z</time>
      </trkpt>
      <trkpt lat="44.90691" lon="5.6578">
        <ele>771.11</ele>
        <time>2013-06-30T09:21:00Z</time>
      </trkpt>
      <trkpt lat="44.90683" lon="5.65786">
        <ele>772.08</ele>
        <time>2013-06-30T09:21:06Z</time>
      </trkpt>
      <trkpt lat="44.90662" lon="5.65798">
        <ele>774.48</ele>
        <time>2013-06-30T09:21:20Z</time>
      </trkpt>
      <trkpt lat="44.90638" lon="5.65789">
        <ele>775.44</ele>
        <time>2013-06-30T09:21:31Z</time>
      </trkpt>
      <trkpt lat="44.90629" lon="5.65771">
        <ele>777.36</ele>
        <time>2013-06-30T09:21:39Z</time>
      </trkpt>
      <trkpt lat="44.90611" lon="5.65751">
        <ele>779.29</ele>
        <time>2013-06-30T09:21:51Z</time>
      </trkpt>
      <trkpt lat="44.90608" lon="5.65746">
        <ele>780.25</ele>
        <time>2013-06-30T09:21:55Z</time>
      </trkpt>
      <trkpt lat="44.90603" lon="5.65741">
        <ele>781.69</ele>
        <time>2013-06-30T09:21:59Z</time>
      </trkpt>
      <trkpt lat="44.90597" lon="5.65736">
        <ele>782.65</ele>
        <time>2013-06-30T09:22:03Z</time>
      </trkpt>
      <trkpt lat="44.90582" lon="5.6572">
        <ele>785.05</ele>
        <time>2013-06-30T09:22:14Z</time>
      </trkpt>
      <trkpt lat="44.9058" lon="5.65719">
        <ele>785.53</ele>
        <time>2013-06-30T09:22:15Z</time>
      </trkpt>
      <trkpt lat="44.90562" lon="5.65698">
        <ele>788.42</ele>
        <time>2013-06-30T09:22:28Z</time>
      </trkpt>
      <trkpt lat="44.90542" lon="5.6568">
        <ele>790.34</ele>
        <time>2013-06-30T09:22:37Z</time>
      </trkpt>
      <trkpt lat="44.90517" lon="5.65673">
        <ele>793.71</ele>
        <time>2013-06-30T09:22:51Z</time>
      </trkpt>
      <trkpt lat="44.90492" lon="5.65668">
        <ele>796.59</ele>
        <time>2013-06-30T09:23:06Z</time>
      </trkpt>
      <trkpt lat="44.90472" lon="5.65675">
        <ele>798.51</ele>
        <time>2013-06-30T09:23:18Z</time>
      </trkpt>
      <trkpt lat="44.9047" lon="5.65675">
        <ele>798.99</ele>
        <time>2013-06-30T09:23:19Z</time>
      </trkpt>
      <trkpt lat="44.90447" lon="5.65685">
        <ele>801.88</ele>
        <time>2013-06-30T09:23:33Z</time>
      </trkpt>
      <trkpt lat="44.90424" lon="5.65694">
        <ele>804.76</ele>
        <time>2013-06-30T09:23:46Z</time>
      </trkpt>
      <trkpt lat="44.90401" lon="5.65696">
        <ele>807.64</ele>
        <time>2013-06-30T09:24:00Z</time>
      </trkpt>
      <trkpt lat="44.90379" lon="5.65703">
        <ele>809.57</ele>
        <time>2013-06-30T09:24:12Z</time>
      </trkpt>
      <trkpt lat="44.90357" lon="5.65711">
        <ele>812.45</ele>
        <time>2013-06-30T09:24:25Z</time>
      </trkpt>
      <trkpt lat="44.90354" lon="5.65712">
        <ele>813.41</ele>
        <time>2013-06-30T09:24:27Z</time>
      </trkpt>
      <trkpt lat="44.90333" lon="5.65723">
        <ele>814.85</ele>
        <time>2013-06-30T09:24:38Z</time>
      </trkpt>
      <trkpt lat="44.90328" lon="5.65726">
        <ele>815.34</ele>
        <time>2013-06-30T09:24:46Z</time>
      </trkpt>
      <trkpt lat="44.90325" lon="5.65731">
        <ele>814.85</ele>
        <time>2013-06-30T09:25:10Z</time>
      </trkpt>
      <trkpt lat="44.90324" lon="5.65736">
        <ele>815.82</ele>
        <time>2013-06-30T09:25:43Z</time>
      </trkpt>
      <trkpt lat="44.90324" lon="5.65735">
        <ele>815.82</ele>
        <time>2013-06-30T09:26:02Z</time>
      </trkpt>
      <trkpt lat="44.90322" lon="5.65734">
        <ele>815.82</ele>
        <time>2013-06-30T09:26:05Z</time>
      </trkpt>
      <trkpt lat="44.90312" lon="5.65744">
        <ele>817.26</ele>
        <time>2013-06-30T09:26:14Z</time>
      </trkpt>
      <trkpt lat="44.90304" lon="5.65751">
        <ele>817.26</ele>
        <time>2013-06-30T09:26:18Z</time>
      </trkpt>
      <trkpt lat="44.90296" lon="5.65755">
        <ele>817.74</ele>
        <time>2013-06-30T09:26:21Z</time>
      </trkpt>
      <trkpt lat="44.90282" lon="5.65745">
        <ele>818.22</ele>
        <time>2013-06-30T09:26:28Z</time>
      </trkpt>
      <trkpt lat="44.90279" lon="5.65737">
        <ele>818.7</ele>
        <time>2013-06-30T09:26:31Z</time>
      </trkpt>
      <trkpt lat="44.90278" lon="5.65727">
        <ele>819.18</ele>
        <time>2013-06-30T09:26:34Z</time>
      </trkpt>
      <trkpt lat="44.90264" lon="5.65699">
        <ele>818.22</ele>
        <time>2013-06-30T09:26:42Z</time>
      </trkpt>
      <trkpt lat="44.90256" lon="5.65685">
        <ele>817.74</ele>
        <time>2013-06-30T09:26:45Z</time>
      </trkpt>
      <trkpt lat="44.90224" lon="5.65616">
        <ele>813.89</ele>
        <time>2013-06-30T09:26:55Z</time>
      </trkpt>
      <trkpt lat="44.90219" lon="5.65608">
        <ele>813.41</ele>
        <time>2013-06-30T09:26:56Z</time>
      </trkpt>
      <trkpt lat="44.90202" lon="5.65584">
        <ele>811.97</ele>
        <time>2013-06-30T09:26:59Z</time>
      </trkpt>
      <trkpt lat="44.90178" lon="5.65547">
        <ele>808.61</ele>
        <time>2013-06-30T09:27:03Z</time>
      </trkpt>
      <trkpt lat="44.90171" lon="5.6554">
        <ele>808.13</ele>
        <time>2013-06-30T09:27:04Z</time>
      </trkpt>
      <trkpt lat="44.90163" lon="5.65533">
        <ele>806.68</ele>
        <time>2013-06-30T09:27:05Z</time>
      </trkpt>
      <trkpt lat="44.90154" lon="5.65527">
        <ele>806.2</ele>
        <time>2013-06-30T09:27:06Z</time>
      </trkpt>
      <trkpt lat="44.90144" lon="5.65524">
        <ele>804.76</ele>
        <time>2013-06-30T09:27:07Z</time>
      </trkpt>
      <trkpt lat="44.90134" lon="5.65522">
        <ele>804.28</ele>
        <time>2013-06-30T09:27:08Z</time>
      </trkpt>
      <trkpt lat="44.90124" lon="5.65521">
        <ele>804.28</ele>
        <time>2013-06-30T09:27:09Z</time>
      </trkpt>
      <trkpt lat="44.90114" lon="5.65518">
        <ele>803.32</ele>
        <time>2013-06-30T09:27:10Z</time>
      </trkpt>
      <trkpt lat="44.90104" lon="5.65513">
        <ele>801.88</ele>
        <time>2013-06-30T09:27:11Z</time>
      </trkpt>
      <trkpt lat="44.90095" lon="5.65505">
        <ele>800.92</ele>
        <time>2013-06-30T09:27:12Z</time>
      </trkpt>
      <trkpt lat="44.90087" lon="5.65496">
        <ele>799.95</ele>
        <time>2013-06-30T09:27:13Z</time>
      </trkpt>
      <trkpt lat="44.9008" lon="5.65486">
        <ele>800.44</ele>
        <time>2013-06-30T09:27:14Z</time>
      </trkpt>
      <trkpt lat="44.90074" lon="5.65475">
        <ele>800.44</ele>
        <time>2013-06-30T09:27:15Z</time>
      </trkpt>
      <trkpt lat="44.90069" lon="5.65463">
        <ele>800.44</ele>
        <time>2013-06-30T09:27:16Z</time>
      </trkpt>
      <trkpt lat="44.90065" lon="5.65452">
        <ele>800.44</ele>
        <time>2013-06-30T09:27:17Z</time>
      </trkpt>
      <trkpt lat="44.90061" lon="5.6544">
        <ele>799.95</ele>
        <time>2013-06-30T09:27:18Z</time>
      </trkpt>
      <trkpt lat="44.90057" lon="5.65429">
        <ele>800.92</ele>
        <time>2013-06-30T09:27:19Z</time>
      </trkpt>
      <trkpt lat="44.90053" lon="5.65419">
        <ele>801.4</ele>
        <time>2013-06-30T09:27:20Z</time>
      </trkpt>
      <trkpt lat="44.90048" lon="5.65409">
        <ele>800.92</ele>
        <time>2013-06-30T09:27:21Z</time>
      </trkpt>
      <trkpt lat="44.90043" lon="5.65401">
        <ele>801.4</ele>
        <time>2013-06-30T09:27:22Z</time>
      </trkpt>
      <trkpt lat="44.90038" lon="5.65393">
        <ele>800.92</ele>
        <time>2013-06-30T09:27:23Z</time>
      </trkpt>
      <trkpt lat="44.90032" lon="5.65387">
        <ele>801.4</ele>
        <time>2013-06-30T09:27:24Z</time>
      </trkpt>
      <trkpt lat="44.90026" lon="5.65382">
        <ele>801.88</ele>
        <time>2013-06-30T09:27:25Z</time>
      </trkpt>
      <trkpt lat="44.9002" lon="5.65378">
        <ele>801.4</ele>
        <time>2013-06-30T09:27:26Z</time>
      </trkpt>
      <trkpt lat="44.90001" lon="5.65369">
        <ele>801.88</ele>
        <time>2013-06-30T09:27:29Z</time>
      </trkpt>
      <trkpt lat="44.89995" lon="5.65368">
        <ele>801.4</ele>
        <time>2013-06-30T09:27:30Z</time>
      </trkpt>
      <trkpt lat="44.89989" lon="5.65368">
        <ele>801.4</ele>
        <time>2013-06-30T09:27:31Z</time>
      </trkpt>
      <trkpt lat="44.89983" lon="5.6537">
        <ele>801.88</ele>
        <time>2013-06-30T09:27:32Z</time>
      </trkpt>
      <trkpt lat="44.89977" lon="5.65371">
        <ele>801.4</ele>
        <time>2013-06-30T09:27:33Z</time>
      </trkpt>
      <trkpt lat="44.89947" lon="5.65376">
        <ele>801.4</ele>
        <time>2013-06-30T09:27:38Z</time>
      </trkpt>
      <trkpt lat="44.89941" lon="5.65375">
        <ele>801.4</ele>
        <time>2013-06-30T09:27:39Z</time>
      </trkpt>
      <trkpt lat="44.89935" lon="5.65374">
        <ele>800.92</ele>
        <time>2013-06-30T09:27:40Z</time>
      </trkpt>
      <trkpt lat="44.8993" lon="5.65371">
        <ele>801.4</ele>
        <time>2013-06-30T09:27:41Z</time>
      </trkpt>
      <trkpt lat="44.89924" lon="5.65368">
        <ele>801.4</ele>
        <time>2013-06-30T09:27:42Z</time>
      </trkpt>
      <trkpt lat="44.89871" lon="5.65337">
        <ele>801.4</ele>
        <time>2013-06-30T09:27:52Z</time>
      </trkpt>
      <trkpt lat="44.89797" lon="5.65293">
        <ele>801.88</ele>
        <time>2013-06-30T09:28:07Z</time>
      </trkpt>
      <trkpt lat="44.89784" lon="5.65281">
        <ele>801.4</ele>
        <time>2013-06-30T09:28:10Z</time>
      </trkpt>
      <trkpt lat="44.89781" lon="5.65275">
        <ele>800.92</ele>
        <time>2013-06-30T09:28:11Z</time>
      </trkpt>
      <trkpt lat="44.89779" lon="5.65269">
        <ele>800.92</ele>
        <time>2013-06-30T09:28:12Z</time>
      </trkpt>
      <trkpt lat="44.8978" lon="5.65262">
        <ele>801.4</ele>
        <time>2013-06-30T09:28:13Z</time>
      </trkpt>
      <trkpt lat="44.89782" lon="5.65257">
        <ele>800.92</ele>
        <time>2013-06-30T09:28:14Z</time>
      </trkpt>
      <trkpt lat="44.89786" lon="5.65252">
        <ele>800.92</ele>
        <time>2013-06-30T09:28:15Z</time>
      </trkpt>
      <trkpt lat="44.8979" lon="5.65249">
        <ele>800.92</ele>
        <time>2013-06-30T09:28:16Z</time>
      </trkpt>
      <trkpt lat="44.89798" lon="5.65241">
        <ele>800.92</ele>
        <time>2013-06-30T09:28:18Z</time>
      </trkpt>
      <trkpt lat="44.89801" lon="5.65237">
        <ele>801.4</ele>
        <time>2013-06-30T09:28:19Z</time>
      </trkpt>
      <trkpt lat="44.89824" lon="5.65195">
        <ele>800.44</ele>
        <time>2013-06-30T09:28:27Z</time>
      </trkpt>
      <trkpt lat="44.89827" lon="5.65189">
        <ele>800.44</ele>
        <time>2013-06-30T09:28:28Z</time>
      </trkpt>
      <trkpt lat="44.8983" lon="5.65183">
        <ele>799.95</ele>
        <time>2013-06-30T09:28:29Z</time>
      </trkpt>
      <trkpt lat="44.89832" lon="5.65177">
        <ele>799.47</ele>
        <time>2013-06-30T09:28:30Z</time>
      </trkpt>
      <trkpt lat="44.89835" lon="5.65172">
        <ele>799.95</ele>
        <time>2013-06-30T09:28:31Z</time>
      </trkpt>
      <trkpt lat="44.89839" lon="5.6516">
        <ele>799.95</ele>
        <time>2013-06-30T09:28:33Z</time>
      </trkpt>
      <trkpt lat="44.89841" lon="5.65154">
        <ele>799.95</ele>
        <time>2013-06-30T09:28:34Z</time>
      </trkpt>
      <trkpt lat="44.89852" lon="5.65125">
        <ele>800.44</ele>
        <time>2013-06-30T09:28:39Z</time>
      </trkpt>
      <trkpt lat="44.89855" lon="5.65121">
        <ele>799.95</ele>
        <time>2013-06-30T09:28:40Z</time>
      </trkpt>
      <trkpt lat="44.89859" lon="5.6511">
        <ele>799.47</ele>
        <time>2013-06-30T09:28:42Z</time>
      </trkpt>
      <trkpt lat="44.8986" lon="5.65103">
        <ele>799.95</ele>
        <time>2013-06-30T09:28:43Z</time>
      </trkpt>
      <trkpt lat="44.89859" lon="5.65097">
        <ele>800.44</ele>
        <time>2013-06-30T09:28:44Z</time>
      </trkpt>
      <trkpt lat="44.89858" lon="5.65092">
        <ele>800.92</ele>
        <time>2013-06-30T09:28:45Z</time>
      </trkpt>
      <trkpt lat="44.89858" lon="5.65088">
        <ele>800.92</ele>
        <time>2013-06-30T09:28:46Z</time>
      </trkpt>
      <trkpt lat="44.89858" lon="5.65084">
        <ele>801.4</ele>
        <time>2013-06-30T09:28:47Z</time>
      </trkpt>
      <trkpt lat="44.89859" lon="5.65047">
        <ele>804.76</ele>
        <time>2013-06-30T09:28:57Z</time>
      </trkpt>
      <trkpt lat="44.8986" lon="5.65">
        <ele>807.64</ele>
        <time>2013-06-30T09:29:10Z</time>
      </trkpt>
      <trkpt lat="44.89861" lon="5.64952">
        <ele>811.01</ele>
        <time>2013-06-30T09:29:24Z</time>
      </trkpt>
      <trkpt lat="44.89864" lon="5.64897">
        <ele>812.93</ele>
        <time>2013-06-30T09:29:38Z</time>
      </trkpt>
      <trkpt lat="44.8987" lon="5.64839">
        <ele>814.85</ele>
        <time>2013-06-30T09:29:52Z</time>
      </trkpt>
      <trkpt lat="44.89891" lon="5.64797">
        <ele>817.26</ele>
        <time>2013-06-30T09:30:05Z</time>
      </trkpt>
      <trkpt lat="44.89918" lon="5.64782">
        <ele>820.62</ele>
        <time>2013-06-30T09:30:18Z</time>
      </trkpt>
      <trkpt lat="44.89943" lon="5.64785">
        <ele>823.03</ele>
        <time>2013-06-30T09:30:31Z</time>
      </trkpt>
      <trkpt lat="44.8996" lon="5.64807">
        <ele>825.91</ele>
        <time>2013-06-30T09:30:43Z</time>
      </trkpt>
      <trkpt lat="44.89982" lon="5.64845">
        <ele>828.31</ele>
        <time>2013-06-30T09:30:59Z</time>
      </trkpt>
      <trkpt lat="44.90006" lon="5.64872">
        <ele>831.2</ele>
        <time>2013-06-30T09:31:14Z</time>
      </trkpt>
      <trkpt lat="44.90036" lon="5.64895">
        <ele>834.08</ele>
        <time>2013-06-30T09:31:30Z</time>
      </trkpt>
      <trkpt lat="44.90062" lon="5.64905">
        <ele>836.96</ele>
        <time>2013-06-30T09:31:44Z</time>
      </trkpt>
      <trkpt lat="44.9008" lon="5.6491">
        <ele>838.89</ele>
        <time>2013-06-30T09:31:53Z</time>
      </trkpt>
      <trkpt lat="44.90082" lon="5.64911">
        <ele>839.37</ele>
        <time>2013-06-30T09:31:54Z</time>
      </trkpt>
      <trkpt lat="44.90083" lon="5.64911">
        <ele>839.37</ele>
        <time>2013-06-30T09:31:55Z</time>
      </trkpt>
      <trkpt lat="44.9011" lon="5.64918">
        <ele>841.77</ele>
        <time>2013-06-30T09:32:08Z</time>
      </trkpt>
      <trkpt lat="44.90137" lon="5.64928">
        <ele>844.18</ele>
        <time>2013-06-30T09:32:20Z</time>
      </trkpt>
      <trkpt lat="44.90162" lon="5.64936">
        <ele>846.58</ele>
        <time>2013-06-30T09:32:34Z</time>
      </trkpt>
      <trkpt lat="44.90187" lon="5.64934">
        <ele>849.46</ele>
        <time>2013-06-30T09:32:46Z</time>
      </trkpt>
      <trkpt lat="44.90188" lon="5.64934">
        <ele>848.98</ele>
        <time>2013-06-30T09:32:47Z</time>
      </trkpt>
      <trkpt lat="44.9019" lon="5.64934">
        <ele>848.98</ele>
        <time>2013-06-30T09:32:48Z</time>
      </trkpt>
      <trkpt lat="44.90192" lon="5.64934">
        <ele>848.98</ele>
        <time>2013-06-30T09:32:49Z</time>
      </trkpt>
      <trkpt lat="44.90194" lon="5.64933">
        <ele>849.46</ele>
        <time>2013-06-30T09:32:50Z</time>
      </trkpt>
      <trkpt lat="44.90213" lon="5.6493">
        <ele>851.87</ele>
        <time>2013-06-30T09:33:01Z</time>
      </trkpt>
      <trkpt lat="44.90216" lon="5.64929">
        <ele>852.35</ele>
        <time>2013-06-30T09:33:02Z</time>
      </trkpt>
      <trkpt lat="44.90236" lon="5.64916">
        <ele>853.79</ele>
        <time>2013-06-30T09:33:10Z</time>
      </trkpt>
      <trkpt lat="44.90237" lon="5.64913">
        <ele>854.27</ele>
        <time>2013-06-30T09:33:11Z</time>
      </trkpt>
      <trkpt lat="44.90237" lon="5.6491">
        <ele>853.79</ele>
        <time>2013-06-30T09:33:12Z</time>
      </trkpt>
      <trkpt lat="44.90236" lon="5.64907">
        <ele>854.75</ele>
        <time>2013-06-30T09:33:13Z</time>
      </trkpt>
      <trkpt lat="44.90235" lon="5.64906">
        <ele>854.75</ele>
        <time>2013-06-30T09:33:14Z</time>
      </trkpt>
      <trkpt lat="44.90233" lon="5.64905">
        <ele>854.75</ele>
        <time>2013-06-30T09:33:15Z</time>
      </trkpt>
      <trkpt lat="44.90231" lon="5.64905">
        <ele>854.75</ele>
        <time>2013-06-30T09:33:16Z</time>
      </trkpt>
      <trkpt lat="44.90229" lon="5.64905">
        <ele>855.23</ele>
        <time>2013-06-30T09:33:17Z</time>
      </trkpt>
      <trkpt lat="44.90227" lon="5.64905">
        <ele>854.75</ele>
        <time>2013-06-30T09:33:18Z</time>
      </trkpt>
      <trkpt lat="44.90214" lon="5.64909">
        <ele>855.71</ele>
        <time>2013-06-30T09:33:25Z</time>
      </trkpt>
      <trkpt lat="44.90212" lon="5.64909">
        <ele>856.19</ele>
        <time>2013-06-30T09:33:26Z</time>
      </trkpt>
      <trkpt lat="44.90178" lon="5.64905">
        <ele>858.59</ele>
        <time>2013-06-30T09:33:41Z</time>
      </trkpt>
      <trkpt lat="44.90167" lon="5.649">
        <ele>860.52</ele>
        <time>2013-06-30T09:33:49Z</time>
      </trkpt>
      <trkpt lat="44.90152" lon="5.6489">
        <ele>861.96</ele>
        <time>2013-06-30T09:34:00Z</time>
      </trkpt>
      <trkpt lat="44.90133" lon="5.64876">
        <ele>864.36</ele>
        <time>2013-06-30T09:34:09Z</time>
      </trkpt>
      <trkpt lat="44.90107" lon="5.64854">
        <ele>866.77</ele>
        <time>2013-06-30T09:34:22Z</time>
      </trkpt>
      <trkpt lat="44.90092" lon="5.64838">
        <ele>868.69</ele>
        <time>2013-06-30T09:34:30Z</time>
      </trkpt>
      <trkpt lat="44.9009" lon="5.64837">
        <ele>868.69</ele>
        <time>2013-06-30T09:34:31Z</time>
      </trkpt>
      <trkpt lat="44.90088" lon="5.64835">
        <ele>869.17</ele>
        <time>2013-06-30T09:34:32Z</time>
      </trkpt>
      <trkpt lat="44.90086" lon="5.64833">
        <ele>869.17</ele>
        <time>2013-06-30T09:34:33Z</time>
      </trkpt>
      <trkpt lat="44.90085" lon="5.64831">
        <ele>869.17</ele>
        <time>2013-06-30T09:34:34Z</time>
      </trkpt>
      <trkpt lat="44.90068" lon="5.64803">
        <ele>871.09</ele>
        <time>2013-06-30T09:34:47Z</time>
      </trkpt>
      <trkpt lat="44.90053" lon="5.6477">
        <ele>873.98</ele>
        <time>2013-06-30T09:35:00Z</time>
      </trkpt>
      <trkpt lat="44.90043" lon="5.64729">
        <ele>877.34</ele>
        <time>2013-06-30T09:35:15Z</time>
      </trkpt>
      <trkpt lat="44.90033" lon="5.64695">
        <ele>880.22</ele>
        <time>2013-06-30T09:35:29Z</time>
      </trkpt>
      <trkpt lat="44.90018" lon="5.6467">
        <ele>881.67</ele>
        <time>2013-06-30T09:35:40Z</time>
      </trkpt>
      <trkpt lat="44.90004" lon="5.64629">
        <ele>885.03</ele>
        <time>2013-06-30T09:35:55Z</time>
      </trkpt>
      <trkpt lat="44.89999" lon="5.6461">
        <ele>885.99</ele>
        <time>2013-06-30T09:36:02Z</time>
      </trkpt>
      <trkpt lat="44.89998" lon="5.64607">
        <ele>886.47</ele>
        <time>2013-06-30T09:36:03Z</time>
      </trkpt>
      <trkpt lat="44.89997" lon="5.64604">
        <ele>886.95</ele>
        <time>2013-06-30T09:36:04Z</time>
      </trkpt>
      <trkpt lat="44.89996" lon="5.64601">
        <ele>886.47</ele>
        <time>2013-06-30T09:36:05Z</time>
      </trkpt>
      <trkpt lat="44.89995" lon="5.64598">
        <ele>887.43</ele>
        <time>2013-06-30T09:36:06Z</time>
      </trkpt>
      <trkpt lat="44.89995" lon="5.64596">
        <ele>886.95</ele>
        <time>2013-06-30T09:36:07Z</time>
      </trkpt>
      <trkpt lat="44.89994" lon="5.64593">
        <ele>887.43</ele>
        <time>2013-06-30T09:36:08Z</time>
      </trkpt>
      <trkpt lat="44.89993" lon="5.6459">
        <ele>887.43</ele>
        <time>2013-06-30T09:36:09Z</time>
      </trkpt>
      <trkpt lat="44.89992" lon="5.64587">
        <ele>887.43</ele>
        <time>2013-06-30T09:36:10Z</time>
      </trkpt>
      <trkpt lat="44.89991" lon="5.64584">
        <ele>888.4</ele>
        <time>2013-06-30T09:36:11Z</time>
      </trkpt>
      <trkpt lat="44.8999" lon="5.64581">
        <ele>887.91</ele>
        <time>2013-06-30T09:36:12Z</time>
      </trkpt>
      <trkpt lat="44.8999" lon="5.64579">
        <ele>888.4</ele>
        <time>2013-06-30T09:36:13Z</time>
      </trkpt>
      <trkpt lat="44.89989" lon="5.64576">
        <ele>888.4</ele>
        <time>2013-06-30T09:36:14Z</time>
      </trkpt>
      <trkpt lat="44.89988" lon="5.64573">
        <ele>888.4</ele>
        <time>2013-06-30T09:36:15Z</time>
      </trkpt>
      <trkpt lat="44.89988" lon="5.6457">
        <ele>888.88</ele>
        <time>2013-06-30T09:36:16Z</time>
      </trkpt>
      <trkpt lat="44.89977" lon="5.64527">
        <ele>891.76</ele>
        <time>2013-06-30T09:36:31Z</time>
      </trkpt>
      <trkpt lat="44.89972" lon="5.64478">
        <ele>894.64</ele>
        <time>2013-06-30T09:36:47Z</time>
      </trkpt>
      <trkpt lat="44.89981" lon="5.64441">
        <ele>896.57</ele>
        <time>2013-06-30T09:37:00Z</time>
      </trkpt>
      <trkpt lat="44.89997" lon="5.64416">
        <ele>898.97</ele>
        <time>2013-06-30T09:37:11Z</time>
      </trkpt>
      <trkpt lat="44.90019" lon="5.64396">
        <ele>901.37</ele>
        <time>2013-06-30T09:37:23Z</time>
      </trkpt>
      <trkpt lat="44.90025" lon="5.64364">
        <ele>904.26</ele>
        <time>2013-06-30T09:37:35Z</time>
      </trkpt>
      <trkpt lat="44.9001" lon="5.64342">
        <ele>906.18</ele>
        <time>2013-06-30T09:37:46Z</time>
      </trkpt>
      <trkpt lat="44.89997" lon="5.64305">
        <ele>908.58</ele>
        <time>2013-06-30T09:37:59Z</time>
      </trkpt>
      <trkpt lat="44.89991" lon="5.64257">
        <ele>911.47</ele>
        <time>2013-06-30T09:38:14Z</time>
      </trkpt>
      <trkpt lat="44.89996" lon="5.64213">
        <ele>914.35</ele>
        <time>2013-06-30T09:38:29Z</time>
      </trkpt>
      <trkpt lat="44.89991" lon="5.64189">
        <ele>915.79</ele>
        <time>2013-06-30T09:38:38Z</time>
      </trkpt>
      <trkpt lat="44.8999" lon="5.64186">
        <ele>916.75</ele>
        <time>2013-06-30T09:38:39Z</time>
      </trkpt>
      <trkpt lat="44.89988" lon="5.64184">
        <ele>916.75</ele>
        <time>2013-06-30T09:38:40Z</time>
      </trkpt>
      <trkpt lat="44.89966" lon="5.6415">
        <ele>919.64</ele>
        <time>2013-06-30T09:38:54Z</time>
      </trkpt>
      <trkpt lat="44.89943" lon="5.64121">
        <ele>922.04</ele>
        <time>2013-06-30T09:39:08Z</time>
      </trkpt>
      <trkpt lat="44.89928" lon="5.64096">
        <ele>923.48</ele>
        <time>2013-06-30T09:39:20Z</time>
      </trkpt>
      <trkpt lat="44.89927" lon="5.64094">
        <ele>923.96</ele>
        <time>2013-06-30T09:39:21Z</time>
      </trkpt>
      <trkpt lat="44.89911" lon="5.64064">
        <ele>926.37</ele>
        <time>2013-06-30T09:39:34Z</time>
      </trkpt>
      <trkpt lat="44.8991" lon="5.64062">
        <ele>926.85</ele>
        <time>2013-06-30T09:39:35Z</time>
      </trkpt>
      <trkpt lat="44.89909" lon="5.64059">
        <ele>926.37</ele>
        <time>2013-06-30T09:39:36Z</time>
      </trkpt>
      <trkpt lat="44.89908" lon="5.64057">
        <ele>926.85</ele>
        <time>2013-06-30T09:39:37Z</time>
      </trkpt>
      <trkpt lat="44.8989" lon="5.64031">
        <ele>928.77</ele>
        <time>2013-06-30T09:39:49Z</time>
      </trkpt>
      <trkpt lat="44.89865" lon="5.64008">
        <ele>931.17</ele>
        <time>2013-06-30T09:40:02Z</time>
      </trkpt>
      <trkpt lat="44.89842" lon="5.63988">
        <ele>934.06</ele>
        <time>2013-06-30T09:40:13Z</time>
      </trkpt>
      <trkpt lat="44.89811" lon="5.63961">
        <ele>937.42</ele>
        <time>2013-06-30T09:40:29Z</time>
      </trkpt>
      <trkpt lat="44.89778" lon="5.63945">
        <ele>940.31</ele>
        <time>2013-06-30T09:40:44Z</time>
      </trkpt>
      <trkpt lat="44.89742" lon="5.6393">
        <ele>943.19</ele>
        <time>2013-06-30T09:41:01Z</time>
      </trkpt>
      <trkpt lat="44.89723" lon="5.6392">
        <ele>944.63</ele>
        <time>2013-06-30T09:41:11Z</time>
      </trkpt>
      <trkpt lat="44.89722" lon="5.63921">
        <ele>944.63</ele>
        <time>2013-06-30T09:41:12Z</time>
      </trkpt>
      <trkpt lat="44.89721" lon="5.63924">
        <ele>944.63</ele>
        <time>2013-06-30T09:41:13Z</time>
      </trkpt>
      <trkpt lat="44.8972" lon="5.63926">
        <ele>944.63</ele>
        <time>2013-06-30T09:41:14Z</time>
      </trkpt>
      <trkpt lat="44.89719" lon="5.63929">
        <ele>944.63</ele>
        <time>2013-06-30T09:41:15Z</time>
      </trkpt>
      <trkpt lat="44.89718" lon="5.63932">
        <ele>944.63</ele>
        <time>2013-06-30T09:41:16Z</time>
      </trkpt>
      <trkpt lat="44.89718" lon="5.63934">
        <ele>944.63</ele>
        <time>2013-06-30T09:41:17Z</time>
      </trkpt>
      <trkpt lat="44.89718" lon="5.63937">
        <ele>944.63</ele>
        <time>2013-06-30T09:41:18Z</time>
      </trkpt>
      <trkpt lat="44.89718" lon="5.63956">
        <ele>943.19</ele>
        <time>2013-06-30T09:41:23Z</time>
      </trkpt>
      <trkpt lat="44.89721" lon="5.63968">
        <ele>942.23</ele>
        <time>2013-06-30T09:41:25Z</time>
      </trkpt>
      <trkpt lat="44.89725" lon="5.6398">
        <ele>940.79</ele>
        <time>2013-06-30T09:41:27Z</time>
      </trkpt>
      <trkpt lat="44.89731" lon="5.64016">
        <ele>937.9</ele>
        <time>2013-06-30T09:41:31Z</time>
      </trkpt>
      <trkpt lat="44.89735" lon="5.64036">
        <ele>936.94</ele>
        <time>2013-06-30T09:41:33Z</time>
      </trkpt>
      <trkpt lat="44.89737" lon="5.64047">
        <ele>936.46</ele>
        <time>2013-06-30T09:41:34Z</time>
      </trkpt>
      <trkpt lat="44.89745" lon="5.64087">
        <ele>935.02</ele>
        <time>2013-06-30T09:41:38Z</time>
      </trkpt>
      <trkpt lat="44.89745" lon="5.64097">
        <ele>935.02</ele>
        <time>2013-06-30T09:41:39Z</time>
      </trkpt>
      <trkpt lat="44.89744" lon="5.64106">
        <ele>934.54</ele>
        <time>2013-06-30T09:41:40Z</time>
      </trkpt>
      <trkpt lat="44.89743" lon="5.64115">
        <ele>934.06</ele>
        <time>2013-06-30T09:41:41Z</time>
      </trkpt>
      <trkpt lat="44.89744" lon="5.64125">
        <ele>933.58</ele>
        <time>2013-06-30T09:41:42Z</time>
      </trkpt>
      <trkpt lat="44.89745" lon="5.64135">
        <ele>933.1</ele>
        <time>2013-06-30T09:41:43Z</time>
      </trkpt>
      <trkpt lat="44.89746" lon="5.64146">
        <ele>933.1</ele>
        <time>2013-06-30T09:41:44Z</time>
      </trkpt>
      <trkpt lat="44.89748" lon="5.64157">
        <ele>931.65</ele>
        <time>2013-06-30T09:41:45Z</time>
      </trkpt>
      <trkpt lat="44.89749" lon="5.64168">
        <ele>931.17</ele>
        <time>2013-06-30T09:41:46Z</time>
      </trkpt>
      <trkpt lat="44.89749" lon="5.64179">
        <ele>930.69</ele>
        <time>2013-06-30T09:41:47Z</time>
      </trkpt>
      <trkpt lat="44.89749" lon="5.64189">
        <ele>929.73</ele>
        <time>2013-06-30T09:41:48Z</time>
      </trkpt>
      <trkpt lat="44.89748" lon="5.642">
        <ele>928.77</ele>
        <time>2013-06-30T09:41:49Z</time>
      </trkpt>
      <trkpt lat="44.89743" lon="5.64249">
        <ele>925.41</ele>
        <time>2013-06-30T09:41:54Z</time>
      </trkpt>
      <trkpt lat="44.89741" lon="5.64258">
        <ele>924.93</ele>
        <time>2013-06-30T09:41:55Z</time>
      </trkpt>
      <trkpt lat="44.89739" lon="5.64267">
        <ele>924.93</ele>
        <time>2013-06-30T09:41:56Z</time>
      </trkpt>
      <trkpt lat="44.89732" lon="5.6429">
        <ele>923.48</ele>
        <time>2013-06-30T09:41:58Z</time>
      </trkpt>
      <trkpt lat="44.89726" lon="5.64304">
        <ele>923</ele>
        <time>2013-06-30T09:41:59Z</time>
      </trkpt>
      <trkpt lat="44.89721" lon="5.64317">
        <ele>922.52</ele>
        <time>2013-06-30T09:42:00Z</time>
      </trkpt>
      <trkpt lat="44.89707" lon="5.64355">
        <ele>921.56</ele>
        <time>2013-06-30T09:42:03Z</time>
      </trkpt>
      <trkpt lat="44.89704" lon="5.64366">
        <ele>920.6</ele>
        <time>2013-06-30T09:42:04Z</time>
      </trkpt>
      <trkpt lat="44.89671" lon="5.64444">
        <ele>916.75</ele>
        <time>2013-06-30T09:42:11Z</time>
      </trkpt>
      <trkpt lat="44.89665" lon="5.64453">
        <ele>915.79</ele>
        <time>2013-06-30T09:42:12Z</time>
      </trkpt>
      <trkpt lat="44.89659" lon="5.64462">
        <ele>915.31</ele>
        <time>2013-06-30T09:42:13Z</time>
      </trkpt>
      <trkpt lat="44.89652" lon="5.6447">
        <ele>915.79</ele>
        <time>2013-06-30T09:42:14Z</time>
      </trkpt>
      <trkpt lat="44.89634" lon="5.64488">
        <ele>916.27</ele>
        <time>2013-06-30T09:42:17Z</time>
      </trkpt>
      <trkpt lat="44.89629" lon="5.64496">
        <ele>915.79</ele>
        <time>2013-06-30T09:42:18Z</time>
      </trkpt>
      <trkpt lat="44.89626" lon="5.64505">
        <ele>916.27</ele>
        <time>2013-06-30T09:42:19Z</time>
      </trkpt>
      <trkpt lat="44.89625" lon="5.64514">
        <ele>915.79</ele>
        <time>2013-06-30T09:42:20Z</time>
      </trkpt>
      <trkpt lat="44.89625" lon="5.64524">
        <ele>915.79</ele>
        <time>2013-06-30T09:42:21Z</time>
      </trkpt>
      <trkpt lat="44.89627" lon="5.64533">
        <ele>916.27</ele>
        <time>2013-06-30T09:42:22Z</time>
      </trkpt>
      <trkpt lat="44.89629" lon="5.64542">
        <ele>916.27</ele>
        <time>2013-06-30T09:42:23Z</time>
      </trkpt>
      <trkpt lat="44.89631" lon="5.6455">
        <ele>916.27</ele>
        <time>2013-06-30T09:42:24Z</time>
      </trkpt>
      <trkpt lat="44.89633" lon="5.64558">
        <ele>916.27</ele>
        <time>2013-06-30T09:42:25Z</time>
      </trkpt>
      <trkpt lat="44.89635" lon="5.64566">
        <ele>916.27</ele>
        <time>2013-06-30T09:42:26Z</time>
      </trkpt>
      <trkpt lat="44.89637" lon="5.64572">
        <ele>915.79</ele>
        <time>2013-06-30T09:42:27Z</time>
      </trkpt>
      <trkpt lat="44.89639" lon="5.64578">
        <ele>915.79</ele>
        <time>2013-06-30T09:42:28Z</time>
      </trkpt>
      <trkpt lat="44.89641" lon="5.64584">
        <ele>916.27</ele>
        <time>2013-06-30T09:42:29Z</time>
      </trkpt>
      <trkpt lat="44.89644" lon="5.6459">
        <ele>916.75</ele>
        <time>2013-06-30T09:42:30Z</time>
      </trkpt>
      <trkpt lat="44.89648" lon="5.64603">
        <ele>916.75</ele>
        <time>2013-06-30T09:42:32Z</time>
      </trkpt>
      <trkpt lat="44.8965" lon="5.6461">
        <ele>916.27</ele>
        <time>2013-06-30T09:42:33Z</time>
      </trkpt>
      <trkpt lat="44.89656" lon="5.6463">
        <ele>916.27</ele>
        <time>2013-06-30T09:42:36Z</time>
      </trkpt>
      <trkpt lat="44.89657" lon="5.64636">
        <ele>917.24</ele>
        <time>2013-06-30T09:42:37Z</time>
      </trkpt>
      <trkpt lat="44.89659" lon="5.64642">
        <ele>916.75</ele>
        <time>2013-06-30T09:42:38Z</time>
      </trkpt>
      <trkpt lat="44.8966" lon="5.64687">
        <ele>916.75</ele>
        <time>2013-06-30T09:42:47Z</time>
      </trkpt>
      <trkpt lat="44.89653" lon="5.64708">
        <ele>917.24</ele>
        <time>2013-06-30T09:42:51Z</time>
      </trkpt>
      <trkpt lat="44.89651" lon="5.64713">
        <ele>917.24</ele>
        <time>2013-06-30T09:42:52Z</time>
      </trkpt>
      <trkpt lat="44.8965" lon="5.64719">
        <ele>917.24</ele>
        <time>2013-06-30T09:42:53Z</time>
      </trkpt>
      <trkpt lat="44.89648" lon="5.64724">
        <ele>917.72</ele>
        <time>2013-06-30T09:42:54Z</time>
      </trkpt>
      <trkpt lat="44.89648" lon="5.6473">
        <ele>916.75</ele>
        <time>2013-06-30T09:42:55Z</time>
      </trkpt>
      <trkpt lat="44.89648" lon="5.64735">
        <ele>917.24</ele>
        <time>2013-06-30T09:42:56Z</time>
      </trkpt>
      <trkpt lat="44.89649" lon="5.64741">
        <ele>917.72</ele>
        <time>2013-06-30T09:42:57Z</time>
      </trkpt>
      <trkpt lat="44.8965" lon="5.64747">
        <ele>917.72</ele>
        <time>2013-06-30T09:42:58Z</time>
      </trkpt>
      <trkpt lat="44.89652" lon="5.64754">
        <ele>918.2</ele>
        <time>2013-06-30T09:42:59Z</time>
      </trkpt>
      <trkpt lat="44.89656" lon="5.64773">
        <ele>917.72</ele>
        <time>2013-06-30T09:43:02Z</time>
      </trkpt>
      <trkpt lat="44.89657" lon="5.64778">
        <ele>917.72</ele>
        <time>2013-06-30T09:43:03Z</time>
      </trkpt>
      <trkpt lat="44.89659" lon="5.64782">
        <ele>917.72</ele>
        <time>2013-06-30T09:43:04Z</time>
      </trkpt>
      <trkpt lat="44.89664" lon="5.648">
        <ele>917.72</ele>
        <time>2013-06-30T09:43:08Z</time>
      </trkpt>
      <trkpt lat="44.89664" lon="5.64803">
        <ele>918.68</ele>
        <time>2013-06-30T09:43:09Z</time>
      </trkpt>
      <trkpt lat="44.8966" lon="5.64816">
        <ele>918.68</ele>
        <time>2013-06-30T09:43:21Z</time>
      </trkpt>
      <trkpt lat="44.89659" lon="5.6482">
        <ele>918.2</ele>
        <time>2013-06-30T09:43:46Z</time>
      </trkpt>
      <trkpt lat="44.89657" lon="5.64821">
        <ele>918.68</ele>
        <time>2013-06-30T09:44:08Z</time>
      </trkpt>
      <trkpt lat="44.89658" lon="5.64839">
        <ele>918.68</ele>
        <time>2013-06-30T09:44:19Z</time>
      </trkpt>
      <trkpt lat="44.89657" lon="5.64843">
        <ele>918.68</ele>
        <time>2013-06-30T09:44:20Z</time>
      </trkpt>
      <trkpt lat="44.89657" lon="5.64848">
        <ele>918.68</ele>
        <time>2013-06-30T09:44:21Z</time>
      </trkpt>
      <trkpt lat="44.89656" lon="5.64853">
        <ele>919.16</ele>
        <time>2013-06-30T09:44:22Z</time>
      </trkpt>
      <trkpt lat="44.89656" lon="5.64857">
        <ele>918.68</ele>
        <time>2013-06-30T09:44:23Z</time>
      </trkpt>
      <trkpt lat="44.89655" lon="5.64862">
        <ele>919.16</ele>
        <time>2013-06-30T09:44:24Z</time>
      </trkpt>
      <trkpt lat="44.89633" lon="5.64913">
        <ele>919.16</ele>
        <time>2013-06-30T09:44:34Z</time>
      </trkpt>
      <trkpt lat="44.89594" lon="5.6493">
        <ele>919.16</ele>
        <time>2013-06-30T09:44:45Z</time>
      </trkpt>
      <trkpt lat="44.89536" lon="5.64937">
        <ele>919.64</ele>
        <time>2013-06-30T09:45:00Z</time>
      </trkpt>
      <trkpt lat="44.89531" lon="5.64937">
        <ele>919.16</ele>
        <time>2013-06-30T09:45:01Z</time>
      </trkpt>
      <trkpt lat="44.89527" lon="5.64937">
        <ele>919.64</ele>
        <time>2013-06-30T09:45:02Z</time>
      </trkpt>
      <trkpt lat="44.89522" lon="5.64938">
        <ele>919.64</ele>
        <time>2013-06-30T09:45:03Z</time>
      </trkpt>
      <trkpt lat="44.89479" lon="5.64933">
        <ele>921.08</ele>
        <time>2013-06-30T09:45:15Z</time>
      </trkpt>
      <trkpt lat="44.89474" lon="5.64933">
        <ele>920.6</ele>
        <time>2013-06-30T09:45:17Z</time>
      </trkpt>
      <trkpt lat="44.89469" lon="5.64931">
        <ele>921.08</ele>
        <time>2013-06-30T09:45:19Z</time>
      </trkpt>
      <trkpt lat="44.89468" lon="5.6493">
        <ele>922.04</ele>
        <time>2013-06-30T09:45:20Z</time>
      </trkpt>
      <trkpt lat="44.89467" lon="5.64928">
        <ele>922.04</ele>
        <time>2013-06-30T09:45:21Z</time>
      </trkpt>
      <trkpt lat="44.89465" lon="5.64927">
        <ele>922.52</ele>
        <time>2013-06-30T09:45:22Z</time>
      </trkpt>
      <trkpt lat="44.89463" lon="5.64927">
        <ele>923</ele>
        <time>2013-06-30T09:45:23Z</time>
      </trkpt>
      <trkpt lat="44.89461" lon="5.64928">
        <ele>923</ele>
        <time>2013-06-30T09:45:24Z</time>
      </trkpt>
      <trkpt lat="44.89459" lon="5.64927">
        <ele>923</ele>
        <time>2013-06-30T09:45:25Z</time>
      </trkpt>
      <trkpt lat="44.89457" lon="5.64927">
        <ele>923.48</ele>
        <time>2013-06-30T09:45:26Z</time>
      </trkpt>
      <trkpt lat="44.8943" lon="5.64919">
        <ele>926.37</ele>
        <time>2013-06-30T09:45:42Z</time>
      </trkpt>
      <trkpt lat="44.89407" lon="5.64917">
        <ele>929.25</ele>
        <time>2013-06-30T09:45:58Z</time>
      </trkpt>
      <trkpt lat="44.89384" lon="5.64917">
        <ele>932.62</ele>
        <time>2013-06-30T09:46:12Z</time>
      </trkpt>
      <trkpt lat="44.89363" lon="5.64916">
        <ele>935.02</ele>
        <time>2013-06-30T09:46:26Z</time>
      </trkpt>
      <trkpt lat="44.89344" lon="5.64915">
        <ele>937.9</ele>
        <time>2013-06-30T09:46:38Z</time>
      </trkpt>
      <trkpt lat="44.8933" lon="5.64913">
        <ele>939.35</ele>
        <time>2013-06-30T09:46:49Z</time>
      </trkpt>
      <trkpt lat="44.89313" lon="5.64909">
        <ele>941.75</ele>
        <time>2013-06-30T09:47:00Z</time>
      </trkpt>
      <trkpt lat="44.89292" lon="5.64913">
        <ele>944.63</ele>
        <time>2013-06-30T09:47:12Z</time>
      </trkpt>
      <trkpt lat="44.89286" lon="5.64914">
        <ele>946.07</ele>
        <time>2013-06-30T09:47:16Z</time>
      </trkpt>
      <trkpt lat="44.89276" lon="5.64917">
        <ele>947.52</ele>
        <time>2013-06-30T09:47:23Z</time>
      </trkpt>
      <trkpt lat="44.89275" lon="5.64917">
        <ele>947.52</ele>
        <time>2013-06-30T09:47:24Z</time>
      </trkpt>
      <trkpt lat="44.89254" lon="5.64918">
        <ele>949.92</ele>
        <time>2013-06-30T09:47:37Z</time>
      </trkpt>
      <trkpt lat="44.89245" lon="5.6492">
        <ele>951.36</ele>
        <time>2013-06-30T09:47:42Z</time>
      </trkpt>
      <trkpt lat="44.89243" lon="5.6492">
        <ele>951.36</ele>
        <time>2013-06-30T09:47:43Z</time>
      </trkpt>
      <trkpt lat="44.89242" lon="5.6492">
        <ele>951.36</ele>
        <time>2013-06-30T09:47:44Z</time>
      </trkpt>
      <trkpt lat="44.8924" lon="5.64921">
        <ele>951.84</ele>
        <time>2013-06-30T09:47:45Z</time>
      </trkpt>
      <trkpt lat="44.89238" lon="5.64921">
        <ele>951.84</ele>
        <time>2013-06-30T09:47:46Z</time>
      </trkpt>
      <trkpt lat="44.89237" lon="5.64922">
        <ele>951.84</ele>
        <time>2013-06-30T09:47:47Z</time>
      </trkpt>
      <trkpt lat="44.89235" lon="5.64922">
        <ele>952.8</ele>
        <time>2013-06-30T09:47:48Z</time>
      </trkpt>
      <trkpt lat="44.8922" lon="5.64925">
        <ele>954.25</ele>
        <time>2013-06-30T09:47:58Z</time>
      </trkpt>
      <trkpt lat="44.89219" lon="5.64924">
        <ele>955.21</ele>
        <time>2013-06-30T09:47:59Z</time>
      </trkpt>
      <trkpt lat="44.89218" lon="5.64925">
        <ele>954.73</ele>
        <time>2013-06-30T09:48:00Z</time>
      </trkpt>
      <trkpt lat="44.89201" lon="5.64931">
        <ele>958.09</ele>
        <time>2013-06-30T09:48:11Z</time>
      </trkpt>
      <trkpt lat="44.89189" lon="5.64936">
        <ele>959.53</ele>
        <time>2013-06-30T09:48:19Z</time>
      </trkpt>
      <trkpt lat="44.89187" lon="5.64935">
        <ele>959.53</ele>
        <time>2013-06-30T09:48:20Z</time>
      </trkpt>
      <trkpt lat="44.89186" lon="5.64935">
        <ele>959.53</ele>
        <time>2013-06-30T09:48:21Z</time>
      </trkpt>
      <trkpt lat="44.89167" lon="5.6494">
        <ele>961.94</ele>
        <time>2013-06-30T09:48:33Z</time>
      </trkpt>
      <trkpt lat="44.89154" lon="5.64943">
        <ele>964.34</ele>
        <time>2013-06-30T09:48:42Z</time>
      </trkpt>
      <trkpt lat="44.89153" lon="5.64943">
        <ele>964.34</ele>
        <time>2013-06-30T09:48:43Z</time>
      </trkpt>
      <trkpt lat="44.89151" lon="5.64944">
        <ele>964.34</ele>
        <time>2013-06-30T09:48:44Z</time>
      </trkpt>
      <trkpt lat="44.89149" lon="5.64944">
        <ele>965.3</ele>
        <time>2013-06-30T09:48:46Z</time>
      </trkpt>
      <trkpt lat="44.89128" lon="5.64947">
        <ele>968.18</ele>
        <time>2013-06-30T09:48:59Z</time>
      </trkpt>
      <trkpt lat="44.89126" lon="5.64946">
        <ele>968.18</ele>
        <time>2013-06-30T09:49:00Z</time>
      </trkpt>
      <trkpt lat="44.89125" lon="5.64946">
        <ele>968.67</ele>
        <time>2013-06-30T09:49:01Z</time>
      </trkpt>
      <trkpt lat="44.89123" lon="5.64947">
        <ele>968.67</ele>
        <time>2013-06-30T09:49:02Z</time>
      </trkpt>
      <trkpt lat="44.89121" lon="5.64947">
        <ele>968.67</ele>
        <time>2013-06-30T09:49:03Z</time>
      </trkpt>
      <trkpt lat="44.8912" lon="5.64947">
        <ele>969.15</ele>
        <time>2013-06-30T09:49:04Z</time>
      </trkpt>
      <trkpt lat="44.89118" lon="5.64948">
        <ele>969.15</ele>
        <time>2013-06-30T09:49:05Z</time>
      </trkpt>
      <trkpt lat="44.89094" lon="5.64952">
        <ele>972.51</ele>
        <time>2013-06-30T09:49:21Z</time>
      </trkpt>
      <trkpt lat="44.89081" lon="5.64962">
        <ele>972.99</ele>
        <time>2013-06-30T09:49:32Z</time>
      </trkpt>
      <trkpt lat="44.8908" lon="5.64964">
        <ele>972.99</ele>
        <time>2013-06-30T09:49:33Z</time>
      </trkpt>
      <trkpt lat="44.89079" lon="5.64966">
        <ele>972.99</ele>
        <time>2013-06-30T09:49:34Z</time>
      </trkpt>
      <trkpt lat="44.89077" lon="5.64967">
        <ele>972.99</ele>
        <time>2013-06-30T09:49:35Z</time>
      </trkpt>
      <trkpt lat="44.89075" lon="5.64969">
        <ele>973.47</ele>
        <time>2013-06-30T09:49:36Z</time>
      </trkpt>
      <trkpt lat="44.89073" lon="5.6497">
        <ele>973.47</ele>
        <time>2013-06-30T09:49:37Z</time>
      </trkpt>
      <trkpt lat="44.89069" lon="5.64976">
        <ele>972.99</ele>
        <time>2013-06-30T09:49:39Z</time>
      </trkpt>
      <trkpt lat="44.89052" lon="5.6502">
        <ele>972.99</ele>
        <time>2013-06-30T09:49:49Z</time>
      </trkpt>
      <trkpt lat="44.89049" lon="5.65076">
        <ele>971.55</ele>
        <time>2013-06-30T09:49:58Z</time>
      </trkpt>
      <trkpt lat="44.8905" lon="5.65081">
        <ele>971.55</ele>
        <time>2013-06-30T09:49:59Z</time>
      </trkpt>
      <trkpt lat="44.89052" lon="5.65086">
        <ele>971.07</ele>
        <time>2013-06-30T09:50:00Z</time>
      </trkpt>
      <trkpt lat="44.89054" lon="5.65091">
        <ele>971.55</ele>
        <time>2013-06-30T09:50:01Z</time>
      </trkpt>
      <trkpt lat="44.89056" lon="5.65095">
        <ele>971.55</ele>
        <time>2013-06-30T09:50:02Z</time>
      </trkpt>
      <trkpt lat="44.89058" lon="5.65104">
        <ele>971.07</ele>
        <time>2013-06-30T09:50:04Z</time>
      </trkpt>
      <trkpt lat="44.89063" lon="5.65133">
        <ele>972.51</ele>
        <time>2013-06-30T09:50:11Z</time>
      </trkpt>
      <trkpt lat="44.89064" lon="5.65138">
        <ele>972.99</ele>
        <time>2013-06-30T09:50:14Z</time>
      </trkpt>
      <trkpt lat="44.89064" lon="5.65139">
        <ele>973.47</ele>
        <time>2013-06-30T09:50:15Z</time>
      </trkpt>
      <trkpt lat="44.89064" lon="5.65144">
        <ele>973.95</ele>
        <time>2013-06-30T09:50:28Z</time>
      </trkpt>
      <trkpt lat="44.89065" lon="5.65153">
        <ele>974.43</ele>
        <time>2013-06-30T09:50:35Z</time>
      </trkpt>
      <trkpt lat="44.89065" lon="5.65155">
        <ele>974.43</ele>
        <time>2013-06-30T09:50:36Z</time>
      </trkpt>
      <trkpt lat="44.89066" lon="5.65157">
        <ele>974.91</ele>
        <time>2013-06-30T09:50:37Z</time>
      </trkpt>
      <trkpt lat="44.89063" lon="5.65175">
        <ele>977.32</ele>
        <time>2013-06-30T09:50:48Z</time>
      </trkpt>
      <trkpt lat="44.89065" lon="5.65187">
        <ele>978.28</ele>
        <time>2013-06-30T09:50:53Z</time>
      </trkpt>
      <trkpt lat="44.89065" lon="5.65189">
        <ele>978.28</ele>
        <time>2013-06-30T09:50:54Z</time>
      </trkpt>
      <trkpt lat="44.89066" lon="5.65191">
        <ele>979.24</ele>
        <time>2013-06-30T09:50:55Z</time>
      </trkpt>
      <trkpt lat="44.89066" lon="5.65193">
        <ele>979.24</ele>
        <time>2013-06-30T09:50:56Z</time>
      </trkpt>
      <trkpt lat="44.89067" lon="5.65196">
        <ele>979.24</ele>
        <time>2013-06-30T09:50:57Z</time>
      </trkpt>
      <trkpt lat="44.8907" lon="5.65214">
        <ele>981.16</ele>
        <time>2013-06-30T09:51:07Z</time>
      </trkpt>
      <trkpt lat="44.89069" lon="5.6522">
        <ele>982.12</ele>
        <time>2013-06-30T09:51:11Z</time>
      </trkpt>
      <trkpt lat="44.89068" lon="5.65227">
        <ele>982.12</ele>
        <time>2013-06-30T09:51:14Z</time>
      </trkpt>
      <trkpt lat="44.89069" lon="5.65229">
        <ele>982.6</ele>
        <time>2013-06-30T09:51:15Z</time>
      </trkpt>
      <trkpt lat="44.89069" lon="5.65232">
        <ele>983.09</ele>
        <time>2013-06-30T09:51:16Z</time>
      </trkpt>
      <trkpt lat="44.89068" lon="5.65237">
        <ele>983.09</ele>
        <time>2013-06-30T09:51:19Z</time>
      </trkpt>
      <trkpt lat="44.89064" lon="5.65258">
        <ele>985.49</ele>
        <time>2013-06-30T09:51:30Z</time>
      </trkpt>
      <trkpt lat="44.89053" lon="5.65273">
        <ele>988.37</ele>
        <time>2013-06-30T09:51:43Z</time>
      </trkpt>
      <trkpt lat="44.8905" lon="5.65275">
        <ele>988.37</ele>
        <time>2013-06-30T09:51:46Z</time>
      </trkpt>
      <trkpt lat="44.89037" lon="5.6529">
        <ele>990.78</ele>
        <time>2013-06-30T09:51:58Z</time>
      </trkpt>
      <trkpt lat="44.89033" lon="5.65291">
        <ele>992.7</ele>
        <time>2013-06-30T09:52:08Z</time>
      </trkpt>
      <trkpt lat="44.89032" lon="5.65281">
        <ele>994.14</ele>
        <time>2013-06-30T09:52:17Z</time>
      </trkpt>
      <trkpt lat="44.89036" lon="5.65271">
        <ele>996.06</ele>
        <time>2013-06-30T09:52:30Z</time>
      </trkpt>
      <trkpt lat="44.89032" lon="5.65273">
        <ele>997.51</ele>
        <time>2013-06-30T09:52:42Z</time>
      </trkpt>
      <trkpt lat="44.89031" lon="5.65269">
        <ele>997.99</ele>
        <time>2013-06-30T09:52:54Z</time>
      </trkpt>
      <trkpt lat="44.8903" lon="5.6525">
        <ele>999.91</ele>
        <time>2013-06-30T09:53:06Z</time>
      </trkpt>
      <trkpt lat="44.89025" lon="5.6525">
        <ele>1000.87</ele>
        <time>2013-06-30T09:53:18Z</time>
      </trkpt>
      <trkpt lat="44.89023" lon="5.65252">
        <ele>1000.87</ele>
        <time>2013-06-30T09:53:25Z</time>
      </trkpt>
      <trkpt lat="44.89017" lon="5.65259">
        <ele>1002.79</ele>
        <time>2013-06-30T09:53:32Z</time>
      </trkpt>
      <trkpt lat="44.89014" lon="5.65264">
        <ele>1003.27</ele>
        <time>2013-06-30T09:53:37Z</time>
      </trkpt>
      <trkpt lat="44.89011" lon="5.65264">
        <ele>1004.72</ele>
        <time>2013-06-30T09:53:48Z</time>
      </trkpt>
      <trkpt lat="44.8901" lon="5.65266">
        <ele>1005.68</ele>
        <time>2013-06-30T09:54:02Z</time>
      </trkpt>
      <trkpt lat="44.89001" lon="5.65273">
        <ele>1008.56</ele>
        <time>2013-06-30T09:54:14Z</time>
      </trkpt>
      <trkpt lat="44.88993" lon="5.65281">
        <ele>1010</ele>
        <time>2013-06-30T09:54:25Z</time>
      </trkpt>
      <trkpt lat="44.88983" lon="5.65289">
        <ele>1011.44</ele>
        <time>2013-06-30T09:54:34Z</time>
      </trkpt>
      <trkpt lat="44.88965" lon="5.65304">
        <ele>1012.89</ele>
        <time>2013-06-30T09:54:47Z</time>
      </trkpt>
      <trkpt lat="44.88959" lon="5.65308">
        <ele>1012.89</ele>
        <time>2013-06-30T09:54:52Z</time>
      </trkpt>
      <trkpt lat="44.88949" lon="5.65323">
        <ele>1012.89</ele>
        <time>2013-06-30T09:54:59Z</time>
      </trkpt>
      <trkpt lat="44.88946" lon="5.65327">
        <ele>1013.37</ele>
        <time>2013-06-30T09:55:01Z</time>
      </trkpt>
      <trkpt lat="44.88936" lon="5.6534">
        <ele>1014.81</ele>
        <time>2013-06-30T09:55:09Z</time>
      </trkpt>
      <trkpt lat="44.8892" lon="5.65361">
        <ele>1015.29</ele>
        <time>2013-06-30T09:55:18Z</time>
      </trkpt>
      <trkpt lat="44.88907" lon="5.65386">
        <ele>1017.69</ele>
        <time>2013-06-30T09:55:30Z</time>
      </trkpt>
      <trkpt lat="44.88903" lon="5.65392">
        <ele>1018.17</ele>
        <time>2013-06-30T09:55:33Z</time>
      </trkpt>
      <trkpt lat="44.88888" lon="5.65409">
        <ele>1019.13</ele>
        <time>2013-06-30T09:55:42Z</time>
      </trkpt>
      <trkpt lat="44.88873" lon="5.65413">
        <ele>1022.02</ele>
        <time>2013-06-30T09:55:51Z</time>
      </trkpt>
      <trkpt lat="44.88867" lon="5.65423">
        <ele>1022.98</ele>
        <time>2013-06-30T09:55:57Z</time>
      </trkpt>
      <trkpt lat="44.88865" lon="5.65432">
        <ele>1023.46</ele>
        <time>2013-06-30T09:56:02Z</time>
      </trkpt>
      <trkpt lat="44.88863" lon="5.65435">
        <ele>1023.94</ele>
        <time>2013-06-30T09:56:04Z</time>
      </trkpt>
      <trkpt lat="44.88861" lon="5.65435">
        <ele>1024.9</ele>
        <time>2013-06-30T09:56:06Z</time>
      </trkpt>
      <trkpt lat="44.88848" lon="5.65422">
        <ele>1027.79</ele>
        <time>2013-06-30T09:56:20Z</time>
      </trkpt>
      <trkpt lat="44.88844" lon="5.65421">
        <ele>1028.75</ele>
        <time>2013-06-30T09:56:25Z</time>
      </trkpt>
      <trkpt lat="44.88839" lon="5.65439">
        <ele>1031.15</ele>
        <time>2013-06-30T09:56:39Z</time>
      </trkpt>
      <trkpt lat="44.88838" lon="5.6544">
        <ele>1031.63</ele>
        <time>2013-06-30T09:56:40Z</time>
      </trkpt>
      <trkpt lat="44.88833" lon="5.65446">
        <ele>1032.11</ele>
        <time>2013-06-30T09:56:52Z</time>
      </trkpt>
      <trkpt lat="44.88828" lon="5.65435">
        <ele>1034.52</ele>
        <time>2013-06-30T09:57:03Z</time>
      </trkpt>
      <trkpt lat="44.88819" lon="5.65429">
        <ele>1035.48</ele>
        <time>2013-06-30T09:57:11Z</time>
      </trkpt>
      <trkpt lat="44.88809" lon="5.65432">
        <ele>1036.44</ele>
        <time>2013-06-30T09:57:21Z</time>
      </trkpt>
      <trkpt lat="44.88812" lon="5.65434">
        <ele>1037.88</ele>
        <time>2013-06-30T09:57:24Z</time>
      </trkpt>
      <trkpt lat="44.88816" lon="5.65443">
        <ele>1038.36</ele>
        <time>2013-06-30T09:57:30Z</time>
      </trkpt>
      <trkpt lat="44.88812" lon="5.65455">
        <ele>1039.8</ele>
        <time>2013-06-30T09:57:38Z</time>
      </trkpt>
      <trkpt lat="44.88793" lon="5.65466">
        <ele>1042.69</ele>
        <time>2013-06-30T09:57:53Z</time>
      </trkpt>
      <trkpt lat="44.88773" lon="5.65488">
        <ele>1042.21</ele>
        <time>2013-06-30T09:58:06Z</time>
      </trkpt>
      <trkpt lat="44.88772" lon="5.65491">
        <ele>1042.21</ele>
        <time>2013-06-30T09:58:15Z</time>
      </trkpt>
      <trkpt lat="44.88772" lon="5.6549">
        <ele>1042.69</ele>
        <time>2013-06-30T09:58:48Z</time>
      </trkpt>
      <trkpt lat="44.88772" lon="5.6549">
        <ele>1042.69</ele>
        <time>2013-06-30T09:59:21Z</time>
      </trkpt>
      <trkpt lat="44.88772" lon="5.65491">
        <ele>1043.17</ele>
        <time>2013-06-30T09:59:47Z</time>
      </trkpt>
      <trkpt lat="44.88772" lon="5.65491">
        <ele>1043.17</ele>
        <time>2013-06-30T10:00:21Z</time>
      </trkpt>
      <trkpt lat="44.88772" lon="5.65492">
        <ele>1043.65</ele>
        <time>2013-06-30T10:00:59Z</time>
      </trkpt>
      <trkpt lat="44.88773" lon="5.65492">
        <ele>1043.65</ele>
        <time>2013-06-30T10:01:40Z</time>
      </trkpt>
      <trkpt lat="44.88773" lon="5.65492">
        <ele>1044.13</ele>
        <time>2013-06-30T10:02:15Z</time>
      </trkpt>
      <trkpt lat="44.88773" lon="5.6549">
        <ele>1044.13</ele>
        <time>2013-06-30T10:02:49Z</time>
      </trkpt>
      <trkpt lat="44.88772" lon="5.65491">
        <ele>1044.13</ele>
        <time>2013-06-30T10:03:26Z</time>
      </trkpt>
      <trkpt lat="44.88772" lon="5.65492">
        <ele>1043.65</ele>
        <time>2013-06-30T10:03:59Z</time>
      </trkpt>
      <trkpt lat="44.88771" lon="5.65491">
        <ele>1044.13</ele>
        <time>2013-06-30T10:04:10Z</time>
      </trkpt>
      <trkpt lat="44.88769" lon="5.65497">
        <ele>1044.13</ele>
        <time>2013-06-30T10:04:14Z</time>
      </trkpt>
      <trkpt lat="44.88761" lon="5.65508">
        <ele>1043.17</ele>
        <time>2013-06-30T10:04:20Z</time>
      </trkpt>
      <trkpt lat="44.8875" lon="5.6552">
        <ele>1041.73</ele>
        <time>2013-06-30T10:04:25Z</time>
      </trkpt>
      <trkpt lat="44.8873" lon="5.65541">
        <ele>1037.88</ele>
        <time>2013-06-30T10:04:33Z</time>
      </trkpt>
      <trkpt lat="44.88715" lon="5.6556">
        <ele>1034.52</ele>
        <time>2013-06-30T10:04:40Z</time>
      </trkpt>
      <trkpt lat="44.88707" lon="5.6557">
        <ele>1032.59</ele>
        <time>2013-06-30T10:04:44Z</time>
      </trkpt>
      <trkpt lat="44.887" lon="5.65574">
        <ele>1031.63</ele>
        <time>2013-06-30T10:04:48Z</time>
      </trkpt>
      <trkpt lat="44.88692" lon="5.6558">
        <ele>1029.71</ele>
        <time>2013-06-30T10:04:52Z</time>
      </trkpt>
      <trkpt lat="44.88687" lon="5.65583">
        <ele>1028.27</ele>
        <time>2013-06-30T10:04:54Z</time>
      </trkpt>
      <trkpt lat="44.88664" lon="5.65616">
        <ele>1025.38</ele>
        <time>2013-06-30T10:05:03Z</time>
      </trkpt>
      <trkpt lat="44.88651" lon="5.65633">
        <ele>1022.5</ele>
        <time>2013-06-30T10:05:09Z</time>
      </trkpt>
      <trkpt lat="44.8864" lon="5.65645">
        <ele>1021.06</ele>
        <time>2013-06-30T10:05:13Z</time>
      </trkpt>
      <trkpt lat="44.88635" lon="5.65651">
        <ele>1019.62</ele>
        <time>2013-06-30T10:05:16Z</time>
      </trkpt>
      <trkpt lat="44.88627" lon="5.65664">
        <ele>1018.65</ele>
        <time>2013-06-30T10:05:26Z</time>
      </trkpt>
      <trkpt lat="44.88624" lon="5.65667">
        <ele>1018.17</ele>
        <time>2013-06-30T10:05:53Z</time>
      </trkpt>
      <trkpt lat="44.8862" lon="5.65673">
        <ele>1017.69</ele>
        <time>2013-06-30T10:06:02Z</time>
      </trkpt>
      <trkpt lat="44.88611" lon="5.6568">
        <ele>1014.33</ele>
        <time>2013-06-30T10:06:06Z</time>
      </trkpt>
      <trkpt lat="44.88595" lon="5.65694">
        <ele>1009.52</ele>
        <time>2013-06-30T10:06:11Z</time>
      </trkpt>
      <trkpt lat="44.88573" lon="5.65717">
        <ele>1006.64</ele>
        <time>2013-06-30T10:06:18Z</time>
      </trkpt>
      <trkpt lat="44.88565" lon="5.65729">
        <ele>1003.27</ele>
        <time>2013-06-30T10:06:21Z</time>
      </trkpt>
      <trkpt lat="44.88562" lon="5.65732">
        <ele>1003.27</ele>
        <time>2013-06-30T10:06:22Z</time>
      </trkpt>
      <trkpt lat="44.88554" lon="5.65741">
        <ele>1002.31</ele>
        <time>2013-06-30T10:06:24Z</time>
      </trkpt>
      <trkpt lat="44.8854" lon="5.6575">
        <ele>998.95</ele>
        <time>2013-06-30T10:06:28Z</time>
      </trkpt>
      <trkpt lat="44.88536" lon="5.65754">
        <ele>997.02</ele>
        <time>2013-06-30T10:06:29Z</time>
      </trkpt>
      <trkpt lat="44.88533" lon="5.65758">
        <ele>996.06</ele>
        <time>2013-06-30T10:06:30Z</time>
      </trkpt>
      <trkpt lat="44.88525" lon="5.65767">
        <ele>992.22</ele>
        <time>2013-06-30T10:06:33Z</time>
      </trkpt>
      <trkpt lat="44.88514" lon="5.65775">
        <ele>988.85</ele>
        <time>2013-06-30T10:06:37Z</time>
      </trkpt>
      <trkpt lat="44.88506" lon="5.6578">
        <ele>985.01</ele>
        <time>2013-06-30T10:06:40Z</time>
      </trkpt>
      <trkpt lat="44.88498" lon="5.65782">
        <ele>981.64</ele>
        <time>2013-06-30T10:06:43Z</time>
      </trkpt>
      <trkpt lat="44.88497" lon="5.65784">
        <ele>980.2</ele>
        <time>2013-06-30T10:06:44Z</time>
      </trkpt>
      <trkpt lat="44.88495" lon="5.65787">
        <ele>979.24</ele>
        <time>2013-06-30T10:06:45Z</time>
      </trkpt>
      <trkpt lat="44.88494" lon="5.6579">
        <ele>978.28</ele>
        <time>2013-06-30T10:06:46Z</time>
      </trkpt>
      <trkpt lat="44.88493" lon="5.65794">
        <ele>977.32</ele>
        <time>2013-06-30T10:06:47Z</time>
      </trkpt>
      <trkpt lat="44.88493" lon="5.65798">
        <ele>976.36</ele>
        <time>2013-06-30T10:06:48Z</time>
      </trkpt>
      <trkpt lat="44.88492" lon="5.65803">
        <ele>974.91</ele>
        <time>2013-06-30T10:06:49Z</time>
      </trkpt>
      <trkpt lat="44.88491" lon="5.65807">
        <ele>974.43</ele>
        <time>2013-06-30T10:06:50Z</time>
      </trkpt>
      <trkpt lat="44.8849" lon="5.65809">
        <ele>973.95</ele>
        <time>2013-06-30T10:06:51Z</time>
      </trkpt>
      <trkpt lat="44.88489" lon="5.65811">
        <ele>972.99</ele>
        <time>2013-06-30T10:06:52Z</time>
      </trkpt>
      <trkpt lat="44.88487" lon="5.65814">
        <ele>971.55</ele>
        <time>2013-06-30T10:06:53Z</time>
      </trkpt>
      <trkpt lat="44.88484" lon="5.65816">
        <ele>971.07</ele>
        <time>2013-06-30T10:06:54Z</time>
      </trkpt>
      <trkpt lat="44.88481" lon="5.65819">
        <ele>970.11</ele>
        <time>2013-06-30T10:06:55Z</time>
      </trkpt>
      <trkpt lat="44.88478" lon="5.65821">
        <ele>968.67</ele>
        <time>2013-06-30T10:06:56Z</time>
      </trkpt>
      <trkpt lat="44.88476" lon="5.65823">
        <ele>968.18</ele>
        <time>2013-06-30T10:06:57Z</time>
      </trkpt>
      <trkpt lat="44.88474" lon="5.65826">
        <ele>966.74</ele>
        <time>2013-06-30T10:06:58Z</time>
      </trkpt>
      <trkpt lat="44.88466" lon="5.65839">
        <ele>962.9</ele>
        <time>2013-06-30T10:07:02Z</time>
      </trkpt>
      <trkpt lat="44.8846" lon="5.6585">
        <ele>959.53</ele>
        <time>2013-06-30T10:07:05Z</time>
      </trkpt>
      <trkpt lat="44.88446" lon="5.65868">
        <ele>955.69</ele>
        <time>2013-06-30T10:07:09Z</time>
      </trkpt>
      <trkpt lat="44.88441" lon="5.65877">
        <ele>954.73</ele>
        <time>2013-06-30T10:07:11Z</time>
      </trkpt>
      <trkpt lat="44.88436" lon="5.65887">
        <ele>952.32</ele>
        <time>2013-06-30T10:07:13Z</time>
      </trkpt>
      <trkpt lat="44.88434" lon="5.65894">
        <ele>952.32</ele>
        <time>2013-06-30T10:07:14Z</time>
      </trkpt>
      <trkpt lat="44.88431" lon="5.659">
        <ele>952.32</ele>
        <time>2013-06-30T10:07:15Z</time>
      </trkpt>
      <trkpt lat="44.88429" lon="5.65907">
        <ele>952.8</ele>
        <time>2013-06-30T10:07:17Z</time>
      </trkpt>
      <trkpt lat="44.88427" lon="5.65908">
        <ele>953.28</ele>
        <time>2013-06-30T10:07:18Z</time>
      </trkpt>
      <trkpt lat="44.88419" lon="5.65915">
        <ele>953.28</ele>
        <time>2013-06-30T10:07:23Z</time>
      </trkpt>
      <trkpt lat="44.88417" lon="5.6592">
        <ele>953.77</ele>
        <time>2013-06-30T10:07:36Z</time>
      </trkpt>
      <trkpt lat="44.88408" lon="5.6593">
        <ele>953.28</ele>
        <time>2013-06-30T10:07:52Z</time>
      </trkpt>
      <trkpt lat="44.88401" lon="5.65937">
        <ele>953.28</ele>
        <time>2013-06-30T10:07:56Z</time>
      </trkpt>
      <trkpt lat="44.884" lon="5.65939">
        <ele>954.25</ele>
        <time>2013-06-30T10:08:10Z</time>
      </trkpt>
      <trkpt lat="44.884" lon="5.65939">
        <ele>954.25</ele>
        <time>2013-06-30T10:08:11Z</time>
      </trkpt>
      <trkpt lat="44.88407" lon="5.65929">
        <ele>954.25</ele>
        <time>2013-06-30T10:08:21Z</time>
      </trkpt>
      <trkpt lat="44.88408" lon="5.65929">
        <ele>953.77</ele>
        <time>2013-06-30T10:08:23Z</time>
      </trkpt>
      <trkpt lat="44.88406" lon="5.65931">
        <ele>953.77</ele>
        <time>2013-06-30T10:08:25Z</time>
      </trkpt>
      <trkpt lat="44.88399" lon="5.65938">
        <ele>953.77</ele>
        <time>2013-06-30T10:08:31Z</time>
      </trkpt>
      <trkpt lat="44.88392" lon="5.65946">
        <ele>954.25</ele>
        <time>2013-06-30T10:08:36Z</time>
      </trkpt>
      <trkpt lat="44.88376" lon="5.65964">
        <ele>956.65</ele>
        <time>2013-06-30T10:08:49Z</time>
      </trkpt>
      <trkpt lat="44.88366" lon="5.65978">
        <ele>958.09</ele>
        <time>2013-06-30T10:08:58Z</time>
      </trkpt>
      <trkpt lat="44.88355" lon="5.65999">
        <ele>960.98</ele>
        <time>2013-06-30T10:09:11Z</time>
      </trkpt>
      <trkpt lat="44.88345" lon="5.66012">
        <ele>963.86</ele>
        <time>2013-06-30T10:09:23Z</time>
      </trkpt>
      <trkpt lat="44.88341" lon="5.66015">
        <ele>965.3</ele>
        <time>2013-06-30T10:09:33Z</time>
      </trkpt>
      <trkpt lat="44.8834" lon="5.66016">
        <ele>965.3</ele>
        <time>2013-06-30T10:09:43Z</time>
      </trkpt>
      <trkpt lat="44.88336" lon="5.66021">
        <ele>966.74</ele>
        <time>2013-06-30T10:09:48Z</time>
      </trkpt>
      <trkpt lat="44.88333" lon="5.66025">
        <ele>967.7</ele>
        <time>2013-06-30T10:09:51Z</time>
      </trkpt>
      <trkpt lat="44.88332" lon="5.66028">
        <ele>967.7</ele>
        <time>2013-06-30T10:09:53Z</time>
      </trkpt>
      <trkpt lat="44.8832" lon="5.66039">
        <ele>972.51</ele>
        <time>2013-06-30T10:10:05Z</time>
      </trkpt>
      <trkpt lat="44.8832" lon="5.6604">
        <ele>972.51</ele>
        <time>2013-06-30T10:10:06Z</time>
      </trkpt>
      <trkpt lat="44.88314" lon="5.66049">
        <ele>975.39</ele>
        <time>2013-06-30T10:10:15Z</time>
      </trkpt>
      <trkpt lat="44.88305" lon="5.66058">
        <ele>977.8</ele>
        <time>2013-06-30T10:10:25Z</time>
      </trkpt>
      <trkpt lat="44.88298" lon="5.66066">
        <ele>979.72</ele>
        <time>2013-06-30T10:10:38Z</time>
      </trkpt>
      <trkpt lat="44.88293" lon="5.6607">
        <ele>982.6</ele>
        <time>2013-06-30T10:10:50Z</time>
      </trkpt>
      <trkpt lat="44.88289" lon="5.66077">
        <ele>985.01</ele>
        <time>2013-06-30T10:11:02Z</time>
      </trkpt>
      <trkpt lat="44.88281" lon="5.66083">
        <ele>988.37</ele>
        <time>2013-06-30T10:11:16Z</time>
      </trkpt>
      <trkpt lat="44.88271" lon="5.6609">
        <ele>990.3</ele>
        <time>2013-06-30T10:11:31Z</time>
      </trkpt>
      <trkpt lat="44.88259" lon="5.66101">
        <ele>992.22</ele>
        <time>2013-06-30T10:11:43Z</time>
      </trkpt>
      <trkpt lat="44.88254" lon="5.66105">
        <ele>992.22</ele>
        <time>2013-06-30T10:11:57Z</time>
      </trkpt>
      <trkpt lat="44.88246" lon="5.66116">
        <ele>992.22</ele>
        <time>2013-06-30T10:12:13Z</time>
      </trkpt>
      <trkpt lat="44.88243" lon="5.6612">
        <ele>991.26</ele>
        <time>2013-06-30T10:12:15Z</time>
      </trkpt>
      <trkpt lat="44.88231" lon="5.66135">
        <ele>985.97</ele>
        <time>2013-06-30T10:12:20Z</time>
      </trkpt>
      <trkpt lat="44.88227" lon="5.66139">
        <ele>984.53</ele>
        <time>2013-06-30T10:12:21Z</time>
      </trkpt>
      <trkpt lat="44.88218" lon="5.66144">
        <ele>982.12</ele>
        <time>2013-06-30T10:12:23Z</time>
      </trkpt>
      <trkpt lat="44.88192" lon="5.66159">
        <ele>976.84</ele>
        <time>2013-06-30T10:12:28Z</time>
      </trkpt>
      <trkpt lat="44.88177" lon="5.66166">
        <ele>973.47</ele>
        <time>2013-06-30T10:12:31Z</time>
      </trkpt>
      <trkpt lat="44.88172" lon="5.66169">
        <ele>972.03</ele>
        <time>2013-06-30T10:12:32Z</time>
      </trkpt>
      <trkpt lat="44.88148" lon="5.66175">
        <ele>969.15</ele>
        <time>2013-06-30T10:12:37Z</time>
      </trkpt>
      <trkpt lat="44.8813" lon="5.66178">
        <ele>964.82</ele>
        <time>2013-06-30T10:12:43Z</time>
      </trkpt>
      <trkpt lat="44.88117" lon="5.66205">
        <ele>960.01</ele>
        <time>2013-06-30T10:12:50Z</time>
      </trkpt>
      <trkpt lat="44.88117" lon="5.66214">
        <ele>958.09</ele>
        <time>2013-06-30T10:12:52Z</time>
      </trkpt>
      <trkpt lat="44.88117" lon="5.6623">
        <ele>954.25</ele>
        <time>2013-06-30T10:12:56Z</time>
      </trkpt>
      <trkpt lat="44.88113" lon="5.66243">
        <ele>950.4</ele>
        <time>2013-06-30T10:12:59Z</time>
      </trkpt>
      <trkpt lat="44.88113" lon="5.6626">
        <ele>946.56</ele>
        <time>2013-06-30T10:13:02Z</time>
      </trkpt>
      <trkpt lat="44.88113" lon="5.66275">
        <ele>941.75</ele>
        <time>2013-06-30T10:13:06Z</time>
      </trkpt>
      <trkpt lat="44.88113" lon="5.66279">
        <ele>941.27</ele>
        <time>2013-06-30T10:13:07Z</time>
      </trkpt>
      <trkpt lat="44.88109" lon="5.66295">
        <ele>936.94</ele>
        <time>2013-06-30T10:13:11Z</time>
      </trkpt>
      <trkpt lat="44.88109" lon="5.66311">
        <ele>932.62</ele>
        <time>2013-06-30T10:13:15Z</time>
      </trkpt>
      <trkpt lat="44.88107" lon="5.66321">
        <ele>931.17</ele>
        <time>2013-06-30T10:13:17Z</time>
      </trkpt>
      <trkpt lat="44.88104" lon="5.66328">
        <ele>928.29</ele>
        <time>2013-06-30T10:13:19Z</time>
      </trkpt>
      <trkpt lat="44.88101" lon="5.66337">
        <ele>926.37</ele>
        <time>2013-06-30T10:13:21Z</time>
      </trkpt>
      <trkpt lat="44.88093" lon="5.66363">
        <ele>922.52</ele>
        <time>2013-06-30T10:13:26Z</time>
      </trkpt>
      <trkpt lat="44.88091" lon="5.66368">
        <ele>922.04</ele>
        <time>2013-06-30T10:13:27Z</time>
      </trkpt>
      <trkpt lat="44.88085" lon="5.66385">
        <ele>920.6</ele>
        <time>2013-06-30T10:13:30Z</time>
      </trkpt>
      <trkpt lat="44.88077" lon="5.66409">
        <ele>916.75</ele>
        <time>2013-06-30T10:13:34Z</time>
      </trkpt>
      <trkpt lat="44.88076" lon="5.66415">
        <ele>917.24</ele>
        <time>2013-06-30T10:13:35Z</time>
      </trkpt>
      <trkpt lat="44.88073" lon="5.66424">
        <ele>916.27</ele>
        <time>2013-06-30T10:13:37Z</time>
      </trkpt>
      <trkpt lat="44.88075" lon="5.6644">
        <ele>914.83</ele>
        <time>2013-06-30T10:13:41Z</time>
      </trkpt>
      <trkpt lat="44.88084" lon="5.66437">
        <ele>915.31</ele>
        <time>2013-06-30T10:13:52Z</time>
      </trkpt>
      <trkpt lat="44.88084" lon="5.66437">
        <ele>915.31</ele>
        <time>2013-06-30T10:14:12Z</time>
      </trkpt>
      <trkpt lat="44.88094" lon="5.66433">
        <ele>912.91</ele>
        <time>2013-06-30T10:14:32Z</time>
      </trkpt>
      <trkpt lat="44.88108" lon="5.66428">
        <ele>910.03</ele>
        <time>2013-06-30T10:14:35Z</time>
      </trkpt>
      <trkpt lat="44.88113" lon="5.66424">
        <ele>908.58</ele>
        <time>2013-06-30T10:14:36Z</time>
      </trkpt>
      <trkpt lat="44.88118" lon="5.6642">
        <ele>908.1</ele>
        <time>2013-06-30T10:14:37Z</time>
      </trkpt>
      <trkpt lat="44.88122" lon="5.66415">
        <ele>907.62</ele>
        <time>2013-06-30T10:14:38Z</time>
      </trkpt>
      <trkpt lat="44.88126" lon="5.6641">
        <ele>907.14</ele>
        <time>2013-06-30T10:14:39Z</time>
      </trkpt>
      <trkpt lat="44.88133" lon="5.66399">
        <ele>906.18</ele>
        <time>2013-06-30T10:14:41Z</time>
      </trkpt>
      <trkpt lat="44.88138" lon="5.66394">
        <ele>905.7</ele>
        <time>2013-06-30T10:14:42Z</time>
      </trkpt>
      <trkpt lat="44.88153" lon="5.66378">
        <ele>904.26</ele>
        <time>2013-06-30T10:14:46Z</time>
      </trkpt>
      <trkpt lat="44.88162" lon="5.66373">
        <ele>904.74</ele>
        <time>2013-06-30T10:14:48Z</time>
      </trkpt>
      <trkpt lat="44.88167" lon="5.66371">
        <ele>904.26</ele>
        <time>2013-06-30T10:14:49Z</time>
      </trkpt>
      <trkpt lat="44.88171" lon="5.6637">
        <ele>903.78</ele>
        <time>2013-06-30T10:14:50Z</time>
      </trkpt>
      <trkpt lat="44.88184" lon="5.66367">
        <ele>902.82</ele>
        <time>2013-06-30T10:14:53Z</time>
      </trkpt>
      <trkpt lat="44.88189" lon="5.66367">
        <ele>902.33</ele>
        <time>2013-06-30T10:14:54Z</time>
      </trkpt>
      <trkpt lat="44.88217" lon="5.66362">
        <ele>900.41</ele>
        <time>2013-06-30T10:14:59Z</time>
      </trkpt>
      <trkpt lat="44.8828" lon="5.66347">
        <ele>897.53</ele>
        <time>2013-06-30T10:15:09Z</time>
      </trkpt>
      <trkpt lat="44.88288" lon="5.66344">
        <ele>897.05</ele>
        <time>2013-06-30T10:15:10Z</time>
      </trkpt>
      <trkpt lat="44.88303" lon="5.66341">
        <ele>895.61</ele>
        <time>2013-06-30T10:15:12Z</time>
      </trkpt>
      <trkpt lat="44.88372" lon="5.66322">
        <ele>893.68</ele>
        <time>2013-06-30T10:15:22Z</time>
      </trkpt>
      <trkpt lat="44.88389" lon="5.66319">
        <ele>893.68</ele>
        <time>2013-06-30T10:15:25Z</time>
      </trkpt>
      <trkpt lat="44.88394" lon="5.66317">
        <ele>893.2</ele>
        <time>2013-06-30T10:15:26Z</time>
      </trkpt>
      <trkpt lat="44.88398" lon="5.66315">
        <ele>893.68</ele>
        <time>2013-06-30T10:15:27Z</time>
      </trkpt>
      <trkpt lat="44.88403" lon="5.66313">
        <ele>893.68</ele>
        <time>2013-06-30T10:15:28Z</time>
      </trkpt>
      <trkpt lat="44.88408" lon="5.66311">
        <ele>894.16</ele>
        <time>2013-06-30T10:15:29Z</time>
      </trkpt>
      <trkpt lat="44.8844" lon="5.66308">
        <ele>892.72</ele>
        <time>2013-06-30T10:15:35Z</time>
      </trkpt>
      <trkpt lat="44.8845" lon="5.66305">
        <ele>891.76</ele>
        <time>2013-06-30T10:15:37Z</time>
      </trkpt>
      <trkpt lat="44.88455" lon="5.66303">
        <ele>891.76</ele>
        <time>2013-06-30T10:15:38Z</time>
      </trkpt>
      <trkpt lat="44.88459" lon="5.66301">
        <ele>890.8</ele>
        <time>2013-06-30T10:15:39Z</time>
      </trkpt>
      <trkpt lat="44.88462" lon="5.663">
        <ele>889.84</ele>
        <time>2013-06-30T10:15:40Z</time>
      </trkpt>
      <trkpt lat="44.88467" lon="5.66299">
        <ele>890.32</ele>
        <time>2013-06-30T10:15:43Z</time>
      </trkpt>
      <trkpt lat="44.88469" lon="5.66297">
        <ele>890.32</ele>
        <time>2013-06-30T10:15:48Z</time>
      </trkpt>
      <trkpt lat="44.8847" lon="5.66295">
        <ele>889.84</ele>
        <time>2013-06-30T10:15:49Z</time>
      </trkpt>
      <trkpt lat="44.8847" lon="5.66292">
        <ele>889.84</ele>
        <time>2013-06-30T10:15:50Z</time>
      </trkpt>
      <trkpt lat="44.88467" lon="5.66296">
        <ele>890.8</ele>
        <time>2013-06-30T10:15:56Z</time>
      </trkpt>
      <trkpt lat="44.88456" lon="5.66301">
        <ele>892.24</ele>
        <time>2013-06-30T10:16:08Z</time>
      </trkpt>
      <trkpt lat="44.88459" lon="5.66299">
        <ele>891.28</ele>
        <time>2013-06-30T10:16:14Z</time>
      </trkpt>
      <trkpt lat="44.88462" lon="5.66298">
        <ele>890.8</ele>
        <time>2013-06-30T10:16:16Z</time>
      </trkpt>
      <trkpt lat="44.88477" lon="5.66282">
        <ele>888.4</ele>
        <time>2013-06-30T10:16:22Z</time>
      </trkpt>
      <trkpt lat="44.88481" lon="5.66278">
        <ele>887.91</ele>
        <time>2013-06-30T10:16:23Z</time>
      </trkpt>
      <trkpt lat="44.88484" lon="5.66274">
        <ele>887.43</ele>
        <time>2013-06-30T10:16:24Z</time>
      </trkpt>
      <trkpt lat="44.88487" lon="5.66273">
        <ele>886.95</ele>
        <time>2013-06-30T10:16:25Z</time>
      </trkpt>
      <trkpt lat="44.88489" lon="5.66272">
        <ele>886.47</ele>
        <time>2013-06-30T10:16:26Z</time>
      </trkpt>
      <trkpt lat="44.88492" lon="5.66273">
        <ele>885.99</ele>
        <time>2013-06-30T10:16:28Z</time>
      </trkpt>
      <trkpt lat="44.88495" lon="5.66288">
        <ele>884.55</ele>
        <time>2013-06-30T10:16:34Z</time>
      </trkpt>
      <trkpt lat="44.88498" lon="5.66324">
        <ele>881.19</ele>
        <time>2013-06-30T10:16:42Z</time>
      </trkpt>
      <trkpt lat="44.885" lon="5.66334">
        <ele>880.71</ele>
        <time>2013-06-30T10:16:44Z</time>
      </trkpt>
      <trkpt lat="44.88508" lon="5.6637">
        <ele>876.86</ele>
        <time>2013-06-30T10:16:52Z</time>
      </trkpt>
      <trkpt lat="44.88509" lon="5.66375">
        <ele>875.9</ele>
        <time>2013-06-30T10:16:53Z</time>
      </trkpt>
      <trkpt lat="44.88513" lon="5.66389">
        <ele>872.53</ele>
        <time>2013-06-30T10:16:57Z</time>
      </trkpt>
      <trkpt lat="44.88516" lon="5.664">
        <ele>871.57</ele>
        <time>2013-06-30T10:16:59Z</time>
      </trkpt>
      <trkpt lat="44.88514" lon="5.66414">
        <ele>869.65</ele>
        <time>2013-06-30T10:17:02Z</time>
      </trkpt>
      <trkpt lat="44.88522" lon="5.6643">
        <ele>865.32</ele>
        <time>2013-06-30T10:17:07Z</time>
      </trkpt>
      <trkpt lat="44.88532" lon="5.66433">
        <ele>862.44</ele>
        <time>2013-06-30T10:17:11Z</time>
      </trkpt>
      <trkpt lat="44.88536" lon="5.6643">
        <ele>860.52</ele>
        <time>2013-06-30T10:17:14Z</time>
      </trkpt>
      <trkpt lat="44.88543" lon="5.6642">
        <ele>856.67</ele>
        <time>2013-06-30T10:17:18Z</time>
      </trkpt>
      <trkpt lat="44.88551" lon="5.66408">
        <ele>854.27</ele>
        <time>2013-06-30T10:17:27Z</time>
      </trkpt>
      <trkpt lat="44.88552" lon="5.66408">
        <ele>853.79</ele>
        <time>2013-06-30T10:17:28Z</time>
      </trkpt>
      <trkpt lat="44.88553" lon="5.66408">
        <ele>853.31</ele>
        <time>2013-06-30T10:17:35Z</time>
      </trkpt>
      <trkpt lat="44.88557" lon="5.66418">
        <ele>850.9</ele>
        <time>2013-06-30T10:17:39Z</time>
      </trkpt>
      <trkpt lat="44.8856" lon="5.66423">
        <ele>850.42</ele>
        <time>2013-06-30T10:17:41Z</time>
      </trkpt>
      <trkpt lat="44.88563" lon="5.66444">
        <ele>846.1</ele>
        <time>2013-06-30T10:17:47Z</time>
      </trkpt>
      <trkpt lat="44.88566" lon="5.66475">
        <ele>842.25</ele>
        <time>2013-06-30T10:17:55Z</time>
      </trkpt>
      <trkpt lat="44.88559" lon="5.66499">
        <ele>838.89</ele>
        <time>2013-06-30T10:18:00Z</time>
      </trkpt>
      <trkpt lat="44.88551" lon="5.66508">
        <ele>835.52</ele>
        <time>2013-06-30T10:18:04Z</time>
      </trkpt>
      <trkpt lat="44.88541" lon="5.66517">
        <ele>831.2</ele>
        <time>2013-06-30T10:18:08Z</time>
      </trkpt>
      <trkpt lat="44.88538" lon="5.6652">
        <ele>831.2</ele>
        <time>2013-06-30T10:18:09Z</time>
      </trkpt>
      <trkpt lat="44.88531" lon="5.66523">
        <ele>829.27</ele>
        <time>2013-06-30T10:18:18Z</time>
      </trkpt>
      <trkpt lat="44.88537" lon="5.66534">
        <ele>826.39</ele>
        <time>2013-06-30T10:18:27Z</time>
      </trkpt>
      <trkpt lat="44.88546" lon="5.6655">
        <ele>822.06</ele>
        <time>2013-06-30T10:18:32Z</time>
      </trkpt>
      <trkpt lat="44.88552" lon="5.66557">
        <ele>820.62</ele>
        <time>2013-06-30T10:18:35Z</time>
      </trkpt>
      <trkpt lat="44.88556" lon="5.6656">
        <ele>819.66</ele>
        <time>2013-06-30T10:18:38Z</time>
      </trkpt>
      <trkpt lat="44.88548" lon="5.6657">
        <ele>816.3</ele>
        <time>2013-06-30T10:18:43Z</time>
      </trkpt>
      <trkpt lat="44.88549" lon="5.66582">
        <ele>814.37</ele>
        <time>2013-06-30T10:18:47Z</time>
      </trkpt>
      <trkpt lat="44.88553" lon="5.6659">
        <ele>812.93</ele>
        <time>2013-06-30T10:18:49Z</time>
      </trkpt>
      <trkpt lat="44.88555" lon="5.66603">
        <ele>809.09</ele>
        <time>2013-06-30T10:18:52Z</time>
      </trkpt>
      <trkpt lat="44.88559" lon="5.66618">
        <ele>805.24</ele>
        <time>2013-06-30T10:18:56Z</time>
      </trkpt>
      <trkpt lat="44.88561" lon="5.66622">
        <ele>804.28</ele>
        <time>2013-06-30T10:18:57Z</time>
      </trkpt>
      <trkpt lat="44.88564" lon="5.66629">
        <ele>801.4</ele>
        <time>2013-06-30T10:18:59Z</time>
      </trkpt>
      <trkpt lat="44.88573" lon="5.66647">
        <ele>797.55</ele>
        <time>2013-06-30T10:19:04Z</time>
      </trkpt>
      <trkpt lat="44.8858" lon="5.66658">
        <ele>796.11</ele>
        <time>2013-06-30T10:19:07Z</time>
      </trkpt>
      <trkpt lat="44.88585" lon="5.66664">
        <ele>795.15</ele>
        <time>2013-06-30T10:19:09Z</time>
      </trkpt>
      <trkpt lat="44.88579" lon="5.66675">
        <ele>794.67</ele>
        <time>2013-06-30T10:19:18Z</time>
      </trkpt>
      <trkpt lat="44.88581" lon="5.66675">
        <ele>794.19</ele>
        <time>2013-06-30T10:19:29Z</time>
      </trkpt>
      <trkpt lat="44.88577" lon="5.66681">
        <ele>793.22</ele>
        <time>2013-06-30T10:19:41Z</time>
      </trkpt>
      <trkpt lat="44.88565" lon="5.66691">
        <ele>791.3</ele>
        <time>2013-06-30T10:19:46Z</time>
      </trkpt>
      <trkpt lat="44.8856" lon="5.66693">
        <ele>790.34</ele>
        <time>2013-06-30T10:19:56Z</time>
      </trkpt>
      <trkpt lat="44.8856" lon="5.66693">
        <ele>790.34</ele>
        <time>2013-06-30T10:19:59Z</time>
      </trkpt>
      <trkpt lat="44.88562" lon="5.66693">
        <ele>790.82</ele>
        <time>2013-06-30T10:20:10Z</time>
      </trkpt>
      <trkpt lat="44.88556" lon="5.66691">
        <ele>787.46</ele>
        <time>2013-06-30T10:20:16Z</time>
      </trkpt>
      <trkpt lat="44.88555" lon="5.66691">
        <ele>787.46</ele>
        <time>2013-06-30T10:20:17Z</time>
      </trkpt>
      <trkpt lat="44.88534" lon="5.66685">
        <ele>787.46</ele>
        <time>2013-06-30T10:20:25Z</time>
      </trkpt>
      <trkpt lat="44.88528" lon="5.66682">
        <ele>786.5</ele>
        <time>2013-06-30T10:20:27Z</time>
      </trkpt>
      <trkpt lat="44.88516" lon="5.66681">
        <ele>784.57</ele>
        <time>2013-06-30T10:20:31Z</time>
      </trkpt>
      <trkpt lat="44.88511" lon="5.6668">
        <ele>783.61</ele>
        <time>2013-06-30T10:20:33Z</time>
      </trkpt>
      <trkpt lat="44.88497" lon="5.66683">
        <ele>780.25</ele>
        <time>2013-06-30T10:20:38Z</time>
      </trkpt>
      <trkpt lat="44.88496" lon="5.66683">
        <ele>779.29</ele>
        <time>2013-06-30T10:20:39Z</time>
      </trkpt>
      <trkpt lat="44.88486" lon="5.66681">
        <ele>775.92</ele>
        <time>2013-06-30T10:20:42Z</time>
      </trkpt>
      <trkpt lat="44.88468" lon="5.66672">
        <ele>773.04</ele>
        <time>2013-06-30T10:20:48Z</time>
      </trkpt>
      <trkpt lat="44.88459" lon="5.66662">
        <ele>771.6</ele>
        <time>2013-06-30T10:20:52Z</time>
      </trkpt>
      <trkpt lat="44.88453" lon="5.66662">
        <ele>772.08</ele>
        <time>2013-06-30T10:20:54Z</time>
      </trkpt>
      <trkpt lat="44.8844" lon="5.66669">
        <ele>773.04</ele>
        <time>2013-06-30T10:20:58Z</time>
      </trkpt>
      <trkpt lat="44.88437" lon="5.66673">
        <ele>774</ele>
        <time>2013-06-30T10:21:00Z</time>
      </trkpt>
      <trkpt lat="44.88421" lon="5.66687">
        <ele>777.36</ele>
        <time>2013-06-30T10:21:09Z</time>
      </trkpt>
      <trkpt lat="44.8842" lon="5.66687">
        <ele>777.36</ele>
        <time>2013-06-30T10:21:10Z</time>
      </trkpt>
      <trkpt lat="44.88396" lon="5.66696">
        <ele>775.92</ele>
        <time>2013-06-30T10:21:22Z</time>
      </trkpt>
      <trkpt lat="44.88363" lon="5.66695">
        <ele>774</ele>
        <time>2013-06-30T10:21:32Z</time>
      </trkpt>
      <trkpt lat="44.8835" lon="5.66687">
        <ele>774.96</ele>
        <time>2013-06-30T10:21:37Z</time>
      </trkpt>
      <trkpt lat="44.88344" lon="5.66683">
        <ele>776.4</ele>
        <time>2013-06-30T10:21:40Z</time>
      </trkpt>
      <trkpt lat="44.88325" lon="5.6667">
        <ele>778.32</ele>
        <time>2013-06-30T10:21:51Z</time>
      </trkpt>
      <trkpt lat="44.88319" lon="5.66662">
        <ele>778.81</ele>
        <time>2013-06-30T10:22:05Z</time>
      </trkpt>
      <trkpt lat="44.88315" lon="5.66656">
        <ele>777.84</ele>
        <time>2013-06-30T10:22:15Z</time>
      </trkpt>
      <trkpt lat="44.883" lon="5.66667">
        <ele>781.69</ele>
        <time>2013-06-30T10:22:27Z</time>
      </trkpt>
      <trkpt lat="44.88296" lon="5.6667">
        <ele>782.65</ele>
        <time>2013-06-30T10:22:29Z</time>
      </trkpt>
      <trkpt lat="44.88292" lon="5.6668">
        <ele>785.53</ele>
        <time>2013-06-30T10:22:38Z</time>
      </trkpt>
      <trkpt lat="44.8829" lon="5.66695">
        <ele>786.5</ele>
        <time>2013-06-30T10:22:45Z</time>
      </trkpt>
      <trkpt lat="44.8829" lon="5.66709">
        <ele>785.53</ele>
        <time>2013-06-30T10:22:49Z</time>
      </trkpt>
      <trkpt lat="44.88288" lon="5.66723">
        <ele>783.61</ele>
        <time>2013-06-30T10:22:52Z</time>
      </trkpt>
      <trkpt lat="44.88288" lon="5.66726">
        <ele>782.65</ele>
        <time>2013-06-30T10:22:53Z</time>
      </trkpt>
      <trkpt lat="44.88282" lon="5.66743">
        <ele>781.69</ele>
        <time>2013-06-30T10:22:55Z</time>
      </trkpt>
      <trkpt lat="44.88278" lon="5.66749">
        <ele>781.69</ele>
        <time>2013-06-30T10:22:56Z</time>
      </trkpt>
      <trkpt lat="44.88274" lon="5.66755">
        <ele>782.17</ele>
        <time>2013-06-30T10:22:57Z</time>
      </trkpt>
      <trkpt lat="44.88254" lon="5.66777">
        <ele>783.61</ele>
        <time>2013-06-30T10:23:05Z</time>
      </trkpt>
      <trkpt lat="44.88236" lon="5.66789">
        <ele>786.02</ele>
        <time>2013-06-30T10:23:16Z</time>
      </trkpt>
      <trkpt lat="44.88235" lon="5.66791">
        <ele>785.53</ele>
        <time>2013-06-30T10:23:17Z</time>
      </trkpt>
      <trkpt lat="44.88231" lon="5.66794">
        <ele>786.5</ele>
        <time>2013-06-30T10:23:19Z</time>
      </trkpt>
      <trkpt lat="44.88228" lon="5.66799">
        <ele>786.98</ele>
        <time>2013-06-30T10:23:21Z</time>
      </trkpt>
      <trkpt lat="44.88226" lon="5.668">
        <ele>786.5</ele>
        <time>2013-06-30T10:23:22Z</time>
      </trkpt>
      <trkpt lat="44.88217" lon="5.66812">
        <ele>787.94</ele>
        <time>2013-06-30T10:23:28Z</time>
      </trkpt>
      <trkpt lat="44.88216" lon="5.66813">
        <ele>787.94</ele>
        <time>2013-06-30T10:23:29Z</time>
      </trkpt>
      <trkpt lat="44.88201" lon="5.66828">
        <ele>790.34</ele>
        <time>2013-06-30T10:23:40Z</time>
      </trkpt>
      <trkpt lat="44.8819" lon="5.66841">
        <ele>792.74</ele>
        <time>2013-06-30T10:23:51Z</time>
      </trkpt>
      <trkpt lat="44.88187" lon="5.66845">
        <ele>793.22</ele>
        <time>2013-06-30T10:23:56Z</time>
      </trkpt>
      <trkpt lat="44.88186" lon="5.66847">
        <ele>793.71</ele>
        <time>2013-06-30T10:23:57Z</time>
      </trkpt>
      <trkpt lat="44.88184" lon="5.66848">
        <ele>793.22</ele>
        <time>2013-06-30T10:23:58Z</time>
      </trkpt>
      <trkpt lat="44.88171" lon="5.66861">
        <ele>795.15</ele>
        <time>2013-06-30T10:24:09Z</time>
      </trkpt>
      <trkpt lat="44.88157" lon="5.66874">
        <ele>796.59</ele>
        <time>2013-06-30T10:24:20Z</time>
      </trkpt>
      <trkpt lat="44.8814" lon="5.66882">
        <ele>798.03</ele>
        <time>2013-06-30T10:24:32Z</time>
      </trkpt>
      <trkpt lat="44.88123" lon="5.66887">
        <ele>800.44</ele>
        <time>2013-06-30T10:24:44Z</time>
      </trkpt>
      <trkpt lat="44.88108" lon="5.66891">
        <ele>801.88</ele>
        <time>2013-06-30T10:24:53Z</time>
      </trkpt>
      <trkpt lat="44.88106" lon="5.66891">
        <ele>801.88</ele>
        <time>2013-06-30T10:24:54Z</time>
      </trkpt>
      <trkpt lat="44.88097" lon="5.66894">
        <ele>802.36</ele>
        <time>2013-06-30T10:24:59Z</time>
      </trkpt>
      <trkpt lat="44.88089" lon="5.66894">
        <ele>803.32</ele>
        <time>2013-06-30T10:25:05Z</time>
      </trkpt>
      <trkpt lat="44.88086" lon="5.66894">
        <ele>803.32</ele>
        <time>2013-06-30T10:25:07Z</time>
      </trkpt>
      <trkpt lat="44.88084" lon="5.66894">
        <ele>804.28</ele>
        <time>2013-06-30T10:25:08Z</time>
      </trkpt>
      <trkpt lat="44.88082" lon="5.66895">
        <ele>804.28</ele>
        <time>2013-06-30T10:25:09Z</time>
      </trkpt>
      <trkpt lat="44.8808" lon="5.66896">
        <ele>803.8</ele>
        <time>2013-06-30T10:25:10Z</time>
      </trkpt>
      <trkpt lat="44.88078" lon="5.66896">
        <ele>804.76</ele>
        <time>2013-06-30T10:25:11Z</time>
      </trkpt>
      <trkpt lat="44.88076" lon="5.66896">
        <ele>804.28</ele>
        <time>2013-06-30T10:25:12Z</time>
      </trkpt>
      <trkpt lat="44.88073" lon="5.66897">
        <ele>804.76</ele>
        <time>2013-06-30T10:25:13Z</time>
      </trkpt>
      <trkpt lat="44.88051" lon="5.66906">
        <ele>806.2</ele>
        <time>2013-06-30T10:25:24Z</time>
      </trkpt>
      <trkpt lat="44.88049" lon="5.66907">
        <ele>806.2</ele>
        <time>2013-06-30T10:25:25Z</time>
      </trkpt>
      <trkpt lat="44.88046" lon="5.66908">
        <ele>806.2</ele>
        <time>2013-06-30T10:25:26Z</time>
      </trkpt>
      <trkpt lat="44.88043" lon="5.66909">
        <ele>806.2</ele>
        <time>2013-06-30T10:25:27Z</time>
      </trkpt>
      <trkpt lat="44.88041" lon="5.6691">
        <ele>806.2</ele>
        <time>2013-06-30T10:25:28Z</time>
      </trkpt>
      <trkpt lat="44.88007" lon="5.66922">
        <ele>805.72</ele>
        <time>2013-06-30T10:25:38Z</time>
      </trkpt>
      <trkpt lat="44.87989" lon="5.66929">
        <ele>806.68</ele>
        <time>2013-06-30T10:25:45Z</time>
      </trkpt>
      <trkpt lat="44.87977" lon="5.66966">
        <ele>810.05</ele>
        <time>2013-06-30T10:25:54Z</time>
      </trkpt>
      <trkpt lat="44.87967" lon="5.66989">
        <ele>811.49</ele>
        <time>2013-06-30T10:26:01Z</time>
      </trkpt>
      <trkpt lat="44.87966" lon="5.66991">
        <ele>811.49</ele>
        <time>2013-06-30T10:26:02Z</time>
      </trkpt>
      <trkpt lat="44.8796" lon="5.67003">
        <ele>812.45</ele>
        <time>2013-06-30T10:26:08Z</time>
      </trkpt>
      <trkpt lat="44.87959" lon="5.67004">
        <ele>812.45</ele>
        <time>2013-06-30T10:26:09Z</time>
      </trkpt>
      <trkpt lat="44.87957" lon="5.67006">
        <ele>812.45</ele>
        <time>2013-06-30T10:26:10Z</time>
      </trkpt>
      <trkpt lat="44.87949" lon="5.67013">
        <ele>813.89</ele>
        <time>2013-06-30T10:26:14Z</time>
      </trkpt>
      <trkpt lat="44.87947" lon="5.67015">
        <ele>814.37</ele>
        <time>2013-06-30T10:26:15Z</time>
      </trkpt>
      <trkpt lat="44.87945" lon="5.67016">
        <ele>813.89</ele>
        <time>2013-06-30T10:26:16Z</time>
      </trkpt>
      <trkpt lat="44.87943" lon="5.67018">
        <ele>814.37</ele>
        <time>2013-06-30T10:26:18Z</time>
      </trkpt>
      <trkpt lat="44.87934" lon="5.67024">
        <ele>815.82</ele>
        <time>2013-06-30T10:26:23Z</time>
      </trkpt>
      <trkpt lat="44.87932" lon="5.67026">
        <ele>816.3</ele>
        <time>2013-06-30T10:26:24Z</time>
      </trkpt>
      <trkpt lat="44.87908" lon="5.67041">
        <ele>817.74</ele>
        <time>2013-06-30T10:26:36Z</time>
      </trkpt>
      <trkpt lat="44.87881" lon="5.67063">
        <ele>818.7</ele>
        <time>2013-06-30T10:26:50Z</time>
      </trkpt>
      <trkpt lat="44.87878" lon="5.67065">
        <ele>818.7</ele>
        <time>2013-06-30T10:27:02Z</time>
      </trkpt>
      <trkpt lat="44.87877" lon="5.67066">
        <ele>819.18</ele>
        <time>2013-06-30T10:27:35Z</time>
      </trkpt>
      <trkpt lat="44.87876" lon="5.67067">
        <ele>818.7</ele>
        <time>2013-06-30T10:28:06Z</time>
      </trkpt>
      <trkpt lat="44.87876" lon="5.6707">
        <ele>818.7</ele>
        <time>2013-06-30T10:28:22Z</time>
      </trkpt>
      <trkpt lat="44.87876" lon="5.6707">
        <ele>818.7</ele>
        <time>2013-06-30T10:28:49Z</time>
      </trkpt>
      <trkpt lat="44.87875" lon="5.6707">
        <ele>819.18</ele>
        <time>2013-06-30T10:29:01Z</time>
      </trkpt>
      <trkpt lat="44.87873" lon="5.67071">
        <ele>818.7</ele>
        <time>2013-06-30T10:29:02Z</time>
      </trkpt>
      <trkpt lat="44.87871" lon="5.6707">
        <ele>819.18</ele>
        <time>2013-06-30T10:29:03Z</time>
      </trkpt>
      <trkpt lat="44.87869" lon="5.6707">
        <ele>819.18</ele>
        <time>2013-06-30T10:29:04Z</time>
      </trkpt>
      <trkpt lat="44.87867" lon="5.67068">
        <ele>819.18</ele>
        <time>2013-06-30T10:29:05Z</time>
      </trkpt>
      <trkpt lat="44.87854" lon="5.67038">
        <ele>820.62</ele>
        <time>2013-06-30T10:29:16Z</time>
      </trkpt>
      <trkpt lat="44.87843" lon="5.66987">
        <ele>819.66</ele>
        <time>2013-06-30T10:29:28Z</time>
      </trkpt>
      <trkpt lat="44.87831" lon="5.66955">
        <ele>816.3</ele>
        <time>2013-06-30T10:29:33Z</time>
      </trkpt>
      <trkpt lat="44.87815" lon="5.66926">
        <ele>812.93</ele>
        <time>2013-06-30T10:29:37Z</time>
      </trkpt>
      <trkpt lat="44.87811" lon="5.66919">
        <ele>812.93</ele>
        <time>2013-06-30T10:29:38Z</time>
      </trkpt>
      <trkpt lat="44.87795" lon="5.669">
        <ele>811.01</ele>
        <time>2013-06-30T10:29:41Z</time>
      </trkpt>
      <trkpt lat="44.8779" lon="5.66895">
        <ele>809.57</ele>
        <time>2013-06-30T10:29:42Z</time>
      </trkpt>
      <trkpt lat="44.87784" lon="5.66891">
        <ele>808.61</ele>
        <time>2013-06-30T10:29:43Z</time>
      </trkpt>
      <trkpt lat="44.87777" lon="5.66888">
        <ele>808.13</ele>
        <time>2013-06-30T10:29:44Z</time>
      </trkpt>
      <trkpt lat="44.87771" lon="5.66887">
        <ele>807.16</ele>
        <time>2013-06-30T10:29:45Z</time>
      </trkpt>
      <trkpt lat="44.87764" lon="5.66886">
        <ele>806.68</ele>
        <time>2013-06-30T10:29:46Z</time>
      </trkpt>
      <trkpt lat="44.87757" lon="5.66883">
        <ele>805.24</ele>
        <time>2013-06-30T10:29:47Z</time>
      </trkpt>
      <trkpt lat="44.87749" lon="5.6688">
        <ele>804.76</ele>
        <time>2013-06-30T10:29:48Z</time>
      </trkpt>
      <trkpt lat="44.87741" lon="5.66877">
        <ele>804.28</ele>
        <time>2013-06-30T10:29:49Z</time>
      </trkpt>
      <trkpt lat="44.87735" lon="5.66874">
        <ele>803.8</ele>
        <time>2013-06-30T10:29:50Z</time>
      </trkpt>
      <trkpt lat="44.87728" lon="5.66872">
        <ele>803.32</ele>
        <time>2013-06-30T10:29:51Z</time>
      </trkpt>
      <trkpt lat="44.87694" lon="5.66859">
        <ele>800.44</ele>
        <time>2013-06-30T10:29:57Z</time>
      </trkpt>
      <trkpt lat="44.87691" lon="5.66855">
        <ele>799.47</ele>
        <time>2013-06-30T10:29:58Z</time>
      </trkpt>
      <trkpt lat="44.87689" lon="5.6685">
        <ele>798.99</ele>
        <time>2013-06-30T10:29:59Z</time>
      </trkpt>
      <trkpt lat="44.87686" lon="5.66835">
        <ele>797.07</ele>
        <time>2013-06-30T10:30:02Z</time>
      </trkpt>
      <trkpt lat="44.87686" lon="5.66829">
        <ele>797.07</ele>
        <time>2013-06-30T10:30:03Z</time>
      </trkpt>
      <trkpt lat="44.87687" lon="5.66823">
        <ele>797.55</ele>
        <time>2013-06-30T10:30:04Z</time>
      </trkpt>
      <trkpt lat="44.87687" lon="5.66818">
        <ele>797.55</ele>
        <time>2013-06-30T10:30:05Z</time>
      </trkpt>
      <trkpt lat="44.87687" lon="5.66813">
        <ele>797.55</ele>
        <time>2013-06-30T10:30:06Z</time>
      </trkpt>
      <trkpt lat="44.87685" lon="5.66809">
        <ele>797.07</ele>
        <time>2013-06-30T10:30:07Z</time>
      </trkpt>
      <trkpt lat="44.87684" lon="5.66807">
        <ele>797.55</ele>
        <time>2013-06-30T10:30:15Z</time>
      </trkpt>
      <trkpt lat="44.8768" lon="5.66805">
        <ele>794.67</ele>
        <time>2013-06-30T10:30:26Z</time>
      </trkpt>
      <trkpt lat="44.87674" lon="5.66809">
        <ele>791.78</ele>
        <time>2013-06-30T10:30:32Z</time>
      </trkpt>
      <trkpt lat="44.87673" lon="5.6681">
        <ele>790.82</ele>
        <time>2013-06-30T10:30:38Z</time>
      </trkpt>
      <trkpt lat="44.8767" lon="5.66822">
        <ele>789.38</ele>
        <time>2013-06-30T10:30:43Z</time>
      </trkpt>
      <trkpt lat="44.8767" lon="5.66839">
        <ele>790.34</ele>
        <time>2013-06-30T10:30:49Z</time>
      </trkpt>
      <trkpt lat="44.87673" lon="5.66878">
        <ele>791.78</ele>
        <time>2013-06-30T10:31:04Z</time>
      </trkpt>
      <trkpt lat="44.87666" lon="5.66895">
        <ele>788.9</ele>
        <time>2013-06-30T10:31:11Z</time>
      </trkpt>
      <trkpt lat="44.87656" lon="5.66904">
        <ele>786.02</ele>
        <time>2013-06-30T10:31:15Z</time>
      </trkpt>
      <trkpt lat="44.87648" lon="5.66911">
        <ele>783.13</ele>
        <time>2013-06-30T10:31:18Z</time>
      </trkpt>
      <trkpt lat="44.87645" lon="5.66912">
        <ele>782.17</ele>
        <time>2013-06-30T10:31:21Z</time>
      </trkpt>
      <trkpt lat="44.87643" lon="5.66915">
        <ele>780.73</ele>
        <time>2013-06-30T10:31:23Z</time>
      </trkpt>
      <trkpt lat="44.87638" lon="5.66934">
        <ele>777.84</ele>
        <time>2013-06-30T10:31:27Z</time>
      </trkpt>
      <trkpt lat="44.87636" lon="5.66947">
        <ele>775.44</ele>
        <time>2013-06-30T10:31:30Z</time>
      </trkpt>
      <trkpt lat="44.87627" lon="5.66953">
        <ele>774.96</ele>
        <time>2013-06-30T10:31:33Z</time>
      </trkpt>
      <trkpt lat="44.87617" lon="5.66956">
        <ele>772.56</ele>
        <time>2013-06-30T10:31:37Z</time>
      </trkpt>
      <trkpt lat="44.876" lon="5.66964">
        <ele>768.23</ele>
        <time>2013-06-30T10:31:43Z</time>
      </trkpt>
      <trkpt lat="44.87598" lon="5.66971">
        <ele>767.27</ele>
        <time>2013-06-30T10:31:45Z</time>
      </trkpt>
      <trkpt lat="44.87598" lon="5.66975">
        <ele>767.27</ele>
        <time>2013-06-30T10:31:46Z</time>
      </trkpt>
      <trkpt lat="44.87596" lon="5.66982">
        <ele>766.31</ele>
        <time>2013-06-30T10:31:48Z</time>
      </trkpt>
      <trkpt lat="44.87596" lon="5.67006">
        <ele>767.27</ele>
        <time>2013-06-30T10:31:54Z</time>
      </trkpt>
      <trkpt lat="44.87599" lon="5.6702">
        <ele>768.71</ele>
        <time>2013-06-30T10:32:07Z</time>
      </trkpt>
      <trkpt lat="44.87601" lon="5.67022">
        <ele>768.71</ele>
        <time>2013-06-30T10:32:33Z</time>
      </trkpt>
      <trkpt lat="44.876" lon="5.67024">
        <ele>769.19</ele>
        <time>2013-06-30T10:32:43Z</time>
      </trkpt>
      <trkpt lat="44.87605" lon="5.67035">
        <ele>769.19</ele>
        <time>2013-06-30T10:32:49Z</time>
      </trkpt>
      <trkpt lat="44.87607" lon="5.67053">
        <ele>766.31</ele>
        <time>2013-06-30T10:32:54Z</time>
      </trkpt>
      <trkpt lat="44.87607" lon="5.67057">
        <ele>767.75</ele>
        <time>2013-06-30T10:32:55Z</time>
      </trkpt>
      <trkpt lat="44.87609" lon="5.67062">
        <ele>768.71</ele>
        <time>2013-06-30T10:32:57Z</time>
      </trkpt>
      <trkpt lat="44.87612" lon="5.6708">
        <ele>767.27</ele>
        <time>2013-06-30T10:33:03Z</time>
      </trkpt>
      <trkpt lat="44.87591" lon="5.67083">
        <ele>762.94</ele>
        <time>2013-06-30T10:33:10Z</time>
      </trkpt>
      <trkpt lat="44.87579" lon="5.67083">
        <ele>760.06</ele>
        <time>2013-06-30T10:33:15Z</time>
      </trkpt>
      <trkpt lat="44.87554" lon="5.6708">
        <ele>756.69</ele>
        <time>2013-06-30T10:33:20Z</time>
      </trkpt>
      <trkpt lat="44.87549" lon="5.67079">
        <ele>754.77</ele>
        <time>2013-06-30T10:33:22Z</time>
      </trkpt>
      <trkpt lat="44.87533" lon="5.67077">
        <ele>751.41</ele>
        <time>2013-06-30T10:33:27Z</time>
      </trkpt>
      <trkpt lat="44.87525" lon="5.67077">
        <ele>749</ele>
        <time>2013-06-30T10:33:30Z</time>
      </trkpt>
      <trkpt lat="44.87516" lon="5.67079">
        <ele>746.12</ele>
        <time>2013-06-30T10:33:33Z</time>
      </trkpt>
      <trkpt lat="44.87502" lon="5.6708">
        <ele>742.76</ele>
        <time>2013-06-30T10:33:37Z</time>
      </trkpt>
      <trkpt lat="44.87478" lon="5.67069">
        <ele>738.91</ele>
        <time>2013-06-30T10:33:44Z</time>
      </trkpt>
      <trkpt lat="44.87452" lon="5.67058">
        <ele>736.51</ele>
        <time>2013-06-30T10:33:50Z</time>
      </trkpt>
      <trkpt lat="44.87433" lon="5.67055">
        <ele>732.66</ele>
        <time>2013-06-30T10:33:55Z</time>
      </trkpt>
      <trkpt lat="44.87415" lon="5.67051">
        <ele>729.78</ele>
        <time>2013-06-30T10:34:00Z</time>
      </trkpt>
      <trkpt lat="44.87395" lon="5.67047">
        <ele>725.93</ele>
        <time>2013-06-30T10:34:05Z</time>
      </trkpt>
      <trkpt lat="44.8738" lon="5.67044">
        <ele>722.57</ele>
        <time>2013-06-30T10:34:09Z</time>
      </trkpt>
      <trkpt lat="44.8737" lon="5.6704">
        <ele>719.68</ele>
        <time>2013-06-30T10:34:13Z</time>
      </trkpt>
      <trkpt lat="44.87359" lon="5.67039">
        <ele>716.8</ele>
        <time>2013-06-30T10:34:17Z</time>
      </trkpt>
      <trkpt lat="44.87353" lon="5.67036">
        <ele>714.88</ele>
        <time>2013-06-30T10:34:19Z</time>
      </trkpt>
      <trkpt lat="44.8734" lon="5.67033">
        <ele>711.03</ele>
        <time>2013-06-30T10:34:23Z</time>
      </trkpt>
      <trkpt lat="44.87325" lon="5.6703">
        <ele>707.67</ele>
        <time>2013-06-30T10:34:27Z</time>
      </trkpt>
      <trkpt lat="44.87312" lon="5.67031">
        <ele>704.78</ele>
        <time>2013-06-30T10:34:31Z</time>
      </trkpt>
      <trkpt lat="44.87295" lon="5.67037">
        <ele>702.38</ele>
        <time>2013-06-30T10:34:37Z</time>
      </trkpt>
      <trkpt lat="44.87291" lon="5.67037">
        <ele>701.9</ele>
        <time>2013-06-30T10:34:38Z</time>
      </trkpt>
      <trkpt lat="44.87288" lon="5.67039">
        <ele>701.9</ele>
        <time>2013-06-30T10:34:39Z</time>
      </trkpt>
      <trkpt lat="44.87285" lon="5.67039">
        <ele>701.42</ele>
        <time>2013-06-30T10:34:40Z</time>
      </trkpt>
      <trkpt lat="44.87282" lon="5.67039">
        <ele>700.94</ele>
        <time>2013-06-30T10:34:41Z</time>
      </trkpt>
      <trkpt lat="44.87279" lon="5.67038">
        <ele>699.98</ele>
        <time>2013-06-30T10:34:42Z</time>
      </trkpt>
      <trkpt lat="44.87276" lon="5.67037">
        <ele>699.98</ele>
        <time>2013-06-30T10:34:43Z</time>
      </trkpt>
      <trkpt lat="44.87266" lon="5.67035">
        <ele>697.09</ele>
        <time>2013-06-30T10:34:47Z</time>
      </trkpt>
      <trkpt lat="44.87257" lon="5.67032">
        <ele>694.21</ele>
        <time>2013-06-30T10:34:50Z</time>
      </trkpt>
      <trkpt lat="44.87247" lon="5.6703">
        <ele>691.33</ele>
        <time>2013-06-30T10:34:54Z</time>
      </trkpt>
      <trkpt lat="44.87239" lon="5.6703">
        <ele>689.4</ele>
        <time>2013-06-30T10:34:57Z</time>
      </trkpt>
      <trkpt lat="44.87233" lon="5.6703">
        <ele>687.48</ele>
        <time>2013-06-30T10:35:00Z</time>
      </trkpt>
      <trkpt lat="44.8723" lon="5.67031">
        <ele>687</ele>
        <time>2013-06-30T10:35:01Z</time>
      </trkpt>
      <trkpt lat="44.87227" lon="5.6703">
        <ele>686.52</ele>
        <time>2013-06-30T10:35:02Z</time>
      </trkpt>
      <trkpt lat="44.87225" lon="5.6703">
        <ele>685.56</ele>
        <time>2013-06-30T10:35:03Z</time>
      </trkpt>
      <trkpt lat="44.87216" lon="5.67028">
        <ele>684.12</ele>
        <time>2013-06-30T10:35:05Z</time>
      </trkpt>
      <trkpt lat="44.87214" lon="5.6703">
        <ele>684.12</ele>
        <time>2013-06-30T10:35:06Z</time>
      </trkpt>
      <trkpt lat="44.87212" lon="5.6703">
        <ele>683.63</ele>
        <time>2013-06-30T10:35:07Z</time>
      </trkpt>
      <trkpt lat="44.87206" lon="5.67028">
        <ele>683.15</ele>
        <time>2013-06-30T10:35:13Z</time>
      </trkpt>
      <trkpt lat="44.87204" lon="5.67029">
        <ele>682.67</ele>
        <time>2013-06-30T10:35:14Z</time>
      </trkpt>
      <trkpt lat="44.87202" lon="5.67029">
        <ele>682.67</ele>
        <time>2013-06-30T10:35:15Z</time>
      </trkpt>
      <trkpt lat="44.87199" lon="5.67026">
        <ele>682.19</ele>
        <time>2013-06-30T10:35:20Z</time>
      </trkpt>
      <trkpt lat="44.872" lon="5.67024">
        <ele>681.71</ele>
        <time>2013-06-30T10:35:21Z</time>
      </trkpt>
      <trkpt lat="44.87206" lon="5.6701">
        <ele>677.87</ele>
        <time>2013-06-30T10:35:26Z</time>
      </trkpt>
      <trkpt lat="44.87211" lon="5.67003">
        <ele>676.91</ele>
        <time>2013-06-30T10:35:28Z</time>
      </trkpt>
      <trkpt lat="44.87219" lon="5.66982">
        <ele>673.54</ele>
        <time>2013-06-30T10:35:35Z</time>
      </trkpt>
      <trkpt lat="44.87218" lon="5.66981">
        <ele>673.06</ele>
        <time>2013-06-30T10:35:36Z</time>
      </trkpt>
      <trkpt lat="44.87208" lon="5.66979">
        <ele>669.7</ele>
        <time>2013-06-30T10:35:41Z</time>
      </trkpt>
      <trkpt lat="44.87203" lon="5.66979">
        <ele>668.73</ele>
        <time>2013-06-30T10:35:43Z</time>
      </trkpt>
      <trkpt lat="44.87197" lon="5.66977">
        <ele>666.81</ele>
        <time>2013-06-30T10:35:45Z</time>
      </trkpt>
      <trkpt lat="44.87181" lon="5.66975">
        <ele>662.49</ele>
        <time>2013-06-30T10:35:52Z</time>
      </trkpt>
      <trkpt lat="44.87179" lon="5.66975">
        <ele>662.01</ele>
        <time>2013-06-30T10:35:53Z</time>
      </trkpt>
      <trkpt lat="44.87171" lon="5.66975">
        <ele>659.6</ele>
        <time>2013-06-30T10:35:57Z</time>
      </trkpt>
      <trkpt lat="44.87164" lon="5.66976">
        <ele>656.72</ele>
        <time>2013-06-30T10:36:00Z</time>
      </trkpt>
      <trkpt lat="44.87151" lon="5.66973">
        <ele>653.35</ele>
        <time>2013-06-30T10:36:04Z</time>
      </trkpt>
      <trkpt lat="44.87135" lon="5.66971">
        <ele>649.99</ele>
        <time>2013-06-30T10:36:09Z</time>
      </trkpt>
      <trkpt lat="44.87123" lon="5.66969">
        <ele>647.1</ele>
        <time>2013-06-30T10:36:13Z</time>
      </trkpt>
      <trkpt lat="44.87108" lon="5.66965">
        <ele>643.74</ele>
        <time>2013-06-30T10:36:18Z</time>
      </trkpt>
      <trkpt lat="44.87099" lon="5.66964">
        <ele>641.82</ele>
        <time>2013-06-30T10:36:21Z</time>
      </trkpt>
      <trkpt lat="44.87094" lon="5.66965">
        <ele>640.86</ele>
        <time>2013-06-30T10:36:23Z</time>
      </trkpt>
      <trkpt lat="44.87081" lon="5.66965">
        <ele>637.01</ele>
        <time>2013-06-30T10:36:29Z</time>
      </trkpt>
      <trkpt lat="44.87076" lon="5.66963">
        <ele>635.57</ele>
        <time>2013-06-30T10:36:31Z</time>
      </trkpt>
      <trkpt lat="44.87067" lon="5.6696">
        <ele>633.17</ele>
        <time>2013-06-30T10:36:34Z</time>
      </trkpt>
      <trkpt lat="44.87065" lon="5.66958">
        <ele>632.68</ele>
        <time>2013-06-30T10:36:35Z</time>
      </trkpt>
      <trkpt lat="44.87056" lon="5.66949">
        <ele>628.84</ele>
        <time>2013-06-30T10:36:40Z</time>
      </trkpt>
      <trkpt lat="44.87054" lon="5.6695">
        <ele>628.36</ele>
        <time>2013-06-30T10:36:41Z</time>
      </trkpt>
      <trkpt lat="44.87049" lon="5.66948">
        <ele>626.92</ele>
        <time>2013-06-30T10:36:44Z</time>
      </trkpt>
      <trkpt lat="44.87042" lon="5.6695">
        <ele>625.96</ele>
        <time>2013-06-30T10:36:55Z</time>
      </trkpt>
      <trkpt lat="44.87039" lon="5.66952">
        <ele>624.51</ele>
        <time>2013-06-30T10:37:03Z</time>
      </trkpt>
      <trkpt lat="44.87036" lon="5.66954">
        <ele>622.59</ele>
        <time>2013-06-30T10:37:06Z</time>
      </trkpt>
      <trkpt lat="44.87029" lon="5.66951">
        <ele>620.19</ele>
        <time>2013-06-30T10:37:09Z</time>
      </trkpt>
      <trkpt lat="44.87017" lon="5.66944">
        <ele>616.34</ele>
        <time>2013-06-30T10:37:14Z</time>
      </trkpt>
      <trkpt lat="44.87013" lon="5.66935">
        <ele>614.42</ele>
        <time>2013-06-30T10:37:17Z</time>
      </trkpt>
      <trkpt lat="44.87008" lon="5.66932">
        <ele>612.5</ele>
        <time>2013-06-30T10:37:20Z</time>
      </trkpt>
      <trkpt lat="44.87001" lon="5.66918">
        <ele>608.65</ele>
        <time>2013-06-30T10:37:25Z</time>
      </trkpt>
      <trkpt lat="44.87" lon="5.66904">
        <ele>605.77</ele>
        <time>2013-06-30T10:37:29Z</time>
      </trkpt>
      <trkpt lat="44.87001" lon="5.66898">
        <ele>603.85</ele>
        <time>2013-06-30T10:37:31Z</time>
      </trkpt>
      <trkpt lat="44.87002" lon="5.66894">
        <ele>602.4</ele>
        <time>2013-06-30T10:37:33Z</time>
      </trkpt>
      <trkpt lat="44.87002" lon="5.66891">
        <ele>600.96</ele>
        <time>2013-06-30T10:37:35Z</time>
      </trkpt>
      <trkpt lat="44.86999" lon="5.66885">
        <ele>597.6</ele>
        <time>2013-06-30T10:37:39Z</time>
      </trkpt>
      <trkpt lat="44.87" lon="5.66885">
        <ele>597.12</ele>
        <time>2013-06-30T10:37:40Z</time>
      </trkpt>
      <trkpt lat="44.86988" lon="5.66877">
        <ele>595.19</ele>
        <time>2013-06-30T10:37:43Z</time>
      </trkpt>
      <trkpt lat="44.86982" lon="5.66871">
        <ele>593.75</ele>
        <time>2013-06-30T10:37:46Z</time>
      </trkpt>
      <trkpt lat="44.86976" lon="5.66858">
        <ele>589.91</ele>
        <time>2013-06-30T10:37:51Z</time>
      </trkpt>
      <trkpt lat="44.86971" lon="5.66848">
        <ele>588.95</ele>
        <time>2013-06-30T10:37:54Z</time>
      </trkpt>
      <trkpt lat="44.86953" lon="5.66835">
        <ele>587.5</ele>
        <time>2013-06-30T10:37:56Z</time>
      </trkpt>
      <trkpt lat="44.86937" lon="5.66845">
        <ele>584.62</ele>
        <time>2013-06-30T10:38:01Z</time>
      </trkpt>
      <trkpt lat="44.86931" lon="5.66862">
        <ele>584.14</ele>
        <time>2013-06-30T10:38:08Z</time>
      </trkpt>
      <trkpt lat="44.86932" lon="5.66862">
        <ele>584.14</ele>
        <time>2013-06-30T10:38:28Z</time>
      </trkpt>
      <trkpt lat="44.86932" lon="5.66862">
        <ele>584.14</ele>
        <time>2013-06-30T10:38:49Z</time>
      </trkpt>
      <trkpt lat="44.86931" lon="5.66862">
        <ele>584.14</ele>
        <time>2013-06-30T10:39:13Z</time>
      </trkpt>
      <trkpt lat="44.86931" lon="5.66862">
        <ele>584.62</ele>
        <time>2013-06-30T10:39:29Z</time>
      </trkpt>
      <trkpt lat="44.8693" lon="5.66888">
        <ele>582.7</ele>
        <time>2013-06-30T10:39:41Z</time>
      </trkpt>
      <trkpt lat="44.8693" lon="5.6691">
        <ele>581.25</ele>
        <time>2013-06-30T10:39:44Z</time>
      </trkpt>
      <trkpt lat="44.8693" lon="5.66937">
        <ele>579.33</ele>
        <time>2013-06-30T10:39:47Z</time>
      </trkpt>
      <trkpt lat="44.8693" lon="5.66957">
        <ele>577.89</ele>
        <time>2013-06-30T10:39:49Z</time>
      </trkpt>
      <trkpt lat="44.86929" lon="5.66967">
        <ele>577.89</ele>
        <time>2013-06-30T10:39:50Z</time>
      </trkpt>
      <trkpt lat="44.86929" lon="5.66978">
        <ele>576.45</ele>
        <time>2013-06-30T10:39:51Z</time>
      </trkpt>
      <trkpt lat="44.8693" lon="5.67">
        <ele>575.49</ele>
        <time>2013-06-30T10:39:53Z</time>
      </trkpt>
      <trkpt lat="44.86929" lon="5.67018">
        <ele>575.01</ele>
        <time>2013-06-30T10:39:55Z</time>
      </trkpt>
      <trkpt lat="44.86927" lon="5.67025">
        <ele>574.53</ele>
        <time>2013-06-30T10:39:56Z</time>
      </trkpt>
      <trkpt lat="44.86924" lon="5.6703">
        <ele>574.53</ele>
        <time>2013-06-30T10:39:57Z</time>
      </trkpt>
      <trkpt lat="44.86919" lon="5.67032">
        <ele>574.53</ele>
        <time>2013-06-30T10:39:58Z</time>
      </trkpt>
      <trkpt lat="44.86914" lon="5.6703">
        <ele>574.04</ele>
        <time>2013-06-30T10:39:59Z</time>
      </trkpt>
      <trkpt lat="44.8691" lon="5.67023">
        <ele>573.08</ele>
        <time>2013-06-30T10:40:00Z</time>
      </trkpt>
      <trkpt lat="44.86909" lon="5.67014">
        <ele>572.6</ele>
        <time>2013-06-30T10:40:01Z</time>
      </trkpt>
      <trkpt lat="44.8691" lon="5.67005">
        <ele>572.6</ele>
        <time>2013-06-30T10:40:02Z</time>
      </trkpt>
      <trkpt lat="44.86911" lon="5.66996">
        <ele>572.6</ele>
        <time>2013-06-30T10:40:03Z</time>
      </trkpt>
      <trkpt lat="44.86913" lon="5.66987">
        <ele>572.12</ele>
        <time>2013-06-30T10:40:04Z</time>
      </trkpt>
      <trkpt lat="44.86913" lon="5.66977">
        <ele>572.12</ele>
        <time>2013-06-30T10:40:05Z</time>
      </trkpt>
      <trkpt lat="44.86912" lon="5.66936">
        <ele>570.68</ele>
        <time>2013-06-30T10:40:09Z</time>
      </trkpt>
      <trkpt lat="44.8691" lon="5.66926">
        <ele>569.24</ele>
        <time>2013-06-30T10:40:10Z</time>
      </trkpt>
      <trkpt lat="44.86907" lon="5.66915">
        <ele>569.24</ele>
        <time>2013-06-30T10:40:11Z</time>
      </trkpt>
      <trkpt lat="44.86903" lon="5.66905">
        <ele>568.28</ele>
        <time>2013-06-30T10:40:12Z</time>
      </trkpt>
      <trkpt lat="44.86899" lon="5.66895">
        <ele>567.32</ele>
        <time>2013-06-30T10:40:13Z</time>
      </trkpt>
      <trkpt lat="44.86895" lon="5.66884">
        <ele>566.83</ele>
        <time>2013-06-30T10:40:14Z</time>
      </trkpt>
      <trkpt lat="44.86883" lon="5.66852">
        <ele>564.91</ele>
        <time>2013-06-30T10:40:17Z</time>
      </trkpt>
      <trkpt lat="44.86882" lon="5.66841">
        <ele>564.43</ele>
        <time>2013-06-30T10:40:18Z</time>
      </trkpt>
      <trkpt lat="44.86879" lon="5.6682">
        <ele>563.95</ele>
        <time>2013-06-30T10:40:21Z</time>
      </trkpt>
      <trkpt lat="44.86871" lon="5.66811">
        <ele>563.47</ele>
        <time>2013-06-30T10:40:22Z</time>
      </trkpt>
      <trkpt lat="44.86866" lon="5.66813">
        <ele>563.47</ele>
        <time>2013-06-30T10:40:23Z</time>
      </trkpt>
      <trkpt lat="44.86863" lon="5.66819">
        <ele>562.99</ele>
        <time>2013-06-30T10:40:24Z</time>
      </trkpt>
      <trkpt lat="44.86862" lon="5.66826">
        <ele>562.51</ele>
        <time>2013-06-30T10:40:25Z</time>
      </trkpt>
      <trkpt lat="44.86862" lon="5.66835">
        <ele>562.03</ele>
        <time>2013-06-30T10:40:26Z</time>
      </trkpt>
      <trkpt lat="44.86862" lon="5.66844">
        <ele>561.55</ele>
        <time>2013-06-30T10:40:27Z</time>
      </trkpt>
      <trkpt lat="44.86862" lon="5.66872">
        <ele>559.14</ele>
        <time>2013-06-30T10:40:30Z</time>
      </trkpt>
      <trkpt lat="44.86854" lon="5.66939">
        <ele>555.78</ele>
        <time>2013-06-30T10:40:36Z</time>
      </trkpt>
      <trkpt lat="44.86852" lon="5.6695">
        <ele>555.78</ele>
        <time>2013-06-30T10:40:37Z</time>
      </trkpt>
      <trkpt lat="44.86847" lon="5.66987">
        <ele>553.38</ele>
        <time>2013-06-30T10:40:41Z</time>
      </trkpt>
      <trkpt lat="44.86846" lon="5.66995">
        <ele>552.41</ele>
        <time>2013-06-30T10:40:42Z</time>
      </trkpt>
      <trkpt lat="44.86843" lon="5.67004">
        <ele>553.38</ele>
        <time>2013-06-30T10:40:43Z</time>
      </trkpt>
      <trkpt lat="44.86841" lon="5.67013">
        <ele>552.9</ele>
        <time>2013-06-30T10:40:44Z</time>
      </trkpt>
      <trkpt lat="44.86837" lon="5.67021">
        <ele>551.93</ele>
        <time>2013-06-30T10:40:45Z</time>
      </trkpt>
      <trkpt lat="44.86834" lon="5.67029">
        <ele>551.93</ele>
        <time>2013-06-30T10:40:46Z</time>
      </trkpt>
      <trkpt lat="44.86821" lon="5.67056">
        <ele>553.86</ele>
        <time>2013-06-30T10:40:50Z</time>
      </trkpt>
      <trkpt lat="44.86813" lon="5.6708">
        <ele>553.86</ele>
        <time>2013-06-30T10:40:58Z</time>
      </trkpt>
      <trkpt lat="44.86814" lon="5.67079">
        <ele>553.86</ele>
        <time>2013-06-30T10:41:17Z</time>
      </trkpt>
      <trkpt lat="44.86813" lon="5.6708">
        <ele>553.38</ele>
        <time>2013-06-30T10:41:43Z</time>
      </trkpt>
      <trkpt lat="44.86813" lon="5.67081">
        <ele>552.9</ele>
        <time>2013-06-30T10:42:19Z</time>
      </trkpt>
      <trkpt lat="44.86814" lon="5.67082">
        <ele>553.38</ele>
        <time>2013-06-30T10:42:54Z</time>
      </trkpt>
      <trkpt lat="44.86816" lon="5.67082">
        <ele>553.38</ele>
        <time>2013-06-30T10:43:33Z</time>
      </trkpt>
      <trkpt lat="44.86815" lon="5.67081">
        <ele>552.41</ele>
        <time>2013-06-30T10:44:13Z</time>
      </trkpt>
      <trkpt lat="44.86812" lon="5.67084">
        <ele>552.9</ele>
        <time>2013-06-30T10:44:30Z</time>
      </trkpt>
      <trkpt lat="44.86795" lon="5.6712">
        <ele>551.45</ele>
        <time>2013-06-30T10:44:42Z</time>
      </trkpt>
      <trkpt lat="44.86774" lon="5.67169">
        <ele>551.45</ele>
        <time>2013-06-30T10:44:54Z</time>
      </trkpt>
      <trkpt lat="44.86754" lon="5.67204">
        <ele>555.3</ele>
        <time>2013-06-30T10:45:07Z</time>
      </trkpt>
      <trkpt lat="44.86736" lon="5.67243">
        <ele>557.22</ele>
        <time>2013-06-30T10:45:24Z</time>
      </trkpt>
      <trkpt lat="44.86729" lon="5.67275">
        <ele>558.66</ele>
        <time>2013-06-30T10:45:36Z</time>
      </trkpt>
      <trkpt lat="44.86727" lon="5.67312">
        <ele>561.07</ele>
        <time>2013-06-30T10:45:49Z</time>
      </trkpt>
      <trkpt lat="44.86727" lon="5.67315">
        <ele>561.07</ele>
        <time>2013-06-30T10:45:50Z</time>
      </trkpt>
      <trkpt lat="44.86727" lon="5.67318">
        <ele>561.07</ele>
        <time>2013-06-30T10:45:51Z</time>
      </trkpt>
      <trkpt lat="44.86727" lon="5.67321">
        <ele>561.55</ele>
        <time>2013-06-30T10:45:52Z</time>
      </trkpt>
      <trkpt lat="44.86726" lon="5.67324">
        <ele>561.55</ele>
        <time>2013-06-30T10:45:53Z</time>
      </trkpt>
      <trkpt lat="44.86726" lon="5.67327">
        <ele>562.03</ele>
        <time>2013-06-30T10:45:54Z</time>
      </trkpt>
      <trkpt lat="44.86726" lon="5.6733">
        <ele>562.03</ele>
        <time>2013-06-30T10:45:55Z</time>
      </trkpt>
      <trkpt lat="44.86726" lon="5.67333">
        <ele>562.51</ele>
        <time>2013-06-30T10:45:56Z</time>
      </trkpt>
      <trkpt lat="44.86728" lon="5.67336">
        <ele>562.51</ele>
        <time>2013-06-30T10:45:57Z</time>
      </trkpt>
      <trkpt lat="44.8673" lon="5.6735">
        <ele>562.99</ele>
        <time>2013-06-30T10:46:02Z</time>
      </trkpt>
      <trkpt lat="44.8673" lon="5.67353">
        <ele>563.47</ele>
        <time>2013-06-30T10:46:03Z</time>
      </trkpt>
      <trkpt lat="44.86728" lon="5.6737">
        <ele>564.43</ele>
        <time>2013-06-30T10:46:09Z</time>
      </trkpt>
      <trkpt lat="44.86728" lon="5.67373">
        <ele>564.43</ele>
        <time>2013-06-30T10:46:10Z</time>
      </trkpt>
      <trkpt lat="44.86727" lon="5.67382">
        <ele>564.91</ele>
        <time>2013-06-30T10:46:13Z</time>
      </trkpt>
      <trkpt lat="44.86728" lon="5.67385">
        <ele>564.43</ele>
        <time>2013-06-30T10:46:14Z</time>
      </trkpt>
      <trkpt lat="44.86722" lon="5.67427">
        <ele>566.35</ele>
        <time>2013-06-30T10:46:27Z</time>
      </trkpt>
      <trkpt lat="44.86716" lon="5.67468">
        <ele>568.76</ele>
        <time>2013-06-30T10:46:40Z</time>
      </trkpt>
      <trkpt lat="44.86716" lon="5.67508">
        <ele>571.16</ele>
        <time>2013-06-30T10:46:54Z</time>
      </trkpt>
      <trkpt lat="44.86722" lon="5.6755">
        <ele>574.04</ele>
        <time>2013-06-30T10:47:08Z</time>
      </trkpt>
      <trkpt lat="44.86723" lon="5.67563">
        <ele>574.53</ele>
        <time>2013-06-30T10:47:12Z</time>
      </trkpt>
      <trkpt lat="44.86724" lon="5.67566">
        <ele>574.53</ele>
        <time>2013-06-30T10:47:13Z</time>
      </trkpt>
      <trkpt lat="44.86725" lon="5.67569">
        <ele>575.01</ele>
        <time>2013-06-30T10:47:14Z</time>
      </trkpt>
      <trkpt lat="44.86725" lon="5.67572">
        <ele>575.01</ele>
        <time>2013-06-30T10:47:15Z</time>
      </trkpt>
      <trkpt lat="44.86726" lon="5.67575">
        <ele>575.01</ele>
        <time>2013-06-30T10:47:16Z</time>
      </trkpt>
      <trkpt lat="44.86729" lon="5.67623">
        <ele>575.97</ele>
        <time>2013-06-30T10:47:31Z</time>
      </trkpt>
      <trkpt lat="44.86722" lon="5.67657">
        <ele>579.33</ele>
        <time>2013-06-30T10:47:43Z</time>
      </trkpt>
      <trkpt lat="44.86713" lon="5.67659">
        <ele>579.81</ele>
        <time>2013-06-30T10:47:48Z</time>
      </trkpt>
      <trkpt lat="44.86711" lon="5.67657">
        <ele>580.29</ele>
        <time>2013-06-30T10:47:49Z</time>
      </trkpt>
      <trkpt lat="44.8671" lon="5.67655">
        <ele>579.81</ele>
        <time>2013-06-30T10:47:50Z</time>
      </trkpt>
      <trkpt lat="44.86709" lon="5.67652">
        <ele>580.29</ele>
        <time>2013-06-30T10:47:51Z</time>
      </trkpt>
      <trkpt lat="44.86708" lon="5.67649">
        <ele>580.29</ele>
        <time>2013-06-30T10:47:52Z</time>
      </trkpt>
      <trkpt lat="44.86707" lon="5.67646">
        <ele>580.77</ele>
        <time>2013-06-30T10:47:53Z</time>
      </trkpt>
      <trkpt lat="44.86707" lon="5.67642">
        <ele>580.77</ele>
        <time>2013-06-30T10:47:54Z</time>
      </trkpt>
      <trkpt lat="44.86707" lon="5.67639">
        <ele>581.25</ele>
        <time>2013-06-30T10:47:55Z</time>
      </trkpt>
      <trkpt lat="44.86706" lon="5.67635">
        <ele>581.25</ele>
        <time>2013-06-30T10:47:56Z</time>
      </trkpt>
      <trkpt lat="44.86706" lon="5.67631">
        <ele>581.25</ele>
        <time>2013-06-30T10:47:57Z</time>
      </trkpt>
      <trkpt lat="44.86702" lon="5.67582">
        <ele>582.7</ele>
        <time>2013-06-30T10:48:10Z</time>
      </trkpt>
      <trkpt lat="44.86686" lon="5.67536">
        <ele>584.62</ele>
        <time>2013-06-30T10:48:24Z</time>
      </trkpt>
      <trkpt lat="44.86667" lon="5.67484">
        <ele>587.5</ele>
        <time>2013-06-30T10:48:41Z</time>
      </trkpt>
      <trkpt lat="44.86653" lon="5.67449">
        <ele>590.87</ele>
        <time>2013-06-30T10:48:52Z</time>
      </trkpt>
      <trkpt lat="44.86637" lon="5.67408">
        <ele>592.79</ele>
        <time>2013-06-30T10:49:05Z</time>
      </trkpt>
      <trkpt lat="44.86624" lon="5.67369">
        <ele>596.15</ele>
        <time>2013-06-30T10:49:17Z</time>
      </trkpt>
      <trkpt lat="44.86601" lon="5.67356">
        <ele>597.6</ele>
        <time>2013-06-30T10:49:28Z</time>
      </trkpt>
      <trkpt lat="44.86599" lon="5.67358">
        <ele>598.08</ele>
        <time>2013-06-30T10:49:29Z</time>
      </trkpt>
      <trkpt lat="44.86598" lon="5.6736">
        <ele>598.08</ele>
        <time>2013-06-30T10:49:30Z</time>
      </trkpt>
      <trkpt lat="44.86597" lon="5.67364">
        <ele>598.56</ele>
        <time>2013-06-30T10:49:31Z</time>
      </trkpt>
      <trkpt lat="44.86597" lon="5.67367">
        <ele>598.56</ele>
        <time>2013-06-30T10:49:32Z</time>
      </trkpt>
      <trkpt lat="44.86596" lon="5.67371">
        <ele>598.08</ele>
        <time>2013-06-30T10:49:33Z</time>
      </trkpt>
      <trkpt lat="44.86596" lon="5.67374">
        <ele>598.56</ele>
        <time>2013-06-30T10:49:34Z</time>
      </trkpt>
      <trkpt lat="44.86596" lon="5.67377">
        <ele>598.56</ele>
        <time>2013-06-30T10:49:35Z</time>
      </trkpt>
      <trkpt lat="44.86597" lon="5.67381">
        <ele>598.56</ele>
        <time>2013-06-30T10:49:36Z</time>
      </trkpt>
      <trkpt lat="44.86597" lon="5.67384">
        <ele>599.52</ele>
        <time>2013-06-30T10:49:37Z</time>
      </trkpt>
      <trkpt lat="44.86603" lon="5.67428">
        <ele>601.92</ele>
        <time>2013-06-30T10:49:50Z</time>
      </trkpt>
      <trkpt lat="44.86596" lon="5.67472">
        <ele>604.33</ele>
        <time>2013-06-30T10:50:03Z</time>
      </trkpt>
      <trkpt lat="44.86589" lon="5.6749">
        <ele>604.81</ele>
        <time>2013-06-30T10:50:10Z</time>
      </trkpt>
      <trkpt lat="44.86588" lon="5.67491">
        <ele>605.29</ele>
        <time>2013-06-30T10:50:11Z</time>
      </trkpt>
      <trkpt lat="44.86586" lon="5.67492">
        <ele>605.77</ele>
        <time>2013-06-30T10:50:12Z</time>
      </trkpt>
      <trkpt lat="44.86585" lon="5.67492">
        <ele>605.77</ele>
        <time>2013-06-30T10:50:13Z</time>
      </trkpt>
      <trkpt lat="44.86583" lon="5.67494">
        <ele>605.77</ele>
        <time>2013-06-30T10:50:15Z</time>
      </trkpt>
      <trkpt lat="44.86573" lon="5.67503">
        <ele>608.17</ele>
        <time>2013-06-30T10:50:23Z</time>
      </trkpt>
      <trkpt lat="44.86571" lon="5.67504">
        <ele>608.65</ele>
        <time>2013-06-30T10:50:24Z</time>
      </trkpt>
      <trkpt lat="44.8657" lon="5.67505">
        <ele>608.65</ele>
        <time>2013-06-30T10:50:25Z</time>
      </trkpt>
      <trkpt lat="44.86568" lon="5.67505">
        <ele>608.65</ele>
        <time>2013-06-30T10:50:26Z</time>
      </trkpt>
      <trkpt lat="44.86553" lon="5.6751">
        <ele>611.54</ele>
        <time>2013-06-30T10:50:37Z</time>
      </trkpt>
      <trkpt lat="44.86544" lon="5.67511">
        <ele>612.5</ele>
        <time>2013-06-30T10:50:44Z</time>
      </trkpt>
      <trkpt lat="44.86543" lon="5.67512">
        <ele>612.5</ele>
        <time>2013-06-30T10:50:45Z</time>
      </trkpt>
      <trkpt lat="44.86523" lon="5.67515">
        <ele>615.38</ele>
        <time>2013-06-30T10:50:57Z</time>
      </trkpt>
      <trkpt lat="44.86514" lon="5.67517">
        <ele>617.3</ele>
        <time>2013-06-30T10:51:04Z</time>
      </trkpt>
      <trkpt lat="44.86513" lon="5.67519">
        <ele>617.3</ele>
        <time>2013-06-30T10:51:05Z</time>
      </trkpt>
      <trkpt lat="44.86512" lon="5.6752">
        <ele>617.3</ele>
        <time>2013-06-30T10:51:06Z</time>
      </trkpt>
      <trkpt lat="44.86511" lon="5.67522">
        <ele>617.3</ele>
        <time>2013-06-30T10:51:07Z</time>
      </trkpt>
      <trkpt lat="44.8651" lon="5.67524">
        <ele>617.78</ele>
        <time>2013-06-30T10:51:08Z</time>
      </trkpt>
      <trkpt lat="44.8651" lon="5.67526">
        <ele>617.78</ele>
        <time>2013-06-30T10:51:09Z</time>
      </trkpt>
      <trkpt lat="44.8651" lon="5.67528">
        <ele>618.26</ele>
        <time>2013-06-30T10:51:10Z</time>
      </trkpt>
      <trkpt lat="44.86501" lon="5.67541">
        <ele>620.19</ele>
        <time>2013-06-30T10:51:21Z</time>
      </trkpt>
      <trkpt lat="44.86487" lon="5.67552">
        <ele>622.59</ele>
        <time>2013-06-30T10:51:32Z</time>
      </trkpt>
      <trkpt lat="44.86474" lon="5.6756">
        <ele>625.47</ele>
        <time>2013-06-30T10:51:44Z</time>
      </trkpt>
      <trkpt lat="44.86466" lon="5.67562">
        <ele>626.92</ele>
        <time>2013-06-30T10:51:49Z</time>
      </trkpt>
      <trkpt lat="44.86462" lon="5.67562">
        <ele>627.88</ele>
        <time>2013-06-30T10:51:51Z</time>
      </trkpt>
      <trkpt lat="44.86461" lon="5.67562">
        <ele>628.36</ele>
        <time>2013-06-30T10:51:52Z</time>
      </trkpt>
      <trkpt lat="44.86459" lon="5.67563">
        <ele>629.32</ele>
        <time>2013-06-30T10:51:53Z</time>
      </trkpt>
      <trkpt lat="44.86458" lon="5.67562">
        <ele>628.36</ele>
        <time>2013-06-30T10:51:54Z</time>
      </trkpt>
      <trkpt lat="44.86457" lon="5.6756">
        <ele>628.84</ele>
        <time>2013-06-30T10:51:55Z</time>
      </trkpt>
      <trkpt lat="44.86458" lon="5.67558">
        <ele>628.84</ele>
        <time>2013-06-30T10:51:56Z</time>
      </trkpt>
      <trkpt lat="44.86458" lon="5.67556">
        <ele>629.32</ele>
        <time>2013-06-30T10:51:57Z</time>
      </trkpt>
      <trkpt lat="44.86457" lon="5.67555">
        <ele>629.8</ele>
        <time>2013-06-30T10:51:58Z</time>
      </trkpt>
      <trkpt lat="44.86457" lon="5.67553">
        <ele>629.8</ele>
        <time>2013-06-30T10:51:59Z</time>
      </trkpt>
      <trkpt lat="44.86447" lon="5.67528">
        <ele>630.28</ele>
        <time>2013-06-30T10:52:13Z</time>
      </trkpt>
      <trkpt lat="44.86445" lon="5.67528">
        <ele>630.28</ele>
        <time>2013-06-30T10:52:14Z</time>
      </trkpt>
      <trkpt lat="44.86443" lon="5.67528">
        <ele>630.28</ele>
        <time>2013-06-30T10:52:15Z</time>
      </trkpt>
      <trkpt lat="44.86442" lon="5.67527">
        <ele>630.28</ele>
        <time>2013-06-30T10:52:16Z</time>
      </trkpt>
      <trkpt lat="44.8644" lon="5.67528">
        <ele>630.28</ele>
        <time>2013-06-30T10:52:17Z</time>
      </trkpt>
      <trkpt lat="44.86439" lon="5.67528">
        <ele>630.28</ele>
        <time>2013-06-30T10:52:18Z</time>
      </trkpt>
      <trkpt lat="44.86438" lon="5.67529">
        <ele>630.76</ele>
        <time>2013-06-30T10:52:19Z</time>
      </trkpt>
      <trkpt lat="44.86436" lon="5.67531">
        <ele>630.76</ele>
        <time>2013-06-30T10:52:20Z</time>
      </trkpt>
      <trkpt lat="44.86435" lon="5.67532">
        <ele>630.76</ele>
        <time>2013-06-30T10:52:21Z</time>
      </trkpt>
      <trkpt lat="44.86434" lon="5.67534">
        <ele>630.76</ele>
        <time>2013-06-30T10:52:22Z</time>
      </trkpt>
      <trkpt lat="44.86433" lon="5.67535">
        <ele>631.24</ele>
        <time>2013-06-30T10:52:23Z</time>
      </trkpt>
      <trkpt lat="44.86432" lon="5.67537">
        <ele>631.24</ele>
        <time>2013-06-30T10:52:24Z</time>
      </trkpt>
      <trkpt lat="44.86431" lon="5.67539">
        <ele>631.24</ele>
        <time>2013-06-30T10:52:25Z</time>
      </trkpt>
      <trkpt lat="44.86431" lon="5.6754">
        <ele>631.24</ele>
        <time>2013-06-30T10:52:26Z</time>
      </trkpt>
      <trkpt lat="44.8643" lon="5.67545">
        <ele>630.76</ele>
        <time>2013-06-30T10:52:28Z</time>
      </trkpt>
      <trkpt lat="44.86428" lon="5.67568">
        <ele>632.2</ele>
        <time>2013-06-30T10:52:39Z</time>
      </trkpt>
      <trkpt lat="44.86427" lon="5.67569">
        <ele>632.68</ele>
        <time>2013-06-30T10:52:40Z</time>
      </trkpt>
      <trkpt lat="44.8642" lon="5.67571">
        <ele>635.57</ele>
        <time>2013-06-30T10:52:50Z</time>
      </trkpt>
      <trkpt lat="44.86407" lon="5.67572">
        <ele>637.97</ele>
        <time>2013-06-30T10:53:01Z</time>
      </trkpt>
      <trkpt lat="44.86397" lon="5.67576">
        <ele>639.41</ele>
        <time>2013-06-30T10:53:09Z</time>
      </trkpt>
      <trkpt lat="44.86395" lon="5.67577">
        <ele>639.41</ele>
        <time>2013-06-30T10:53:10Z</time>
      </trkpt>
      <trkpt lat="44.86376" lon="5.67584">
        <ele>641.82</ele>
        <time>2013-06-30T10:53:25Z</time>
      </trkpt>
      <trkpt lat="44.8636" lon="5.67585">
        <ele>644.7</ele>
        <time>2013-06-30T10:53:38Z</time>
      </trkpt>
      <trkpt lat="44.86346" lon="5.67586">
        <ele>647.59</ele>
        <time>2013-06-30T10:53:50Z</time>
      </trkpt>
      <trkpt lat="44.86323" lon="5.67604">
        <ele>648.07</ele>
        <time>2013-06-30T10:54:03Z</time>
      </trkpt>
      <trkpt lat="44.86301" lon="5.67629">
        <ele>649.51</ele>
        <time>2013-06-30T10:54:18Z</time>
      </trkpt>
      <trkpt lat="44.86286" lon="5.6764">
        <ele>652.39</ele>
        <time>2013-06-30T10:54:31Z</time>
      </trkpt>
      <trkpt lat="44.86268" lon="5.67648">
        <ele>655.76</ele>
        <time>2013-06-30T10:54:42Z</time>
      </trkpt>
      <trkpt lat="44.86263" lon="5.67655">
        <ele>656.24</ele>
        <time>2013-06-30T10:54:46Z</time>
      </trkpt>
      <trkpt lat="44.86263" lon="5.67657">
        <ele>656.24</ele>
        <time>2013-06-30T10:54:47Z</time>
      </trkpt>
      <trkpt lat="44.86263" lon="5.6766">
        <ele>656.72</ele>
        <time>2013-06-30T10:54:48Z</time>
      </trkpt>
      <trkpt lat="44.86264" lon="5.67662">
        <ele>657.2</ele>
        <time>2013-06-30T10:54:49Z</time>
      </trkpt>
      <trkpt lat="44.86264" lon="5.67665">
        <ele>656.72</ele>
        <time>2013-06-30T10:54:50Z</time>
      </trkpt>
      <trkpt lat="44.86265" lon="5.67668">
        <ele>656.72</ele>
        <time>2013-06-30T10:54:51Z</time>
      </trkpt>
      <trkpt lat="44.86266" lon="5.67671">
        <ele>656.72</ele>
        <time>2013-06-30T10:54:52Z</time>
      </trkpt>
      <trkpt lat="44.86274" lon="5.67711">
        <ele>656.72</ele>
        <time>2013-06-30T10:55:05Z</time>
      </trkpt>
      <trkpt lat="44.86277" lon="5.67721">
        <ele>657.2</ele>
        <time>2013-06-30T10:55:09Z</time>
      </trkpt>
      <trkpt lat="44.86277" lon="5.67724">
        <ele>656.72</ele>
        <time>2013-06-30T10:55:10Z</time>
      </trkpt>
      <trkpt lat="44.86277" lon="5.67728">
        <ele>656.72</ele>
        <time>2013-06-30T10:55:11Z</time>
      </trkpt>
      <trkpt lat="44.86278" lon="5.67731">
        <ele>656.72</ele>
        <time>2013-06-30T10:55:12Z</time>
      </trkpt>
      <trkpt lat="44.86278" lon="5.67735">
        <ele>656.72</ele>
        <time>2013-06-30T10:55:13Z</time>
      </trkpt>
      <trkpt lat="44.86278" lon="5.67738">
        <ele>656.24</ele>
        <time>2013-06-30T10:55:14Z</time>
      </trkpt>
      <trkpt lat="44.86278" lon="5.67742">
        <ele>656.72</ele>
        <time>2013-06-30T10:55:15Z</time>
      </trkpt>
      <trkpt lat="44.86261" lon="5.6776">
        <ele>658.16</ele>
        <time>2013-06-30T10:55:26Z</time>
      </trkpt>
      <trkpt lat="44.86251" lon="5.67769">
        <ele>658.64</ele>
        <time>2013-06-30T10:55:31Z</time>
      </trkpt>
      <trkpt lat="44.8625" lon="5.67772">
        <ele>658.64</ele>
        <time>2013-06-30T10:55:32Z</time>
      </trkpt>
      <trkpt lat="44.8625" lon="5.67775">
        <ele>658.64</ele>
        <time>2013-06-30T10:55:33Z</time>
      </trkpt>
      <trkpt lat="44.8625" lon="5.67778">
        <ele>658.64</ele>
        <time>2013-06-30T10:55:34Z</time>
      </trkpt>
      <trkpt lat="44.8625" lon="5.67781">
        <ele>659.12</ele>
        <time>2013-06-30T10:55:35Z</time>
      </trkpt>
      <trkpt lat="44.86251" lon="5.67784">
        <ele>658.64</ele>
        <time>2013-06-30T10:55:36Z</time>
      </trkpt>
      <trkpt lat="44.86251" lon="5.67787">
        <ele>658.64</ele>
        <time>2013-06-30T10:55:37Z</time>
      </trkpt>
      <trkpt lat="44.86251" lon="5.6779">
        <ele>658.64</ele>
        <time>2013-06-30T10:55:38Z</time>
      </trkpt>
      <trkpt lat="44.86255" lon="5.67829">
        <ele>660.56</ele>
        <time>2013-06-30T10:55:50Z</time>
      </trkpt>
      <trkpt lat="44.86255" lon="5.67852">
        <ele>661.52</ele>
        <time>2013-06-30T10:55:57Z</time>
      </trkpt>
      <trkpt lat="44.86255" lon="5.67855">
        <ele>661.52</ele>
        <time>2013-06-30T10:55:58Z</time>
      </trkpt>
      <trkpt lat="44.86244" lon="5.67904">
        <ele>661.52</ele>
        <time>2013-06-30T10:56:10Z</time>
      </trkpt>
      <trkpt lat="44.86239" lon="5.67966">
        <ele>659.6</ele>
        <time>2013-06-30T10:56:21Z</time>
      </trkpt>
      <trkpt lat="44.86241" lon="5.67999">
        <ele>657.2</ele>
        <time>2013-06-30T10:56:26Z</time>
      </trkpt>
      <trkpt lat="44.8624" lon="5.68005">
        <ele>657.2</ele>
        <time>2013-06-30T10:56:27Z</time>
      </trkpt>
      <trkpt lat="44.86239" lon="5.6801">
        <ele>657.2</ele>
        <time>2013-06-30T10:56:28Z</time>
      </trkpt>
      <trkpt lat="44.86238" lon="5.68015">
        <ele>657.2</ele>
        <time>2013-06-30T10:56:29Z</time>
      </trkpt>
      <trkpt lat="44.86236" lon="5.68019">
        <ele>657.2</ele>
        <time>2013-06-30T10:56:30Z</time>
      </trkpt>
      <trkpt lat="44.86234" lon="5.68023">
        <ele>657.68</ele>
        <time>2013-06-30T10:56:31Z</time>
      </trkpt>
      <trkpt lat="44.86208" lon="5.68069">
        <ele>660.56</ele>
        <time>2013-06-30T10:56:45Z</time>
      </trkpt>
      <trkpt lat="44.86179" lon="5.6811">
        <ele>663.45</ele>
        <time>2013-06-30T10:57:01Z</time>
      </trkpt>
      <trkpt lat="44.86151" lon="5.68133">
        <ele>666.33</ele>
        <time>2013-06-30T10:57:14Z</time>
      </trkpt>
      <trkpt lat="44.86115" lon="5.68148">
        <ele>669.7</ele>
        <time>2013-06-30T10:57:30Z</time>
      </trkpt>
      <trkpt lat="44.86079" lon="5.6816">
        <ele>672.58</ele>
        <time>2013-06-30T10:57:46Z</time>
      </trkpt>
      <trkpt lat="44.86041" lon="5.6818">
        <ele>675.46</ele>
        <time>2013-06-30T10:58:03Z</time>
      </trkpt>
      <trkpt lat="44.86018" lon="5.68227">
        <ele>678.83</ele>
        <time>2013-06-30T10:58:20Z</time>
      </trkpt>
      <trkpt lat="44.86015" lon="5.68278">
        <ele>682.19</ele>
        <time>2013-06-30T10:58:35Z</time>
      </trkpt>
      <trkpt lat="44.86003" lon="5.68324">
        <ele>685.56</ele>
        <time>2013-06-30T10:58:50Z</time>
      </trkpt>
      <trkpt lat="44.85968" lon="5.6834">
        <ele>688.44</ele>
        <time>2013-06-30T10:59:06Z</time>
      </trkpt>
      <trkpt lat="44.85937" lon="5.68337">
        <ele>691.81</ele>
        <time>2013-06-30T10:59:18Z</time>
      </trkpt>
      <trkpt lat="44.85892" lon="5.68334">
        <ele>694.21</ele>
        <time>2013-06-30T10:59:36Z</time>
      </trkpt>
      <trkpt lat="44.85848" lon="5.68331">
        <ele>696.13</ele>
        <time>2013-06-30T10:59:52Z</time>
      </trkpt>
      <trkpt lat="44.85841" lon="5.68332">
        <ele>697.09</ele>
        <time>2013-06-30T10:59:55Z</time>
      </trkpt>
      <trkpt lat="44.85838" lon="5.68334">
        <ele>697.09</ele>
        <time>2013-06-30T10:59:56Z</time>
      </trkpt>
      <trkpt lat="44.85836" lon="5.68336">
        <ele>697.57</ele>
        <time>2013-06-30T10:59:57Z</time>
      </trkpt>
      <trkpt lat="44.85825" lon="5.68348">
        <ele>698.05</ele>
        <time>2013-06-30T11:00:02Z</time>
      </trkpt>
      <trkpt lat="44.85825" lon="5.68353">
        <ele>697.57</ele>
        <time>2013-06-30T11:00:03Z</time>
      </trkpt>
      <trkpt lat="44.85813" lon="5.6842">
        <ele>696.13</ele>
        <time>2013-06-30T11:00:13Z</time>
      </trkpt>
      <trkpt lat="44.85811" lon="5.68434">
        <ele>696.13</ele>
        <time>2013-06-30T11:00:15Z</time>
      </trkpt>
      <trkpt lat="44.85809" lon="5.68447">
        <ele>696.13</ele>
        <time>2013-06-30T11:00:17Z</time>
      </trkpt>
      <trkpt lat="44.85804" lon="5.68498">
        <ele>696.13</ele>
        <time>2013-06-30T11:00:25Z</time>
      </trkpt>
      <trkpt lat="44.85797" lon="5.68584">
        <ele>695.17</ele>
        <time>2013-06-30T11:00:37Z</time>
      </trkpt>
      <trkpt lat="44.85797" lon="5.68591">
        <ele>695.17</ele>
        <time>2013-06-30T11:00:38Z</time>
      </trkpt>
      <trkpt lat="44.85795" lon="5.68612">
        <ele>694.69</ele>
        <time>2013-06-30T11:00:41Z</time>
      </trkpt>
      <trkpt lat="44.85779" lon="5.68731">
        <ele>693.73</ele>
        <time>2013-06-30T11:00:57Z</time>
      </trkpt>
      <trkpt lat="44.85773" lon="5.68758">
        <ele>693.73</ele>
        <time>2013-06-30T11:01:01Z</time>
      </trkpt>
      <trkpt lat="44.85772" lon="5.68777">
        <ele>694.69</ele>
        <time>2013-06-30T11:01:04Z</time>
      </trkpt>
      <trkpt lat="44.85772" lon="5.68783">
        <ele>694.69</ele>
        <time>2013-06-30T11:01:05Z</time>
      </trkpt>
      <trkpt lat="44.85773" lon="5.68789">
        <ele>695.17</ele>
        <time>2013-06-30T11:01:06Z</time>
      </trkpt>
      <trkpt lat="44.85774" lon="5.68795">
        <ele>695.17</ele>
        <time>2013-06-30T11:01:07Z</time>
      </trkpt>
      <trkpt lat="44.85776" lon="5.688">
        <ele>695.17</ele>
        <time>2013-06-30T11:01:08Z</time>
      </trkpt>
      <trkpt lat="44.85801" lon="5.68865">
        <ele>697.57</ele>
        <time>2013-06-30T11:01:24Z</time>
      </trkpt>
      <trkpt lat="44.8582" lon="5.68906">
        <ele>700.94</ele>
        <time>2013-06-30T11:01:36Z</time>
      </trkpt>
      <trkpt lat="44.85849" lon="5.68959">
        <ele>702.86</ele>
        <time>2013-06-30T11:01:53Z</time>
      </trkpt>
      <trkpt lat="44.85891" lon="5.69007">
        <ele>705.26</ele>
        <time>2013-06-30T11:02:11Z</time>
      </trkpt>
      <trkpt lat="44.85937" lon="5.69035">
        <ele>708.15</ele>
        <time>2013-06-30T11:02:29Z</time>
      </trkpt>
      <trkpt lat="44.85983" lon="5.69051">
        <ele>711.03</ele>
        <time>2013-06-30T11:02:46Z</time>
      </trkpt>
      <trkpt lat="44.86029" lon="5.69065">
        <ele>713.44</ele>
        <time>2013-06-30T11:03:03Z</time>
      </trkpt>
      <trkpt lat="44.86076" lon="5.69081">
        <ele>716.8</ele>
        <time>2013-06-30T11:03:20Z</time>
      </trkpt>
      <trkpt lat="44.86125" lon="5.69085">
        <ele>719.2</ele>
        <time>2013-06-30T11:03:38Z</time>
      </trkpt>
      <trkpt lat="44.86174" lon="5.6906">
        <ele>716.32</ele>
        <time>2013-06-30T11:03:53Z</time>
      </trkpt>
      <trkpt lat="44.86184" lon="5.69053">
        <ele>715.36</ele>
        <time>2013-06-30T11:03:55Z</time>
      </trkpt>
      <trkpt lat="44.86201" lon="5.69037">
        <ele>713.44</ele>
        <time>2013-06-30T11:03:59Z</time>
      </trkpt>
      <trkpt lat="44.86221" lon="5.69014">
        <ele>710.07</ele>
        <time>2013-06-30T11:04:03Z</time>
      </trkpt>
      <trkpt lat="44.86241" lon="5.68989">
        <ele>707.19</ele>
        <time>2013-06-30T11:04:07Z</time>
      </trkpt>
      <trkpt lat="44.8626" lon="5.68971">
        <ele>703.82</ele>
        <time>2013-06-30T11:04:10Z</time>
      </trkpt>
      <trkpt lat="44.86267" lon="5.68966">
        <ele>703.82</ele>
        <time>2013-06-30T11:04:11Z</time>
      </trkpt>
      <trkpt lat="44.86309" lon="5.68931">
        <ele>700.46</ele>
        <time>2013-06-30T11:04:19Z</time>
      </trkpt>
      <trkpt lat="44.86317" lon="5.68923">
        <ele>699.5</ele>
        <time>2013-06-30T11:04:21Z</time>
      </trkpt>
      <trkpt lat="44.86322" lon="5.6892">
        <ele>699.02</ele>
        <time>2013-06-30T11:04:22Z</time>
      </trkpt>
      <trkpt lat="44.86327" lon="5.68916">
        <ele>699.02</ele>
        <time>2013-06-30T11:04:23Z</time>
      </trkpt>
      <trkpt lat="44.86332" lon="5.68911">
        <ele>698.05</ele>
        <time>2013-06-30T11:04:24Z</time>
      </trkpt>
      <trkpt lat="44.86337" lon="5.68907">
        <ele>697.57</ele>
        <time>2013-06-30T11:04:25Z</time>
      </trkpt>
      <trkpt lat="44.86353" lon="5.68894">
        <ele>696.13</ele>
        <time>2013-06-30T11:04:28Z</time>
      </trkpt>
      <trkpt lat="44.86358" lon="5.68891">
        <ele>696.61</ele>
        <time>2013-06-30T11:04:29Z</time>
      </trkpt>
      <trkpt lat="44.86363" lon="5.68891">
        <ele>695.65</ele>
        <time>2013-06-30T11:04:30Z</time>
      </trkpt>
      <trkpt lat="44.86374" lon="5.68896">
        <ele>695.17</ele>
        <time>2013-06-30T11:04:33Z</time>
      </trkpt>
      <trkpt lat="44.86377" lon="5.68895">
        <ele>694.69</ele>
        <time>2013-06-30T11:04:34Z</time>
      </trkpt>
      <trkpt lat="44.86379" lon="5.68895">
        <ele>694.21</ele>
        <time>2013-06-30T11:04:35Z</time>
      </trkpt>
      <trkpt lat="44.86381" lon="5.68896">
        <ele>693.25</ele>
        <time>2013-06-30T11:04:43Z</time>
      </trkpt>
      <trkpt lat="44.86382" lon="5.68897">
        <ele>692.77</ele>
        <time>2013-06-30T11:04:56Z</time>
      </trkpt>
      <trkpt lat="44.86383" lon="5.68899">
        <ele>692.77</ele>
        <time>2013-06-30T11:04:57Z</time>
      </trkpt>
      <trkpt lat="44.86384" lon="5.68904">
        <ele>690.84</ele>
        <time>2013-06-30T11:05:00Z</time>
      </trkpt>
      <trkpt lat="44.86385" lon="5.68905">
        <ele>690.84</ele>
        <time>2013-06-30T11:05:01Z</time>
      </trkpt>
      <trkpt lat="44.86389" lon="5.68906">
        <ele>688.44</ele>
        <time>2013-06-30T11:05:05Z</time>
      </trkpt>
      <trkpt lat="44.86391" lon="5.68905">
        <ele>687.96</ele>
        <time>2013-06-30T11:05:06Z</time>
      </trkpt>
      <trkpt lat="44.86392" lon="5.68907">
        <ele>687.96</ele>
        <time>2013-06-30T11:05:08Z</time>
      </trkpt>
      <trkpt lat="44.86393" lon="5.68908">
        <ele>687.48</ele>
        <time>2013-06-30T11:05:09Z</time>
      </trkpt>
      <trkpt lat="44.86393" lon="5.6891">
        <ele>687</ele>
        <time>2013-06-30T11:05:10Z</time>
      </trkpt>
      <trkpt lat="44.86393" lon="5.68912">
        <ele>687</ele>
        <time>2013-06-30T11:05:11Z</time>
      </trkpt>
      <trkpt lat="44.86392" lon="5.68914">
        <ele>686.52</ele>
        <time>2013-06-30T11:05:12Z</time>
      </trkpt>
      <trkpt lat="44.86393" lon="5.68916">
        <ele>686.04</ele>
        <time>2013-06-30T11:05:13Z</time>
      </trkpt>
      <trkpt lat="44.86399" lon="5.68914">
        <ele>684.12</ele>
        <time>2013-06-30T11:05:18Z</time>
      </trkpt>
      <trkpt lat="44.8641" lon="5.6892">
        <ele>681.23</ele>
        <time>2013-06-30T11:05:24Z</time>
      </trkpt>
      <trkpt lat="44.86412" lon="5.68925">
        <ele>680.27</ele>
        <time>2013-06-30T11:05:26Z</time>
      </trkpt>
      <trkpt lat="44.86414" lon="5.68932">
        <ele>678.83</ele>
        <time>2013-06-30T11:05:28Z</time>
      </trkpt>
      <trkpt lat="44.86419" lon="5.68945">
        <ele>675.46</ele>
        <time>2013-06-30T11:05:32Z</time>
      </trkpt>
      <trkpt lat="44.86421" lon="5.68948">
        <ele>673.54</ele>
        <time>2013-06-30T11:05:34Z</time>
      </trkpt>
      <trkpt lat="44.86434" lon="5.68963">
        <ele>670.18</ele>
        <time>2013-06-30T11:05:39Z</time>
      </trkpt>
      <trkpt lat="44.86439" lon="5.68969">
        <ele>669.7</ele>
        <time>2013-06-30T11:05:41Z</time>
      </trkpt>
      <trkpt lat="44.86451" lon="5.68987">
        <ele>666.33</ele>
        <time>2013-06-30T11:05:48Z</time>
      </trkpt>
      <trkpt lat="44.86453" lon="5.68991">
        <ele>666.33</ele>
        <time>2013-06-30T11:05:49Z</time>
      </trkpt>
      <trkpt lat="44.86469" lon="5.69007">
        <ele>662.97</ele>
        <time>2013-06-30T11:05:55Z</time>
      </trkpt>
      <trkpt lat="44.86472" lon="5.69009">
        <ele>662.97</ele>
        <time>2013-06-30T11:05:56Z</time>
      </trkpt>
      <trkpt lat="44.86499" lon="5.69033">
        <ele>660.08</ele>
        <time>2013-06-30T11:06:06Z</time>
      </trkpt>
      <trkpt lat="44.86501" lon="5.69034">
        <ele>660.08</ele>
        <time>2013-06-30T11:06:07Z</time>
      </trkpt>
      <trkpt lat="44.86511" lon="5.69038">
        <ele>659.12</ele>
        <time>2013-06-30T11:06:13Z</time>
      </trkpt>
      <trkpt lat="44.86515" lon="5.69045">
        <ele>659.12</ele>
        <time>2013-06-30T11:06:17Z</time>
      </trkpt>
      <trkpt lat="44.86518" lon="5.69048">
        <ele>657.68</ele>
        <time>2013-06-30T11:06:19Z</time>
      </trkpt>
      <trkpt lat="44.86525" lon="5.6906">
        <ele>656.72</ele>
        <time>2013-06-30T11:06:27Z</time>
      </trkpt>
      <trkpt lat="44.8653" lon="5.69062">
        <ele>656.24</ele>
        <time>2013-06-30T11:06:47Z</time>
      </trkpt>
      <trkpt lat="44.8653" lon="5.69062">
        <ele>656.24</ele>
        <time>2013-06-30T11:06:49Z</time>
      </trkpt>
      <trkpt lat="44.86516" lon="5.69095">
        <ele>656.24</ele>
        <time>2013-06-30T11:06:59Z</time>
      </trkpt>
      <trkpt lat="44.86487" lon="5.69147">
        <ele>658.64</ele>
        <time>2013-06-30T11:07:11Z</time>
      </trkpt>
      <trkpt lat="44.86458" lon="5.6917">
        <ele>660.56</ele>
        <time>2013-06-30T11:07:23Z</time>
      </trkpt>
      <trkpt lat="44.86427" lon="5.69201">
        <ele>663.93</ele>
        <time>2013-06-30T11:07:38Z</time>
      </trkpt>
      <trkpt lat="44.86418" lon="5.6921">
        <ele>664.89</ele>
        <time>2013-06-30T11:07:43Z</time>
      </trkpt>
      <trkpt lat="44.86395" lon="5.69228">
        <ele>667.77</ele>
        <time>2013-06-30T11:07:56Z</time>
      </trkpt>
      <trkpt lat="44.86369" lon="5.69258">
        <ele>670.18</ele>
        <time>2013-06-30T11:08:12Z</time>
      </trkpt>
      <trkpt lat="44.86356" lon="5.69286">
        <ele>673.54</ele>
        <time>2013-06-30T11:08:24Z</time>
      </trkpt>
      <trkpt lat="44.86346" lon="5.69331">
        <ele>674.02</ele>
        <time>2013-06-30T11:08:38Z</time>
      </trkpt>
      <trkpt lat="44.86345" lon="5.69381">
        <ele>671.14</ele>
        <time>2013-06-30T11:08:50Z</time>
      </trkpt>
      <trkpt lat="44.86352" lon="5.69393">
        <ele>668.25</ele>
        <time>2013-06-30T11:08:53Z</time>
      </trkpt>
      <trkpt lat="44.86355" lon="5.69397">
        <ele>667.29</ele>
        <time>2013-06-30T11:08:54Z</time>
      </trkpt>
      <trkpt lat="44.86364" lon="5.6941">
        <ele>665.37</ele>
        <time>2013-06-30T11:08:57Z</time>
      </trkpt>
      <trkpt lat="44.86369" lon="5.69412">
        <ele>665.37</ele>
        <time>2013-06-30T11:08:58Z</time>
      </trkpt>
      <trkpt lat="44.86375" lon="5.69412">
        <ele>664.41</ele>
        <time>2013-06-30T11:08:59Z</time>
      </trkpt>
      <trkpt lat="44.86394" lon="5.69409">
        <ele>661.04</ele>
        <time>2013-06-30T11:09:02Z</time>
      </trkpt>
      <trkpt lat="44.86401" lon="5.6941">
        <ele>659.12</ele>
        <time>2013-06-30T11:09:03Z</time>
      </trkpt>
      <trkpt lat="44.86421" lon="5.69414">
        <ele>655.28</ele>
        <time>2013-06-30T11:09:06Z</time>
      </trkpt>
      <trkpt lat="44.86432" lon="5.69419">
        <ele>653.35</ele>
        <time>2013-06-30T11:09:08Z</time>
      </trkpt>
      <trkpt lat="44.86447" lon="5.6943">
        <ele>650.47</ele>
        <time>2013-06-30T11:09:11Z</time>
      </trkpt>
      <trkpt lat="44.86461" lon="5.69444">
        <ele>647.59</ele>
        <time>2013-06-30T11:09:14Z</time>
      </trkpt>
      <trkpt lat="44.8647" lon="5.69454">
        <ele>644.7</ele>
        <time>2013-06-30T11:09:16Z</time>
      </trkpt>
      <trkpt lat="44.86489" lon="5.69473">
        <ele>641.34</ele>
        <time>2013-06-30T11:09:19Z</time>
      </trkpt>
      <trkpt lat="44.86511" lon="5.69496">
        <ele>637.97</ele>
        <time>2013-06-30T11:09:23Z</time>
      </trkpt>
      <trkpt lat="44.86523" lon="5.69507">
        <ele>635.57</ele>
        <time>2013-06-30T11:09:25Z</time>
      </trkpt>
      <trkpt lat="44.86529" lon="5.69513">
        <ele>635.09</ele>
        <time>2013-06-30T11:09:26Z</time>
      </trkpt>
      <trkpt lat="44.86535" lon="5.69517">
        <ele>633.65</ele>
        <time>2013-06-30T11:09:27Z</time>
      </trkpt>
      <trkpt lat="44.86541" lon="5.6952">
        <ele>633.17</ele>
        <time>2013-06-30T11:09:28Z</time>
      </trkpt>
      <trkpt lat="44.86546" lon="5.69523">
        <ele>632.2</ele>
        <time>2013-06-30T11:09:29Z</time>
      </trkpt>
      <trkpt lat="44.86552" lon="5.69525">
        <ele>632.2</ele>
        <time>2013-06-30T11:09:30Z</time>
      </trkpt>
      <trkpt lat="44.86586" lon="5.69527">
        <ele>630.28</ele>
        <time>2013-06-30T11:09:36Z</time>
      </trkpt>
      <trkpt lat="44.86591" lon="5.69525">
        <ele>631.24</ele>
        <time>2013-06-30T11:09:37Z</time>
      </trkpt>
      <trkpt lat="44.86595" lon="5.69522">
        <ele>630.76</ele>
        <time>2013-06-30T11:09:38Z</time>
      </trkpt>
      <trkpt lat="44.86598" lon="5.69518">
        <ele>630.76</ele>
        <time>2013-06-30T11:09:39Z</time>
      </trkpt>
      <trkpt lat="44.86601" lon="5.69514">
        <ele>630.28</ele>
        <time>2013-06-30T11:09:40Z</time>
      </trkpt>
      <trkpt lat="44.86603" lon="5.6951">
        <ele>630.28</ele>
        <time>2013-06-30T11:09:41Z</time>
      </trkpt>
      <trkpt lat="44.86627" lon="5.69478">
        <ele>627.88</ele>
        <time>2013-06-30T11:09:52Z</time>
      </trkpt>
      <trkpt lat="44.8663" lon="5.6948">
        <ele>627.4</ele>
        <time>2013-06-30T11:09:53Z</time>
      </trkpt>
      <trkpt lat="44.86631" lon="5.69483">
        <ele>626.92</ele>
        <time>2013-06-30T11:09:54Z</time>
      </trkpt>
      <trkpt lat="44.86632" lon="5.69487">
        <ele>626.92</ele>
        <time>2013-06-30T11:09:55Z</time>
      </trkpt>
      <trkpt lat="44.86631" lon="5.69491">
        <ele>626.92</ele>
        <time>2013-06-30T11:09:56Z</time>
      </trkpt>
      <trkpt lat="44.8663" lon="5.69496">
        <ele>626.44</ele>
        <time>2013-06-30T11:09:57Z</time>
      </trkpt>
      <trkpt lat="44.8663" lon="5.69502">
        <ele>625.96</ele>
        <time>2013-06-30T11:09:58Z</time>
      </trkpt>
      <trkpt lat="44.86629" lon="5.69509">
        <ele>625.47</ele>
        <time>2013-06-30T11:09:59Z</time>
      </trkpt>
      <trkpt lat="44.86628" lon="5.69516">
        <ele>624.99</ele>
        <time>2013-06-30T11:10:00Z</time>
      </trkpt>
      <trkpt lat="44.86627" lon="5.69523">
        <ele>624.03</ele>
        <time>2013-06-30T11:10:01Z</time>
      </trkpt>
      <trkpt lat="44.86625" lon="5.69531">
        <ele>623.55</ele>
        <time>2013-06-30T11:10:02Z</time>
      </trkpt>
      <trkpt lat="44.86623" lon="5.69539">
        <ele>624.03</ele>
        <time>2013-06-30T11:10:03Z</time>
      </trkpt>
      <trkpt lat="44.86621" lon="5.69545">
        <ele>623.55</ele>
        <time>2013-06-30T11:10:04Z</time>
      </trkpt>
      <trkpt lat="44.8662" lon="5.6955">
        <ele>623.07</ele>
        <time>2013-06-30T11:10:05Z</time>
      </trkpt>
      <trkpt lat="44.86618" lon="5.69555">
        <ele>623.07</ele>
        <time>2013-06-30T11:10:06Z</time>
      </trkpt>
      <trkpt lat="44.86616" lon="5.69559">
        <ele>622.59</ele>
        <time>2013-06-30T11:10:07Z</time>
      </trkpt>
      <trkpt lat="44.86614" lon="5.69564">
        <ele>622.59</ele>
        <time>2013-06-30T11:10:08Z</time>
      </trkpt>
      <trkpt lat="44.86612" lon="5.69567">
        <ele>622.11</ele>
        <time>2013-06-30T11:10:09Z</time>
      </trkpt>
      <trkpt lat="44.86606" lon="5.69582">
        <ele>621.63</ele>
        <time>2013-06-30T11:10:18Z</time>
      </trkpt>
      <trkpt lat="44.86605" lon="5.6959">
        <ele>619.71</ele>
        <time>2013-06-30T11:10:29Z</time>
      </trkpt>
      <trkpt lat="44.86604" lon="5.69598">
        <ele>618.75</ele>
        <time>2013-06-30T11:10:40Z</time>
      </trkpt>
      <trkpt lat="44.86603" lon="5.696">
        <ele>618.75</ele>
        <time>2013-06-30T11:10:41Z</time>
      </trkpt>
      <trkpt lat="44.86602" lon="5.69604">
        <ele>618.26</ele>
        <time>2013-06-30T11:10:42Z</time>
      </trkpt>
      <trkpt lat="44.86601" lon="5.69607">
        <ele>617.78</ele>
        <time>2013-06-30T11:10:43Z</time>
      </trkpt>
      <trkpt lat="44.86601" lon="5.69611">
        <ele>616.82</ele>
        <time>2013-06-30T11:10:44Z</time>
      </trkpt>
      <trkpt lat="44.86601" lon="5.69616">
        <ele>615.86</ele>
        <time>2013-06-30T11:10:45Z</time>
      </trkpt>
      <trkpt lat="44.86601" lon="5.69621">
        <ele>614.9</ele>
        <time>2013-06-30T11:10:46Z</time>
      </trkpt>
      <trkpt lat="44.86602" lon="5.69625">
        <ele>613.94</ele>
        <time>2013-06-30T11:10:47Z</time>
      </trkpt>
      <trkpt lat="44.86602" lon="5.69629">
        <ele>613.94</ele>
        <time>2013-06-30T11:10:48Z</time>
      </trkpt>
      <trkpt lat="44.86602" lon="5.69632">
        <ele>612.98</ele>
        <time>2013-06-30T11:10:49Z</time>
      </trkpt>
      <trkpt lat="44.86602" lon="5.69635">
        <ele>612.5</ele>
        <time>2013-06-30T11:10:50Z</time>
      </trkpt>
      <trkpt lat="44.86603" lon="5.69638">
        <ele>612.02</ele>
        <time>2013-06-30T11:10:51Z</time>
      </trkpt>
      <trkpt lat="44.86604" lon="5.69642">
        <ele>611.54</ele>
        <time>2013-06-30T11:10:52Z</time>
      </trkpt>
      <trkpt lat="44.86604" lon="5.69651">
        <ele>610.57</ele>
        <time>2013-06-30T11:10:54Z</time>
      </trkpt>
      <trkpt lat="44.86603" lon="5.69658">
        <ele>609.61</ele>
        <time>2013-06-30T11:10:56Z</time>
      </trkpt>
      <trkpt lat="44.8659" lon="5.69671">
        <ele>607.21</ele>
        <time>2013-06-30T11:11:01Z</time>
      </trkpt>
      <trkpt lat="44.86579" lon="5.69672">
        <ele>604.81</ele>
        <time>2013-06-30T11:11:05Z</time>
      </trkpt>
      <trkpt lat="44.8657" lon="5.6968">
        <ele>603.36</ele>
        <time>2013-06-30T11:11:15Z</time>
      </trkpt>
      <trkpt lat="44.8657" lon="5.6968">
        <ele>603.36</ele>
        <time>2013-06-30T11:11:19Z</time>
      </trkpt>
      <trkpt lat="44.86554" lon="5.69685">
        <ele>603.85</ele>
        <time>2013-06-30T11:11:29Z</time>
      </trkpt>
      <trkpt lat="44.8654" lon="5.69689">
        <ele>606.73</ele>
        <time>2013-06-30T11:11:41Z</time>
      </trkpt>
      <trkpt lat="44.86537" lon="5.69691">
        <ele>606.73</ele>
        <time>2013-06-30T11:11:43Z</time>
      </trkpt>
      <trkpt lat="44.86528" lon="5.69699">
        <ele>608.17</ele>
        <time>2013-06-30T11:11:51Z</time>
      </trkpt>
      <trkpt lat="44.86526" lon="5.69703">
        <ele>607.69</ele>
        <time>2013-06-30T11:11:53Z</time>
      </trkpt>
      <trkpt lat="44.86525" lon="5.69722">
        <ele>604.33</ele>
        <time>2013-06-30T11:11:59Z</time>
      </trkpt>
      <trkpt lat="44.86527" lon="5.69754">
        <ele>600.96</ele>
        <time>2013-06-30T11:12:08Z</time>
      </trkpt>
      <trkpt lat="44.8653" lon="5.69775">
        <ele>600.48</ele>
        <time>2013-06-30T11:12:17Z</time>
      </trkpt>
      <trkpt lat="44.86537" lon="5.69788">
        <ele>598.56</ele>
        <time>2013-06-30T11:12:22Z</time>
      </trkpt>
      <trkpt lat="44.86534" lon="5.69807">
        <ele>598.08</ele>
        <time>2013-06-30T11:12:28Z</time>
      </trkpt>
      <trkpt lat="44.8654" lon="5.6982">
        <ele>597.12</ele>
        <time>2013-06-30T11:12:34Z</time>
      </trkpt>
      <trkpt lat="44.86552" lon="5.69817">
        <ele>592.79</ele>
        <time>2013-06-30T11:12:40Z</time>
      </trkpt>
      <trkpt lat="44.86558" lon="5.69837">
        <ele>593.75</ele>
        <time>2013-06-30T11:12:49Z</time>
      </trkpt>
      <trkpt lat="44.86557" lon="5.6984">
        <ele>595.19</ele>
        <time>2013-06-30T11:12:53Z</time>
      </trkpt>
      <trkpt lat="44.86559" lon="5.69844">
        <ele>595.67</ele>
        <time>2013-06-30T11:12:56Z</time>
      </trkpt>
      <trkpt lat="44.86567" lon="5.69864">
        <ele>596.15</ele>
        <time>2013-06-30T11:13:09Z</time>
      </trkpt>
      <trkpt lat="44.86573" lon="5.6987">
        <ele>597.12</ele>
        <time>2013-06-30T11:13:20Z</time>
      </trkpt>
      <trkpt lat="44.86573" lon="5.6987">
        <ele>597.12</ele>
        <time>2013-06-30T11:13:21Z</time>
      </trkpt>
      <trkpt lat="44.86581" lon="5.69874">
        <ele>597.12</ele>
        <time>2013-06-30T11:13:27Z</time>
      </trkpt>
      <trkpt lat="44.86587" lon="5.69887">
        <ele>597.12</ele>
        <time>2013-06-30T11:13:31Z</time>
      </trkpt>
      <trkpt lat="44.8659" lon="5.69894">
        <ele>596.15</ele>
        <time>2013-06-30T11:13:35Z</time>
      </trkpt>
      <trkpt lat="44.86602" lon="5.69906">
        <ele>596.64</ele>
        <time>2013-06-30T11:13:40Z</time>
      </trkpt>
      <trkpt lat="44.86605" lon="5.69912">
        <ele>597.12</ele>
        <time>2013-06-30T11:13:42Z</time>
      </trkpt>
      <trkpt lat="44.86605" lon="5.69919">
        <ele>596.64</ele>
        <time>2013-06-30T11:13:44Z</time>
      </trkpt>
      <trkpt lat="44.86607" lon="5.69926">
        <ele>597.6</ele>
        <time>2013-06-30T11:13:47Z</time>
      </trkpt>
      <trkpt lat="44.86608" lon="5.6993">
        <ele>598.08</ele>
        <time>2013-06-30T11:13:49Z</time>
      </trkpt>
      <trkpt lat="44.86632" lon="5.69956">
        <ele>597.6</ele>
        <time>2013-06-30T11:13:59Z</time>
      </trkpt>
      <trkpt lat="44.8664" lon="5.69973">
        <ele>597.12</ele>
        <time>2013-06-30T11:14:03Z</time>
      </trkpt>
      <trkpt lat="44.86641" lon="5.69988">
        <ele>599.52</ele>
        <time>2013-06-30T11:14:12Z</time>
      </trkpt>
      <trkpt lat="44.86642" lon="5.7">
        <ele>601.92</ele>
        <time>2013-06-30T11:14:24Z</time>
      </trkpt>
      <trkpt lat="44.86642" lon="5.70009">
        <ele>603.36</ele>
        <time>2013-06-30T11:14:35Z</time>
      </trkpt>
      <trkpt lat="44.86649" lon="5.70021">
        <ele>601.44</ele>
        <time>2013-06-30T11:14:40Z</time>
      </trkpt>
      <trkpt lat="44.86656" lon="5.70033">
        <ele>600.48</ele>
        <time>2013-06-30T11:14:45Z</time>
      </trkpt>
      <trkpt lat="44.86666" lon="5.7004">
        <ele>598.08</ele>
        <time>2013-06-30T11:14:51Z</time>
      </trkpt>
      <trkpt lat="44.86677" lon="5.70032">
        <ele>594.23</ele>
        <time>2013-06-30T11:14:56Z</time>
      </trkpt>
      <trkpt lat="44.86691" lon="5.70021">
        <ele>590.87</ele>
        <time>2013-06-30T11:15:02Z</time>
      </trkpt>
      <trkpt lat="44.86702" lon="5.70022">
        <ele>587.5</ele>
        <time>2013-06-30T11:15:08Z</time>
      </trkpt>
      <trkpt lat="44.86703" lon="5.70029">
        <ele>587.02</ele>
        <time>2013-06-30T11:15:10Z</time>
      </trkpt>
      <trkpt lat="44.86702" lon="5.70046">
        <ele>584.14</ele>
        <time>2013-06-30T11:15:16Z</time>
      </trkpt>
      <trkpt lat="44.86708" lon="5.70052">
        <ele>580.29</ele>
        <time>2013-06-30T11:15:20Z</time>
      </trkpt>
      <trkpt lat="44.86717" lon="5.70063">
        <ele>576.93</ele>
        <time>2013-06-30T11:15:24Z</time>
      </trkpt>
      <trkpt lat="44.86719" lon="5.70071">
        <ele>575.97</ele>
        <time>2013-06-30T11:15:26Z</time>
      </trkpt>
      <trkpt lat="44.86719" lon="5.70087">
        <ele>573.08</ele>
        <time>2013-06-30T11:15:30Z</time>
      </trkpt>
      <trkpt lat="44.8672" lon="5.70103">
        <ele>569.72</ele>
        <time>2013-06-30T11:15:34Z</time>
      </trkpt>
      <trkpt lat="44.8672" lon="5.70113">
        <ele>567.32</ele>
        <time>2013-06-30T11:15:37Z</time>
      </trkpt>
      <trkpt lat="44.86722" lon="5.70128">
        <ele>563.95</ele>
        <time>2013-06-30T11:15:41Z</time>
      </trkpt>
      <trkpt lat="44.86725" lon="5.70149">
        <ele>560.11</ele>
        <time>2013-06-30T11:15:45Z</time>
      </trkpt>
      <trkpt lat="44.86725" lon="5.70173">
        <ele>556.26</ele>
        <time>2013-06-30T11:15:49Z</time>
      </trkpt>
      <trkpt lat="44.8672" lon="5.70199">
        <ele>552.9</ele>
        <time>2013-06-30T11:15:52Z</time>
      </trkpt>
      <trkpt lat="44.86719" lon="5.70216">
        <ele>550.49</ele>
        <time>2013-06-30T11:15:55Z</time>
      </trkpt>
      <trkpt lat="44.86727" lon="5.70236">
        <ele>546.65</ele>
        <time>2013-06-30T11:15:58Z</time>
      </trkpt>
      <trkpt lat="44.86731" lon="5.70241">
        <ele>544.72</ele>
        <time>2013-06-30T11:15:59Z</time>
      </trkpt>
      <trkpt lat="44.86733" lon="5.70244">
        <ele>543.76</ele>
        <time>2013-06-30T11:16:00Z</time>
      </trkpt>
      <trkpt lat="44.86751" lon="5.70256">
        <ele>539.92</ele>
        <time>2013-06-30T11:16:03Z</time>
      </trkpt>
      <trkpt lat="44.86772" lon="5.70286">
        <ele>538.48</ele>
        <time>2013-06-30T11:16:08Z</time>
      </trkpt>
      <trkpt lat="44.86773" lon="5.70296">
        <ele>538.96</ele>
        <time>2013-06-30T11:16:10Z</time>
      </trkpt>
      <trkpt lat="44.86779" lon="5.70324">
        <ele>537.51</ele>
        <time>2013-06-30T11:16:19Z</time>
      </trkpt>
      <trkpt lat="44.8679" lon="5.70338">
        <ele>533.67</ele>
        <time>2013-06-30T11:16:23Z</time>
      </trkpt>
      <trkpt lat="44.86798" lon="5.7035">
        <ele>529.82</ele>
        <time>2013-06-30T11:16:26Z</time>
      </trkpt>
      <trkpt lat="44.86805" lon="5.70359">
        <ele>526.94</ele>
        <time>2013-06-30T11:16:28Z</time>
      </trkpt>
      <trkpt lat="44.86812" lon="5.70391">
        <ele>522.61</ele>
        <time>2013-06-30T11:16:32Z</time>
      </trkpt>
      <trkpt lat="44.86816" lon="5.70419">
        <ele>521.17</ele>
        <time>2013-06-30T11:16:35Z</time>
      </trkpt>
      <trkpt lat="44.8682" lon="5.70455">
        <ele>516.37</ele>
        <time>2013-06-30T11:16:40Z</time>
      </trkpt>
      <trkpt lat="44.86831" lon="5.70484">
        <ele>513</ele>
        <time>2013-06-30T11:16:45Z</time>
      </trkpt>
      <trkpt lat="44.86835" lon="5.70498">
        <ele>509.16</ele>
        <time>2013-06-30T11:16:48Z</time>
      </trkpt>
      <trkpt lat="44.86839" lon="5.70509">
        <ele>505.79</ele>
        <time>2013-06-30T11:16:51Z</time>
      </trkpt>
      <trkpt lat="44.8684" lon="5.7051">
        <ele>505.79</ele>
        <time>2013-06-30T11:16:52Z</time>
      </trkpt>
      <trkpt lat="44.86848" lon="5.70538">
        <ele>503.39</ele>
        <time>2013-06-30T11:16:58Z</time>
      </trkpt>
      <trkpt lat="44.86848" lon="5.70541">
        <ele>502.43</ele>
        <time>2013-06-30T11:17:00Z</time>
      </trkpt>
      <trkpt lat="44.86847" lon="5.70541">
        <ele>502.43</ele>
        <time>2013-06-30T11:17:01Z</time>
      </trkpt>
      <trkpt lat="44.86846" lon="5.70543">
        <ele>502.43</ele>
        <time>2013-06-30T11:17:03Z</time>
      </trkpt>
      <trkpt lat="44.86838" lon="5.70559">
        <ele>503.87</ele>
        <time>2013-06-30T11:17:07Z</time>
      </trkpt>
      <trkpt lat="44.86836" lon="5.70569">
        <ele>505.31</ele>
        <time>2013-06-30T11:17:10Z</time>
      </trkpt>
      <trkpt lat="44.86835" lon="5.70574">
        <ele>506.75</ele>
        <time>2013-06-30T11:17:13Z</time>
      </trkpt>
      <trkpt lat="44.86824" lon="5.70592">
        <ele>510.12</ele>
        <time>2013-06-30T11:17:26Z</time>
      </trkpt>
      <trkpt lat="44.86815" lon="5.70611">
        <ele>513</ele>
        <time>2013-06-30T11:17:39Z</time>
      </trkpt>
      <trkpt lat="44.86809" lon="5.70633">
        <ele>516.37</ele>
        <time>2013-06-30T11:17:52Z</time>
      </trkpt>
      <trkpt lat="44.86805" lon="5.70645">
        <ele>510.12</ele>
        <time>2013-06-30T11:18:00Z</time>
      </trkpt>
      <trkpt lat="44.86804" lon="5.70646">
        <ele>519.73</ele>
        <time>2013-06-30T11:18:01Z</time>
      </trkpt>
      <trkpt lat="44.86804" lon="5.70647">
        <ele>518.77</ele>
        <time>2013-06-30T11:18:02Z</time>
      </trkpt>
      <trkpt lat="44.86799" lon="5.70662">
        <ele>521.65</ele>
        <time>2013-06-30T11:18:15Z</time>
      </trkpt>
      <trkpt lat="44.86797" lon="5.70673">
        <ele>525.02</ele>
        <time>2013-06-30T11:18:24Z</time>
      </trkpt>
      <trkpt lat="44.86795" lon="5.70681">
        <ele>525.98</ele>
        <time>2013-06-30T11:18:29Z</time>
      </trkpt>
      <trkpt lat="44.8679" lon="5.70702">
        <ele>528.86</ele>
        <time>2013-06-30T11:18:42Z</time>
      </trkpt>
      <trkpt lat="44.86788" lon="5.70718">
        <ele>530.3</ele>
        <time>2013-06-30T11:18:51Z</time>
      </trkpt>
      <trkpt lat="44.86788" lon="5.70731">
        <ele>531.75</ele>
        <time>2013-06-30T11:18:58Z</time>
      </trkpt>
      <trkpt lat="44.86788" lon="5.70749">
        <ele>535.11</ele>
        <time>2013-06-30T11:19:09Z</time>
      </trkpt>
      <trkpt lat="44.8679" lon="5.70757">
        <ele>537.03</ele>
        <time>2013-06-30T11:19:15Z</time>
      </trkpt>
      <trkpt lat="44.8679" lon="5.70766">
        <ele>538.96</ele>
        <time>2013-06-30T11:19:26Z</time>
      </trkpt>
      <trkpt lat="44.86789" lon="5.70777">
        <ele>540.4</ele>
        <time>2013-06-30T11:19:41Z</time>
      </trkpt>
      <trkpt lat="44.86785" lon="5.70784">
        <ele>540.88</ele>
        <time>2013-06-30T11:19:53Z</time>
      </trkpt>
      <trkpt lat="44.86785" lon="5.70785">
        <ele>540.4</ele>
        <time>2013-06-30T11:19:54Z</time>
      </trkpt>
      <trkpt lat="44.86786" lon="5.70789">
        <ele>539.44</ele>
        <time>2013-06-30T11:20:05Z</time>
      </trkpt>
      <trkpt lat="44.86786" lon="5.70788">
        <ele>539.92</ele>
        <time>2013-06-30T11:20:40Z</time>
      </trkpt>
      <trkpt lat="44.86785" lon="5.7079">
        <ele>539.44</ele>
        <time>2013-06-30T11:21:09Z</time>
      </trkpt>
      <trkpt lat="44.86785" lon="5.70789">
        <ele>538.48</ele>
        <time>2013-06-30T11:21:31Z</time>
      </trkpt>
      <trkpt lat="44.86785" lon="5.7079">
        <ele>539.92</ele>
        <time>2013-06-30T11:21:51Z</time>
      </trkpt>
      <trkpt lat="44.86784" lon="5.70791">
        <ele>540.4</ele>
        <time>2013-06-30T11:22:12Z</time>
      </trkpt>
      <trkpt lat="44.86785" lon="5.7079">
        <ele>540.4</ele>
        <time>2013-06-30T11:22:37Z</time>
      </trkpt>
      <trkpt lat="44.86785" lon="5.70791">
        <ele>539.92</ele>
        <time>2013-06-30T11:22:40Z</time>
      </trkpt>
      <trkpt lat="44.86791" lon="5.70797">
        <ele>538.48</ele>
        <time>2013-06-30T11:22:43Z</time>
      </trkpt>
      <trkpt lat="44.86795" lon="5.708">
        <ele>537.99</ele>
        <time>2013-06-30T11:22:44Z</time>
      </trkpt>
      <trkpt lat="44.86798" lon="5.70802">
        <ele>537.99</ele>
        <time>2013-06-30T11:22:45Z</time>
      </trkpt>
      <trkpt lat="44.86803" lon="5.70807">
        <ele>536.55</ele>
        <time>2013-06-30T11:22:53Z</time>
      </trkpt>
      <trkpt lat="44.86805" lon="5.7081">
        <ele>535.59</ele>
        <time>2013-06-30T11:23:03Z</time>
      </trkpt>
      <trkpt lat="44.86806" lon="5.70812">
        <ele>535.59</ele>
        <time>2013-06-30T11:23:04Z</time>
      </trkpt>
      <trkpt lat="44.86809" lon="5.70817">
        <ele>534.15</ele>
        <time>2013-06-30T11:23:06Z</time>
      </trkpt>
      <trkpt lat="44.86839" lon="5.7084">
        <ele>530.79</ele>
        <time>2013-06-30T11:23:11Z</time>
      </trkpt>
      <trkpt lat="44.86874" lon="5.70867">
        <ele>529.82</ele>
        <time>2013-06-30T11:23:17Z</time>
      </trkpt>
      <trkpt lat="44.86883" lon="5.70873">
        <ele>530.3</ele>
        <time>2013-06-30T11:23:19Z</time>
      </trkpt>
      <trkpt lat="44.8691" lon="5.70894">
        <ele>532.23</ele>
        <time>2013-06-30T11:23:30Z</time>
      </trkpt>
      <trkpt lat="44.86934" lon="5.70914">
        <ele>535.59</ele>
        <time>2013-06-30T11:23:45Z</time>
      </trkpt>
      <trkpt lat="44.86952" lon="5.7093">
        <ele>538.96</ele>
        <time>2013-06-30T11:24:01Z</time>
      </trkpt>
      <trkpt lat="44.86958" lon="5.70934">
        <ele>539.92</ele>
        <time>2013-06-30T11:24:06Z</time>
      </trkpt>
      <trkpt lat="44.86961" lon="5.70936">
        <ele>539.92</ele>
        <time>2013-06-30T11:24:09Z</time>
      </trkpt>
      <trkpt lat="44.86971" lon="5.70943">
        <ele>543.76</ele>
        <time>2013-06-30T11:24:19Z</time>
      </trkpt>
      <trkpt lat="44.86974" lon="5.70945">
        <ele>544.72</ele>
        <time>2013-06-30T11:24:22Z</time>
      </trkpt>
      <trkpt lat="44.86983" lon="5.70949">
        <ele>546.17</ele>
        <time>2013-06-30T11:24:29Z</time>
      </trkpt>
      <trkpt lat="44.8699" lon="5.70952">
        <ele>548.09</ele>
        <time>2013-06-30T11:24:35Z</time>
      </trkpt>
      <trkpt lat="44.86996" lon="5.70954">
        <ele>548.57</ele>
        <time>2013-06-30T11:24:44Z</time>
      </trkpt>
      <trkpt lat="44.87" lon="5.70956">
        <ele>550.01</ele>
        <time>2013-06-30T11:24:59Z</time>
      </trkpt>
      <trkpt lat="44.87001" lon="5.70958">
        <ele>549.53</ele>
        <time>2013-06-30T11:25:28Z</time>
      </trkpt>
      <trkpt lat="44.87002" lon="5.70961">
        <ele>550.97</ele>
        <time>2013-06-30T11:25:42Z</time>
      </trkpt>
      <trkpt lat="44.86996" lon="5.70963">
        <ele>552.41</ele>
        <time>2013-06-30T11:25:50Z</time>
      </trkpt>
      <trkpt lat="44.86985" lon="5.70965">
        <ele>555.3</ele>
        <time>2013-06-30T11:26:04Z</time>
      </trkpt>
      <trkpt lat="44.86982" lon="5.70967">
        <ele>555.3</ele>
        <time>2013-06-30T11:26:13Z</time>
      </trkpt>
      <trkpt lat="44.86965" lon="5.7097">
        <ele>558.18</ele>
        <time>2013-06-30T11:26:30Z</time>
      </trkpt>
      <trkpt lat="44.86953" lon="5.70976">
        <ele>561.07</ele>
        <time>2013-06-30T11:26:44Z</time>
      </trkpt>
      <trkpt lat="44.8696" lon="5.70977">
        <ele>562.99</ele>
        <time>2013-06-30T11:26:55Z</time>
      </trkpt>
      <trkpt lat="44.86963" lon="5.7098">
        <ele>565.87</ele>
        <time>2013-06-30T11:27:09Z</time>
      </trkpt>
      <trkpt lat="44.86955" lon="5.70991">
        <ele>568.28</ele>
        <time>2013-06-30T11:27:20Z</time>
      </trkpt>
      <trkpt lat="44.86959" lon="5.70991">
        <ele>569.72</ele>
        <time>2013-06-30T11:27:29Z</time>
      </trkpt>
      <trkpt lat="44.86957" lon="5.70999">
        <ele>572.12</ele>
        <time>2013-06-30T11:27:41Z</time>
      </trkpt>
      <trkpt lat="44.86953" lon="5.71005">
        <ele>574.53</ele>
        <time>2013-06-30T11:27:56Z</time>
      </trkpt>
      <trkpt lat="44.86963" lon="5.71006">
        <ele>576.93</ele>
        <time>2013-06-30T11:28:11Z</time>
      </trkpt>
      <trkpt lat="44.86959" lon="5.7101">
        <ele>578.37</ele>
        <time>2013-06-30T11:28:24Z</time>
      </trkpt>
      <trkpt lat="44.86955" lon="5.71018">
        <ele>580.29</ele>
        <time>2013-06-30T11:28:38Z</time>
      </trkpt>
      <trkpt lat="44.86955" lon="5.71019">
        <ele>575.49</ele>
        <time>2013-06-30T11:28:40Z</time>
      </trkpt>
      <trkpt lat="44.86955" lon="5.71018">
        <ele>580.77</ele>
        <time>2013-06-30T11:28:41Z</time>
      </trkpt>
      <trkpt lat="44.86955" lon="5.71018">
        <ele>575.97</ele>
        <time>2013-06-30T11:28:42Z</time>
      </trkpt>
      <trkpt lat="44.86955" lon="5.71018">
        <ele>581.25</ele>
        <time>2013-06-30T11:28:43Z</time>
      </trkpt>
      <trkpt lat="44.86955" lon="5.71018">
        <ele>573.08</ele>
        <time>2013-06-30T11:28:44Z</time>
      </trkpt>
      <trkpt lat="44.86955" lon="5.71018">
        <ele>580.77</ele>
        <time>2013-06-30T11:28:45Z</time>
      </trkpt>
      <trkpt lat="44.86955" lon="5.71019">
        <ele>580.29</ele>
        <time>2013-06-30T11:28:50Z</time>
      </trkpt>
      <trkpt lat="44.86958" lon="5.71024">
        <ele>581.73</ele>
        <time>2013-06-30T11:29:00Z</time>
      </trkpt>
      <trkpt lat="44.86961" lon="5.71029">
        <ele>577.89</ele>
        <time>2013-06-30T11:29:09Z</time>
      </trkpt>
      <trkpt lat="44.86961" lon="5.71029">
        <ele>582.7</ele>
        <time>2013-06-30T11:29:10Z</time>
      </trkpt>
      <trkpt lat="44.86961" lon="5.71029">
        <ele>585.58</ele>
        <time>2013-06-30T11:29:12Z</time>
      </trkpt>
      <trkpt lat="44.86961" lon="5.71029">
        <ele>582.22</ele>
        <time>2013-06-30T11:29:13Z</time>
      </trkpt>
      <trkpt lat="44.86962" lon="5.71028">
        <ele>582.22</ele>
        <time>2013-06-30T11:29:28Z</time>
      </trkpt>
      <trkpt lat="44.86962" lon="5.71028">
        <ele>582.22</ele>
        <time>2013-06-30T11:29:29Z</time>
      </trkpt>
      <trkpt lat="44.86963" lon="5.71035">
        <ele>583.18</ele>
        <time>2013-06-30T11:29:33Z</time>
      </trkpt>
      <trkpt lat="44.86958" lon="5.71063">
        <ele>584.62</ele>
        <time>2013-06-30T11:29:46Z</time>
      </trkpt>
      <trkpt lat="44.86958" lon="5.71069">
        <ele>585.58</ele>
        <time>2013-06-30T11:29:49Z</time>
      </trkpt>
      <trkpt lat="44.8696" lon="5.71073">
        <ele>586.06</ele>
        <time>2013-06-30T11:29:52Z</time>
      </trkpt>
      <trkpt lat="44.86962" lon="5.71064">
        <ele>587.5</ele>
        <time>2013-06-30T11:29:57Z</time>
      </trkpt>
      <trkpt lat="44.86966" lon="5.71052">
        <ele>589.43</ele>
        <time>2013-06-30T11:30:05Z</time>
      </trkpt>
      <trkpt lat="44.86984" lon="5.71043">
        <ele>592.79</ele>
        <time>2013-06-30T11:30:20Z</time>
      </trkpt>
      <trkpt lat="44.8699" lon="5.71048">
        <ele>594.23</ele>
        <time>2013-06-30T11:30:26Z</time>
      </trkpt>
      <trkpt lat="44.87" lon="5.71058">
        <ele>596.15</ele>
        <time>2013-06-30T11:30:36Z</time>
      </trkpt>
      <trkpt lat="44.87005" lon="5.71062">
        <ele>597.12</ele>
        <time>2013-06-30T11:30:40Z</time>
      </trkpt>
      <trkpt lat="44.87008" lon="5.71064">
        <ele>596.64</ele>
        <time>2013-06-30T11:30:42Z</time>
      </trkpt>
      <trkpt lat="44.8702" lon="5.71077">
        <ele>597.12</ele>
        <time>2013-06-30T11:30:55Z</time>
      </trkpt>
      <trkpt lat="44.8702" lon="5.71076">
        <ele>601.92</ele>
        <time>2013-06-30T11:30:56Z</time>
      </trkpt>
      <trkpt lat="44.8702" lon="5.71076">
        <ele>592.79</ele>
        <time>2013-06-30T11:30:57Z</time>
      </trkpt>
      <trkpt lat="44.87019" lon="5.71076">
        <ele>599.04</ele>
        <time>2013-06-30T11:30:58Z</time>
      </trkpt>
      <trkpt lat="44.87019" lon="5.71076">
        <ele>597.12</ele>
        <time>2013-06-30T11:31:01Z</time>
      </trkpt>
      <trkpt lat="44.87022" lon="5.7108">
        <ele>596.64</ele>
        <time>2013-06-30T11:31:20Z</time>
      </trkpt>
      <trkpt lat="44.87023" lon="5.7108">
        <ele>596.64</ele>
        <time>2013-06-30T11:31:47Z</time>
      </trkpt>
      <trkpt lat="44.87023" lon="5.7108">
        <ele>597.12</ele>
        <time>2013-06-30T11:32:06Z</time>
      </trkpt>
      <trkpt lat="44.87023" lon="5.7108">
        <ele>597.6</ele>
        <time>2013-06-30T11:32:27Z</time>
      </trkpt>
      <trkpt lat="44.87027" lon="5.71083">
        <ele>597.6</ele>
        <time>2013-06-30T11:32:51Z</time>
      </trkpt>
      <trkpt lat="44.87053" lon="5.71098">
        <ele>598.56</ele>
        <time>2013-06-30T11:33:09Z</time>
      </trkpt>
      <trkpt lat="44.87074" lon="5.7111">
        <ele>601.44</ele>
        <time>2013-06-30T11:33:24Z</time>
      </trkpt>
      <trkpt lat="44.87096" lon="5.7112">
        <ele>604.33</ele>
        <time>2013-06-30T11:33:39Z</time>
      </trkpt>
      <trkpt lat="44.87114" lon="5.71128">
        <ele>605.77</ele>
        <time>2013-06-30T11:33:52Z</time>
      </trkpt>
      <trkpt lat="44.87119" lon="5.71129">
        <ele>606.73</ele>
        <time>2013-06-30T11:33:56Z</time>
      </trkpt>
      <trkpt lat="44.87128" lon="5.71138">
        <ele>608.65</ele>
        <time>2013-06-30T11:34:05Z</time>
      </trkpt>
      <trkpt lat="44.87144" lon="5.71154">
        <ele>611.54</ele>
        <time>2013-06-30T11:34:20Z</time>
      </trkpt>
      <trkpt lat="44.87159" lon="5.7117">
        <ele>614.9</ele>
        <time>2013-06-30T11:34:34Z</time>
      </trkpt>
      <trkpt lat="44.87169" lon="5.71183">
        <ele>617.3</ele>
        <time>2013-06-30T11:34:45Z</time>
      </trkpt>
      <trkpt lat="44.87197" lon="5.71172">
        <ele>618.26</ele>
        <time>2013-06-30T11:35:01Z</time>
      </trkpt>
      <trkpt lat="44.8723" lon="5.71153">
        <ele>619.71</ele>
        <time>2013-06-30T11:35:18Z</time>
      </trkpt>
      <trkpt lat="44.87246" lon="5.71157">
        <ele>623.07</ele>
        <time>2013-06-30T11:35:29Z</time>
      </trkpt>
      <trkpt lat="44.87249" lon="5.71164">
        <ele>624.03</ele>
        <time>2013-06-30T11:35:33Z</time>
      </trkpt>
      <trkpt lat="44.8726" lon="5.7118">
        <ele>627.4</ele>
        <time>2013-06-30T11:35:44Z</time>
      </trkpt>
      <trkpt lat="44.8727" lon="5.71196">
        <ele>630.28</ele>
        <time>2013-06-30T11:35:56Z</time>
      </trkpt>
      <trkpt lat="44.87281" lon="5.71215">
        <ele>634.13</ele>
        <time>2013-06-30T11:36:09Z</time>
      </trkpt>
      <trkpt lat="44.87291" lon="5.71236">
        <ele>637.01</ele>
        <time>2013-06-30T11:36:23Z</time>
      </trkpt>
      <trkpt lat="44.87294" lon="5.71242">
        <ele>637.97</ele>
        <time>2013-06-30T11:36:27Z</time>
      </trkpt>
      <trkpt lat="44.873" lon="5.71256">
        <ele>640.86</ele>
        <time>2013-06-30T11:36:36Z</time>
      </trkpt>
      <trkpt lat="44.87301" lon="5.71263">
        <ele>641.82</ele>
        <time>2013-06-30T11:36:40Z</time>
      </trkpt>
      <trkpt lat="44.87313" lon="5.71291">
        <ele>646.62</ele>
        <time>2013-06-30T11:36:58Z</time>
      </trkpt>
      <trkpt lat="44.8732" lon="5.71309">
        <ele>649.51</ele>
        <time>2013-06-30T11:37:10Z</time>
      </trkpt>
      <trkpt lat="44.87325" lon="5.7133">
        <ele>652.87</ele>
        <time>2013-06-30T11:37:23Z</time>
      </trkpt>
      <trkpt lat="44.87325" lon="5.71337">
        <ele>653.83</ele>
        <time>2013-06-30T11:37:27Z</time>
      </trkpt>
      <trkpt lat="44.87327" lon="5.71354">
        <ele>655.76</ele>
        <time>2013-06-30T11:37:37Z</time>
      </trkpt>
      <trkpt lat="44.87333" lon="5.71358">
        <ele>657.2</ele>
        <time>2013-06-30T11:37:46Z</time>
      </trkpt>
      <trkpt lat="44.8735" lon="5.71326">
        <ele>656.72</ele>
        <time>2013-06-30T11:38:00Z</time>
      </trkpt>
      <trkpt lat="44.8735" lon="5.71324">
        <ele>656.72</ele>
        <time>2013-06-30T11:38:18Z</time>
      </trkpt>
      <trkpt lat="44.87349" lon="5.71323">
        <ele>656.72</ele>
        <time>2013-06-30T11:38:43Z</time>
      </trkpt>
      <trkpt lat="44.87349" lon="5.71323">
        <ele>656.72</ele>
        <time>2013-06-30T11:39:03Z</time>
      </trkpt>
      <trkpt lat="44.87349" lon="5.71323">
        <ele>655.76</ele>
        <time>2013-06-30T11:39:19Z</time>
      </trkpt>
      <trkpt lat="44.87349" lon="5.71324">
        <ele>656.24</ele>
        <time>2013-06-30T11:39:41Z</time>
      </trkpt>
      <trkpt lat="44.87356" lon="5.71304">
        <ele>655.76</ele>
        <time>2013-06-30T11:39:53Z</time>
      </trkpt>
      <trkpt lat="44.8736" lon="5.7129">
        <ele>655.76</ele>
        <time>2013-06-30T11:39:56Z</time>
      </trkpt>
      <trkpt lat="44.87361" lon="5.71284">
        <ele>655.76</ele>
        <time>2013-06-30T11:39:57Z</time>
      </trkpt>
      <trkpt lat="44.87387" lon="5.71195">
        <ele>654.8</ele>
        <time>2013-06-30T11:40:12Z</time>
      </trkpt>
      <trkpt lat="44.87401" lon="5.71149">
        <ele>655.76</ele>
        <time>2013-06-30T11:40:20Z</time>
      </trkpt>
      <trkpt lat="44.87402" lon="5.71143">
        <ele>656.24</ele>
        <time>2013-06-30T11:40:21Z</time>
      </trkpt>
      <trkpt lat="44.87404" lon="5.71136">
        <ele>656.72</ele>
        <time>2013-06-30T11:40:22Z</time>
      </trkpt>
      <trkpt lat="44.87407" lon="5.71113">
        <ele>656.72</ele>
        <time>2013-06-30T11:40:26Z</time>
      </trkpt>
      <trkpt lat="44.87407" lon="5.711">
        <ele>656.24</ele>
        <time>2013-06-30T11:40:28Z</time>
      </trkpt>
      <trkpt lat="44.87425" lon="5.71033">
        <ele>656.72</ele>
        <time>2013-06-30T11:40:42Z</time>
      </trkpt>
      <trkpt lat="44.87468" lon="5.71">
        <ele>659.6</ele>
        <time>2013-06-30T11:40:57Z</time>
      </trkpt>
      <trkpt lat="44.8751" lon="5.70975">
        <ele>661.04</ele>
        <time>2013-06-30T11:41:12Z</time>
      </trkpt>
      <trkpt lat="44.87549" lon="5.70954">
        <ele>663.45</ele>
        <time>2013-06-30T11:41:26Z</time>
      </trkpt>
      <trkpt lat="44.87566" lon="5.70945">
        <ele>664.41</ele>
        <time>2013-06-30T11:41:32Z</time>
      </trkpt>
      <trkpt lat="44.87612" lon="5.70919">
        <ele>666.33</ele>
        <time>2013-06-30T11:41:48Z</time>
      </trkpt>
      <trkpt lat="44.87652" lon="5.70872">
        <ele>668.73</ele>
        <time>2013-06-30T11:42:05Z</time>
      </trkpt>
      <trkpt lat="44.8768" lon="5.7081">
        <ele>672.1</ele>
        <time>2013-06-30T11:42:21Z</time>
      </trkpt>
      <trkpt lat="44.87681" lon="5.70755">
        <ele>673.54</ele>
        <time>2013-06-30T11:42:32Z</time>
      </trkpt>
      <trkpt lat="44.87692" lon="5.70695">
        <ele>675.94</ele>
        <time>2013-06-30T11:42:45Z</time>
      </trkpt>
      <trkpt lat="44.87717" lon="5.70632">
        <ele>679.31</ele>
        <time>2013-06-30T11:43:00Z</time>
      </trkpt>
      <trkpt lat="44.87699" lon="5.7057">
        <ele>681.71</ele>
        <time>2013-06-30T11:43:13Z</time>
      </trkpt>
      <trkpt lat="44.87697" lon="5.70514">
        <ele>683.15</ele>
        <time>2013-06-30T11:43:25Z</time>
      </trkpt>
      <trkpt lat="44.87732" lon="5.70476">
        <ele>684.6</ele>
        <time>2013-06-30T11:43:38Z</time>
      </trkpt>
      <trkpt lat="44.87742" lon="5.7047">
        <ele>687.48</ele>
        <time>2013-06-30T11:43:41Z</time>
      </trkpt>
      <trkpt lat="44.87805" lon="5.70441">
        <ele>688.92</ele>
        <time>2013-06-30T11:44:00Z</time>
      </trkpt>
      <trkpt lat="44.87825" lon="5.70433">
        <ele>689.4</ele>
        <time>2013-06-30T11:44:06Z</time>
      </trkpt>
      <trkpt lat="44.87828" lon="5.70433">
        <ele>689.88</ele>
        <time>2013-06-30T11:44:07Z</time>
      </trkpt>
      <trkpt lat="44.87832" lon="5.70433">
        <ele>689.88</ele>
        <time>2013-06-30T11:44:08Z</time>
      </trkpt>
      <trkpt lat="44.87883" lon="5.70413">
        <ele>691.33</ele>
        <time>2013-06-30T11:44:26Z</time>
      </trkpt>
      <trkpt lat="44.87927" lon="5.70398">
        <ele>693.73</ele>
        <time>2013-06-30T11:44:42Z</time>
      </trkpt>
      <trkpt lat="44.87975" lon="5.70381">
        <ele>695.17</ele>
        <time>2013-06-30T11:44:59Z</time>
      </trkpt>
      <trkpt lat="44.88024" lon="5.70386">
        <ele>697.57</ele>
        <time>2013-06-30T11:45:16Z</time>
      </trkpt>
      <trkpt lat="44.88064" lon="5.70401">
        <ele>698.53</ele>
        <time>2013-06-30T11:45:32Z</time>
      </trkpt>
      <trkpt lat="44.88093" lon="5.70418">
        <ele>698.53</ele>
        <time>2013-06-30T11:45:43Z</time>
      </trkpt>
      <trkpt lat="44.88124" lon="5.70441">
        <ele>698.53</ele>
        <time>2013-06-30T11:45:54Z</time>
      </trkpt>
      <trkpt lat="44.88157" lon="5.70461">
        <ele>700.46</ele>
        <time>2013-06-30T11:46:08Z</time>
      </trkpt>
      <trkpt lat="44.88197" lon="5.70461">
        <ele>701.42</ele>
        <time>2013-06-30T11:46:22Z</time>
      </trkpt>
      <trkpt lat="44.88245" lon="5.70449">
        <ele>702.86</ele>
        <time>2013-06-30T11:46:39Z</time>
      </trkpt>
      <trkpt lat="44.88265" lon="5.70433">
        <ele>696.61</ele>
        <time>2013-06-30T11:46:47Z</time>
      </trkpt>
      <trkpt lat="44.88267" lon="5.70431">
        <ele>703.82</ele>
        <time>2013-06-30T11:46:48Z</time>
      </trkpt>
      <trkpt lat="44.88289" lon="5.704">
        <ele>704.3</ele>
        <time>2013-06-30T11:46:59Z</time>
      </trkpt>
      <trkpt lat="44.88292" lon="5.70364">
        <ele>705.75</ele>
        <time>2013-06-30T11:47:10Z</time>
      </trkpt>
      <trkpt lat="44.88284" lon="5.70309">
        <ele>708.15</ele>
        <time>2013-06-30T11:47:27Z</time>
      </trkpt>
      <trkpt lat="44.88306" lon="5.7027">
        <ele>710.07</ele>
        <time>2013-06-30T11:47:43Z</time>
      </trkpt>
      <trkpt lat="44.88338" lon="5.7024">
        <ele>711.51</ele>
        <time>2013-06-30T11:47:59Z</time>
      </trkpt>
      <trkpt lat="44.88376" lon="5.70216">
        <ele>713.92</ele>
        <time>2013-06-30T11:48:17Z</time>
      </trkpt>
      <trkpt lat="44.88414" lon="5.70195">
        <ele>715.36</ele>
        <time>2013-06-30T11:48:33Z</time>
      </trkpt>
      <trkpt lat="44.88454" lon="5.70148">
        <ele>714.88</ele>
        <time>2013-06-30T11:48:49Z</time>
      </trkpt>
      <trkpt lat="44.88472" lon="5.70096">
        <ele>716.8</ele>
        <time>2013-06-30T11:49:01Z</time>
      </trkpt>
      <trkpt lat="44.88497" lon="5.70039">
        <ele>718.24</ele>
        <time>2013-06-30T11:49:19Z</time>
      </trkpt>
      <trkpt lat="44.88521" lon="5.70008">
        <ele>720.65</ele>
        <time>2013-06-30T11:49:33Z</time>
      </trkpt>
      <trkpt lat="44.88556" lon="5.69997">
        <ele>722.09</ele>
        <time>2013-06-30T11:49:48Z</time>
      </trkpt>
      <trkpt lat="44.8859" lon="5.69999">
        <ele>724.01</ele>
        <time>2013-06-30T11:50:01Z</time>
      </trkpt>
      <trkpt lat="44.88638" lon="5.7">
        <ele>725.93</ele>
        <time>2013-06-30T11:50:20Z</time>
      </trkpt>
      <trkpt lat="44.88686" lon="5.70003">
        <ele>727.37</ele>
        <time>2013-06-30T11:50:39Z</time>
      </trkpt>
      <trkpt lat="44.88731" lon="5.70005">
        <ele>729.78</ele>
        <time>2013-06-30T11:50:57Z</time>
      </trkpt>
      <trkpt lat="44.88773" lon="5.6999">
        <ele>730.74</ele>
        <time>2013-06-30T11:51:11Z</time>
      </trkpt>
      <trkpt lat="44.88825" lon="5.69955">
        <ele>731.22</ele>
        <time>2013-06-30T11:51:26Z</time>
      </trkpt>
      <trkpt lat="44.88832" lon="5.69951">
        <ele>730.74</ele>
        <time>2013-06-30T11:51:28Z</time>
      </trkpt>
      <trkpt lat="44.88835" lon="5.69949">
        <ele>731.7</ele>
        <time>2013-06-30T11:51:29Z</time>
      </trkpt>
      <trkpt lat="44.88851" lon="5.69938">
        <ele>731.7</ele>
        <time>2013-06-30T11:51:33Z</time>
      </trkpt>
      <trkpt lat="44.88863" lon="5.69927">
        <ele>731.7</ele>
        <time>2013-06-30T11:51:36Z</time>
      </trkpt>
      <trkpt lat="44.88881" lon="5.69906">
        <ele>731.22</ele>
        <time>2013-06-30T11:51:41Z</time>
      </trkpt>
      <trkpt lat="44.88884" lon="5.69901">
        <ele>730.74</ele>
        <time>2013-06-30T11:51:42Z</time>
      </trkpt>
      <trkpt lat="44.88887" lon="5.69895">
        <ele>730.74</ele>
        <time>2013-06-30T11:51:43Z</time>
      </trkpt>
      <trkpt lat="44.88907" lon="5.69842">
        <ele>729.3</ele>
        <time>2013-06-30T11:51:51Z</time>
      </trkpt>
      <trkpt lat="44.88914" lon="5.69821">
        <ele>734.1</ele>
        <time>2013-06-30T11:51:54Z</time>
      </trkpt>
      <trkpt lat="44.88916" lon="5.69814">
        <ele>729.78</ele>
        <time>2013-06-30T11:51:55Z</time>
      </trkpt>
      <trkpt lat="44.88942" lon="5.6974">
        <ele>727.86</ele>
        <time>2013-06-30T11:52:05Z</time>
      </trkpt>
      <trkpt lat="44.88944" lon="5.69734">
        <ele>728.82</ele>
        <time>2013-06-30T11:52:06Z</time>
      </trkpt>
      <trkpt lat="44.88949" lon="5.69722">
        <ele>728.82</ele>
        <time>2013-06-30T11:52:08Z</time>
      </trkpt>
      <trkpt lat="44.88951" lon="5.69716">
        <ele>728.82</ele>
        <time>2013-06-30T11:52:09Z</time>
      </trkpt>
      <trkpt lat="44.88963" lon="5.69685">
        <ele>729.3</ele>
        <time>2013-06-30T11:52:14Z</time>
      </trkpt>
      <trkpt lat="44.88975" lon="5.69662">
        <ele>728.34</ele>
        <time>2013-06-30T11:52:18Z</time>
      </trkpt>
      <trkpt lat="44.8899" lon="5.69641">
        <ele>726.89</ele>
        <time>2013-06-30T11:52:22Z</time>
      </trkpt>
      <trkpt lat="44.8899" lon="5.69635">
        <ele>728.34</ele>
        <time>2013-06-30T11:52:23Z</time>
      </trkpt>
      <trkpt lat="44.88989" lon="5.6963">
        <ele>727.86</ele>
        <time>2013-06-30T11:52:24Z</time>
      </trkpt>
      <trkpt lat="44.88987" lon="5.69624">
        <ele>726.89</ele>
        <time>2013-06-30T11:52:25Z</time>
      </trkpt>
      <trkpt lat="44.88986" lon="5.69619">
        <ele>725.93</ele>
        <time>2013-06-30T11:52:26Z</time>
      </trkpt>
      <trkpt lat="44.8897" lon="5.6959">
        <ele>723.05</ele>
        <time>2013-06-30T11:52:34Z</time>
      </trkpt>
      <trkpt lat="44.88964" lon="5.69572">
        <ele>721.13</ele>
        <time>2013-06-30T11:52:37Z</time>
      </trkpt>
      <trkpt lat="44.88962" lon="5.69567">
        <ele>720.65</ele>
        <time>2013-06-30T11:52:38Z</time>
      </trkpt>
      <trkpt lat="44.88961" lon="5.69561">
        <ele>719.68</ele>
        <time>2013-06-30T11:52:39Z</time>
      </trkpt>
      <trkpt lat="44.88959" lon="5.69549">
        <ele>717.76</ele>
        <time>2013-06-30T11:52:41Z</time>
      </trkpt>
      <trkpt lat="44.88959" lon="5.69543">
        <ele>717.28</ele>
        <time>2013-06-30T11:52:42Z</time>
      </trkpt>
      <trkpt lat="44.8896" lon="5.69536">
        <ele>716.8</ele>
        <time>2013-06-30T11:52:43Z</time>
      </trkpt>
      <trkpt lat="44.8896" lon="5.69495">
        <ele>713.44</ele>
        <time>2013-06-30T11:52:51Z</time>
      </trkpt>
      <trkpt lat="44.88958" lon="5.6949">
        <ele>713.44</ele>
        <time>2013-06-30T11:52:52Z</time>
      </trkpt>
      <trkpt lat="44.88955" lon="5.69484">
        <ele>712.95</ele>
        <time>2013-06-30T11:52:53Z</time>
      </trkpt>
      <trkpt lat="44.88953" lon="5.69477">
        <ele>712.47</ele>
        <time>2013-06-30T11:52:54Z</time>
      </trkpt>
      <trkpt lat="44.88951" lon="5.69471">
        <ele>711.51</ele>
        <time>2013-06-30T11:52:55Z</time>
      </trkpt>
      <trkpt lat="44.88949" lon="5.69464">
        <ele>711.03</ele>
        <time>2013-06-30T11:52:56Z</time>
      </trkpt>
      <trkpt lat="44.88946" lon="5.69456">
        <ele>710.07</ele>
        <time>2013-06-30T11:52:57Z</time>
      </trkpt>
      <trkpt lat="44.88945" lon="5.69448">
        <ele>709.11</ele>
        <time>2013-06-30T11:52:58Z</time>
      </trkpt>
      <trkpt lat="44.88943" lon="5.6944">
        <ele>708.15</ele>
        <time>2013-06-30T11:52:59Z</time>
      </trkpt>
      <trkpt lat="44.8894" lon="5.69431">
        <ele>706.71</ele>
        <time>2013-06-30T11:53:00Z</time>
      </trkpt>
      <trkpt lat="44.88938" lon="5.69422">
        <ele>706.23</ele>
        <time>2013-06-30T11:53:01Z</time>
      </trkpt>
      <trkpt lat="44.88937" lon="5.69414">
        <ele>705.75</ele>
        <time>2013-06-30T11:53:02Z</time>
      </trkpt>
      <trkpt lat="44.88937" lon="5.69406">
        <ele>704.78</ele>
        <time>2013-06-30T11:53:03Z</time>
      </trkpt>
      <trkpt lat="44.88937" lon="5.69398">
        <ele>704.78</ele>
        <time>2013-06-30T11:53:04Z</time>
      </trkpt>
      <trkpt lat="44.88937" lon="5.69391">
        <ele>703.82</ele>
        <time>2013-06-30T11:53:05Z</time>
      </trkpt>
      <trkpt lat="44.88938" lon="5.69385">
        <ele>703.34</ele>
        <time>2013-06-30T11:53:06Z</time>
      </trkpt>
      <trkpt lat="44.88944" lon="5.69366">
        <ele>700.46</ele>
        <time>2013-06-30T11:53:11Z</time>
      </trkpt>
      <trkpt lat="44.88947" lon="5.69365">
        <ele>700.94</ele>
        <time>2013-06-30T11:53:12Z</time>
      </trkpt>
      <trkpt lat="44.88951" lon="5.69365">
        <ele>699.5</ele>
        <time>2013-06-30T11:53:13Z</time>
      </trkpt>
      <trkpt lat="44.88955" lon="5.69364">
        <ele>699.02</ele>
        <time>2013-06-30T11:53:14Z</time>
      </trkpt>
      <trkpt lat="44.88959" lon="5.69362">
        <ele>699.5</ele>
        <time>2013-06-30T11:53:15Z</time>
      </trkpt>
      <trkpt lat="44.88968" lon="5.69354">
        <ele>697.57</ele>
        <time>2013-06-30T11:53:18Z</time>
      </trkpt>
      <trkpt lat="44.88973" lon="5.69343">
        <ele>695.17</ele>
        <time>2013-06-30T11:53:21Z</time>
      </trkpt>
      <trkpt lat="44.88975" lon="5.69334">
        <ele>694.21</ele>
        <time>2013-06-30T11:53:24Z</time>
      </trkpt>
      <trkpt lat="44.88975" lon="5.69331">
        <ele>694.21</ele>
        <time>2013-06-30T11:53:25Z</time>
      </trkpt>
      <trkpt lat="44.88975" lon="5.69327">
        <ele>693.25</ele>
        <time>2013-06-30T11:53:26Z</time>
      </trkpt>
      <trkpt lat="44.88975" lon="5.69324">
        <ele>692.77</ele>
        <time>2013-06-30T11:53:27Z</time>
      </trkpt>
      <trkpt lat="44.88974" lon="5.6932">
        <ele>692.77</ele>
        <time>2013-06-30T11:53:28Z</time>
      </trkpt>
      <trkpt lat="44.88971" lon="5.69305">
        <ele>692.29</ele>
        <time>2013-06-30T11:53:37Z</time>
      </trkpt>
      <trkpt lat="44.88971" lon="5.69302">
        <ele>693.25</ele>
        <time>2013-06-30T11:53:59Z</time>
      </trkpt>
      <trkpt lat="44.88969" lon="5.69297">
        <ele>692.77</ele>
        <time>2013-06-30T11:54:10Z</time>
      </trkpt>
      <trkpt lat="44.8897" lon="5.69294">
        <ele>692.77</ele>
        <time>2013-06-30T11:54:11Z</time>
      </trkpt>
      <trkpt lat="44.8897" lon="5.6929">
        <ele>693.25</ele>
        <time>2013-06-30T11:54:12Z</time>
      </trkpt>
      <trkpt lat="44.88969" lon="5.69286">
        <ele>692.77</ele>
        <time>2013-06-30T11:54:13Z</time>
      </trkpt>
      <trkpt lat="44.88967" lon="5.69282">
        <ele>692.29</ele>
        <time>2013-06-30T11:54:14Z</time>
      </trkpt>
      <trkpt lat="44.88965" lon="5.69279">
        <ele>692.77</ele>
        <time>2013-06-30T11:54:15Z</time>
      </trkpt>
      <trkpt lat="44.88962" lon="5.69268">
        <ele>691.81</ele>
        <time>2013-06-30T11:54:18Z</time>
      </trkpt>
      <trkpt lat="44.88962" lon="5.69264">
        <ele>691.33</ele>
        <time>2013-06-30T11:54:19Z</time>
      </trkpt>
      <trkpt lat="44.88962" lon="5.6926">
        <ele>690.84</ele>
        <time>2013-06-30T11:54:20Z</time>
      </trkpt>
      <trkpt lat="44.88963" lon="5.69257">
        <ele>689.4</ele>
        <time>2013-06-30T11:54:21Z</time>
      </trkpt>
      <trkpt lat="44.88965" lon="5.69254">
        <ele>689.4</ele>
        <time>2013-06-30T11:54:22Z</time>
      </trkpt>
      <trkpt lat="44.88966" lon="5.69251">
        <ele>688.44</ele>
        <time>2013-06-30T11:54:23Z</time>
      </trkpt>
      <trkpt lat="44.88968" lon="5.69249">
        <ele>688.44</ele>
        <time>2013-06-30T11:54:24Z</time>
      </trkpt>
      <trkpt lat="44.88973" lon="5.69237">
        <ele>687</ele>
        <time>2013-06-30T11:54:27Z</time>
      </trkpt>
      <trkpt lat="44.88983" lon="5.69228">
        <ele>685.08</ele>
        <time>2013-06-30T11:54:30Z</time>
      </trkpt>
      <trkpt lat="44.88984" lon="5.69223">
        <ele>684.12</ele>
        <time>2013-06-30T11:54:31Z</time>
      </trkpt>
      <trkpt lat="44.88986" lon="5.69221">
        <ele>682.67</ele>
        <time>2013-06-30T11:54:32Z</time>
      </trkpt>
      <trkpt lat="44.88989" lon="5.6922">
        <ele>682.67</ele>
        <time>2013-06-30T11:54:33Z</time>
      </trkpt>
      <trkpt lat="44.88991" lon="5.69221">
        <ele>681.71</ele>
        <time>2013-06-30T11:54:34Z</time>
      </trkpt>
      <trkpt lat="44.88992" lon="5.69223">
        <ele>681.71</ele>
        <time>2013-06-30T11:54:36Z</time>
      </trkpt>
      <trkpt lat="44.88991" lon="5.69231">
        <ele>680.75</ele>
        <time>2013-06-30T11:54:45Z</time>
      </trkpt>
      <trkpt lat="44.88992" lon="5.6923">
        <ele>680.75</ele>
        <time>2013-06-30T11:54:48Z</time>
      </trkpt>
      <trkpt lat="44.88999" lon="5.6922">
        <ele>679.31</ele>
        <time>2013-06-30T11:54:56Z</time>
      </trkpt>
      <trkpt lat="44.89" lon="5.69215">
        <ele>678.83</ele>
        <time>2013-06-30T11:54:57Z</time>
      </trkpt>
      <trkpt lat="44.88988" lon="5.692">
        <ele>679.31</ele>
        <time>2013-06-30T11:55:05Z</time>
      </trkpt>
      <trkpt lat="44.88975" lon="5.69201">
        <ele>678.35</ele>
        <time>2013-06-30T11:55:10Z</time>
      </trkpt>
      <trkpt lat="44.88955" lon="5.69187">
        <ele>676.42</ele>
        <time>2013-06-30T11:55:16Z</time>
      </trkpt>
      <trkpt lat="44.88943" lon="5.69183">
        <ele>672.58</ele>
        <time>2013-06-30T11:55:20Z</time>
      </trkpt>
      <trkpt lat="44.88938" lon="5.69171">
        <ele>669.7</ele>
        <time>2013-06-30T11:55:26Z</time>
      </trkpt>
      <trkpt lat="44.8893" lon="5.69166">
        <ele>666.81</ele>
        <time>2013-06-30T11:55:29Z</time>
      </trkpt>
      <trkpt lat="44.88907" lon="5.69165">
        <ele>666.33</ele>
        <time>2013-06-30T11:55:36Z</time>
      </trkpt>
      <trkpt lat="44.88902" lon="5.69156">
        <ele>665.37</ele>
        <time>2013-06-30T11:55:41Z</time>
      </trkpt>
      <trkpt lat="44.88915" lon="5.69146">
        <ele>664.89</ele>
        <time>2013-06-30T11:55:50Z</time>
      </trkpt>
      <trkpt lat="44.88916" lon="5.69142">
        <ele>665.37</ele>
        <time>2013-06-30T11:56:12Z</time>
      </trkpt>
      <trkpt lat="44.88918" lon="5.69139">
        <ele>664.89</ele>
        <time>2013-06-30T11:56:26Z</time>
      </trkpt>
      <trkpt lat="44.88919" lon="5.69137">
        <ele>664.41</ele>
        <time>2013-06-30T11:56:45Z</time>
      </trkpt>
      <trkpt lat="44.88926" lon="5.69119">
        <ele>661.52</ele>
        <time>2013-06-30T11:56:51Z</time>
      </trkpt>
      <trkpt lat="44.88925" lon="5.69106">
        <ele>660.08</ele>
        <time>2013-06-30T11:56:54Z</time>
      </trkpt>
      <trkpt lat="44.88924" lon="5.69095">
        <ele>659.12</ele>
        <time>2013-06-30T11:56:56Z</time>
      </trkpt>
      <trkpt lat="44.88923" lon="5.69089">
        <ele>658.64</ele>
        <time>2013-06-30T11:56:57Z</time>
      </trkpt>
      <trkpt lat="44.88923" lon="5.69084">
        <ele>658.64</ele>
        <time>2013-06-30T11:56:58Z</time>
      </trkpt>
      <trkpt lat="44.88923" lon="5.69078">
        <ele>658.64</ele>
        <time>2013-06-30T11:56:59Z</time>
      </trkpt>
      <trkpt lat="44.88922" lon="5.69073">
        <ele>658.16</ele>
        <time>2013-06-30T11:57:00Z</time>
      </trkpt>
      <trkpt lat="44.8892" lon="5.69068">
        <ele>657.68</ele>
        <time>2013-06-30T11:57:01Z</time>
      </trkpt>
      <trkpt lat="44.88919" lon="5.69062">
        <ele>656.72</ele>
        <time>2013-06-30T11:57:02Z</time>
      </trkpt>
      <trkpt lat="44.88918" lon="5.69057">
        <ele>656.24</ele>
        <time>2013-06-30T11:57:03Z</time>
      </trkpt>
      <trkpt lat="44.88915" lon="5.69052">
        <ele>655.76</ele>
        <time>2013-06-30T11:57:04Z</time>
      </trkpt>
      <trkpt lat="44.88912" lon="5.69048">
        <ele>655.28</ele>
        <time>2013-06-30T11:57:05Z</time>
      </trkpt>
      <trkpt lat="44.88905" lon="5.69027">
        <ele>652.87</ele>
        <time>2013-06-30T11:57:09Z</time>
      </trkpt>
      <trkpt lat="44.88904" lon="5.69021">
        <ele>652.39</ele>
        <time>2013-06-30T11:57:10Z</time>
      </trkpt>
      <trkpt lat="44.88904" lon="5.69014">
        <ele>651.91</ele>
        <time>2013-06-30T11:57:11Z</time>
      </trkpt>
      <trkpt lat="44.88902" lon="5.69001">
        <ele>650.95</ele>
        <time>2013-06-30T11:57:13Z</time>
      </trkpt>
      <trkpt lat="44.88899" lon="5.68995">
        <ele>650.47</ele>
        <time>2013-06-30T11:57:14Z</time>
      </trkpt>
      <trkpt lat="44.88896" lon="5.68991">
        <ele>649.99</ele>
        <time>2013-06-30T11:57:15Z</time>
      </trkpt>
      <trkpt lat="44.88893" lon="5.68986">
        <ele>649.99</ele>
        <time>2013-06-30T11:57:16Z</time>
      </trkpt>
      <trkpt lat="44.88891" lon="5.68982">
        <ele>649.51</ele>
        <time>2013-06-30T11:57:17Z</time>
      </trkpt>
      <trkpt lat="44.88888" lon="5.68979">
        <ele>649.03</ele>
        <time>2013-06-30T11:57:18Z</time>
      </trkpt>
      <trkpt lat="44.88883" lon="5.68978">
        <ele>648.55</ele>
        <time>2013-06-30T11:57:19Z</time>
      </trkpt>
      <trkpt lat="44.88848" lon="5.68973">
        <ele>648.07</ele>
        <time>2013-06-30T11:57:26Z</time>
      </trkpt>
      <trkpt lat="44.88844" lon="5.68971">
        <ele>648.07</ele>
        <time>2013-06-30T11:57:27Z</time>
      </trkpt>
      <trkpt lat="44.8884" lon="5.6897">
        <ele>647.59</ele>
        <time>2013-06-30T11:57:28Z</time>
      </trkpt>
      <trkpt lat="44.88821" lon="5.6897">
        <ele>644.7</ele>
        <time>2013-06-30T11:57:33Z</time>
      </trkpt>
      <trkpt lat="44.88817" lon="5.68969">
        <ele>644.22</ele>
        <time>2013-06-30T11:57:34Z</time>
      </trkpt>
      <trkpt lat="44.88813" lon="5.68966">
        <ele>644.22</ele>
        <time>2013-06-30T11:57:35Z</time>
      </trkpt>
      <trkpt lat="44.8881" lon="5.68965">
        <ele>644.7</ele>
        <time>2013-06-30T11:57:36Z</time>
      </trkpt>
      <trkpt lat="44.88806" lon="5.68965">
        <ele>643.74</ele>
        <time>2013-06-30T11:57:37Z</time>
      </trkpt>
      <trkpt lat="44.88802" lon="5.68966">
        <ele>642.3</ele>
        <time>2013-06-30T11:57:38Z</time>
      </trkpt>
      <trkpt lat="44.88798" lon="5.68967">
        <ele>641.82</ele>
        <time>2013-06-30T11:57:39Z</time>
      </trkpt>
      <trkpt lat="44.88794" lon="5.68967">
        <ele>641.82</ele>
        <time>2013-06-30T11:57:40Z</time>
      </trkpt>
      <trkpt lat="44.8879" lon="5.68968">
        <ele>640.38</ele>
        <time>2013-06-30T11:57:41Z</time>
      </trkpt>
      <trkpt lat="44.88785" lon="5.68968">
        <ele>640.38</ele>
        <time>2013-06-30T11:57:42Z</time>
      </trkpt>
      <trkpt lat="44.88769" lon="5.68968">
        <ele>638.93</ele>
        <time>2013-06-30T11:57:45Z</time>
      </trkpt>
      <trkpt lat="44.88764" lon="5.68969">
        <ele>638.93</ele>
        <time>2013-06-30T11:57:46Z</time>
      </trkpt>
      <trkpt lat="44.88759" lon="5.68969">
        <ele>638.45</ele>
        <time>2013-06-30T11:57:47Z</time>
      </trkpt>
      <trkpt lat="44.8874" lon="5.68966">
        <ele>635.57</ele>
        <time>2013-06-30T11:57:52Z</time>
      </trkpt>
      <trkpt lat="44.88737" lon="5.68963">
        <ele>634.61</ele>
        <time>2013-06-30T11:57:53Z</time>
      </trkpt>
      <trkpt lat="44.88733" lon="5.68962">
        <ele>633.17</ele>
        <time>2013-06-30T11:57:54Z</time>
      </trkpt>
      <trkpt lat="44.88729" lon="5.68961">
        <ele>632.68</ele>
        <time>2013-06-30T11:57:55Z</time>
      </trkpt>
      <trkpt lat="44.88725" lon="5.6896">
        <ele>632.2</ele>
        <time>2013-06-30T11:57:56Z</time>
      </trkpt>
      <trkpt lat="44.88721" lon="5.68958">
        <ele>632.2</ele>
        <time>2013-06-30T11:57:57Z</time>
      </trkpt>
      <trkpt lat="44.88716" lon="5.68954">
        <ele>630.76</ele>
        <time>2013-06-30T11:57:58Z</time>
      </trkpt>
      <trkpt lat="44.88711" lon="5.68951">
        <ele>629.8</ele>
        <time>2013-06-30T11:57:59Z</time>
      </trkpt>
      <trkpt lat="44.88706" lon="5.68949">
        <ele>629.8</ele>
        <time>2013-06-30T11:58:00Z</time>
      </trkpt>
      <trkpt lat="44.88693" lon="5.68945">
        <ele>627.4</ele>
        <time>2013-06-30T11:58:03Z</time>
      </trkpt>
      <trkpt lat="44.88689" lon="5.68945">
        <ele>627.4</ele>
        <time>2013-06-30T11:58:04Z</time>
      </trkpt>
      <trkpt lat="44.88684" lon="5.68944">
        <ele>626.92</ele>
        <time>2013-06-30T11:58:05Z</time>
      </trkpt>
      <trkpt lat="44.8868" lon="5.68941">
        <ele>626.44</ele>
        <time>2013-06-30T11:58:06Z</time>
      </trkpt>
      <trkpt lat="44.88668" lon="5.68932">
        <ele>626.92</ele>
        <time>2013-06-30T11:58:10Z</time>
      </trkpt>
      <trkpt lat="44.88664" lon="5.68924">
        <ele>625.96</ele>
        <time>2013-06-30T11:58:12Z</time>
      </trkpt>
      <trkpt lat="44.88645" lon="5.68919">
        <ele>623.07</ele>
        <time>2013-06-30T11:58:18Z</time>
      </trkpt>
      <trkpt lat="44.88643" lon="5.68914">
        <ele>621.15</ele>
        <time>2013-06-30T11:58:19Z</time>
      </trkpt>
      <trkpt lat="44.88638" lon="5.68902">
        <ele>618.75</ele>
        <time>2013-06-30T11:58:21Z</time>
      </trkpt>
      <trkpt lat="44.88635" lon="5.68898">
        <ele>617.78</ele>
        <time>2013-06-30T11:58:22Z</time>
      </trkpt>
      <trkpt lat="44.88631" lon="5.68897">
        <ele>617.78</ele>
        <time>2013-06-30T11:58:23Z</time>
      </trkpt>
      <trkpt lat="44.88627" lon="5.68896">
        <ele>616.34</ele>
        <time>2013-06-30T11:58:24Z</time>
      </trkpt>
      <trkpt lat="44.88623" lon="5.68895">
        <ele>615.86</ele>
        <time>2013-06-30T11:58:25Z</time>
      </trkpt>
      <trkpt lat="44.88619" lon="5.68895">
        <ele>613.46</ele>
        <time>2013-06-30T11:58:26Z</time>
      </trkpt>
      <trkpt lat="44.88615" lon="5.68896">
        <ele>612.02</ele>
        <time>2013-06-30T11:58:27Z</time>
      </trkpt>
      <trkpt lat="44.88612" lon="5.68898">
        <ele>611.54</ele>
        <time>2013-06-30T11:58:28Z</time>
      </trkpt>
      <trkpt lat="44.88608" lon="5.68904">
        <ele>610.57</ele>
        <time>2013-06-30T11:58:30Z</time>
      </trkpt>
      <trkpt lat="44.88599" lon="5.68914">
        <ele>610.57</ele>
        <time>2013-06-30T11:58:34Z</time>
      </trkpt>
      <trkpt lat="44.88593" lon="5.68916">
        <ele>608.65</ele>
        <time>2013-06-30T11:58:36Z</time>
      </trkpt>
      <trkpt lat="44.88581" lon="5.68917">
        <ele>604.81</ele>
        <time>2013-06-30T11:58:40Z</time>
      </trkpt>
      <trkpt lat="44.88577" lon="5.68919">
        <ele>603.85</ele>
        <time>2013-06-30T11:58:41Z</time>
      </trkpt>
      <trkpt lat="44.88573" lon="5.68919">
        <ele>603.85</ele>
        <time>2013-06-30T11:58:42Z</time>
      </trkpt>
      <trkpt lat="44.8857" lon="5.68921">
        <ele>604.33</ele>
        <time>2013-06-30T11:58:43Z</time>
      </trkpt>
      <trkpt lat="44.88567" lon="5.68923">
        <ele>605.29</ele>
        <time>2013-06-30T11:58:44Z</time>
      </trkpt>
      <trkpt lat="44.88564" lon="5.68925">
        <ele>604.81</ele>
        <time>2013-06-30T11:58:45Z</time>
      </trkpt>
      <trkpt lat="44.88561" lon="5.68927">
        <ele>605.29</ele>
        <time>2013-06-30T11:58:46Z</time>
      </trkpt>
      <trkpt lat="44.88558" lon="5.68927">
        <ele>604.33</ele>
        <time>2013-06-30T11:58:47Z</time>
      </trkpt>
      <trkpt lat="44.88554" lon="5.68927">
        <ele>603.85</ele>
        <time>2013-06-30T11:58:48Z</time>
      </trkpt>
      <trkpt lat="44.88544" lon="5.68923">
        <ele>602.4</ele>
        <time>2013-06-30T11:58:51Z</time>
      </trkpt>
      <trkpt lat="44.88537" lon="5.6892">
        <ele>602.4</ele>
        <time>2013-06-30T11:58:59Z</time>
      </trkpt>
      <trkpt lat="44.88533" lon="5.6892">
        <ele>601.92</ele>
        <time>2013-06-30T11:59:16Z</time>
      </trkpt>
      <trkpt lat="44.88533" lon="5.68919">
        <ele>601.92</ele>
        <time>2013-06-30T11:59:39Z</time>
      </trkpt>
      <trkpt lat="44.8852" lon="5.68918">
        <ele>599.04</ele>
        <time>2013-06-30T11:59:45Z</time>
      </trkpt>
      <trkpt lat="44.88499" lon="5.68917">
        <ele>596.64</ele>
        <time>2013-06-30T11:59:49Z</time>
      </trkpt>
      <trkpt lat="44.88494" lon="5.68916">
        <ele>595.67</ele>
        <time>2013-06-30T11:59:50Z</time>
      </trkpt>
      <trkpt lat="44.88484" lon="5.68914">
        <ele>593.75</ele>
        <time>2013-06-30T11:59:53Z</time>
      </trkpt>
      <trkpt lat="44.88463" lon="5.68914">
        <ele>588.95</ele>
        <time>2013-06-30T11:59:58Z</time>
      </trkpt>
      <trkpt lat="44.88458" lon="5.68914">
        <ele>587.5</ele>
        <time>2013-06-30T11:59:59Z</time>
      </trkpt>
      <trkpt lat="44.88446" lon="5.68916">
        <ele>584.62</ele>
        <time>2013-06-30T12:00:02Z</time>
      </trkpt>
      <trkpt lat="44.88433" lon="5.68913">
        <ele>580.77</ele>
        <time>2013-06-30T12:00:09Z</time>
      </trkpt>
      <trkpt lat="44.88431" lon="5.68906">
        <ele>579.33</ele>
        <time>2013-06-30T12:00:12Z</time>
      </trkpt>
      <trkpt lat="44.88429" lon="5.68894">
        <ele>577.41</ele>
        <time>2013-06-30T12:00:19Z</time>
      </trkpt>
      <trkpt lat="44.8842" lon="5.68909">
        <ele>574.04</ele>
        <time>2013-06-30T12:00:25Z</time>
      </trkpt>
      <trkpt lat="44.88418" lon="5.68915">
        <ele>573.08</ele>
        <time>2013-06-30T12:00:26Z</time>
      </trkpt>
      <trkpt lat="44.88425" lon="5.68954">
        <ele>574.53</ele>
        <time>2013-06-30T12:00:34Z</time>
      </trkpt>
      <trkpt lat="44.8842" lon="5.68987">
        <ele>571.64</ele>
        <time>2013-06-30T12:00:42Z</time>
      </trkpt>
      <trkpt lat="44.88427" lon="5.69008">
        <ele>570.68</ele>
        <time>2013-06-30T12:00:46Z</time>
      </trkpt>
      <trkpt lat="44.88433" lon="5.69025">
        <ele>569.72</ele>
        <time>2013-06-30T12:00:49Z</time>
      </trkpt>
      <trkpt lat="44.88434" lon="5.69032">
        <ele>569.24</ele>
        <time>2013-06-30T12:00:50Z</time>
      </trkpt>
      <trkpt lat="44.88434" lon="5.69038">
        <ele>569.24</ele>
        <time>2013-06-30T12:00:51Z</time>
      </trkpt>
      <trkpt lat="44.88432" lon="5.69041">
        <ele>568.76</ele>
        <time>2013-06-30T12:00:52Z</time>
      </trkpt>
      <trkpt lat="44.8843" lon="5.69044">
        <ele>569.24</ele>
        <time>2013-06-30T12:00:53Z</time>
      </trkpt>
      <trkpt lat="44.88429" lon="5.69045">
        <ele>569.24</ele>
        <time>2013-06-30T12:00:57Z</time>
      </trkpt>
      <trkpt lat="44.88427" lon="5.6905">
        <ele>568.28</ele>
        <time>2013-06-30T12:01:09Z</time>
      </trkpt>
      <trkpt lat="44.88412" lon="5.69058">
        <ele>564.91</ele>
        <time>2013-06-30T12:01:17Z</time>
      </trkpt>
      <trkpt lat="44.8841" lon="5.69059">
        <ele>563.95</ele>
        <time>2013-06-30T12:01:25Z</time>
      </trkpt>
      <trkpt lat="44.88411" lon="5.69058">
        <ele>563.47</ele>
        <time>2013-06-30T12:01:27Z</time>
      </trkpt>
      <trkpt lat="44.88411" lon="5.69056">
        <ele>563.47</ele>
        <time>2013-06-30T12:01:28Z</time>
      </trkpt>
      <trkpt lat="44.8841" lon="5.69054">
        <ele>562.99</ele>
        <time>2013-06-30T12:01:29Z</time>
      </trkpt>
      <trkpt lat="44.88407" lon="5.69051">
        <ele>562.99</ele>
        <time>2013-06-30T12:01:32Z</time>
      </trkpt>
      <trkpt lat="44.88404" lon="5.69046">
        <ele>562.51</ele>
        <time>2013-06-30T12:01:40Z</time>
      </trkpt>
      <trkpt lat="44.88402" lon="5.69045">
        <ele>562.51</ele>
        <time>2013-06-30T12:01:41Z</time>
      </trkpt>
      <trkpt lat="44.884" lon="5.69044">
        <ele>562.03</ele>
        <time>2013-06-30T12:01:42Z</time>
      </trkpt>
      <trkpt lat="44.88398" lon="5.69043">
        <ele>561.55</ele>
        <time>2013-06-30T12:01:43Z</time>
      </trkpt>
      <trkpt lat="44.88398" lon="5.69042">
        <ele>562.51</ele>
        <time>2013-06-30T12:01:53Z</time>
      </trkpt>
      <trkpt lat="44.88399" lon="5.69044">
        <ele>563.47</ele>
        <time>2013-06-30T12:02:01Z</time>
      </trkpt>
      <trkpt lat="44.884" lon="5.69046">
        <ele>563.47</ele>
        <time>2013-06-30T12:02:02Z</time>
      </trkpt>
      <trkpt lat="44.88404" lon="5.69052">
        <ele>562.99</ele>
        <time>2013-06-30T12:02:13Z</time>
      </trkpt>
      <trkpt lat="44.88404" lon="5.69053">
        <ele>562.99</ele>
        <time>2013-06-30T12:02:16Z</time>
      </trkpt>
      <trkpt lat="44.88399" lon="5.69057">
        <ele>561.55</ele>
        <time>2013-06-30T12:02:19Z</time>
      </trkpt>
      <trkpt lat="44.88398" lon="5.69059">
        <ele>561.07</ele>
        <time>2013-06-30T12:02:20Z</time>
      </trkpt>
      <trkpt lat="44.88395" lon="5.6906">
        <ele>560.59</ele>
        <time>2013-06-30T12:02:21Z</time>
      </trkpt>
      <trkpt lat="44.88393" lon="5.69061">
        <ele>560.59</ele>
        <time>2013-06-30T12:02:22Z</time>
      </trkpt>
      <trkpt lat="44.88392" lon="5.69067">
        <ele>560.59</ele>
        <time>2013-06-30T12:02:24Z</time>
      </trkpt>
      <trkpt lat="44.88399" lon="5.6909">
        <ele>559.62</ele>
        <time>2013-06-30T12:02:31Z</time>
      </trkpt>
      <trkpt lat="44.88405" lon="5.69102">
        <ele>558.18</ele>
        <time>2013-06-30T12:02:34Z</time>
      </trkpt>
      <trkpt lat="44.88412" lon="5.69111">
        <ele>559.14</ele>
        <time>2013-06-30T12:02:42Z</time>
      </trkpt>
      <trkpt lat="44.88421" lon="5.69122">
        <ele>558.18</ele>
        <time>2013-06-30T12:02:53Z</time>
      </trkpt>
      <trkpt lat="44.88421" lon="5.69122">
        <ele>558.18</ele>
        <time>2013-06-30T12:02:56Z</time>
      </trkpt>
      <trkpt lat="44.8841" lon="5.69127">
        <ele>559.14</ele>
        <time>2013-06-30T12:03:05Z</time>
      </trkpt>
      <trkpt lat="44.88396" lon="5.69136">
        <ele>561.55</ele>
        <time>2013-06-30T12:03:15Z</time>
      </trkpt>
      <trkpt lat="44.8839" lon="5.69135">
        <ele>562.99</ele>
        <time>2013-06-30T12:03:20Z</time>
      </trkpt>
      <trkpt lat="44.88377" lon="5.69149">
        <ele>563.47</ele>
        <time>2013-06-30T12:03:32Z</time>
      </trkpt>
      <trkpt lat="44.88365" lon="5.69185">
        <ele>562.51</ele>
        <time>2013-06-30T12:03:44Z</time>
      </trkpt>
      <trkpt lat="44.88358" lon="5.69184">
        <ele>563.47</ele>
        <time>2013-06-30T12:03:48Z</time>
      </trkpt>
      <trkpt lat="44.8835" lon="5.69174">
        <ele>564.91</ele>
        <time>2013-06-30T12:03:55Z</time>
      </trkpt>
      <trkpt lat="44.8833" lon="5.69175">
        <ele>568.76</ele>
        <time>2013-06-30T12:04:10Z</time>
      </trkpt>
      <trkpt lat="44.88326" lon="5.69171">
        <ele>568.76</ele>
        <time>2013-06-30T12:04:14Z</time>
      </trkpt>
      <trkpt lat="44.88322" lon="5.69169">
        <ele>570.2</ele>
        <time>2013-06-30T12:04:17Z</time>
      </trkpt>
      <trkpt lat="44.88302" lon="5.69176">
        <ele>572.6</ele>
        <time>2013-06-30T12:04:31Z</time>
      </trkpt>
      <trkpt lat="44.88301" lon="5.69178">
        <ele>572.6</ele>
        <time>2013-06-30T12:04:48Z</time>
      </trkpt>
      <trkpt lat="44.88297" lon="5.69179">
        <ele>574.53</ele>
        <time>2013-06-30T12:04:59Z</time>
      </trkpt>
      <trkpt lat="44.88281" lon="5.69187">
        <ele>576.93</ele>
        <time>2013-06-30T12:05:11Z</time>
      </trkpt>
      <trkpt lat="44.88278" lon="5.6919">
        <ele>577.41</ele>
        <time>2013-06-30T12:05:14Z</time>
      </trkpt>
      <trkpt lat="44.88277" lon="5.69196">
        <ele>578.37</ele>
        <time>2013-06-30T12:05:17Z</time>
      </trkpt>
      <trkpt lat="44.88275" lon="5.69198">
        <ele>581.73</ele>
        <time>2013-06-30T12:05:25Z</time>
      </trkpt>
      <trkpt lat="44.88274" lon="5.69208">
        <ele>581.73</ele>
        <time>2013-06-30T12:05:37Z</time>
      </trkpt>
      <trkpt lat="44.88275" lon="5.69219">
        <ele>584.14</ele>
        <time>2013-06-30T12:05:51Z</time>
      </trkpt>
      <trkpt lat="44.88278" lon="5.69224">
        <ele>585.58</ele>
        <time>2013-06-30T12:06:03Z</time>
      </trkpt>
      <trkpt lat="44.88274" lon="5.69235">
        <ele>585.1</ele>
        <time>2013-06-30T12:06:14Z</time>
      </trkpt>
      <trkpt lat="44.88271" lon="5.69245">
        <ele>583.66</ele>
        <time>2013-06-30T12:06:26Z</time>
      </trkpt>
      <trkpt lat="44.88268" lon="5.69253">
        <ele>583.18</ele>
        <time>2013-06-30T12:06:33Z</time>
      </trkpt>
      <trkpt lat="44.88255" lon="5.69256">
        <ele>582.7</ele>
        <time>2013-06-30T12:06:43Z</time>
      </trkpt>
      <trkpt lat="44.88249" lon="5.69253">
        <ele>582.7</ele>
        <time>2013-06-30T12:06:56Z</time>
      </trkpt>
      <trkpt lat="44.88235" lon="5.69246">
        <ele>583.18</ele>
        <time>2013-06-30T12:07:11Z</time>
      </trkpt>
      <trkpt lat="44.88229" lon="5.6924">
        <ele>583.18</ele>
        <time>2013-06-30T12:07:14Z</time>
      </trkpt>
      <trkpt lat="44.88227" lon="5.69226">
        <ele>581.25</ele>
        <time>2013-06-30T12:07:17Z</time>
      </trkpt>
      <trkpt lat="44.88227" lon="5.69214">
        <ele>580.29</ele>
        <time>2013-06-30T12:07:19Z</time>
      </trkpt>
      <trkpt lat="44.88229" lon="5.69198">
        <ele>581.25</ele>
        <time>2013-06-30T12:07:24Z</time>
      </trkpt>
      <trkpt lat="44.88225" lon="5.69191">
        <ele>581.25</ele>
        <time>2013-06-30T12:07:27Z</time>
      </trkpt>
      <trkpt lat="44.88218" lon="5.6919">
        <ele>581.73</ele>
        <time>2013-06-30T12:07:30Z</time>
      </trkpt>
      <trkpt lat="44.88206" lon="5.69184">
        <ele>581.73</ele>
        <time>2013-06-30T12:07:36Z</time>
      </trkpt>
      <trkpt lat="44.88202" lon="5.69184">
        <ele>581.73</ele>
        <time>2013-06-30T12:07:38Z</time>
      </trkpt>
      <trkpt lat="44.88185" lon="5.69177">
        <ele>581.25</ele>
        <time>2013-06-30T12:07:43Z</time>
      </trkpt>
      <trkpt lat="44.88181" lon="5.69165">
        <ele>577.41</ele>
        <time>2013-06-30T12:07:49Z</time>
      </trkpt>
      <trkpt lat="44.88181" lon="5.69164">
        <ele>577.41</ele>
        <time>2013-06-30T12:07:50Z</time>
      </trkpt>
      <trkpt lat="44.88178" lon="5.69166">
        <ele>577.89</ele>
        <time>2013-06-30T12:08:03Z</time>
      </trkpt>
      <trkpt lat="44.88178" lon="5.69164">
        <ele>577.41</ele>
        <time>2013-06-30T12:08:26Z</time>
      </trkpt>
      <trkpt lat="44.88178" lon="5.69164">
        <ele>577.41</ele>
        <time>2013-06-30T12:08:33Z</time>
      </trkpt>
      <trkpt lat="44.882" lon="5.69165">
        <ele>574.53</ele>
        <time>2013-06-30T12:08:41Z</time>
      </trkpt>
      <trkpt lat="44.88211" lon="5.69161">
        <ele>571.64</ele>
        <time>2013-06-30T12:08:44Z</time>
      </trkpt>
      <trkpt lat="44.88214" lon="5.6916">
        <ele>571.16</ele>
        <time>2013-06-30T12:08:45Z</time>
      </trkpt>
      <trkpt lat="44.88224" lon="5.69159">
        <ele>568.76</ele>
        <time>2013-06-30T12:08:48Z</time>
      </trkpt>
      <trkpt lat="44.88231" lon="5.69149">
        <ele>564.43</ele>
        <time>2013-06-30T12:08:53Z</time>
      </trkpt>
      <trkpt lat="44.88227" lon="5.69133">
        <ele>561.55</ele>
        <time>2013-06-30T12:08:57Z</time>
      </trkpt>
      <trkpt lat="44.88226" lon="5.69131">
        <ele>560.59</ele>
        <time>2013-06-30T12:08:59Z</time>
      </trkpt>
      <trkpt lat="44.88226" lon="5.6913">
        <ele>560.11</ele>
        <time>2013-06-30T12:09:01Z</time>
      </trkpt>
      <trkpt lat="44.88215" lon="5.69127">
        <ele>557.7</ele>
        <time>2013-06-30T12:09:06Z</time>
      </trkpt>
      <trkpt lat="44.88206" lon="5.69117">
        <ele>552.9</ele>
        <time>2013-06-30T12:09:10Z</time>
      </trkpt>
      <trkpt lat="44.88203" lon="5.69115">
        <ele>552.9</ele>
        <time>2013-06-30T12:09:11Z</time>
      </trkpt>
      <trkpt lat="44.88195" lon="5.69108">
        <ele>550.01</ele>
        <time>2013-06-30T12:09:14Z</time>
      </trkpt>
      <trkpt lat="44.88187" lon="5.691">
        <ele>546.65</ele>
        <time>2013-06-30T12:09:17Z</time>
      </trkpt>
      <trkpt lat="44.88169" lon="5.6909">
        <ele>542.8</ele>
        <time>2013-06-30T12:09:23Z</time>
      </trkpt>
      <trkpt lat="44.88171" lon="5.69078">
        <ele>539.92</ele>
        <time>2013-06-30T12:09:28Z</time>
      </trkpt>
      <trkpt lat="44.88188" lon="5.6908">
        <ele>536.07</ele>
        <time>2013-06-30T12:09:34Z</time>
      </trkpt>
      <trkpt lat="44.88194" lon="5.69081">
        <ele>535.11</ele>
        <time>2013-06-30T12:09:36Z</time>
      </trkpt>
      <trkpt lat="44.88198" lon="5.69079">
        <ele>533.67</ele>
        <time>2013-06-30T12:09:39Z</time>
      </trkpt>
      <trkpt lat="44.88192" lon="5.69067">
        <ele>530.3</ele>
        <time>2013-06-30T12:09:43Z</time>
      </trkpt>
      <trkpt lat="44.88191" lon="5.69065">
        <ele>529.82</ele>
        <time>2013-06-30T12:09:44Z</time>
      </trkpt>
      <trkpt lat="44.88184" lon="5.69054">
        <ele>526.46</ele>
        <time>2013-06-30T12:09:48Z</time>
      </trkpt>
      <trkpt lat="44.88173" lon="5.69039">
        <ele>523.09</ele>
        <time>2013-06-30T12:09:53Z</time>
      </trkpt>
      <trkpt lat="44.88169" lon="5.69031">
        <ele>519.73</ele>
        <time>2013-06-30T12:09:59Z</time>
      </trkpt>
      <trkpt lat="44.88178" lon="5.69032">
        <ele>517.81</ele>
        <time>2013-06-30T12:10:02Z</time>
      </trkpt>
      <trkpt lat="44.88192" lon="5.6903">
        <ele>513.48</ele>
        <time>2013-06-30T12:10:07Z</time>
      </trkpt>
      <trkpt lat="44.88197" lon="5.69027">
        <ele>512.52</ele>
        <time>2013-06-30T12:10:09Z</time>
      </trkpt>
      <trkpt lat="44.882" lon="5.69025">
        <ele>511.56</ele>
        <time>2013-06-30T12:10:10Z</time>
      </trkpt>
      <trkpt lat="44.88202" lon="5.69017">
        <ele>509.64</ele>
        <time>2013-06-30T12:10:12Z</time>
      </trkpt>
      <trkpt lat="44.88202" lon="5.69012">
        <ele>509.16</ele>
        <time>2013-06-30T12:10:13Z</time>
      </trkpt>
      <trkpt lat="44.88198" lon="5.68998">
        <ele>507.23</ele>
        <time>2013-06-30T12:10:16Z</time>
      </trkpt>
      <trkpt lat="44.88193" lon="5.6899">
        <ele>504.83</ele>
        <time>2013-06-30T12:10:18Z</time>
      </trkpt>
      <trkpt lat="44.8819" lon="5.68989">
        <ele>504.83</ele>
        <time>2013-06-30T12:10:19Z</time>
      </trkpt>
      <trkpt lat="44.88186" lon="5.68988">
        <ele>505.31</ele>
        <time>2013-06-30T12:10:20Z</time>
      </trkpt>
      <trkpt lat="44.88183" lon="5.68987">
        <ele>505.31</ele>
        <time>2013-06-30T12:10:21Z</time>
      </trkpt>
      <trkpt lat="44.8818" lon="5.68985">
        <ele>504.83</ele>
        <time>2013-06-30T12:10:22Z</time>
      </trkpt>
      <trkpt lat="44.88178" lon="5.68985">
        <ele>505.31</ele>
        <time>2013-06-30T12:10:23Z</time>
      </trkpt>
      <trkpt lat="44.88178" lon="5.68985">
        <ele>504.35</ele>
        <time>2013-06-30T12:10:33Z</time>
      </trkpt>
      <trkpt lat="44.88178" lon="5.68985">
        <ele>504.35</ele>
        <time>2013-06-30T12:10:50Z</time>
      </trkpt>
      <trkpt lat="44.88178" lon="5.68984">
        <ele>505.31</ele>
        <time>2013-06-30T12:11:14Z</time>
      </trkpt>
      <trkpt lat="44.88178" lon="5.68985">
        <ele>505.31</ele>
        <time>2013-06-30T12:11:35Z</time>
      </trkpt>
      <trkpt lat="44.88178" lon="5.68986">
        <ele>504.83</ele>
        <time>2013-06-30T12:11:54Z</time>
      </trkpt>
      <trkpt lat="44.88179" lon="5.68985">
        <ele>506.75</ele>
        <time>2013-06-30T12:12:19Z</time>
      </trkpt>
      <trkpt lat="44.88179" lon="5.68985">
        <ele>505.31</ele>
        <time>2013-06-30T12:12:48Z</time>
      </trkpt>
      <trkpt lat="44.88179" lon="5.68984">
        <ele>505.31</ele>
        <time>2013-06-30T12:13:17Z</time>
      </trkpt>
      <trkpt lat="44.88179" lon="5.68984">
        <ele>504.83</ele>
        <time>2013-06-30T12:13:49Z</time>
      </trkpt>
      <trkpt lat="44.88178" lon="5.68984">
        <ele>504.83</ele>
        <time>2013-06-30T12:14:15Z</time>
      </trkpt>
      <trkpt lat="44.88177" lon="5.68984">
        <ele>504.83</ele>
        <time>2013-06-30T12:14:42Z</time>
      </trkpt>
      <trkpt lat="44.88178" lon="5.68984">
        <ele>505.31</ele>
        <time>2013-06-30T12:15:07Z</time>
      </trkpt>
      <trkpt lat="44.88178" lon="5.68984">
        <ele>505.79</ele>
        <time>2013-06-30T12:15:35Z</time>
      </trkpt>
      <trkpt lat="44.88178" lon="5.68982">
        <ele>505.31</ele>
        <time>2013-06-30T12:15:59Z</time>
      </trkpt>
      <trkpt lat="44.88178" lon="5.68984">
        <ele>505.31</ele>
        <time>2013-06-30T12:16:23Z</time>
      </trkpt>
      <trkpt lat="44.88178" lon="5.68984">
        <ele>505.31</ele>
        <time>2013-06-30T12:16:48Z</time>
      </trkpt>
      <trkpt lat="44.88175" lon="5.68984">
        <ele>504.83</ele>
        <time>2013-06-30T12:17:05Z</time>
      </trkpt>
      <trkpt lat="44.88173" lon="5.68985">
        <ele>505.79</ele>
        <time>2013-06-30T12:17:06Z</time>
      </trkpt>
      <trkpt lat="44.88121" lon="5.68991">
        <ele>505.79</ele>
        <time>2013-06-30T12:17:23Z</time>
      </trkpt>
      <trkpt lat="44.88077" lon="5.68992">
        <ele>505.31</ele>
        <time>2013-06-30T12:17:37Z</time>
      </trkpt>
      <trkpt lat="44.88049" lon="5.68993">
        <ele>504.83</ele>
        <time>2013-06-30T12:17:44Z</time>
      </trkpt>
      <trkpt lat="44.87976" lon="5.69017">
        <ele>504.35</ele>
        <time>2013-06-30T12:17:59Z</time>
      </trkpt>
      <trkpt lat="44.87967" lon="5.69022">
        <ele>504.83</ele>
        <time>2013-06-30T12:18:01Z</time>
      </trkpt>
      <trkpt lat="44.87963" lon="5.69024">
        <ele>504.35</ele>
        <time>2013-06-30T12:18:02Z</time>
      </trkpt>
      <trkpt lat="44.87959" lon="5.69026">
        <ele>504.83</ele>
        <time>2013-06-30T12:18:03Z</time>
      </trkpt>
      <trkpt lat="44.87955" lon="5.69029">
        <ele>504.35</ele>
        <time>2013-06-30T12:18:04Z</time>
      </trkpt>
      <trkpt lat="44.87952" lon="5.69032">
        <ele>504.35</ele>
        <time>2013-06-30T12:18:05Z</time>
      </trkpt>
      <trkpt lat="44.87949" lon="5.69034">
        <ele>504.35</ele>
        <time>2013-06-30T12:18:06Z</time>
      </trkpt>
      <trkpt lat="44.87916" lon="5.69054">
        <ele>504.83</ele>
        <time>2013-06-30T12:18:16Z</time>
      </trkpt>
      <trkpt lat="44.87885" lon="5.69074">
        <ele>505.79</ele>
        <time>2013-06-30T12:18:26Z</time>
      </trkpt>
      <trkpt lat="44.87856" lon="5.69094">
        <ele>505.31</ele>
        <time>2013-06-30T12:18:38Z</time>
      </trkpt>
      <trkpt lat="44.87814" lon="5.69118">
        <ele>505.79</ele>
        <time>2013-06-30T12:18:50Z</time>
      </trkpt>
      <trkpt lat="44.87812" lon="5.69116">
        <ele>505.79</ele>
        <time>2013-06-30T12:18:51Z</time>
      </trkpt>
      <trkpt lat="44.87806" lon="5.69109">
        <ele>504.83</ele>
        <time>2013-06-30T12:18:59Z</time>
      </trkpt>
      <trkpt lat="44.87805" lon="5.69107">
        <ele>504.35</ele>
        <time>2013-06-30T12:19:00Z</time>
      </trkpt>
      <trkpt lat="44.87806" lon="5.6909">
        <ele>503.39</ele>
        <time>2013-06-30T12:19:10Z</time>
      </trkpt>
      <trkpt lat="44.87806" lon="5.6909">
        <ele>501.46</ele>
        <time>2013-06-30T12:19:30Z</time>
      </trkpt>
      <trkpt lat="44.87806" lon="5.6909">
        <ele>503.39</ele>
        <time>2013-06-30T12:19:31Z</time>
      </trkpt>
      <trkpt lat="44.87801" lon="5.6908">
        <ele>504.83</ele>
        <time>2013-06-30T12:45:48Z</time>
      </trkpt>
      <trkpt lat="44.87801" lon="5.69079">
        <ele>504.83</ele>
        <time>2013-06-30T12:45:49Z</time>
      </trkpt>
      <trkpt lat="44.87806" lon="5.69085">
        <ele>500.02</ele>
        <time>2013-06-30T12:46:02Z</time>
      </trkpt>
      <trkpt lat="44.87804" lon="5.69084">
        <ele>503.87</ele>
        <time>2013-06-30T12:46:07Z</time>
      </trkpt>
      <trkpt lat="44.87809" lon="5.6909">
        <ele>501.46</ele>
        <time>2013-06-30T12:46:34Z</time>
      </trkpt>
      <trkpt lat="44.87809" lon="5.69092">
        <ele>501.95</ele>
        <time>2013-06-30T12:47:03Z</time>
      </trkpt>
      <trkpt lat="44.87807" lon="5.69091">
        <ele>501.95</ele>
        <time>2013-06-30T12:47:25Z</time>
      </trkpt>
      <trkpt lat="44.87807" lon="5.69093">
        <ele>502.43</ele>
        <time>2013-06-30T12:47:34Z</time>
      </trkpt>
      <trkpt lat="44.87807" lon="5.69092">
        <ele>502.43</ele>
        <time>2013-06-30T12:47:52Z</time>
      </trkpt>
      <trkpt lat="44.87807" lon="5.69092">
        <ele>502.43</ele>
        <time>2013-06-30T12:48:04Z</time>
      </trkpt>
      <trkpt lat="44.87805" lon="5.69104">
        <ele>502.91</ele>
        <time>2013-06-30T12:48:10Z</time>
      </trkpt>
      <trkpt lat="44.87811" lon="5.69118">
        <ele>503.87</ele>
        <time>2013-06-30T12:48:16Z</time>
      </trkpt>
      <trkpt lat="44.87808" lon="5.69127">
        <ele>504.35</ele>
        <time>2013-06-30T12:48:21Z</time>
      </trkpt>
      <trkpt lat="44.87763" lon="5.69157">
        <ele>504.35</ele>
        <time>2013-06-30T12:48:38Z</time>
      </trkpt>
      <trkpt lat="44.87725" lon="5.69209">
        <ele>505.31</ele>
        <time>2013-06-30T12:48:53Z</time>
      </trkpt>
      <trkpt lat="44.87722" lon="5.6922">
        <ele>505.31</ele>
        <time>2013-06-30T12:48:55Z</time>
      </trkpt>
      <trkpt lat="44.87705" lon="5.69317">
        <ele>503.39</ele>
        <time>2013-06-30T12:49:09Z</time>
      </trkpt>
      <trkpt lat="44.87692" lon="5.69385">
        <ele>504.83</ele>
        <time>2013-06-30T12:49:19Z</time>
      </trkpt>
      <trkpt lat="44.87692" lon="5.6939">
        <ele>505.31</ele>
        <time>2013-06-30T12:49:20Z</time>
      </trkpt>
      <trkpt lat="44.87693" lon="5.69402">
        <ele>505.79</ele>
        <time>2013-06-30T12:49:22Z</time>
      </trkpt>
      <trkpt lat="44.8772" lon="5.69468">
        <ele>507.23</ele>
        <time>2013-06-30T12:49:36Z</time>
      </trkpt>
      <trkpt lat="44.87741" lon="5.69511">
        <ele>508.19</ele>
        <time>2013-06-30T12:49:46Z</time>
      </trkpt>
      <trkpt lat="44.87742" lon="5.69517">
        <ele>507.71</ele>
        <time>2013-06-30T12:49:47Z</time>
      </trkpt>
      <trkpt lat="44.87742" lon="5.69533">
        <ele>508.19</ele>
        <time>2013-06-30T12:49:50Z</time>
      </trkpt>
      <trkpt lat="44.87719" lon="5.69551">
        <ele>510.12</ele>
        <time>2013-06-30T12:49:59Z</time>
      </trkpt>
      <trkpt lat="44.8771" lon="5.69553">
        <ele>511.08</ele>
        <time>2013-06-30T12:50:03Z</time>
      </trkpt>
      <trkpt lat="44.87684" lon="5.6955">
        <ele>513.48</ele>
        <time>2013-06-30T12:50:15Z</time>
      </trkpt>
      <trkpt lat="44.8767" lon="5.69554">
        <ele>514.92</ele>
        <time>2013-06-30T12:50:22Z</time>
      </trkpt>
      <trkpt lat="44.87669" lon="5.69553">
        <ele>514.44</ele>
        <time>2013-06-30T12:50:23Z</time>
      </trkpt>
      <trkpt lat="44.87666" lon="5.69542">
        <ele>513</ele>
        <time>2013-06-30T12:50:26Z</time>
      </trkpt>
      <trkpt lat="44.8764" lon="5.69544">
        <ele>510.12</ele>
        <time>2013-06-30T12:50:34Z</time>
      </trkpt>
      <trkpt lat="44.87635" lon="5.6955">
        <ele>508.67</ele>
        <time>2013-06-30T12:50:36Z</time>
      </trkpt>
      <trkpt lat="44.87633" lon="5.69556">
        <ele>507.71</ele>
        <time>2013-06-30T12:50:37Z</time>
      </trkpt>
      <trkpt lat="44.87632" lon="5.69563">
        <ele>507.23</ele>
        <time>2013-06-30T12:50:38Z</time>
      </trkpt>
      <trkpt lat="44.8763" lon="5.69568">
        <ele>507.23</ele>
        <time>2013-06-30T12:50:39Z</time>
      </trkpt>
      <trkpt lat="44.87628" lon="5.69572">
        <ele>507.23</ele>
        <time>2013-06-30T12:50:40Z</time>
      </trkpt>
      <trkpt lat="44.87626" lon="5.69576">
        <ele>505.79</ele>
        <time>2013-06-30T12:50:41Z</time>
      </trkpt>
      <trkpt lat="44.87622" lon="5.6958">
        <ele>506.27</ele>
        <time>2013-06-30T12:50:42Z</time>
      </trkpt>
      <trkpt lat="44.87619" lon="5.69582">
        <ele>505.31</ele>
        <time>2013-06-30T12:50:43Z</time>
      </trkpt>
      <trkpt lat="44.87615" lon="5.69585">
        <ele>504.83</ele>
        <time>2013-06-30T12:50:44Z</time>
      </trkpt>
      <trkpt lat="44.8761" lon="5.6959">
        <ele>503.39</ele>
        <time>2013-06-30T12:50:45Z</time>
      </trkpt>
      <trkpt lat="44.87606" lon="5.69596">
        <ele>502.43</ele>
        <time>2013-06-30T12:50:46Z</time>
      </trkpt>
      <trkpt lat="44.87601" lon="5.69604">
        <ele>501.95</ele>
        <time>2013-06-30T12:50:47Z</time>
      </trkpt>
      <trkpt lat="44.87597" lon="5.69611">
        <ele>501.95</ele>
        <time>2013-06-30T12:50:48Z</time>
      </trkpt>
      <trkpt lat="44.87589" lon="5.69631">
        <ele>503.39</ele>
        <time>2013-06-30T12:50:51Z</time>
      </trkpt>
      <trkpt lat="44.87582" lon="5.69667">
        <ele>503.39</ele>
        <time>2013-06-30T12:51:00Z</time>
      </trkpt>
      <trkpt lat="44.87583" lon="5.69675">
        <ele>501.46</ele>
        <time>2013-06-30T12:51:04Z</time>
      </trkpt>
      <trkpt lat="44.87582" lon="5.69677">
        <ele>500.98</ele>
        <time>2013-06-30T12:51:05Z</time>
      </trkpt>
      <trkpt lat="44.8758" lon="5.69678">
        <ele>500.98</ele>
        <time>2013-06-30T12:51:06Z</time>
      </trkpt>
      <trkpt lat="44.87576" lon="5.69683">
        <ele>502.43</ele>
        <time>2013-06-30T12:51:09Z</time>
      </trkpt>
      <trkpt lat="44.87574" lon="5.69686">
        <ele>502.43</ele>
        <time>2013-06-30T12:51:11Z</time>
      </trkpt>
      <trkpt lat="44.87571" lon="5.69706">
        <ele>500.02</ele>
        <time>2013-06-30T12:51:17Z</time>
      </trkpt>
      <trkpt lat="44.8757" lon="5.69705">
        <ele>499.54</ele>
        <time>2013-06-30T12:51:18Z</time>
      </trkpt>
      <trkpt lat="44.87567" lon="5.69699">
        <ele>498.1</ele>
        <time>2013-06-30T12:51:21Z</time>
      </trkpt>
      <trkpt lat="44.87564" lon="5.69699">
        <ele>497.62</ele>
        <time>2013-06-30T12:51:23Z</time>
      </trkpt>
      <trkpt lat="44.87556" lon="5.69695">
        <ele>497.14</ele>
        <time>2013-06-30T12:51:36Z</time>
      </trkpt>
      <trkpt lat="44.87555" lon="5.69689">
        <ele>497.14</ele>
        <time>2013-06-30T12:51:50Z</time>
      </trkpt>
      <trkpt lat="44.87551" lon="5.69683">
        <ele>499.06</ele>
        <time>2013-06-30T12:52:02Z</time>
      </trkpt>
      <trkpt lat="44.87551" lon="5.69683">
        <ele>498.58</ele>
        <time>2013-06-30T12:52:22Z</time>
      </trkpt>
      <trkpt lat="44.87549" lon="5.69683">
        <ele>499.54</ele>
        <time>2013-06-30T12:52:39Z</time>
      </trkpt>
      <trkpt lat="44.87543" lon="5.69679">
        <ele>502.91</ele>
        <time>2013-06-30T12:52:48Z</time>
      </trkpt>
      <trkpt lat="44.87539" lon="5.69679">
        <ele>504.35</ele>
        <time>2013-06-30T12:52:54Z</time>
      </trkpt>
      <trkpt lat="44.87533" lon="5.69683">
        <ele>504.35</ele>
        <time>2013-06-30T12:52:58Z</time>
      </trkpt>
      <trkpt lat="44.87516" lon="5.69683">
        <ele>502.43</ele>
        <time>2013-06-30T12:53:06Z</time>
      </trkpt>
      <trkpt lat="44.87512" lon="5.69683">
        <ele>500.98</ele>
        <time>2013-06-30T12:53:07Z</time>
      </trkpt>
      <trkpt lat="44.87507" lon="5.69684">
        <ele>500.5</ele>
        <time>2013-06-30T12:53:08Z</time>
      </trkpt>
      <trkpt lat="44.87501" lon="5.69687">
        <ele>499.54</ele>
        <time>2013-06-30T12:53:09Z</time>
      </trkpt>
      <trkpt lat="44.87496" lon="5.69689">
        <ele>499.06</ele>
        <time>2013-06-30T12:53:10Z</time>
      </trkpt>
      <trkpt lat="44.87489" lon="5.69691">
        <ele>497.62</ele>
        <time>2013-06-30T12:53:11Z</time>
      </trkpt>
      <trkpt lat="44.87483" lon="5.69694">
        <ele>498.1</ele>
        <time>2013-06-30T12:53:12Z</time>
      </trkpt>
      <trkpt lat="44.87477" lon="5.69697">
        <ele>499.54</ele>
        <time>2013-06-30T12:53:13Z</time>
      </trkpt>
      <trkpt lat="44.87467" lon="5.69704">
        <ele>500.98</ele>
        <time>2013-06-30T12:53:17Z</time>
      </trkpt>
      <trkpt lat="44.87466" lon="5.69705">
        <ele>500.98</ele>
        <time>2013-06-30T12:53:18Z</time>
      </trkpt>
      <trkpt lat="44.87465" lon="5.69706">
        <ele>500.98</ele>
        <time>2013-06-30T12:53:19Z</time>
      </trkpt>
      <trkpt lat="44.87462" lon="5.69708">
        <ele>502.43</ele>
        <time>2013-06-30T12:53:21Z</time>
      </trkpt>
      <trkpt lat="44.87451" lon="5.69719">
        <ele>504.35</ele>
        <time>2013-06-30T12:53:30Z</time>
      </trkpt>
      <trkpt lat="44.8745" lon="5.6972">
        <ele>504.83</ele>
        <time>2013-06-30T12:53:31Z</time>
      </trkpt>
      <trkpt lat="44.87449" lon="5.69721">
        <ele>504.83</ele>
        <time>2013-06-30T12:53:32Z</time>
      </trkpt>
      <trkpt lat="44.87448" lon="5.69722">
        <ele>504.83</ele>
        <time>2013-06-30T12:53:33Z</time>
      </trkpt>
      <trkpt lat="44.8744" lon="5.69734">
        <ele>507.23</ele>
        <time>2013-06-30T12:53:42Z</time>
      </trkpt>
      <trkpt lat="44.87437" lon="5.69743">
        <ele>508.67</ele>
        <time>2013-06-30T12:53:48Z</time>
      </trkpt>
      <trkpt lat="44.87433" lon="5.69764">
        <ele>510.6</ele>
        <time>2013-06-30T12:54:01Z</time>
      </trkpt>
      <trkpt lat="44.87434" lon="5.69767">
        <ele>511.08</ele>
        <time>2013-06-30T12:54:03Z</time>
      </trkpt>
      <trkpt lat="44.87434" lon="5.69769">
        <ele>511.08</ele>
        <time>2013-06-30T12:54:04Z</time>
      </trkpt>
      <trkpt lat="44.87433" lon="5.69771">
        <ele>511.08</ele>
        <time>2013-06-30T12:54:05Z</time>
      </trkpt>
      <trkpt lat="44.87433" lon="5.69774">
        <ele>511.56</ele>
        <time>2013-06-30T12:54:07Z</time>
      </trkpt>
      <trkpt lat="44.87426" lon="5.69798">
        <ele>513.96</ele>
        <time>2013-06-30T12:54:22Z</time>
      </trkpt>
      <trkpt lat="44.87419" lon="5.69812">
        <ele>515.88</ele>
        <time>2013-06-30T12:54:32Z</time>
      </trkpt>
      <trkpt lat="44.87416" lon="5.69817">
        <ele>516.85</ele>
        <time>2013-06-30T12:54:36Z</time>
      </trkpt>
      <trkpt lat="44.87416" lon="5.69818">
        <ele>516.85</ele>
        <time>2013-06-30T12:54:37Z</time>
      </trkpt>
      <trkpt lat="44.87417" lon="5.69819">
        <ele>516.85</ele>
        <time>2013-06-30T12:54:38Z</time>
      </trkpt>
      <trkpt lat="44.87418" lon="5.69819">
        <ele>516.85</ele>
        <time>2013-06-30T12:54:39Z</time>
      </trkpt>
      <trkpt lat="44.87419" lon="5.69819">
        <ele>516.85</ele>
        <time>2013-06-30T12:54:40Z</time>
      </trkpt>
      <trkpt lat="44.8742" lon="5.69819">
        <ele>516.85</ele>
        <time>2013-06-30T12:54:41Z</time>
      </trkpt>
      <trkpt lat="44.87421" lon="5.69818">
        <ele>516.85</ele>
        <time>2013-06-30T12:54:42Z</time>
      </trkpt>
      <trkpt lat="44.87422" lon="5.69818">
        <ele>517.33</ele>
        <time>2013-06-30T12:54:43Z</time>
      </trkpt>
      <trkpt lat="44.87423" lon="5.69817">
        <ele>517.81</ele>
        <time>2013-06-30T12:54:44Z</time>
      </trkpt>
      <trkpt lat="44.87432" lon="5.69809">
        <ele>519.25</ele>
        <time>2013-06-30T12:54:53Z</time>
      </trkpt>
      <trkpt lat="44.87433" lon="5.69808">
        <ele>519.25</ele>
        <time>2013-06-30T12:54:54Z</time>
      </trkpt>
      <trkpt lat="44.87435" lon="5.69807">
        <ele>519.73</ele>
        <time>2013-06-30T12:54:55Z</time>
      </trkpt>
      <trkpt lat="44.87436" lon="5.69807">
        <ele>519.25</ele>
        <time>2013-06-30T12:54:56Z</time>
      </trkpt>
      <trkpt lat="44.87437" lon="5.69806">
        <ele>519.25</ele>
        <time>2013-06-30T12:54:57Z</time>
      </trkpt>
      <trkpt lat="44.87439" lon="5.69805">
        <ele>520.21</ele>
        <time>2013-06-30T12:54:59Z</time>
      </trkpt>
      <trkpt lat="44.87458" lon="5.69793">
        <ele>523.09</ele>
        <time>2013-06-30T12:55:14Z</time>
      </trkpt>
      <trkpt lat="44.87461" lon="5.6979">
        <ele>523.09</ele>
        <time>2013-06-30T12:55:17Z</time>
      </trkpt>
      <trkpt lat="44.87466" lon="5.69791">
        <ele>523.58</ele>
        <time>2013-06-30T12:55:22Z</time>
      </trkpt>
      <trkpt lat="44.87467" lon="5.69796">
        <ele>524.54</ele>
        <time>2013-06-30T12:55:25Z</time>
      </trkpt>
      <trkpt lat="44.87466" lon="5.69798">
        <ele>525.02</ele>
        <time>2013-06-30T12:55:26Z</time>
      </trkpt>
      <trkpt lat="44.87465" lon="5.698">
        <ele>525.02</ele>
        <time>2013-06-30T12:55:27Z</time>
      </trkpt>
      <trkpt lat="44.87465" lon="5.69801">
        <ele>525.02</ele>
        <time>2013-06-30T12:55:28Z</time>
      </trkpt>
      <trkpt lat="44.87459" lon="5.69815">
        <ele>526.94</ele>
        <time>2013-06-30T12:55:37Z</time>
      </trkpt>
      <trkpt lat="44.87455" lon="5.69819">
        <ele>527.9</ele>
        <time>2013-06-30T12:55:40Z</time>
      </trkpt>
      <trkpt lat="44.87447" lon="5.69847">
        <ele>529.34</ele>
        <time>2013-06-30T12:55:55Z</time>
      </trkpt>
      <trkpt lat="44.87435" lon="5.69873">
        <ele>532.23</ele>
        <time>2013-06-30T12:56:10Z</time>
      </trkpt>
      <trkpt lat="44.87422" lon="5.69896">
        <ele>535.11</ele>
        <time>2013-06-30T12:56:25Z</time>
      </trkpt>
      <trkpt lat="44.8742" lon="5.69903">
        <ele>536.07</ele>
        <time>2013-06-30T12:56:29Z</time>
      </trkpt>
      <trkpt lat="44.87409" lon="5.69927">
        <ele>538.96</ele>
        <time>2013-06-30T12:56:43Z</time>
      </trkpt>
      <trkpt lat="44.87404" lon="5.69937">
        <ele>539.92</ele>
        <time>2013-06-30T12:56:50Z</time>
      </trkpt>
      <trkpt lat="44.87402" lon="5.6994">
        <ele>539.92</ele>
        <time>2013-06-30T12:56:52Z</time>
      </trkpt>
      <trkpt lat="44.8739" lon="5.69969">
        <ele>542.32</ele>
        <time>2013-06-30T12:57:06Z</time>
      </trkpt>
      <trkpt lat="44.87374" lon="5.69992">
        <ele>544.72</ele>
        <time>2013-06-30T12:57:20Z</time>
      </trkpt>
      <trkpt lat="44.87356" lon="5.70009">
        <ele>546.65</ele>
        <time>2013-06-30T12:57:33Z</time>
      </trkpt>
      <trkpt lat="44.87326" lon="5.7002">
        <ele>548.57</ele>
        <time>2013-06-30T12:57:46Z</time>
      </trkpt>
      <trkpt lat="44.87294" lon="5.70025">
        <ele>549.53</ele>
        <time>2013-06-30T12:57:59Z</time>
      </trkpt>
      <trkpt lat="44.87254" lon="5.70038">
        <ele>552.41</ele>
        <time>2013-06-30T12:58:14Z</time>
      </trkpt>
      <trkpt lat="44.87225" lon="5.70047">
        <ele>555.3</ele>
        <time>2013-06-30T12:58:26Z</time>
      </trkpt>
      <trkpt lat="44.87224" lon="5.70048">
        <ele>555.3</ele>
        <time>2013-06-30T12:58:27Z</time>
      </trkpt>
      <trkpt lat="44.87223" lon="5.70047">
        <ele>560.59</ele>
        <time>2013-06-30T12:58:34Z</time>
      </trkpt>
      <trkpt lat="44.87222" lon="5.70047">
        <ele>555.78</ele>
        <time>2013-06-30T12:58:35Z</time>
      </trkpt>
      <trkpt lat="44.87222" lon="5.70047">
        <ele>559.14</ele>
        <time>2013-06-30T12:58:39Z</time>
      </trkpt>
      <trkpt lat="44.87222" lon="5.70047">
        <ele>551.93</ele>
        <time>2013-06-30T12:58:40Z</time>
      </trkpt>
      <trkpt lat="44.87222" lon="5.70047">
        <ele>554.82</ele>
        <time>2013-06-30T12:58:41Z</time>
      </trkpt>
      <trkpt lat="44.87222" lon="5.70047">
        <ele>551.93</ele>
        <time>2013-06-30T12:58:47Z</time>
      </trkpt>
      <trkpt lat="44.87222" lon="5.70047">
        <ele>558.18</ele>
        <time>2013-06-30T12:58:49Z</time>
      </trkpt>
      <trkpt lat="44.87222" lon="5.70047">
        <ele>562.51</ele>
        <time>2013-06-30T12:58:50Z</time>
      </trkpt>
      <trkpt lat="44.87222" lon="5.70047">
        <ele>555.78</ele>
        <time>2013-06-30T12:58:51Z</time>
      </trkpt>
      <trkpt lat="44.87222" lon="5.70047">
        <ele>555.78</ele>
        <time>2013-06-30T12:58:52Z</time>
      </trkpt>
      <trkpt lat="44.87222" lon="5.70047">
        <ele>555.78</ele>
        <time>2013-06-30T12:58:55Z</time>
      </trkpt>
      <trkpt lat="44.87221" lon="5.70047">
        <ele>555.3</ele>
        <time>2013-06-30T12:58:56Z</time>
      </trkpt>
      <trkpt lat="44.8722" lon="5.70048">
        <ele>554.82</ele>
        <time>2013-06-30T12:58:57Z</time>
      </trkpt>
      <trkpt lat="44.87218" lon="5.70049">
        <ele>555.3</ele>
        <time>2013-06-30T12:59:11Z</time>
      </trkpt>
      <trkpt lat="44.87218" lon="5.70048">
        <ele>555.3</ele>
        <time>2013-06-30T12:59:21Z</time>
      </trkpt>
      <trkpt lat="44.87219" lon="5.70048">
        <ele>555.3</ele>
        <time>2013-06-30T12:59:22Z</time>
      </trkpt>
      <trkpt lat="44.8722" lon="5.70048">
        <ele>555.3</ele>
        <time>2013-06-30T12:59:23Z</time>
      </trkpt>
      <trkpt lat="44.87218" lon="5.70049">
        <ele>555.3</ele>
        <time>2013-06-30T12:59:34Z</time>
      </trkpt>
      <trkpt lat="44.87217" lon="5.70049">
        <ele>555.78</ele>
        <time>2013-06-30T12:59:50Z</time>
      </trkpt>
      <trkpt lat="44.87216" lon="5.70049">
        <ele>554.82</ele>
        <time>2013-06-30T12:59:58Z</time>
      </trkpt>
      <trkpt lat="44.87215" lon="5.70048">
        <ele>554.34</ele>
        <time>2013-06-30T12:59:59Z</time>
      </trkpt>
      <trkpt lat="44.87198" lon="5.70061">
        <ele>555.78</ele>
        <time>2013-06-30T13:00:10Z</time>
      </trkpt>
      <trkpt lat="44.87198" lon="5.70064">
        <ele>555.3</ele>
        <time>2013-06-30T13:00:11Z</time>
      </trkpt>
      <trkpt lat="44.87198" lon="5.70066">
        <ele>555.3</ele>
        <time>2013-06-30T13:00:12Z</time>
      </trkpt>
      <trkpt lat="44.87198" lon="5.70069">
        <ele>555.3</ele>
        <time>2013-06-30T13:00:13Z</time>
      </trkpt>
      <trkpt lat="44.87199" lon="5.70071">
        <ele>555.78</ele>
        <time>2013-06-30T13:00:14Z</time>
      </trkpt>
      <trkpt lat="44.87222" lon="5.70116">
        <ele>554.82</ele>
        <time>2013-06-30T13:00:28Z</time>
      </trkpt>
      <trkpt lat="44.87242" lon="5.7018">
        <ele>556.26</ele>
        <time>2013-06-30T13:00:44Z</time>
      </trkpt>
      <trkpt lat="44.87242" lon="5.7024">
        <ele>556.26</ele>
        <time>2013-06-30T13:00:58Z</time>
      </trkpt>
      <trkpt lat="44.87258" lon="5.70293">
        <ele>557.7</ele>
        <time>2013-06-30T13:01:12Z</time>
      </trkpt>
      <trkpt lat="44.87283" lon="5.70339">
        <ele>558.66</ele>
        <time>2013-06-30T13:01:26Z</time>
      </trkpt>
      <trkpt lat="44.873" lon="5.70382">
        <ele>561.07</ele>
        <time>2013-06-30T13:01:40Z</time>
      </trkpt>
      <trkpt lat="44.87315" lon="5.70411">
        <ele>560.11</ele>
        <time>2013-06-30T13:01:48Z</time>
      </trkpt>
      <trkpt lat="44.87315" lon="5.70416">
        <ele>560.11</ele>
        <time>2013-06-30T13:01:49Z</time>
      </trkpt>
      <trkpt lat="44.87303" lon="5.70423">
        <ele>557.22</ele>
        <time>2013-06-30T13:01:53Z</time>
      </trkpt>
      <trkpt lat="44.87298" lon="5.70422">
        <ele>556.74</ele>
        <time>2013-06-30T13:01:54Z</time>
      </trkpt>
      <trkpt lat="44.87283" lon="5.70423">
        <ele>553.86</ele>
        <time>2013-06-30T13:01:58Z</time>
      </trkpt>
      <trkpt lat="44.87279" lon="5.70424">
        <ele>552.9</ele>
        <time>2013-06-30T13:01:59Z</time>
      </trkpt>
      <trkpt lat="44.87274" lon="5.70425">
        <ele>552.41</ele>
        <time>2013-06-30T13:02:00Z</time>
      </trkpt>
      <trkpt lat="44.87264" lon="5.70426">
        <ele>551.45</ele>
        <time>2013-06-30T13:02:02Z</time>
      </trkpt>
      <trkpt lat="44.87234" lon="5.70446">
        <ele>548.09</ele>
        <time>2013-06-30T13:02:09Z</time>
      </trkpt>
      <trkpt lat="44.87225" lon="5.70454">
        <ele>545.69</ele>
        <time>2013-06-30T13:02:11Z</time>
      </trkpt>
      <trkpt lat="44.87215" lon="5.70483">
        <ele>543.28</ele>
        <time>2013-06-30T13:02:16Z</time>
      </trkpt>
      <trkpt lat="44.87223" lon="5.70504">
        <ele>542.32</ele>
        <time>2013-06-30T13:02:20Z</time>
      </trkpt>
      <trkpt lat="44.87221" lon="5.70535">
        <ele>541.36</ele>
        <time>2013-06-30T13:02:25Z</time>
      </trkpt>
      <trkpt lat="44.87213" lon="5.70553">
        <ele>541.84</ele>
        <time>2013-06-30T13:02:28Z</time>
      </trkpt>
      <trkpt lat="44.87209" lon="5.70566">
        <ele>542.32</ele>
        <time>2013-06-30T13:02:30Z</time>
      </trkpt>
      <trkpt lat="44.87187" lon="5.70615">
        <ele>543.76</ele>
        <time>2013-06-30T13:02:43Z</time>
      </trkpt>
      <trkpt lat="44.87173" lon="5.70637">
        <ele>541.36</ele>
        <time>2013-06-30T13:02:51Z</time>
      </trkpt>
      <trkpt lat="44.87163" lon="5.70648">
        <ele>539.92</ele>
        <time>2013-06-30T13:02:55Z</time>
      </trkpt>
      <trkpt lat="44.87138" lon="5.70674">
        <ele>534.63</ele>
        <time>2013-06-30T13:03:00Z</time>
      </trkpt>
      <trkpt lat="44.87134" lon="5.70679">
        <ele>534.63</ele>
        <time>2013-06-30T13:03:01Z</time>
      </trkpt>
      <trkpt lat="44.87129" lon="5.70698">
        <ele>532.71</ele>
        <time>2013-06-30T13:03:04Z</time>
      </trkpt>
      <trkpt lat="44.87152" lon="5.70722">
        <ele>529.34</ele>
        <time>2013-06-30T13:03:09Z</time>
      </trkpt>
      <trkpt lat="44.87156" lon="5.70728">
        <ele>528.86</ele>
        <time>2013-06-30T13:03:10Z</time>
      </trkpt>
      <trkpt lat="44.87159" lon="5.70735">
        <ele>528.38</ele>
        <time>2013-06-30T13:03:11Z</time>
      </trkpt>
      <trkpt lat="44.87162" lon="5.70784">
        <ele>525.5</ele>
        <time>2013-06-30T13:03:17Z</time>
      </trkpt>
      <trkpt lat="44.87141" lon="5.7079">
        <ele>526.46</ele>
        <time>2013-06-30T13:03:24Z</time>
      </trkpt>
      <trkpt lat="44.87113" lon="5.70805">
        <ele>529.34</ele>
        <time>2013-06-30T13:03:35Z</time>
      </trkpt>
      <trkpt lat="44.87092" lon="5.70829">
        <ele>529.34</ele>
        <time>2013-06-30T13:03:45Z</time>
      </trkpt>
      <trkpt lat="44.8709" lon="5.70839">
        <ele>529.82</ele>
        <time>2013-06-30T13:03:48Z</time>
      </trkpt>
      <trkpt lat="44.87077" lon="5.70848">
        <ele>530.79</ele>
        <time>2013-06-30T13:03:54Z</time>
      </trkpt>
      <trkpt lat="44.87056" lon="5.70833">
        <ele>531.75</ele>
        <time>2013-06-30T13:04:04Z</time>
      </trkpt>
      <trkpt lat="44.8705" lon="5.70826">
        <ele>531.75</ele>
        <time>2013-06-30T13:04:07Z</time>
      </trkpt>
      <trkpt lat="44.87029" lon="5.7084">
        <ele>534.15</ele>
        <time>2013-06-30T13:04:17Z</time>
      </trkpt>
      <trkpt lat="44.87028" lon="5.70842">
        <ele>534.15</ele>
        <time>2013-06-30T13:04:18Z</time>
      </trkpt>
      <trkpt lat="44.87024" lon="5.70849">
        <ele>534.15</ele>
        <time>2013-06-30T13:04:21Z</time>
      </trkpt>
      <trkpt lat="44.87023" lon="5.70878">
        <ele>533.19</ele>
        <time>2013-06-30T13:04:28Z</time>
      </trkpt>
      <trkpt lat="44.87013" lon="5.70908">
        <ele>536.55</ele>
        <time>2013-06-30T13:04:39Z</time>
      </trkpt>
      <trkpt lat="44.87011" lon="5.70912">
        <ele>537.03</ele>
        <time>2013-06-30T13:04:41Z</time>
      </trkpt>
      <trkpt lat="44.87004" lon="5.70922">
        <ele>539.44</ele>
        <time>2013-06-30T13:04:47Z</time>
      </trkpt>
      <trkpt lat="44.86995" lon="5.70941">
        <ele>541.36</ele>
        <time>2013-06-30T13:04:58Z</time>
      </trkpt>
      <trkpt lat="44.86994" lon="5.70944">
        <ele>541.84</ele>
        <time>2013-06-30T13:05:00Z</time>
      </trkpt>
      <trkpt lat="44.86982" lon="5.70951">
        <ele>544.72</ele>
        <time>2013-06-30T13:05:11Z</time>
      </trkpt>
      <trkpt lat="44.86981" lon="5.70951">
        <ele>544.24</ele>
        <time>2013-06-30T13:05:12Z</time>
      </trkpt>
      <trkpt lat="44.86975" lon="5.70948">
        <ele>542.8</ele>
        <time>2013-06-30T13:05:16Z</time>
      </trkpt>
      <trkpt lat="44.86967" lon="5.70941">
        <ele>539.92</ele>
        <time>2013-06-30T13:05:21Z</time>
      </trkpt>
      <trkpt lat="44.86962" lon="5.70938">
        <ele>538.48</ele>
        <time>2013-06-30T13:05:24Z</time>
      </trkpt>
      <trkpt lat="44.86959" lon="5.70938">
        <ele>538.96</ele>
        <time>2013-06-30T13:05:36Z</time>
      </trkpt>
      <trkpt lat="44.86961" lon="5.70933">
        <ele>538.48</ele>
        <time>2013-06-30T13:05:56Z</time>
      </trkpt>
      <trkpt lat="44.8696" lon="5.70931">
        <ele>538.96</ele>
        <time>2013-06-30T13:06:13Z</time>
      </trkpt>
      <trkpt lat="44.86961" lon="5.70931">
        <ele>538.48</ele>
        <time>2013-06-30T13:06:30Z</time>
      </trkpt>
      <trkpt lat="44.86962" lon="5.70932">
        <ele>538.48</ele>
        <time>2013-06-30T13:06:55Z</time>
      </trkpt>
      <trkpt lat="44.8696" lon="5.70932">
        <ele>537.99</ele>
        <time>2013-06-30T13:07:10Z</time>
      </trkpt>
      <trkpt lat="44.86942" lon="5.70917">
        <ele>534.63</ele>
        <time>2013-06-30T13:07:19Z</time>
      </trkpt>
      <trkpt lat="44.86927" lon="5.70906">
        <ele>531.27</ele>
        <time>2013-06-30T13:07:22Z</time>
      </trkpt>
      <trkpt lat="44.86903" lon="5.70887">
        <ele>527.42</ele>
        <time>2013-06-30T13:07:26Z</time>
      </trkpt>
      <trkpt lat="44.86896" lon="5.70881">
        <ele>527.42</ele>
        <time>2013-06-30T13:07:27Z</time>
      </trkpt>
      <trkpt lat="44.86869" lon="5.7086">
        <ele>528.86</ele>
        <time>2013-06-30T13:07:33Z</time>
      </trkpt>
      <trkpt lat="44.86836" lon="5.70834">
        <ele>530.79</ele>
        <time>2013-06-30T13:07:46Z</time>
      </trkpt>
      <trkpt lat="44.86827" lon="5.70827">
        <ele>531.27</ele>
        <time>2013-06-30T13:07:50Z</time>
      </trkpt>
      <trkpt lat="44.86811" lon="5.70813">
        <ele>534.15</ele>
        <time>2013-06-30T13:08:01Z</time>
      </trkpt>
      <trkpt lat="44.86804" lon="5.70807">
        <ele>534.63</ele>
        <time>2013-06-30T13:08:07Z</time>
      </trkpt>
      <trkpt lat="44.86793" lon="5.70797">
        <ele>536.55</ele>
        <time>2013-06-30T13:08:18Z</time>
      </trkpt>
      <trkpt lat="44.86789" lon="5.70794">
        <ele>537.51</ele>
        <time>2013-06-30T13:08:22Z</time>
      </trkpt>
      <trkpt lat="44.86787" lon="5.70792">
        <ele>537.99</ele>
        <time>2013-06-30T13:08:24Z</time>
      </trkpt>
      <trkpt lat="44.86786" lon="5.70782">
        <ele>539.44</ele>
        <time>2013-06-30T13:08:35Z</time>
      </trkpt>
      <trkpt lat="44.86786" lon="5.70781">
        <ele>538.96</ele>
        <time>2013-06-30T13:08:52Z</time>
      </trkpt>
      <trkpt lat="44.86786" lon="5.7078">
        <ele>539.44</ele>
        <time>2013-06-30T13:09:12Z</time>
      </trkpt>
      <trkpt lat="44.86785" lon="5.70779">
        <ele>538.96</ele>
        <time>2013-06-30T13:09:32Z</time>
      </trkpt>
      <trkpt lat="44.86786" lon="5.7078">
        <ele>538.96</ele>
        <time>2013-06-30T13:09:54Z</time>
      </trkpt>
      <trkpt lat="44.86784" lon="5.7078">
        <ele>538.96</ele>
        <time>2013-06-30T13:10:15Z</time>
      </trkpt>
      <trkpt lat="44.86786" lon="5.70781">
        <ele>538.96</ele>
        <time>2013-06-30T13:10:40Z</time>
      </trkpt>
      <trkpt lat="44.86785" lon="5.70781">
        <ele>538.96</ele>
        <time>2013-06-30T13:11:00Z</time>
      </trkpt>
      <trkpt lat="44.86785" lon="5.7078">
        <ele>538.48</ele>
        <time>2013-06-30T13:11:26Z</time>
      </trkpt>
      <trkpt lat="44.86785" lon="5.7078">
        <ele>537.99</ele>
        <time>2013-06-30T13:11:50Z</time>
      </trkpt>
      <trkpt lat="44.86786" lon="5.70782">
        <ele>538.48</ele>
        <time>2013-06-30T13:12:14Z</time>
      </trkpt>
      <trkpt lat="44.86787" lon="5.70783">
        <ele>538.96</ele>
        <time>2013-06-30T13:12:32Z</time>
      </trkpt>
      <trkpt lat="44.86787" lon="5.7078">
        <ele>539.92</ele>
        <time>2013-06-30T13:12:50Z</time>
      </trkpt>
      <trkpt lat="44.86787" lon="5.70781">
        <ele>539.92</ele>
        <time>2013-06-30T13:13:12Z</time>
      </trkpt>
      <trkpt lat="44.86787" lon="5.70782">
        <ele>540.4</ele>
        <time>2013-06-30T13:13:32Z</time>
      </trkpt>
      <trkpt lat="44.86788" lon="5.70783">
        <ele>539.92</ele>
        <time>2013-06-30T13:13:50Z</time>
      </trkpt>
      <trkpt lat="44.86781" lon="5.70775">
        <ele>541.36</ele>
        <time>2013-06-30T13:13:57Z</time>
      </trkpt>
      <trkpt lat="44.86779" lon="5.70772">
        <ele>541.84</ele>
        <time>2013-06-30T13:13:59Z</time>
      </trkpt>
      <trkpt lat="44.86776" lon="5.70768">
        <ele>543.76</ele>
        <time>2013-06-30T13:14:03Z</time>
      </trkpt>
      <trkpt lat="44.86774" lon="5.70764">
        <ele>545.2</ele>
        <time>2013-06-30T13:14:08Z</time>
      </trkpt>
      <trkpt lat="44.86768" lon="5.7075">
        <ele>548.57</ele>
        <time>2013-06-30T13:14:21Z</time>
      </trkpt>
      <trkpt lat="44.86767" lon="5.70748">
        <ele>549.53</ele>
        <time>2013-06-30T13:14:23Z</time>
      </trkpt>
      <trkpt lat="44.86765" lon="5.70746">
        <ele>550.01</ele>
        <time>2013-06-30T13:14:25Z</time>
      </trkpt>
      <trkpt lat="44.86757" lon="5.70732">
        <ele>551.93</ele>
        <time>2013-06-30T13:14:40Z</time>
      </trkpt>
      <trkpt lat="44.86753" lon="5.70723">
        <ele>553.86</ele>
        <time>2013-06-30T13:14:53Z</time>
      </trkpt>
      <trkpt lat="44.8675" lon="5.70714">
        <ele>556.74</ele>
        <time>2013-06-30T13:15:07Z</time>
      </trkpt>
      <trkpt lat="44.86748" lon="5.70706">
        <ele>558.66</ele>
        <time>2013-06-30T13:15:21Z</time>
      </trkpt>
      <trkpt lat="44.86743" lon="5.70696">
        <ele>561.07</ele>
        <time>2013-06-30T13:15:32Z</time>
      </trkpt>
      <trkpt lat="44.86735" lon="5.70684">
        <ele>563.95</ele>
        <time>2013-06-30T13:15:46Z</time>
      </trkpt>
      <trkpt lat="44.86732" lon="5.70668">
        <ele>565.87</ele>
        <time>2013-06-30T13:16:01Z</time>
      </trkpt>
      <trkpt lat="44.8673" lon="5.70654">
        <ele>568.28</ele>
        <time>2013-06-30T13:16:14Z</time>
      </trkpt>
      <trkpt lat="44.86726" lon="5.70642">
        <ele>569.24</ele>
        <time>2013-06-30T13:16:27Z</time>
      </trkpt>
      <trkpt lat="44.86726" lon="5.70638">
        <ele>573.56</ele>
        <time>2013-06-30T13:16:30Z</time>
      </trkpt>
      <trkpt lat="44.86725" lon="5.70636">
        <ele>570.68</ele>
        <time>2013-06-30T13:16:31Z</time>
      </trkpt>
      <trkpt lat="44.86723" lon="5.70629">
        <ele>571.16</ele>
        <time>2013-06-30T13:16:36Z</time>
      </trkpt>
      <trkpt lat="44.86724" lon="5.7062">
        <ele>572.12</ele>
        <time>2013-06-30T13:16:41Z</time>
      </trkpt>
      <trkpt lat="44.86719" lon="5.70598">
        <ele>575.49</ele>
        <time>2013-06-30T13:16:57Z</time>
      </trkpt>
      <trkpt lat="44.86718" lon="5.70594">
        <ele>576.45</ele>
        <time>2013-06-30T13:17:00Z</time>
      </trkpt>
      <trkpt lat="44.86712" lon="5.70606">
        <ele>576.45</ele>
        <time>2013-06-30T13:17:12Z</time>
      </trkpt>
      <trkpt lat="44.86713" lon="5.70609">
        <ele>576.45</ele>
        <time>2013-06-30T13:17:14Z</time>
      </trkpt>
      <trkpt lat="44.86717" lon="5.70628">
        <ele>575.97</ele>
        <time>2013-06-30T13:17:22Z</time>
      </trkpt>
      <trkpt lat="44.86715" lon="5.7064">
        <ele>576.45</ele>
        <time>2013-06-30T13:17:31Z</time>
      </trkpt>
      <trkpt lat="44.86714" lon="5.70644">
        <ele>576.45</ele>
        <time>2013-06-30T13:17:33Z</time>
      </trkpt>
      <trkpt lat="44.86712" lon="5.70652">
        <ele>576.45</ele>
        <time>2013-06-30T13:17:37Z</time>
      </trkpt>
      <trkpt lat="44.86711" lon="5.70663">
        <ele>576.45</ele>
        <time>2013-06-30T13:17:43Z</time>
      </trkpt>
      <trkpt lat="44.8671" lon="5.70667">
        <ele>576.45</ele>
        <time>2013-06-30T13:17:45Z</time>
      </trkpt>
      <trkpt lat="44.86711" lon="5.70673">
        <ele>576.45</ele>
        <time>2013-06-30T13:17:48Z</time>
      </trkpt>
      <trkpt lat="44.8671" lon="5.70683">
        <ele>576.45</ele>
        <time>2013-06-30T13:17:53Z</time>
      </trkpt>
      <trkpt lat="44.86712" lon="5.70695">
        <ele>577.41</ele>
        <time>2013-06-30T13:17:57Z</time>
      </trkpt>
      <trkpt lat="44.8671" lon="5.70711">
        <ele>578.85</ele>
        <time>2013-06-30T13:18:04Z</time>
      </trkpt>
      <trkpt lat="44.86708" lon="5.70712">
        <ele>579.33</ele>
        <time>2013-06-30T13:18:06Z</time>
      </trkpt>
      <trkpt lat="44.86702" lon="5.70698">
        <ele>583.18</ele>
        <time>2013-06-30T13:18:18Z</time>
      </trkpt>
      <trkpt lat="44.86698" lon="5.70688">
        <ele>585.1</ele>
        <time>2013-06-30T13:18:27Z</time>
      </trkpt>
      <trkpt lat="44.86697" lon="5.70684">
        <ele>586.06</ele>
        <time>2013-06-30T13:18:30Z</time>
      </trkpt>
      <trkpt lat="44.86694" lon="5.70681">
        <ele>586.54</ele>
        <time>2013-06-30T13:18:33Z</time>
      </trkpt>
      <trkpt lat="44.86692" lon="5.70676">
        <ele>587.98</ele>
        <time>2013-06-30T13:18:39Z</time>
      </trkpt>
      <trkpt lat="44.8669" lon="5.70661">
        <ele>589.91</ele>
        <time>2013-06-30T13:18:50Z</time>
      </trkpt>
      <trkpt lat="44.86691" lon="5.70644">
        <ele>591.83</ele>
        <time>2013-06-30T13:19:01Z</time>
      </trkpt>
      <trkpt lat="44.8669" lon="5.7063">
        <ele>593.27</ele>
        <time>2013-06-30T13:19:11Z</time>
      </trkpt>
      <trkpt lat="44.86687" lon="5.7061">
        <ele>596.64</ele>
        <time>2013-06-30T13:19:23Z</time>
      </trkpt>
      <trkpt lat="44.86685" lon="5.70604">
        <ele>597.12</ele>
        <time>2013-06-30T13:19:27Z</time>
      </trkpt>
      <trkpt lat="44.86683" lon="5.70593">
        <ele>598.08</ele>
        <time>2013-06-30T13:19:32Z</time>
      </trkpt>
      <trkpt lat="44.8668" lon="5.70583">
        <ele>598.56</ele>
        <time>2013-06-30T13:19:37Z</time>
      </trkpt>
      <trkpt lat="44.86678" lon="5.70578">
        <ele>599.04</ele>
        <time>2013-06-30T13:19:40Z</time>
      </trkpt>
      <trkpt lat="44.86678" lon="5.7057">
        <ele>600</ele>
        <time>2013-06-30T13:19:44Z</time>
      </trkpt>
      <trkpt lat="44.86677" lon="5.70555">
        <ele>600</ele>
        <time>2013-06-30T13:19:51Z</time>
      </trkpt>
      <trkpt lat="44.86675" lon="5.70548">
        <ele>600.96</ele>
        <time>2013-06-30T13:19:54Z</time>
      </trkpt>
      <trkpt lat="44.86649" lon="5.70542">
        <ele>601.44</ele>
        <time>2013-06-30T13:20:06Z</time>
      </trkpt>
      <trkpt lat="44.86629" lon="5.70543">
        <ele>603.36</ele>
        <time>2013-06-30T13:20:16Z</time>
      </trkpt>
      <trkpt lat="44.86626" lon="5.70545">
        <ele>603.85</ele>
        <time>2013-06-30T13:20:18Z</time>
      </trkpt>
      <trkpt lat="44.86609" lon="5.70562">
        <ele>607.21</ele>
        <time>2013-06-30T13:20:33Z</time>
      </trkpt>
      <trkpt lat="44.86596" lon="5.7058">
        <ele>610.57</ele>
        <time>2013-06-30T13:20:47Z</time>
      </trkpt>
      <trkpt lat="44.86593" lon="5.70583">
        <ele>611.06</ele>
        <time>2013-06-30T13:20:50Z</time>
      </trkpt>
      <trkpt lat="44.86578" lon="5.706">
        <ele>613.94</ele>
        <time>2013-06-30T13:21:05Z</time>
      </trkpt>
      <trkpt lat="44.86574" lon="5.70602">
        <ele>614.9</ele>
        <time>2013-06-30T13:21:08Z</time>
      </trkpt>
      <trkpt lat="44.8657" lon="5.70609">
        <ele>616.34</ele>
        <time>2013-06-30T13:21:14Z</time>
      </trkpt>
      <trkpt lat="44.86569" lon="5.70611">
        <ele>616.82</ele>
        <time>2013-06-30T13:21:16Z</time>
      </trkpt>
      <trkpt lat="44.86566" lon="5.70618">
        <ele>618.75</ele>
        <time>2013-06-30T13:21:21Z</time>
      </trkpt>
      <trkpt lat="44.86561" lon="5.70628">
        <ele>622.11</ele>
        <time>2013-06-30T13:21:29Z</time>
      </trkpt>
      <trkpt lat="44.8656" lon="5.70633">
        <ele>622.11</ele>
        <time>2013-06-30T13:21:32Z</time>
      </trkpt>
      <trkpt lat="44.86559" lon="5.7064">
        <ele>624.03</ele>
        <time>2013-06-30T13:21:37Z</time>
      </trkpt>
      <trkpt lat="44.86553" lon="5.70649">
        <ele>626.44</ele>
        <time>2013-06-30T13:21:45Z</time>
      </trkpt>
      <trkpt lat="44.86551" lon="5.70656">
        <ele>627.4</ele>
        <time>2013-06-30T13:21:50Z</time>
      </trkpt>
      <trkpt lat="44.86549" lon="5.7067">
        <ele>629.8</ele>
        <time>2013-06-30T13:21:59Z</time>
      </trkpt>
      <trkpt lat="44.86545" lon="5.70679">
        <ele>631.24</ele>
        <time>2013-06-30T13:22:06Z</time>
      </trkpt>
      <trkpt lat="44.86543" lon="5.70687">
        <ele>632.68</ele>
        <time>2013-06-30T13:22:11Z</time>
      </trkpt>
      <trkpt lat="44.86528" lon="5.70703">
        <ele>634.61</ele>
        <time>2013-06-30T13:22:26Z</time>
      </trkpt>
      <trkpt lat="44.86513" lon="5.70719">
        <ele>632.2</ele>
        <time>2013-06-30T13:22:38Z</time>
      </trkpt>
      <trkpt lat="44.86511" lon="5.70721">
        <ele>636.05</ele>
        <time>2013-06-30T13:22:39Z</time>
      </trkpt>
      <trkpt lat="44.86491" lon="5.70724">
        <ele>635.57</ele>
        <time>2013-06-30T13:22:50Z</time>
      </trkpt>
      <trkpt lat="44.86473" lon="5.70702">
        <ele>637.01</ele>
        <time>2013-06-30T13:23:03Z</time>
      </trkpt>
      <trkpt lat="44.86468" lon="5.70693">
        <ele>637.49</ele>
        <time>2013-06-30T13:23:07Z</time>
      </trkpt>
      <trkpt lat="44.86464" lon="5.70677">
        <ele>637.49</ele>
        <time>2013-06-30T13:23:13Z</time>
      </trkpt>
      <trkpt lat="44.86454" lon="5.70638">
        <ele>639.41</ele>
        <time>2013-06-30T13:23:26Z</time>
      </trkpt>
      <trkpt lat="44.86442" lon="5.70606">
        <ele>639.89</ele>
        <time>2013-06-30T13:23:38Z</time>
      </trkpt>
      <trkpt lat="44.86431" lon="5.70586">
        <ele>639.41</ele>
        <time>2013-06-30T13:23:44Z</time>
      </trkpt>
      <trkpt lat="44.86427" lon="5.70582">
        <ele>639.41</ele>
        <time>2013-06-30T13:23:45Z</time>
      </trkpt>
      <trkpt lat="44.86423" lon="5.70578">
        <ele>638.45</ele>
        <time>2013-06-30T13:23:46Z</time>
      </trkpt>
      <trkpt lat="44.86408" lon="5.70557">
        <ele>638.93</ele>
        <time>2013-06-30T13:23:51Z</time>
      </trkpt>
      <trkpt lat="44.86386" lon="5.70514">
        <ele>640.86</ele>
        <time>2013-06-30T13:24:03Z</time>
      </trkpt>
      <trkpt lat="44.86379" lon="5.70495">
        <ele>643.26</ele>
        <time>2013-06-30T13:24:11Z</time>
      </trkpt>
      <trkpt lat="44.86379" lon="5.70493">
        <ele>642.78</ele>
        <time>2013-06-30T13:24:12Z</time>
      </trkpt>
      <trkpt lat="44.86373" lon="5.70478">
        <ele>645.18</ele>
        <time>2013-06-30T13:24:20Z</time>
      </trkpt>
      <trkpt lat="44.86372" lon="5.70476">
        <ele>645.18</ele>
        <time>2013-06-30T13:24:21Z</time>
      </trkpt>
      <trkpt lat="44.86372" lon="5.70474">
        <ele>645.18</ele>
        <time>2013-06-30T13:24:22Z</time>
      </trkpt>
      <trkpt lat="44.86372" lon="5.70472">
        <ele>645.66</ele>
        <time>2013-06-30T13:24:23Z</time>
      </trkpt>
      <trkpt lat="44.86373" lon="5.7047">
        <ele>645.18</ele>
        <time>2013-06-30T13:24:24Z</time>
      </trkpt>
      <trkpt lat="44.86373" lon="5.70469">
        <ele>645.66</ele>
        <time>2013-06-30T13:24:25Z</time>
      </trkpt>
      <trkpt lat="44.86374" lon="5.70467">
        <ele>645.66</ele>
        <time>2013-06-30T13:24:26Z</time>
      </trkpt>
      <trkpt lat="44.86374" lon="5.70465">
        <ele>645.66</ele>
        <time>2013-06-30T13:24:27Z</time>
      </trkpt>
      <trkpt lat="44.86375" lon="5.70463">
        <ele>646.14</ele>
        <time>2013-06-30T13:24:28Z</time>
      </trkpt>
      <trkpt lat="44.86375" lon="5.70461">
        <ele>646.62</ele>
        <time>2013-06-30T13:24:29Z</time>
      </trkpt>
      <trkpt lat="44.86375" lon="5.70459">
        <ele>646.62</ele>
        <time>2013-06-30T13:24:30Z</time>
      </trkpt>
      <trkpt lat="44.86376" lon="5.70458">
        <ele>646.62</ele>
        <time>2013-06-30T13:24:31Z</time>
      </trkpt>
      <trkpt lat="44.86376" lon="5.70456">
        <ele>647.1</ele>
        <time>2013-06-30T13:24:32Z</time>
      </trkpt>
      <trkpt lat="44.8638" lon="5.70444">
        <ele>648.07</ele>
        <time>2013-06-30T13:24:39Z</time>
      </trkpt>
      <trkpt lat="44.86381" lon="5.70442">
        <ele>648.07</ele>
        <time>2013-06-30T13:24:40Z</time>
      </trkpt>
      <trkpt lat="44.86381" lon="5.70441">
        <ele>648.55</ele>
        <time>2013-06-30T13:24:41Z</time>
      </trkpt>
      <trkpt lat="44.86384" lon="5.70436">
        <ele>649.51</ele>
        <time>2013-06-30T13:24:44Z</time>
      </trkpt>
      <trkpt lat="44.86384" lon="5.70433">
        <ele>649.99</ele>
        <time>2013-06-30T13:24:45Z</time>
      </trkpt>
      <trkpt lat="44.8639" lon="5.70421">
        <ele>651.91</ele>
        <time>2013-06-30T13:24:54Z</time>
      </trkpt>
      <trkpt lat="44.86393" lon="5.70414">
        <ele>653.35</ele>
        <time>2013-06-30T13:24:59Z</time>
      </trkpt>
      <trkpt lat="44.86394" lon="5.70412">
        <ele>653.35</ele>
        <time>2013-06-30T13:25:00Z</time>
      </trkpt>
      <trkpt lat="44.864" lon="5.70402">
        <ele>654.31</ele>
        <time>2013-06-30T13:25:07Z</time>
      </trkpt>
      <trkpt lat="44.86401" lon="5.70401">
        <ele>654.31</ele>
        <time>2013-06-30T13:25:08Z</time>
      </trkpt>
      <trkpt lat="44.86401" lon="5.70399">
        <ele>654.8</ele>
        <time>2013-06-30T13:25:09Z</time>
      </trkpt>
      <trkpt lat="44.86402" lon="5.70397">
        <ele>655.28</ele>
        <time>2013-06-30T13:25:10Z</time>
      </trkpt>
      <trkpt lat="44.86402" lon="5.70395">
        <ele>655.76</ele>
        <time>2013-06-30T13:25:11Z</time>
      </trkpt>
      <trkpt lat="44.86401" lon="5.70393">
        <ele>655.76</ele>
        <time>2013-06-30T13:25:12Z</time>
      </trkpt>
      <trkpt lat="44.86401" lon="5.70391">
        <ele>655.76</ele>
        <time>2013-06-30T13:25:13Z</time>
      </trkpt>
      <trkpt lat="44.864" lon="5.70389">
        <ele>655.76</ele>
        <time>2013-06-30T13:25:14Z</time>
      </trkpt>
      <trkpt lat="44.864" lon="5.70387">
        <ele>655.76</ele>
        <time>2013-06-30T13:25:15Z</time>
      </trkpt>
      <trkpt lat="44.86399" lon="5.70385">
        <ele>655.76</ele>
        <time>2013-06-30T13:25:16Z</time>
      </trkpt>
      <trkpt lat="44.86399" lon="5.70383">
        <ele>655.76</ele>
        <time>2013-06-30T13:25:17Z</time>
      </trkpt>
      <trkpt lat="44.86398" lon="5.70381">
        <ele>656.24</ele>
        <time>2013-06-30T13:25:18Z</time>
      </trkpt>
      <trkpt lat="44.86397" lon="5.7038">
        <ele>655.76</ele>
        <time>2013-06-30T13:25:19Z</time>
      </trkpt>
      <trkpt lat="44.86396" lon="5.70378">
        <ele>656.24</ele>
        <time>2013-06-30T13:25:20Z</time>
      </trkpt>
      <trkpt lat="44.86395" lon="5.70376">
        <ele>656.24</ele>
        <time>2013-06-30T13:25:21Z</time>
      </trkpt>
      <trkpt lat="44.86394" lon="5.70374">
        <ele>656.24</ele>
        <time>2013-06-30T13:25:22Z</time>
      </trkpt>
      <trkpt lat="44.86393" lon="5.70372">
        <ele>656.72</ele>
        <time>2013-06-30T13:25:23Z</time>
      </trkpt>
      <trkpt lat="44.86392" lon="5.7037">
        <ele>656.72</ele>
        <time>2013-06-30T13:25:24Z</time>
      </trkpt>
      <trkpt lat="44.86383" lon="5.70347">
        <ele>659.12</ele>
        <time>2013-06-30T13:25:37Z</time>
      </trkpt>
      <trkpt lat="44.86374" lon="5.70323">
        <ele>661.52</ele>
        <time>2013-06-30T13:25:51Z</time>
      </trkpt>
      <trkpt lat="44.86375" lon="5.70298">
        <ele>664.89</ele>
        <time>2013-06-30T13:26:05Z</time>
      </trkpt>
      <trkpt lat="44.86399" lon="5.7028">
        <ele>666.81</ele>
        <time>2013-06-30T13:26:20Z</time>
      </trkpt>
      <trkpt lat="44.86405" lon="5.70272">
        <ele>667.29</ele>
        <time>2013-06-30T13:26:25Z</time>
      </trkpt>
      <trkpt lat="44.86406" lon="5.70266">
        <ele>667.77</ele>
        <time>2013-06-30T13:26:27Z</time>
      </trkpt>
      <trkpt lat="44.86405" lon="5.70262">
        <ele>667.29</ele>
        <time>2013-06-30T13:26:28Z</time>
      </trkpt>
      <trkpt lat="44.86402" lon="5.70259">
        <ele>666.81</ele>
        <time>2013-06-30T13:26:29Z</time>
      </trkpt>
      <trkpt lat="44.86399" lon="5.70257">
        <ele>665.85</ele>
        <time>2013-06-30T13:26:30Z</time>
      </trkpt>
      <trkpt lat="44.86395" lon="5.70255">
        <ele>665.85</ele>
        <time>2013-06-30T13:26:31Z</time>
      </trkpt>
      <trkpt lat="44.86391" lon="5.70253">
        <ele>664.89</ele>
        <time>2013-06-30T13:26:32Z</time>
      </trkpt>
      <trkpt lat="44.86386" lon="5.70251">
        <ele>663.93</ele>
        <time>2013-06-30T13:26:33Z</time>
      </trkpt>
      <trkpt lat="44.8638" lon="5.70248">
        <ele>664.41</ele>
        <time>2013-06-30T13:26:34Z</time>
      </trkpt>
      <trkpt lat="44.86374" lon="5.70246">
        <ele>663.93</ele>
        <time>2013-06-30T13:26:35Z</time>
      </trkpt>
      <trkpt lat="44.86368" lon="5.70244">
        <ele>662.49</ele>
        <time>2013-06-30T13:26:36Z</time>
      </trkpt>
      <trkpt lat="44.86363" lon="5.70242">
        <ele>661.04</ele>
        <time>2013-06-30T13:26:37Z</time>
      </trkpt>
      <trkpt lat="44.86357" lon="5.70237">
        <ele>661.04</ele>
        <time>2013-06-30T13:26:38Z</time>
      </trkpt>
      <trkpt lat="44.86353" lon="5.70231">
        <ele>660.08</ele>
        <time>2013-06-30T13:26:39Z</time>
      </trkpt>
      <trkpt lat="44.8635" lon="5.70223">
        <ele>659.12</ele>
        <time>2013-06-30T13:26:40Z</time>
      </trkpt>
      <trkpt lat="44.86348" lon="5.70214">
        <ele>658.16</ele>
        <time>2013-06-30T13:26:41Z</time>
      </trkpt>
      <trkpt lat="44.86347" lon="5.70204">
        <ele>657.2</ele>
        <time>2013-06-30T13:26:42Z</time>
      </trkpt>
      <trkpt lat="44.86348" lon="5.70195">
        <ele>656.24</ele>
        <time>2013-06-30T13:26:43Z</time>
      </trkpt>
      <trkpt lat="44.8635" lon="5.70186">
        <ele>655.28</ele>
        <time>2013-06-30T13:26:44Z</time>
      </trkpt>
      <trkpt lat="44.8635" lon="5.70177">
        <ele>654.8</ele>
        <time>2013-06-30T13:26:45Z</time>
      </trkpt>
      <trkpt lat="44.8635" lon="5.70167">
        <ele>653.35</ele>
        <time>2013-06-30T13:26:46Z</time>
      </trkpt>
      <trkpt lat="44.86346" lon="5.70148">
        <ele>651.91</ele>
        <time>2013-06-30T13:26:48Z</time>
      </trkpt>
      <trkpt lat="44.86339" lon="5.70125">
        <ele>649.99</ele>
        <time>2013-06-30T13:26:50Z</time>
      </trkpt>
      <trkpt lat="44.86336" lon="5.70108">
        <ele>648.07</ele>
        <time>2013-06-30T13:26:52Z</time>
      </trkpt>
      <trkpt lat="44.86336" lon="5.70097">
        <ele>648.07</ele>
        <time>2013-06-30T13:26:53Z</time>
      </trkpt>
      <trkpt lat="44.86338" lon="5.70086">
        <ele>647.1</ele>
        <time>2013-06-30T13:26:54Z</time>
      </trkpt>
      <trkpt lat="44.86341" lon="5.70075">
        <ele>645.66</ele>
        <time>2013-06-30T13:26:55Z</time>
      </trkpt>
      <trkpt lat="44.86344" lon="5.70064">
        <ele>644.7</ele>
        <time>2013-06-30T13:26:56Z</time>
      </trkpt>
      <trkpt lat="44.86354" lon="5.70035">
        <ele>641.82</ele>
        <time>2013-06-30T13:26:59Z</time>
      </trkpt>
      <trkpt lat="44.86381" lon="5.69967">
        <ele>645.18</ele>
        <time>2013-06-30T13:27:06Z</time>
      </trkpt>
      <trkpt lat="44.86383" lon="5.69962">
        <ele>645.18</ele>
        <time>2013-06-30T13:27:07Z</time>
      </trkpt>
      <trkpt lat="44.86386" lon="5.69951">
        <ele>646.62</ele>
        <time>2013-06-30T13:27:10Z</time>
      </trkpt>
      <trkpt lat="44.86394" lon="5.69926">
        <ele>649.51</ele>
        <time>2013-06-30T13:27:21Z</time>
      </trkpt>
      <trkpt lat="44.86396" lon="5.69915">
        <ele>652.39</ele>
        <time>2013-06-30T13:27:26Z</time>
      </trkpt>
      <trkpt lat="44.86396" lon="5.69913">
        <ele>651.91</ele>
        <time>2013-06-30T13:27:27Z</time>
      </trkpt>
      <trkpt lat="44.86395" lon="5.69911">
        <ele>651.91</ele>
        <time>2013-06-30T13:27:28Z</time>
      </trkpt>
      <trkpt lat="44.86394" lon="5.69909">
        <ele>651.43</ele>
        <time>2013-06-30T13:27:29Z</time>
      </trkpt>
      <trkpt lat="44.86393" lon="5.69908">
        <ele>651.91</ele>
        <time>2013-06-30T13:27:30Z</time>
      </trkpt>
      <trkpt lat="44.86391" lon="5.69907">
        <ele>652.39</ele>
        <time>2013-06-30T13:27:31Z</time>
      </trkpt>
      <trkpt lat="44.8639" lon="5.69907">
        <ele>652.39</ele>
        <time>2013-06-30T13:27:32Z</time>
      </trkpt>
      <trkpt lat="44.86388" lon="5.69906">
        <ele>652.39</ele>
        <time>2013-06-30T13:27:33Z</time>
      </trkpt>
      <trkpt lat="44.86387" lon="5.69907">
        <ele>652.87</ele>
        <time>2013-06-30T13:27:34Z</time>
      </trkpt>
      <trkpt lat="44.86385" lon="5.69907">
        <ele>652.87</ele>
        <time>2013-06-30T13:27:35Z</time>
      </trkpt>
      <trkpt lat="44.86363" lon="5.69915">
        <ele>655.28</ele>
        <time>2013-06-30T13:27:49Z</time>
      </trkpt>
      <trkpt lat="44.86343" lon="5.69921">
        <ele>656.24</ele>
        <time>2013-06-30T13:28:01Z</time>
      </trkpt>
      <trkpt lat="44.86327" lon="5.69916">
        <ele>655.76</ele>
        <time>2013-06-30T13:28:08Z</time>
      </trkpt>
      <trkpt lat="44.86324" lon="5.69912">
        <ele>654.31</ele>
        <time>2013-06-30T13:28:09Z</time>
      </trkpt>
      <trkpt lat="44.86322" lon="5.69906">
        <ele>653.83</ele>
        <time>2013-06-30T13:28:10Z</time>
      </trkpt>
      <trkpt lat="44.8632" lon="5.69898">
        <ele>652.87</ele>
        <time>2013-06-30T13:28:11Z</time>
      </trkpt>
      <trkpt lat="44.86318" lon="5.69891">
        <ele>652.87</ele>
        <time>2013-06-30T13:28:12Z</time>
      </trkpt>
      <trkpt lat="44.86313" lon="5.69876">
        <ele>652.87</ele>
        <time>2013-06-30T13:28:14Z</time>
      </trkpt>
      <trkpt lat="44.86292" lon="5.69811">
        <ele>652.39</ele>
        <time>2013-06-30T13:28:23Z</time>
      </trkpt>
      <trkpt lat="44.8629" lon="5.69806">
        <ele>651.91</ele>
        <time>2013-06-30T13:28:24Z</time>
      </trkpt>
      <trkpt lat="44.86288" lon="5.698">
        <ele>652.39</ele>
        <time>2013-06-30T13:28:25Z</time>
      </trkpt>
      <trkpt lat="44.86287" lon="5.69795">
        <ele>652.87</ele>
        <time>2013-06-30T13:28:26Z</time>
      </trkpt>
      <trkpt lat="44.86285" lon="5.69791">
        <ele>652.39</ele>
        <time>2013-06-30T13:28:27Z</time>
      </trkpt>
      <trkpt lat="44.86284" lon="5.69788">
        <ele>652.39</ele>
        <time>2013-06-30T13:28:28Z</time>
      </trkpt>
      <trkpt lat="44.86283" lon="5.69785">
        <ele>653.35</ele>
        <time>2013-06-30T13:28:29Z</time>
      </trkpt>
      <trkpt lat="44.86282" lon="5.69782">
        <ele>652.87</ele>
        <time>2013-06-30T13:28:30Z</time>
      </trkpt>
      <trkpt lat="44.8628" lon="5.69775">
        <ele>654.31</ele>
        <time>2013-06-30T13:28:33Z</time>
      </trkpt>
      <trkpt lat="44.86279" lon="5.69773">
        <ele>654.8</ele>
        <time>2013-06-30T13:28:34Z</time>
      </trkpt>
      <trkpt lat="44.8627" lon="5.6974">
        <ele>658.64</ele>
        <time>2013-06-30T13:28:50Z</time>
      </trkpt>
      <trkpt lat="44.86268" lon="5.69724">
        <ele>661.52</ele>
        <time>2013-06-30T13:28:59Z</time>
      </trkpt>
      <trkpt lat="44.86269" lon="5.69715">
        <ele>662.49</ele>
        <time>2013-06-30T13:29:04Z</time>
      </trkpt>
      <trkpt lat="44.8627" lon="5.69714">
        <ele>662.49</ele>
        <time>2013-06-30T13:29:05Z</time>
      </trkpt>
      <trkpt lat="44.8627" lon="5.69712">
        <ele>662.49</ele>
        <time>2013-06-30T13:29:06Z</time>
      </trkpt>
      <trkpt lat="44.8627" lon="5.6971">
        <ele>662.97</ele>
        <time>2013-06-30T13:29:07Z</time>
      </trkpt>
      <trkpt lat="44.8627" lon="5.69709">
        <ele>663.45</ele>
        <time>2013-06-30T13:29:08Z</time>
      </trkpt>
      <trkpt lat="44.8627" lon="5.69707">
        <ele>663.93</ele>
        <time>2013-06-30T13:29:09Z</time>
      </trkpt>
      <trkpt lat="44.8627" lon="5.69694">
        <ele>665.85</ele>
        <time>2013-06-30T13:29:18Z</time>
      </trkpt>
      <trkpt lat="44.8627" lon="5.69692">
        <ele>666.33</ele>
        <time>2013-06-30T13:29:19Z</time>
      </trkpt>
      <trkpt lat="44.8627" lon="5.6969">
        <ele>666.81</ele>
        <time>2013-06-30T13:29:20Z</time>
      </trkpt>
      <trkpt lat="44.86271" lon="5.69688">
        <ele>666.81</ele>
        <time>2013-06-30T13:29:21Z</time>
      </trkpt>
      <trkpt lat="44.86274" lon="5.69666">
        <ele>669.22</ele>
        <time>2013-06-30T13:29:33Z</time>
      </trkpt>
      <trkpt lat="44.86274" lon="5.69665">
        <ele>669.7</ele>
        <time>2013-06-30T13:29:34Z</time>
      </trkpt>
      <trkpt lat="44.86275" lon="5.69659">
        <ele>670.18</ele>
        <time>2013-06-30T13:29:37Z</time>
      </trkpt>
      <trkpt lat="44.86276" lon="5.69658">
        <ele>670.18</ele>
        <time>2013-06-30T13:29:38Z</time>
      </trkpt>
      <trkpt lat="44.86276" lon="5.69656">
        <ele>670.66</ele>
        <time>2013-06-30T13:29:39Z</time>
      </trkpt>
      <trkpt lat="44.86276" lon="5.69653">
        <ele>670.66</ele>
        <time>2013-06-30T13:29:40Z</time>
      </trkpt>
      <trkpt lat="44.86277" lon="5.69651">
        <ele>670.66</ele>
        <time>2013-06-30T13:29:41Z</time>
      </trkpt>
      <trkpt lat="44.86277" lon="5.69649">
        <ele>671.14</ele>
        <time>2013-06-30T13:29:42Z</time>
      </trkpt>
      <trkpt lat="44.86284" lon="5.69613">
        <ele>673.54</ele>
        <time>2013-06-30T13:29:58Z</time>
      </trkpt>
      <trkpt lat="44.86297" lon="5.69564">
        <ele>674.5</ele>
        <time>2013-06-30T13:30:15Z</time>
      </trkpt>
      <trkpt lat="44.86307" lon="5.69522">
        <ele>672.58</ele>
        <time>2013-06-30T13:30:29Z</time>
      </trkpt>
      <trkpt lat="44.8631" lon="5.69515">
        <ele>672.58</ele>
        <time>2013-06-30T13:30:40Z</time>
      </trkpt>
      <trkpt lat="44.86311" lon="5.69515">
        <ele>672.58</ele>
        <time>2013-06-30T13:31:02Z</time>
      </trkpt>
      <trkpt lat="44.86312" lon="5.69511">
        <ele>672.1</ele>
        <time>2013-06-30T13:31:07Z</time>
      </trkpt>
      <trkpt lat="44.86313" lon="5.69509">
        <ele>672.1</ele>
        <time>2013-06-30T13:31:08Z</time>
      </trkpt>
      <trkpt lat="44.86317" lon="5.69504">
        <ele>671.14</ele>
        <time>2013-06-30T13:31:10Z</time>
      </trkpt>
      <trkpt lat="44.86331" lon="5.69495">
        <ele>667.77</ele>
        <time>2013-06-30T13:31:14Z</time>
      </trkpt>
      <trkpt lat="44.86335" lon="5.69492">
        <ele>667.29</ele>
        <time>2013-06-30T13:31:15Z</time>
      </trkpt>
      <trkpt lat="44.8634" lon="5.69486">
        <ele>665.85</ele>
        <time>2013-06-30T13:31:16Z</time>
      </trkpt>
      <trkpt lat="44.86344" lon="5.69479">
        <ele>665.37</ele>
        <time>2013-06-30T13:31:17Z</time>
      </trkpt>
      <trkpt lat="44.86348" lon="5.69471">
        <ele>664.41</ele>
        <time>2013-06-30T13:31:18Z</time>
      </trkpt>
      <trkpt lat="44.86353" lon="5.69462">
        <ele>662.49</ele>
        <time>2013-06-30T13:31:19Z</time>
      </trkpt>
      <trkpt lat="44.86361" lon="5.69443">
        <ele>662.01</ele>
        <time>2013-06-30T13:31:21Z</time>
      </trkpt>
      <trkpt lat="44.86364" lon="5.69435">
        <ele>661.52</ele>
        <time>2013-06-30T13:31:22Z</time>
      </trkpt>
      <trkpt lat="44.86366" lon="5.69429">
        <ele>661.52</ele>
        <time>2013-06-30T13:31:23Z</time>
      </trkpt>
      <trkpt lat="44.86367" lon="5.69426">
        <ele>662.49</ele>
        <time>2013-06-30T13:31:24Z</time>
      </trkpt>
      <trkpt lat="44.86366" lon="5.69424">
        <ele>662.49</ele>
        <time>2013-06-30T13:31:25Z</time>
      </trkpt>
      <trkpt lat="44.86367" lon="5.6942">
        <ele>662.49</ele>
        <time>2013-06-30T13:31:37Z</time>
      </trkpt>
      <trkpt lat="44.86367" lon="5.69415">
        <ele>662.49</ele>
        <time>2013-06-30T13:31:51Z</time>
      </trkpt>
      <trkpt lat="44.86368" lon="5.69416">
        <ele>662.01</ele>
        <time>2013-06-30T13:32:19Z</time>
      </trkpt>
      <trkpt lat="44.8637" lon="5.69415">
        <ele>662.97</ele>
        <time>2013-06-30T13:32:41Z</time>
      </trkpt>
      <trkpt lat="44.86371" lon="5.69415">
        <ele>662.49</ele>
        <time>2013-06-30T13:32:55Z</time>
      </trkpt>
      <trkpt lat="44.86371" lon="5.69414">
        <ele>662.49</ele>
        <time>2013-06-30T13:33:20Z</time>
      </trkpt>
      <trkpt lat="44.86371" lon="5.69414">
        <ele>662.97</ele>
        <time>2013-06-30T13:33:42Z</time>
      </trkpt>
      <trkpt lat="44.86371" lon="5.69414">
        <ele>662.49</ele>
        <time>2013-06-30T13:33:47Z</time>
      </trkpt>
      <trkpt lat="44.86371" lon="5.69413">
        <ele>662.97</ele>
        <time>2013-06-30T13:33:48Z</time>
      </trkpt>
      <trkpt lat="44.8637" lon="5.6941">
        <ele>663.45</ele>
        <time>2013-06-30T13:33:50Z</time>
      </trkpt>
      <trkpt lat="44.86369" lon="5.69409">
        <ele>662.97</ele>
        <time>2013-06-30T13:33:51Z</time>
      </trkpt>
      <trkpt lat="44.86356" lon="5.69394">
        <ele>665.85</ele>
        <time>2013-06-30T13:34:03Z</time>
      </trkpt>
      <trkpt lat="44.86347" lon="5.69374">
        <ele>669.22</ele>
        <time>2013-06-30T13:34:15Z</time>
      </trkpt>
      <trkpt lat="44.86347" lon="5.69373">
        <ele>669.7</ele>
        <time>2013-06-30T13:34:16Z</time>
      </trkpt>
      <trkpt lat="44.86347" lon="5.69371">
        <ele>669.7</ele>
        <time>2013-06-30T13:34:17Z</time>
      </trkpt>
      <trkpt lat="44.86347" lon="5.69368">
        <ele>669.7</ele>
        <time>2013-06-30T13:34:18Z</time>
      </trkpt>
      <trkpt lat="44.86347" lon="5.69366">
        <ele>669.7</ele>
        <time>2013-06-30T13:34:19Z</time>
      </trkpt>
      <trkpt lat="44.86347" lon="5.69364">
        <ele>670.18</ele>
        <time>2013-06-30T13:34:20Z</time>
      </trkpt>
      <trkpt lat="44.86347" lon="5.69362">
        <ele>670.18</ele>
        <time>2013-06-30T13:34:21Z</time>
      </trkpt>
      <trkpt lat="44.86347" lon="5.6933">
        <ele>671.14</ele>
        <time>2013-06-30T13:34:37Z</time>
      </trkpt>
      <trkpt lat="44.86349" lon="5.69318">
        <ele>672.1</ele>
        <time>2013-06-30T13:34:41Z</time>
      </trkpt>
      <trkpt lat="44.8635" lon="5.69315">
        <ele>671.62</ele>
        <time>2013-06-30T13:34:42Z</time>
      </trkpt>
      <trkpt lat="44.86351" lon="5.69313">
        <ele>671.62</ele>
        <time>2013-06-30T13:34:43Z</time>
      </trkpt>
      <trkpt lat="44.86351" lon="5.6931">
        <ele>670.66</ele>
        <time>2013-06-30T13:34:44Z</time>
      </trkpt>
      <trkpt lat="44.86351" lon="5.69308">
        <ele>671.14</ele>
        <time>2013-06-30T13:34:45Z</time>
      </trkpt>
      <trkpt lat="44.86367" lon="5.69264">
        <ele>667.77</ele>
        <time>2013-06-30T13:34:55Z</time>
      </trkpt>
      <trkpt lat="44.86371" lon="5.69257">
        <ele>667.29</ele>
        <time>2013-06-30T13:34:56Z</time>
      </trkpt>
      <trkpt lat="44.86375" lon="5.69251">
        <ele>665.85</ele>
        <time>2013-06-30T13:34:57Z</time>
      </trkpt>
      <trkpt lat="44.8638" lon="5.69244">
        <ele>664.89</ele>
        <time>2013-06-30T13:34:58Z</time>
      </trkpt>
      <trkpt lat="44.86386" lon="5.69238">
        <ele>664.41</ele>
        <time>2013-06-30T13:34:59Z</time>
      </trkpt>
      <trkpt lat="44.86392" lon="5.69232">
        <ele>663.45</ele>
        <time>2013-06-30T13:35:00Z</time>
      </trkpt>
      <trkpt lat="44.86398" lon="5.69227">
        <ele>662.97</ele>
        <time>2013-06-30T13:35:01Z</time>
      </trkpt>
      <trkpt lat="44.86423" lon="5.69203">
        <ele>659.12</ele>
        <time>2013-06-30T13:35:05Z</time>
      </trkpt>
      <trkpt lat="44.86436" lon="5.69189">
        <ele>658.16</ele>
        <time>2013-06-30T13:35:07Z</time>
      </trkpt>
      <trkpt lat="44.86442" lon="5.69183">
        <ele>657.2</ele>
        <time>2013-06-30T13:35:08Z</time>
      </trkpt>
      <trkpt lat="44.8645" lon="5.69177">
        <ele>657.2</ele>
        <time>2013-06-30T13:35:09Z</time>
      </trkpt>
      <trkpt lat="44.86477" lon="5.69157">
        <ele>655.28</ele>
        <time>2013-06-30T13:35:13Z</time>
      </trkpt>
      <trkpt lat="44.8649" lon="5.69144">
        <ele>653.35</ele>
        <time>2013-06-30T13:35:15Z</time>
      </trkpt>
      <trkpt lat="44.86497" lon="5.69136">
        <ele>652.87</ele>
        <time>2013-06-30T13:35:16Z</time>
      </trkpt>
      <trkpt lat="44.86503" lon="5.69126">
        <ele>652.39</ele>
        <time>2013-06-30T13:35:17Z</time>
      </trkpt>
      <trkpt lat="44.86509" lon="5.69116">
        <ele>651.43</ele>
        <time>2013-06-30T13:35:18Z</time>
      </trkpt>
      <trkpt lat="44.86513" lon="5.69106">
        <ele>651.43</ele>
        <time>2013-06-30T13:35:19Z</time>
      </trkpt>
      <trkpt lat="44.86532" lon="5.6907">
        <ele>653.35</ele>
        <time>2013-06-30T13:35:24Z</time>
      </trkpt>
      <trkpt lat="44.86559" lon="5.69039">
        <ele>650.47</ele>
        <time>2013-06-30T13:35:34Z</time>
      </trkpt>
      <trkpt lat="44.86563" lon="5.69037">
        <ele>649.99</ele>
        <time>2013-06-30T13:35:35Z</time>
      </trkpt>
      <trkpt lat="44.86568" lon="5.69035">
        <ele>648.55</ele>
        <time>2013-06-30T13:35:36Z</time>
      </trkpt>
      <trkpt lat="44.86573" lon="5.69033">
        <ele>648.55</ele>
        <time>2013-06-30T13:35:37Z</time>
      </trkpt>
      <trkpt lat="44.86578" lon="5.69031">
        <ele>648.07</ele>
        <time>2013-06-30T13:35:38Z</time>
      </trkpt>
      <trkpt lat="44.86584" lon="5.69032">
        <ele>647.59</ele>
        <time>2013-06-30T13:35:39Z</time>
      </trkpt>
      <trkpt lat="44.8659" lon="5.69031">
        <ele>647.1</ele>
        <time>2013-06-30T13:35:40Z</time>
      </trkpt>
      <trkpt lat="44.86596" lon="5.6903">
        <ele>646.14</ele>
        <time>2013-06-30T13:35:41Z</time>
      </trkpt>
      <trkpt lat="44.86601" lon="5.69027">
        <ele>646.14</ele>
        <time>2013-06-30T13:35:42Z</time>
      </trkpt>
      <trkpt lat="44.86609" lon="5.69022">
        <ele>646.14</ele>
        <time>2013-06-30T13:35:43Z</time>
      </trkpt>
      <trkpt lat="44.86616" lon="5.69014">
        <ele>646.62</ele>
        <time>2013-06-30T13:35:44Z</time>
      </trkpt>
      <trkpt lat="44.86621" lon="5.69004">
        <ele>646.62</ele>
        <time>2013-06-30T13:35:45Z</time>
      </trkpt>
      <trkpt lat="44.86624" lon="5.68995">
        <ele>647.59</ele>
        <time>2013-06-30T13:35:46Z</time>
      </trkpt>
      <trkpt lat="44.86627" lon="5.68987">
        <ele>648.07</ele>
        <time>2013-06-30T13:35:47Z</time>
      </trkpt>
      <trkpt lat="44.86627" lon="5.6898">
        <ele>648.55</ele>
        <time>2013-06-30T13:35:48Z</time>
      </trkpt>
      <trkpt lat="44.86628" lon="5.68973">
        <ele>649.03</ele>
        <time>2013-06-30T13:35:49Z</time>
      </trkpt>
      <trkpt lat="44.86629" lon="5.68968">
        <ele>649.03</ele>
        <time>2013-06-30T13:35:50Z</time>
      </trkpt>
      <trkpt lat="44.86632" lon="5.68963">
        <ele>649.51</ele>
        <time>2013-06-30T13:35:51Z</time>
      </trkpt>
      <trkpt lat="44.86635" lon="5.68959">
        <ele>649.99</ele>
        <time>2013-06-30T13:35:52Z</time>
      </trkpt>
      <trkpt lat="44.86637" lon="5.68956">
        <ele>649.99</ele>
        <time>2013-06-30T13:35:53Z</time>
      </trkpt>
      <trkpt lat="44.86667" lon="5.6892">
        <ele>650.95</ele>
        <time>2013-06-30T13:36:05Z</time>
      </trkpt>
      <trkpt lat="44.86677" lon="5.68905">
        <ele>652.39</ele>
        <time>2013-06-30T13:36:11Z</time>
      </trkpt>
      <trkpt lat="44.86679" lon="5.68903">
        <ele>653.35</ele>
        <time>2013-06-30T13:36:12Z</time>
      </trkpt>
      <trkpt lat="44.86695" lon="5.68875">
        <ele>655.76</ele>
        <time>2013-06-30T13:36:25Z</time>
      </trkpt>
      <trkpt lat="44.86715" lon="5.68849">
        <ele>657.2</ele>
        <time>2013-06-30T13:36:37Z</time>
      </trkpt>
      <trkpt lat="44.86723" lon="5.68837">
        <ele>658.64</ele>
        <time>2013-06-30T13:36:49Z</time>
      </trkpt>
      <trkpt lat="44.86725" lon="5.68837">
        <ele>658.16</ele>
        <time>2013-06-30T13:36:50Z</time>
      </trkpt>
      <trkpt lat="44.86727" lon="5.68836">
        <ele>657.68</ele>
        <time>2013-06-30T13:36:51Z</time>
      </trkpt>
      <trkpt lat="44.86729" lon="5.68835">
        <ele>658.64</ele>
        <time>2013-06-30T13:36:52Z</time>
      </trkpt>
      <trkpt lat="44.8673" lon="5.68833">
        <ele>657.68</ele>
        <time>2013-06-30T13:36:53Z</time>
      </trkpt>
      <trkpt lat="44.86764" lon="5.68808">
        <ele>656.24</ele>
        <time>2013-06-30T13:37:05Z</time>
      </trkpt>
      <trkpt lat="44.8677" lon="5.68805">
        <ele>657.2</ele>
        <time>2013-06-30T13:37:09Z</time>
      </trkpt>
      <trkpt lat="44.86771" lon="5.68805">
        <ele>657.2</ele>
        <time>2013-06-30T13:37:10Z</time>
      </trkpt>
      <trkpt lat="44.86773" lon="5.68805">
        <ele>657.2</ele>
        <time>2013-06-30T13:37:11Z</time>
      </trkpt>
      <trkpt lat="44.86774" lon="5.68804">
        <ele>656.24</ele>
        <time>2013-06-30T13:37:12Z</time>
      </trkpt>
      <trkpt lat="44.86777" lon="5.68801">
        <ele>656.72</ele>
        <time>2013-06-30T13:37:21Z</time>
      </trkpt>
      <trkpt lat="44.86776" lon="5.68801">
        <ele>656.24</ele>
        <time>2013-06-30T13:37:33Z</time>
      </trkpt>
      <trkpt lat="44.86775" lon="5.68801">
        <ele>656.72</ele>
        <time>2013-06-30T13:38:02Z</time>
      </trkpt>
      <trkpt lat="44.86775" lon="5.68801">
        <ele>656.72</ele>
        <time>2013-06-30T13:38:23Z</time>
      </trkpt>
      <trkpt lat="44.86775" lon="5.68801">
        <ele>656.72</ele>
        <time>2013-06-30T13:38:55Z</time>
      </trkpt>
      <trkpt lat="44.86776" lon="5.68801">
        <ele>656.72</ele>
        <time>2013-06-30T13:39:18Z</time>
      </trkpt>
      <trkpt lat="44.86776" lon="5.68802">
        <ele>656.24</ele>
        <time>2013-06-30T13:39:44Z</time>
      </trkpt>
      <trkpt lat="44.86776" lon="5.68801">
        <ele>657.2</ele>
        <time>2013-06-30T13:40:15Z</time>
      </trkpt>
      <trkpt lat="44.86776" lon="5.68802">
        <ele>657.2</ele>
        <time>2013-06-30T13:40:37Z</time>
      </trkpt>
      <trkpt lat="44.86774" lon="5.68805">
        <ele>657.2</ele>
        <time>2013-06-30T13:40:45Z</time>
      </trkpt>
      <trkpt lat="44.86773" lon="5.68806">
        <ele>656.72</ele>
        <time>2013-06-30T13:40:46Z</time>
      </trkpt>
      <trkpt lat="44.86772" lon="5.68807">
        <ele>657.2</ele>
        <time>2013-06-30T13:40:47Z</time>
      </trkpt>
      <trkpt lat="44.86771" lon="5.68807">
        <ele>657.2</ele>
        <time>2013-06-30T13:40:48Z</time>
      </trkpt>
      <trkpt lat="44.86769" lon="5.68808">
        <ele>657.2</ele>
        <time>2013-06-30T13:40:49Z</time>
      </trkpt>
      <trkpt lat="44.86768" lon="5.68808">
        <ele>657.68</ele>
        <time>2013-06-30T13:40:50Z</time>
      </trkpt>
      <trkpt lat="44.86766" lon="5.68809">
        <ele>657.68</ele>
        <time>2013-06-30T13:40:51Z</time>
      </trkpt>
      <trkpt lat="44.86765" lon="5.68809">
        <ele>657.68</ele>
        <time>2013-06-30T13:40:52Z</time>
      </trkpt>
      <trkpt lat="44.86763" lon="5.68809">
        <ele>657.68</ele>
        <time>2013-06-30T13:41:04Z</time>
      </trkpt>
      <trkpt lat="44.86761" lon="5.68809">
        <ele>657.2</ele>
        <time>2013-06-30T13:41:29Z</time>
      </trkpt>
      <trkpt lat="44.86761" lon="5.6881">
        <ele>658.16</ele>
        <time>2013-06-30T13:41:55Z</time>
      </trkpt>
      <trkpt lat="44.86761" lon="5.68809">
        <ele>657.68</ele>
        <time>2013-06-30T13:42:09Z</time>
      </trkpt>
      <trkpt lat="44.86761" lon="5.6881">
        <ele>657.68</ele>
        <time>2013-06-30T13:42:34Z</time>
      </trkpt>
      <trkpt lat="44.8676" lon="5.6881">
        <ele>657.68</ele>
        <time>2013-06-30T13:43:05Z</time>
      </trkpt>
      <trkpt lat="44.86758" lon="5.68811">
        <ele>658.16</ele>
        <time>2013-06-30T13:43:21Z</time>
      </trkpt>
      <trkpt lat="44.86756" lon="5.68812">
        <ele>658.16</ele>
        <time>2013-06-30T13:43:22Z</time>
      </trkpt>
      <trkpt lat="44.86755" lon="5.68814">
        <ele>657.68</ele>
        <time>2013-06-30T13:43:23Z</time>
      </trkpt>
      <trkpt lat="44.86725" lon="5.68835">
        <ele>658.64</ele>
        <time>2013-06-30T13:43:37Z</time>
      </trkpt>
      <trkpt lat="44.86718" lon="5.68833">
        <ele>659.12</ele>
        <time>2013-06-30T13:43:40Z</time>
      </trkpt>
      <trkpt lat="44.86717" lon="5.68831">
        <ele>659.6</ele>
        <time>2013-06-30T13:43:41Z</time>
      </trkpt>
      <trkpt lat="44.86715" lon="5.68828">
        <ele>659.6</ele>
        <time>2013-06-30T13:43:42Z</time>
      </trkpt>
      <trkpt lat="44.86715" lon="5.68826">
        <ele>659.6</ele>
        <time>2013-06-30T13:43:43Z</time>
      </trkpt>
      <trkpt lat="44.86714" lon="5.68824">
        <ele>660.08</ele>
        <time>2013-06-30T13:43:44Z</time>
      </trkpt>
      <trkpt lat="44.86698" lon="5.6878">
        <ele>662.97</ele>
        <time>2013-06-30T13:44:02Z</time>
      </trkpt>
      <trkpt lat="44.86683" lon="5.68755">
        <ele>666.33</ele>
        <time>2013-06-30T13:44:17Z</time>
      </trkpt>
      <trkpt lat="44.86655" lon="5.68757">
        <ele>668.73</ele>
        <time>2013-06-30T13:44:33Z</time>
      </trkpt>
      <trkpt lat="44.86623" lon="5.68769">
        <ele>670.18</ele>
        <time>2013-06-30T13:44:50Z</time>
      </trkpt>
      <trkpt lat="44.86592" lon="5.68782">
        <ele>672.58</ele>
        <time>2013-06-30T13:45:07Z</time>
      </trkpt>
      <trkpt lat="44.86559" lon="5.68796">
        <ele>675.94</ele>
        <time>2013-06-30T13:45:26Z</time>
      </trkpt>
      <trkpt lat="44.86531" lon="5.68809">
        <ele>678.35</ele>
        <time>2013-06-30T13:45:41Z</time>
      </trkpt>
      <trkpt lat="44.86505" lon="5.68825">
        <ele>681.23</ele>
        <time>2013-06-30T13:45:56Z</time>
      </trkpt>
      <trkpt lat="44.86476" lon="5.68839">
        <ele>684.12</ele>
        <time>2013-06-30T13:46:12Z</time>
      </trkpt>
      <trkpt lat="44.86449" lon="5.68849">
        <ele>687.48</ele>
        <time>2013-06-30T13:46:26Z</time>
      </trkpt>
      <trkpt lat="44.86419" lon="5.68853">
        <ele>690.36</ele>
        <time>2013-06-30T13:46:40Z</time>
      </trkpt>
      <trkpt lat="44.86385" lon="5.68864">
        <ele>693.73</ele>
        <time>2013-06-30T13:46:57Z</time>
      </trkpt>
      <trkpt lat="44.8635" lon="5.68896">
        <ele>695.65</ele>
        <time>2013-06-30T13:47:16Z</time>
      </trkpt>
      <trkpt lat="44.86319" lon="5.68921">
        <ele>698.05</ele>
        <time>2013-06-30T13:47:33Z</time>
      </trkpt>
      <trkpt lat="44.86299" lon="5.68929">
        <ele>699.98</ele>
        <time>2013-06-30T13:47:45Z</time>
      </trkpt>
      <trkpt lat="44.86297" lon="5.6893">
        <ele>700.46</ele>
        <time>2013-06-30T13:47:46Z</time>
      </trkpt>
      <trkpt lat="44.86296" lon="5.68931">
        <ele>700.94</ele>
        <time>2013-06-30T13:47:47Z</time>
      </trkpt>
      <trkpt lat="44.86294" lon="5.68932">
        <ele>701.42</ele>
        <time>2013-06-30T13:47:48Z</time>
      </trkpt>
      <trkpt lat="44.86292" lon="5.68932">
        <ele>701.42</ele>
        <time>2013-06-30T13:47:49Z</time>
      </trkpt>
      <trkpt lat="44.8629" lon="5.68932">
        <ele>700.94</ele>
        <time>2013-06-30T13:47:50Z</time>
      </trkpt>
      <trkpt lat="44.86288" lon="5.68933">
        <ele>700.94</ele>
        <time>2013-06-30T13:47:51Z</time>
      </trkpt>
      <trkpt lat="44.86286" lon="5.68933">
        <ele>701.42</ele>
        <time>2013-06-30T13:47:52Z</time>
      </trkpt>
      <trkpt lat="44.86284" lon="5.68934">
        <ele>701.42</ele>
        <time>2013-06-30T13:48:04Z</time>
      </trkpt>
      <trkpt lat="44.86283" lon="5.68934">
        <ele>701.42</ele>
        <time>2013-06-30T13:48:23Z</time>
      </trkpt>
      <trkpt lat="44.86283" lon="5.68934">
        <ele>701.42</ele>
        <time>2013-06-30T13:48:52Z</time>
      </trkpt>
      <trkpt lat="44.86283" lon="5.68933">
        <ele>701.9</ele>
        <time>2013-06-30T13:49:15Z</time>
      </trkpt>
      <trkpt lat="44.86283" lon="5.68933">
        <ele>700.94</ele>
        <time>2013-06-30T13:49:39Z</time>
      </trkpt>
      <trkpt lat="44.86283" lon="5.68932">
        <ele>701.42</ele>
        <time>2013-06-30T13:50:05Z</time>
      </trkpt>
      <trkpt lat="44.86283" lon="5.68932">
        <ele>701.42</ele>
        <time>2013-06-30T13:50:09Z</time>
      </trkpt>
      <trkpt lat="44.8628" lon="5.68931">
        <ele>700.94</ele>
        <time>2013-06-30T13:50:16Z</time>
      </trkpt>
      <trkpt lat="44.86257" lon="5.68931">
        <ele>700.94</ele>
        <time>2013-06-30T13:50:29Z</time>
      </trkpt>
      <trkpt lat="44.86255" lon="5.68931">
        <ele>700.46</ele>
        <time>2013-06-30T13:50:30Z</time>
      </trkpt>
      <trkpt lat="44.86254" lon="5.68931">
        <ele>700.94</ele>
        <time>2013-06-30T13:50:31Z</time>
      </trkpt>
      <trkpt lat="44.86253" lon="5.68931">
        <ele>700.94</ele>
        <time>2013-06-30T13:50:32Z</time>
      </trkpt>
      <trkpt lat="44.86249" lon="5.68929">
        <ele>699.98</ele>
        <time>2013-06-30T13:50:36Z</time>
      </trkpt>
      <trkpt lat="44.86247" lon="5.68929">
        <ele>699.98</ele>
        <time>2013-06-30T13:50:37Z</time>
      </trkpt>
      <trkpt lat="44.86244" lon="5.68927">
        <ele>699.5</ele>
        <time>2013-06-30T13:50:38Z</time>
      </trkpt>
      <trkpt lat="44.86242" lon="5.68926">
        <ele>699.5</ele>
        <time>2013-06-30T13:50:39Z</time>
      </trkpt>
      <trkpt lat="44.8624" lon="5.68925">
        <ele>698.53</ele>
        <time>2013-06-30T13:50:40Z</time>
      </trkpt>
      <trkpt lat="44.8624" lon="5.68925">
        <ele>698.53</ele>
        <time>2013-06-30T13:50:48Z</time>
      </trkpt>
      <trkpt lat="44.86243" lon="5.68924">
        <ele>698.05</ele>
        <time>2013-06-30T13:50:52Z</time>
      </trkpt>
      <trkpt lat="44.86246" lon="5.68918">
        <ele>697.09</ele>
        <time>2013-06-30T13:50:59Z</time>
      </trkpt>
      <trkpt lat="44.86248" lon="5.68914">
        <ele>695.17</ele>
        <time>2013-06-30T13:51:03Z</time>
      </trkpt>
      <trkpt lat="44.86248" lon="5.68912">
        <ele>695.17</ele>
        <time>2013-06-30T13:51:04Z</time>
      </trkpt>
      <trkpt lat="44.86247" lon="5.68908">
        <ele>694.21</ele>
        <time>2013-06-30T13:51:08Z</time>
      </trkpt>
      <trkpt lat="44.86247" lon="5.68906">
        <ele>693.73</ele>
        <time>2013-06-30T13:51:09Z</time>
      </trkpt>
      <trkpt lat="44.86248" lon="5.68904">
        <ele>693.73</ele>
        <time>2013-06-30T13:51:10Z</time>
      </trkpt>
      <trkpt lat="44.86252" lon="5.68904">
        <ele>692.77</ele>
        <time>2013-06-30T13:51:13Z</time>
      </trkpt>
      <trkpt lat="44.86253" lon="5.68902">
        <ele>691.81</ele>
        <time>2013-06-30T13:51:14Z</time>
      </trkpt>
      <trkpt lat="44.86254" lon="5.68901">
        <ele>691.81</ele>
        <time>2013-06-30T13:51:15Z</time>
      </trkpt>
      <trkpt lat="44.86238" lon="5.68891">
        <ele>688.92</ele>
        <time>2013-06-30T13:51:25Z</time>
      </trkpt>
      <trkpt lat="44.86241" lon="5.68886">
        <ele>688.92</ele>
        <time>2013-06-30T13:51:28Z</time>
      </trkpt>
      <trkpt lat="44.86257" lon="5.68885">
        <ele>687.96</ele>
        <time>2013-06-30T13:51:38Z</time>
      </trkpt>
      <trkpt lat="44.8626" lon="5.6888">
        <ele>686.04</ele>
        <time>2013-06-30T13:51:41Z</time>
      </trkpt>
      <trkpt lat="44.86262" lon="5.68878">
        <ele>685.56</ele>
        <time>2013-06-30T13:51:42Z</time>
      </trkpt>
      <trkpt lat="44.86269" lon="5.68868">
        <ele>683.15</ele>
        <time>2013-06-30T13:51:48Z</time>
      </trkpt>
      <trkpt lat="44.86289" lon="5.68858">
        <ele>680.27</ele>
        <time>2013-06-30T13:51:55Z</time>
      </trkpt>
      <trkpt lat="44.86297" lon="5.68853">
        <ele>678.83</ele>
        <time>2013-06-30T13:51:57Z</time>
      </trkpt>
      <trkpt lat="44.86316" lon="5.6884">
        <ele>677.87</ele>
        <time>2013-06-30T13:52:03Z</time>
      </trkpt>
      <trkpt lat="44.86342" lon="5.68825">
        <ele>677.39</ele>
        <time>2013-06-30T13:52:11Z</time>
      </trkpt>
      <trkpt lat="44.86347" lon="5.68818">
        <ele>676.91</ele>
        <time>2013-06-30T13:52:14Z</time>
      </trkpt>
      <trkpt lat="44.86359" lon="5.68793">
        <ele>676.42</ele>
        <time>2013-06-30T13:52:22Z</time>
      </trkpt>
      <trkpt lat="44.86359" lon="5.68788">
        <ele>675.94</ele>
        <time>2013-06-30T13:52:24Z</time>
      </trkpt>
      <trkpt lat="44.86361" lon="5.68783">
        <ele>675.94</ele>
        <time>2013-06-30T13:52:26Z</time>
      </trkpt>
      <trkpt lat="44.86364" lon="5.68778">
        <ele>675.46</ele>
        <time>2013-06-30T13:52:29Z</time>
      </trkpt>
      <trkpt lat="44.8637" lon="5.68773">
        <ele>674.02</ele>
        <time>2013-06-30T13:52:33Z</time>
      </trkpt>
      <trkpt lat="44.86372" lon="5.68762">
        <ele>671.62</ele>
        <time>2013-06-30T13:52:37Z</time>
      </trkpt>
      <trkpt lat="44.86382" lon="5.68753">
        <ele>672.1</ele>
        <time>2013-06-30T13:52:41Z</time>
      </trkpt>
      <trkpt lat="44.86384" lon="5.6875">
        <ele>671.14</ele>
        <time>2013-06-30T13:52:43Z</time>
      </trkpt>
      <trkpt lat="44.8639" lon="5.68747">
        <ele>670.18</ele>
        <time>2013-06-30T13:52:45Z</time>
      </trkpt>
      <trkpt lat="44.86416" lon="5.68717">
        <ele>666.81</ele>
        <time>2013-06-30T13:52:54Z</time>
      </trkpt>
      <trkpt lat="44.86422" lon="5.68709">
        <ele>667.29</ele>
        <time>2013-06-30T13:53:26Z</time>
      </trkpt>
      <trkpt lat="44.86422" lon="5.68711">
        <ele>666.81</ele>
        <time>2013-06-30T13:53:47Z</time>
      </trkpt>
      <trkpt lat="44.86424" lon="5.68709">
        <ele>667.29</ele>
        <time>2013-06-30T13:53:59Z</time>
      </trkpt>
      <trkpt lat="44.86432" lon="5.68688">
        <ele>664.41</ele>
        <time>2013-06-30T13:54:07Z</time>
      </trkpt>
      <trkpt lat="44.86438" lon="5.68672">
        <ele>662.97</ele>
        <time>2013-06-30T13:54:17Z</time>
      </trkpt>
      <trkpt lat="44.86438" lon="5.68672">
        <ele>662.97</ele>
        <time>2013-06-30T13:54:18Z</time>
      </trkpt>
      <trkpt lat="44.8644" lon="5.68669">
        <ele>662.01</ele>
        <time>2013-06-30T13:54:20Z</time>
      </trkpt>
      <trkpt lat="44.86446" lon="5.68646">
        <ele>659.6</ele>
        <time>2013-06-30T13:54:26Z</time>
      </trkpt>
      <trkpt lat="44.86451" lon="5.68625">
        <ele>656.72</ele>
        <time>2013-06-30T13:54:30Z</time>
      </trkpt>
      <trkpt lat="44.86449" lon="5.68602">
        <ele>654.31</ele>
        <time>2013-06-30T13:54:36Z</time>
      </trkpt>
      <trkpt lat="44.86449" lon="5.68593">
        <ele>653.35</ele>
        <time>2013-06-30T13:54:38Z</time>
      </trkpt>
      <trkpt lat="44.86453" lon="5.68557">
        <ele>649.51</ele>
        <time>2013-06-30T13:54:47Z</time>
      </trkpt>
      <trkpt lat="44.86456" lon="5.68527">
        <ele>646.62</ele>
        <time>2013-06-30T13:54:53Z</time>
      </trkpt>
      <trkpt lat="44.86463" lon="5.68517">
        <ele>647.1</ele>
        <time>2013-06-30T13:54:57Z</time>
      </trkpt>
      <trkpt lat="44.86471" lon="5.68502">
        <ele>646.62</ele>
        <time>2013-06-30T13:55:01Z</time>
      </trkpt>
      <trkpt lat="44.86474" lon="5.6849">
        <ele>646.62</ele>
        <time>2013-06-30T13:55:04Z</time>
      </trkpt>
      <trkpt lat="44.86494" lon="5.68459">
        <ele>649.03</ele>
        <time>2013-06-30T13:55:15Z</time>
      </trkpt>
      <trkpt lat="44.86496" lon="5.68456">
        <ele>649.03</ele>
        <time>2013-06-30T13:55:16Z</time>
      </trkpt>
      <trkpt lat="44.86501" lon="5.68447">
        <ele>649.51</ele>
        <time>2013-06-30T13:55:19Z</time>
      </trkpt>
      <trkpt lat="44.86507" lon="5.68437">
        <ele>649.99</ele>
        <time>2013-06-30T13:55:24Z</time>
      </trkpt>
      <trkpt lat="44.86513" lon="5.68414">
        <ele>650.95</ele>
        <time>2013-06-30T13:55:37Z</time>
      </trkpt>
      <trkpt lat="44.86521" lon="5.68403">
        <ele>653.35</ele>
        <time>2013-06-30T13:55:44Z</time>
      </trkpt>
      <trkpt lat="44.86539" lon="5.68387">
        <ele>654.31</ele>
        <time>2013-06-30T13:55:56Z</time>
      </trkpt>
      <trkpt lat="44.86546" lon="5.68369">
        <ele>652.87</ele>
        <time>2013-06-30T13:56:03Z</time>
      </trkpt>
      <trkpt lat="44.86558" lon="5.68356">
        <ele>649.99</ele>
        <time>2013-06-30T13:56:07Z</time>
      </trkpt>
      <trkpt lat="44.86561" lon="5.68348">
        <ele>650.47</ele>
        <time>2013-06-30T13:56:09Z</time>
      </trkpt>
      <trkpt lat="44.86569" lon="5.68324">
        <ele>648.55</ele>
        <time>2013-06-30T13:56:17Z</time>
      </trkpt>
      <trkpt lat="44.86572" lon="5.68322">
        <ele>648.07</ele>
        <time>2013-06-30T13:56:19Z</time>
      </trkpt>
      <trkpt lat="44.86581" lon="5.68319">
        <ele>647.1</ele>
        <time>2013-06-30T13:56:25Z</time>
      </trkpt>
      <trkpt lat="44.86601" lon="5.68294">
        <ele>648.55</ele>
        <time>2013-06-30T13:56:39Z</time>
      </trkpt>
      <trkpt lat="44.86616" lon="5.68267">
        <ele>649.51</ele>
        <time>2013-06-30T13:56:48Z</time>
      </trkpt>
      <trkpt lat="44.86619" lon="5.68261">
        <ele>649.51</ele>
        <time>2013-06-30T13:56:49Z</time>
      </trkpt>
      <trkpt lat="44.8665" lon="5.68241">
        <ele>651.91</ele>
        <time>2013-06-30T13:57:00Z</time>
      </trkpt>
      <trkpt lat="44.8667" lon="5.68232">
        <ele>650.95</ele>
        <time>2013-06-30T13:57:06Z</time>
      </trkpt>
      <trkpt lat="44.86677" lon="5.68212">
        <ele>649.03</ele>
        <time>2013-06-30T13:57:14Z</time>
      </trkpt>
      <trkpt lat="44.86684" lon="5.68194">
        <ele>646.62</ele>
        <time>2013-06-30T13:57:19Z</time>
      </trkpt>
      <trkpt lat="44.86686" lon="5.68157">
        <ele>644.7</ele>
        <time>2013-06-30T13:57:24Z</time>
      </trkpt>
      <trkpt lat="44.86693" lon="5.6814">
        <ele>643.26</ele>
        <time>2013-06-30T13:57:28Z</time>
      </trkpt>
      <trkpt lat="44.86702" lon="5.68128">
        <ele>638.93</ele>
        <time>2013-06-30T13:57:32Z</time>
      </trkpt>
      <trkpt lat="44.86704" lon="5.68125">
        <ele>638.45</ele>
        <time>2013-06-30T13:57:33Z</time>
      </trkpt>
      <trkpt lat="44.86711" lon="5.68098">
        <ele>633.65</ele>
        <time>2013-06-30T13:57:38Z</time>
      </trkpt>
      <trkpt lat="44.86716" lon="5.68081">
        <ele>630.28</ele>
        <time>2013-06-30T13:57:43Z</time>
      </trkpt>
      <trkpt lat="44.86722" lon="5.68065">
        <ele>626.92</ele>
        <time>2013-06-30T13:57:47Z</time>
      </trkpt>
      <trkpt lat="44.86765" lon="5.67991">
        <ele>624.99</ele>
        <time>2013-06-30T13:57:59Z</time>
      </trkpt>
      <trkpt lat="44.86788" lon="5.67948">
        <ele>624.03</ele>
        <time>2013-06-30T13:58:08Z</time>
      </trkpt>
      <trkpt lat="44.868" lon="5.67927">
        <ele>622.59</ele>
        <time>2013-06-30T13:58:12Z</time>
      </trkpt>
      <trkpt lat="44.86807" lon="5.67907">
        <ele>620.19</ele>
        <time>2013-06-30T13:58:15Z</time>
      </trkpt>
      <trkpt lat="44.86811" lon="5.679">
        <ele>620.67</ele>
        <time>2013-06-30T13:58:16Z</time>
      </trkpt>
      <trkpt lat="44.86828" lon="5.67873">
        <ele>618.26</ele>
        <time>2013-06-30T13:58:20Z</time>
      </trkpt>
      <trkpt lat="44.86838" lon="5.67853">
        <ele>616.82</ele>
        <time>2013-06-30T13:58:23Z</time>
      </trkpt>
      <trkpt lat="44.86846" lon="5.67832">
        <ele>615.38</ele>
        <time>2013-06-30T13:58:26Z</time>
      </trkpt>
      <trkpt lat="44.86851" lon="5.67817">
        <ele>614.42</ele>
        <time>2013-06-30T13:58:28Z</time>
      </trkpt>
      <trkpt lat="44.86853" lon="5.67809">
        <ele>613.46</ele>
        <time>2013-06-30T13:58:29Z</time>
      </trkpt>
      <trkpt lat="44.8687" lon="5.67769">
        <ele>609.13</ele>
        <time>2013-06-30T13:58:34Z</time>
      </trkpt>
      <trkpt lat="44.86882" lon="5.67739">
        <ele>604.33</ele>
        <time>2013-06-30T13:58:37Z</time>
      </trkpt>
      <trkpt lat="44.86892" lon="5.6772">
        <ele>603.36</ele>
        <time>2013-06-30T13:58:39Z</time>
      </trkpt>
      <trkpt lat="44.86896" lon="5.67712">
        <ele>603.36</ele>
        <time>2013-06-30T13:58:40Z</time>
      </trkpt>
      <trkpt lat="44.86915" lon="5.67687">
        <ele>602.88</ele>
        <time>2013-06-30T13:58:44Z</time>
      </trkpt>
      <trkpt lat="44.86948" lon="5.67621">
        <ele>604.33</ele>
        <time>2013-06-30T13:58:56Z</time>
      </trkpt>
      <trkpt lat="44.86951" lon="5.67618">
        <ele>602.88</ele>
        <time>2013-06-30T13:58:57Z</time>
      </trkpt>
      <trkpt lat="44.86954" lon="5.67606">
        <ele>602.4</ele>
        <time>2013-06-30T13:58:59Z</time>
      </trkpt>
      <trkpt lat="44.86956" lon="5.6758">
        <ele>600</ele>
        <time>2013-06-30T13:59:02Z</time>
      </trkpt>
      <trkpt lat="44.86953" lon="5.67565">
        <ele>601.92</ele>
        <time>2013-06-30T13:59:04Z</time>
      </trkpt>
      <trkpt lat="44.86951" lon="5.67529">
        <ele>600.96</ele>
        <time>2013-06-30T13:59:12Z</time>
      </trkpt>
      <trkpt lat="44.86955" lon="5.67518">
        <ele>600.48</ele>
        <time>2013-06-30T13:59:19Z</time>
      </trkpt>
      <trkpt lat="44.86964" lon="5.67504">
        <ele>597.6</ele>
        <time>2013-06-30T13:59:25Z</time>
      </trkpt>
      <trkpt lat="44.86969" lon="5.67499">
        <ele>596.64</ele>
        <time>2013-06-30T13:59:27Z</time>
      </trkpt>
      <trkpt lat="44.86974" lon="5.67482">
        <ele>592.79</ele>
        <time>2013-06-30T13:59:31Z</time>
      </trkpt>
      <trkpt lat="44.86975" lon="5.67478">
        <ele>592.79</ele>
        <time>2013-06-30T13:59:32Z</time>
      </trkpt>
      <trkpt lat="44.86986" lon="5.67446">
        <ele>591.83</ele>
        <time>2013-06-30T13:59:39Z</time>
      </trkpt>
      <trkpt lat="44.8701" lon="5.67418">
        <ele>591.83</ele>
        <time>2013-06-30T13:59:45Z</time>
      </trkpt>
      <trkpt lat="44.87024" lon="5.67427">
        <ele>587.98</ele>
        <time>2013-06-30T13:59:49Z</time>
      </trkpt>
      <trkpt lat="44.87028" lon="5.67428">
        <ele>587.5</ele>
        <time>2013-06-30T13:59:50Z</time>
      </trkpt>
      <trkpt lat="44.87032" lon="5.67433">
        <ele>585.1</ele>
        <time>2013-06-30T13:59:55Z</time>
      </trkpt>
      <trkpt lat="44.8703" lon="5.67436">
        <ele>584.14</ele>
        <time>2013-06-30T13:59:57Z</time>
      </trkpt>
      <trkpt lat="44.87024" lon="5.67451">
        <ele>583.18</ele>
        <time>2013-06-30T14:00:03Z</time>
      </trkpt>
      <trkpt lat="44.87023" lon="5.67459">
        <ele>581.73</ele>
        <time>2013-06-30T14:00:06Z</time>
      </trkpt>
      <trkpt lat="44.87025" lon="5.67477">
        <ele>579.33</ele>
        <time>2013-06-30T14:00:12Z</time>
      </trkpt>
      <trkpt lat="44.8703" lon="5.67505">
        <ele>575.97</ele>
        <time>2013-06-30T14:00:17Z</time>
      </trkpt>
      <trkpt lat="44.87036" lon="5.67528">
        <ele>575.01</ele>
        <time>2013-06-30T14:00:21Z</time>
      </trkpt>
      <trkpt lat="44.8703" lon="5.67546">
        <ele>572.12</ele>
        <time>2013-06-30T14:00:24Z</time>
      </trkpt>
      <trkpt lat="44.87034" lon="5.6758">
        <ele>569.72</ele>
        <time>2013-06-30T14:00:32Z</time>
      </trkpt>
      <trkpt lat="44.87036" lon="5.67587">
        <ele>570.2</ele>
        <time>2013-06-30T14:00:34Z</time>
      </trkpt>
      <trkpt lat="44.87042" lon="5.67589">
        <ele>567.8</ele>
        <time>2013-06-30T14:00:37Z</time>
      </trkpt>
      <trkpt lat="44.87052" lon="5.67598">
        <ele>565.87</ele>
        <time>2013-06-30T14:00:41Z</time>
      </trkpt>
      <trkpt lat="44.87061" lon="5.67609">
        <ele>563.95</ele>
        <time>2013-06-30T14:00:44Z</time>
      </trkpt>
      <trkpt lat="44.87067" lon="5.67629">
        <ele>561.07</ele>
        <time>2013-06-30T14:00:50Z</time>
      </trkpt>
      <trkpt lat="44.87074" lon="5.67635">
        <ele>561.07</ele>
        <time>2013-06-30T14:00:53Z</time>
      </trkpt>
      <trkpt lat="44.87075" lon="5.67641">
        <ele>559.14</ele>
        <time>2013-06-30T14:00:57Z</time>
      </trkpt>
      <trkpt lat="44.87076" lon="5.67642">
        <ele>558.66</ele>
        <time>2013-06-30T14:00:58Z</time>
      </trkpt>
      <trkpt lat="44.87079" lon="5.6764">
        <ele>557.22</ele>
        <time>2013-06-30T14:01:02Z</time>
      </trkpt>
      <trkpt lat="44.87081" lon="5.67644">
        <ele>555.78</ele>
        <time>2013-06-30T14:01:05Z</time>
      </trkpt>
      <trkpt lat="44.87082" lon="5.67649">
        <ele>554.34</ele>
        <time>2013-06-30T14:01:13Z</time>
      </trkpt>
      <trkpt lat="44.87086" lon="5.67647">
        <ele>551.93</ele>
        <time>2013-06-30T14:01:23Z</time>
      </trkpt>
      <trkpt lat="44.87087" lon="5.67648">
        <ele>550.97</ele>
        <time>2013-06-30T14:01:25Z</time>
      </trkpt>
      <trkpt lat="44.87076" lon="5.67656">
        <ele>550.01</ele>
        <time>2013-06-30T14:01:31Z</time>
      </trkpt>
      <trkpt lat="44.87077" lon="5.67659">
        <ele>550.01</ele>
        <time>2013-06-30T14:01:41Z</time>
      </trkpt>
      <trkpt lat="44.87079" lon="5.6766">
        <ele>549.53</ele>
        <time>2013-06-30T14:01:47Z</time>
      </trkpt>
      <trkpt lat="44.87094" lon="5.67659">
        <ele>546.17</ele>
        <time>2013-06-30T14:01:53Z</time>
      </trkpt>
      <trkpt lat="44.87104" lon="5.67655">
        <ele>544.72</ele>
        <time>2013-06-30T14:01:56Z</time>
      </trkpt>
      <trkpt lat="44.8711" lon="5.67646">
        <ele>543.76</ele>
        <time>2013-06-30T14:02:06Z</time>
      </trkpt>
      <trkpt lat="44.8711" lon="5.67647">
        <ele>544.24</ele>
        <time>2013-06-30T14:02:29Z</time>
      </trkpt>
      <trkpt lat="44.87111" lon="5.67647">
        <ele>543.28</ele>
        <time>2013-06-30T14:02:50Z</time>
      </trkpt>
      <trkpt lat="44.87112" lon="5.67646">
        <ele>544.24</ele>
        <time>2013-06-30T14:03:06Z</time>
      </trkpt>
      <trkpt lat="44.87127" lon="5.67654">
        <ele>540.88</ele>
        <time>2013-06-30T14:03:14Z</time>
      </trkpt>
      <trkpt lat="44.87141" lon="5.67661">
        <ele>537.51</ele>
        <time>2013-06-30T14:03:18Z</time>
      </trkpt>
      <trkpt lat="44.87156" lon="5.67667">
        <ele>535.59</ele>
        <time>2013-06-30T14:03:22Z</time>
      </trkpt>
      <trkpt lat="44.87189" lon="5.67682">
        <ele>536.07</ele>
        <time>2013-06-30T14:03:33Z</time>
      </trkpt>
      <trkpt lat="44.87192" lon="5.67682">
        <ele>537.03</ele>
        <time>2013-06-30T14:03:43Z</time>
      </trkpt>
      <trkpt lat="44.87202" lon="5.67689">
        <ele>536.55</ele>
        <time>2013-06-30T14:03:55Z</time>
      </trkpt>
      <trkpt lat="44.87212" lon="5.67691">
        <ele>537.51</ele>
        <time>2013-06-30T14:04:01Z</time>
      </trkpt>
      <trkpt lat="44.87216" lon="5.67692">
        <ele>538.96</ele>
        <time>2013-06-30T14:04:13Z</time>
      </trkpt>
      <trkpt lat="44.8722" lon="5.67693">
        <ele>538.48</ele>
        <time>2013-06-30T14:04:30Z</time>
      </trkpt>
      <trkpt lat="44.87243" lon="5.67705">
        <ele>541.36</ele>
        <time>2013-06-30T14:04:44Z</time>
      </trkpt>
      <trkpt lat="44.87251" lon="5.67709">
        <ele>541.36</ele>
        <time>2013-06-30T14:04:49Z</time>
      </trkpt>
      <trkpt lat="44.87261" lon="5.67714">
        <ele>542.8</ele>
        <time>2013-06-30T14:04:55Z</time>
      </trkpt>
      <trkpt lat="44.87271" lon="5.67719">
        <ele>544.72</ele>
        <time>2013-06-30T14:05:01Z</time>
      </trkpt>
      <trkpt lat="44.87287" lon="5.67729">
        <ele>547.13</ele>
        <time>2013-06-30T14:05:12Z</time>
      </trkpt>
      <trkpt lat="44.87292" lon="5.67734">
        <ele>548.09</ele>
        <time>2013-06-30T14:05:17Z</time>
      </trkpt>
      <trkpt lat="44.87294" lon="5.6773">
        <ele>548.09</ele>
        <time>2013-06-30T14:05:28Z</time>
      </trkpt>
      <trkpt lat="44.87293" lon="5.67727">
        <ele>548.09</ele>
        <time>2013-06-30T14:05:43Z</time>
      </trkpt>
      <trkpt lat="44.87294" lon="5.67728">
        <ele>548.09</ele>
        <time>2013-06-30T14:05:59Z</time>
      </trkpt>
      <trkpt lat="44.87294" lon="5.67727">
        <ele>548.57</ele>
        <time>2013-06-30T14:06:20Z</time>
      </trkpt>
      <trkpt lat="44.87294" lon="5.67729">
        <ele>547.61</ele>
        <time>2013-06-30T14:06:23Z</time>
      </trkpt>
      <trkpt lat="44.87293" lon="5.67727">
        <ele>548.09</ele>
        <time>2013-06-30T14:06:34Z</time>
      </trkpt>
      <trkpt lat="44.87293" lon="5.67727">
        <ele>548.09</ele>
        <time>2013-06-30T14:06:52Z</time>
      </trkpt>
      <trkpt lat="44.87294" lon="5.67728">
        <ele>548.09</ele>
        <time>2013-06-30T14:07:17Z</time>
      </trkpt>
      <trkpt lat="44.87294" lon="5.67729">
        <ele>547.61</ele>
        <time>2013-06-30T14:07:41Z</time>
      </trkpt>
      <trkpt lat="44.87294" lon="5.67729">
        <ele>547.13</ele>
        <time>2013-06-30T14:07:55Z</time>
      </trkpt>
      <trkpt lat="44.87294" lon="5.67729">
        <ele>548.09</ele>
        <time>2013-06-30T14:08:24Z</time>
      </trkpt>
      <trkpt lat="44.87294" lon="5.67729">
        <ele>547.13</ele>
        <time>2013-06-30T14:08:51Z</time>
      </trkpt>
      <trkpt lat="44.87294" lon="5.67728">
        <ele>547.13</ele>
        <time>2013-06-30T14:09:16Z</time>
      </trkpt>
      <trkpt lat="44.87294" lon="5.67728">
        <ele>547.61</ele>
        <time>2013-06-30T14:09:44Z</time>
      </trkpt>
      <trkpt lat="44.87294" lon="5.67728">
        <ele>547.61</ele>
        <time>2013-06-30T14:10:06Z</time>
      </trkpt>
      <trkpt lat="44.87294" lon="5.67728">
        <ele>547.61</ele>
        <time>2013-06-30T14:10:26Z</time>
      </trkpt>
      <trkpt lat="44.87294" lon="5.67728">
        <ele>547.13</ele>
        <time>2013-06-30T14:10:55Z</time>
      </trkpt>
      <trkpt lat="44.87295" lon="5.67728">
        <ele>547.61</ele>
        <time>2013-06-30T14:11:22Z</time>
      </trkpt>
      <trkpt lat="44.87293" lon="5.67726">
        <ele>547.61</ele>
        <time>2013-06-30T14:11:44Z</time>
      </trkpt>
      <trkpt lat="44.87291" lon="5.67729">
        <ele>547.61</ele>
        <time>2013-06-30T14:12:01Z</time>
      </trkpt>
      <trkpt lat="44.87291" lon="5.67729">
        <ele>547.13</ele>
        <time>2013-06-30T14:12:18Z</time>
      </trkpt>
      <trkpt lat="44.87292" lon="5.6773">
        <ele>547.13</ele>
        <time>2013-06-30T14:12:36Z</time>
      </trkpt>
      <trkpt lat="44.87292" lon="5.67729">
        <ele>547.61</ele>
        <time>2013-06-30T14:12:43Z</time>
      </trkpt>
      <trkpt lat="44.87296" lon="5.67736">
        <ele>547.13</ele>
        <time>2013-06-30T14:12:52Z</time>
      </trkpt>
      <trkpt lat="44.87296" lon="5.67727">
        <ele>547.61</ele>
        <time>2013-06-30T14:12:56Z</time>
      </trkpt>
      <trkpt lat="44.87294" lon="5.67716">
        <ele>548.57</ele>
        <time>2013-06-30T14:13:02Z</time>
      </trkpt>
      <trkpt lat="44.87284" lon="5.6769">
        <ele>551.93</ele>
        <time>2013-06-30T14:13:19Z</time>
      </trkpt>
      <trkpt lat="44.87283" lon="5.6767">
        <ele>555.3</ele>
        <time>2013-06-30T14:13:31Z</time>
      </trkpt>
      <trkpt lat="44.87286" lon="5.67664">
        <ele>555.78</ele>
        <time>2013-06-30T14:13:36Z</time>
      </trkpt>
      <trkpt lat="44.87289" lon="5.67664">
        <ele>556.26</ele>
        <time>2013-06-30T14:13:39Z</time>
      </trkpt>
      <trkpt lat="44.87293" lon="5.67661">
        <ele>557.22</ele>
        <time>2013-06-30T14:13:44Z</time>
      </trkpt>
      <trkpt lat="44.87298" lon="5.6766">
        <ele>558.66</ele>
        <time>2013-06-30T14:13:49Z</time>
      </trkpt>
      <trkpt lat="44.87303" lon="5.6766">
        <ele>559.14</ele>
        <time>2013-06-30T14:13:53Z</time>
      </trkpt>
      <trkpt lat="44.87317" lon="5.67655">
        <ele>562.99</ele>
        <time>2013-06-30T14:14:08Z</time>
      </trkpt>
      <trkpt lat="44.87321" lon="5.67654">
        <ele>563.95</ele>
        <time>2013-06-30T14:14:12Z</time>
      </trkpt>
      <trkpt lat="44.87334" lon="5.67661">
        <ele>564.43</ele>
        <time>2013-06-30T14:14:26Z</time>
      </trkpt>
      <trkpt lat="44.8734" lon="5.67664">
        <ele>565.39</ele>
        <time>2013-06-30T14:14:40Z</time>
      </trkpt>
      <trkpt lat="44.87347" lon="5.67666">
        <ele>564.91</ele>
        <time>2013-06-30T14:14:57Z</time>
      </trkpt>
      <trkpt lat="44.87351" lon="5.67666">
        <ele>565.39</ele>
        <time>2013-06-30T14:14:59Z</time>
      </trkpt>
      <trkpt lat="44.8736" lon="5.67671">
        <ele>565.87</ele>
        <time>2013-06-30T14:15:05Z</time>
      </trkpt>
      <trkpt lat="44.87368" lon="5.67675">
        <ele>565.87</ele>
        <time>2013-06-30T14:15:09Z</time>
      </trkpt>
      <trkpt lat="44.87379" lon="5.6768">
        <ele>566.83</ele>
        <time>2013-06-30T14:15:15Z</time>
      </trkpt>
      <trkpt lat="44.87395" lon="5.67689">
        <ele>566.35</ele>
        <time>2013-06-30T14:15:24Z</time>
      </trkpt>
      <trkpt lat="44.87418" lon="5.677">
        <ele>567.32</ele>
        <time>2013-06-30T14:15:35Z</time>
      </trkpt>
      <trkpt lat="44.87434" lon="5.67705">
        <ele>567.8</ele>
        <time>2013-06-30T14:15:41Z</time>
      </trkpt>
      <trkpt lat="44.87452" lon="5.67704">
        <ele>567.8</ele>
        <time>2013-06-30T14:15:48Z</time>
      </trkpt>
      <trkpt lat="44.87498" lon="5.67697">
        <ele>567.8</ele>
        <time>2013-06-30T14:16:01Z</time>
      </trkpt>
      <trkpt lat="44.87535" lon="5.67705">
        <ele>568.76</ele>
        <time>2013-06-30T14:16:12Z</time>
      </trkpt>
      <trkpt lat="44.87565" lon="5.67717">
        <ele>567.8</ele>
        <time>2013-06-30T14:16:21Z</time>
      </trkpt>
      <trkpt lat="44.87578" lon="5.67721">
        <ele>566.83</ele>
        <time>2013-06-30T14:16:24Z</time>
      </trkpt>
      <trkpt lat="44.87626" lon="5.67726">
        <ele>565.87</ele>
        <time>2013-06-30T14:16:35Z</time>
      </trkpt>
      <trkpt lat="44.87631" lon="5.67729">
        <ele>565.39</ele>
        <time>2013-06-30T14:16:37Z</time>
      </trkpt>
      <trkpt lat="44.87648" lon="5.67729">
        <ele>564.91</ele>
        <time>2013-06-30T14:16:42Z</time>
      </trkpt>
      <trkpt lat="44.87712" lon="5.67721">
        <ele>565.39</ele>
        <time>2013-06-30T14:16:55Z</time>
      </trkpt>
      <trkpt lat="44.87765" lon="5.67711">
        <ele>564.43</ele>
        <time>2013-06-30T14:17:06Z</time>
      </trkpt>
      <trkpt lat="44.878" lon="5.67707">
        <ele>563.95</ele>
        <time>2013-06-30T14:17:14Z</time>
      </trkpt>
      <trkpt lat="44.87838" lon="5.67699">
        <ele>565.87</ele>
        <time>2013-06-30T14:17:26Z</time>
      </trkpt>
      <trkpt lat="44.8787" lon="5.67696">
        <ele>565.39</ele>
        <time>2013-06-30T14:17:35Z</time>
      </trkpt>
      <trkpt lat="44.879" lon="5.6769">
        <ele>563.95</ele>
        <time>2013-06-30T14:17:40Z</time>
      </trkpt>
      <trkpt lat="44.87953" lon="5.67674">
        <ele>565.87</ele>
        <time>2013-06-30T14:17:52Z</time>
      </trkpt>
      <trkpt lat="44.87988" lon="5.67647">
        <ele>568.76</ele>
        <time>2013-06-30T14:18:04Z</time>
      </trkpt>
      <trkpt lat="44.87996" lon="5.6764">
        <ele>569.24</ele>
        <time>2013-06-30T14:18:08Z</time>
      </trkpt>
      <trkpt lat="44.88022" lon="5.67625">
        <ele>567.8</ele>
        <time>2013-06-30T14:18:16Z</time>
      </trkpt>
      <trkpt lat="44.88031" lon="5.6762">
        <ele>565.87</ele>
        <time>2013-06-30T14:18:18Z</time>
      </trkpt>
      <trkpt lat="44.88071" lon="5.67602">
        <ele>564.91</ele>
        <time>2013-06-30T14:18:24Z</time>
      </trkpt>
      <trkpt lat="44.88076" lon="5.67599">
        <ele>565.39</ele>
        <time>2013-06-30T14:18:25Z</time>
      </trkpt>
      <trkpt lat="44.88102" lon="5.67587">
        <ele>564.43</ele>
        <time>2013-06-30T14:18:30Z</time>
      </trkpt>
      <trkpt lat="44.88107" lon="5.67585">
        <ele>563.95</ele>
        <time>2013-06-30T14:18:31Z</time>
      </trkpt>
      <trkpt lat="44.88112" lon="5.67583">
        <ele>562.99</ele>
        <time>2013-06-30T14:18:32Z</time>
      </trkpt>
      <trkpt lat="44.8813" lon="5.67581">
        <ele>558.66</ele>
        <time>2013-06-30T14:18:35Z</time>
      </trkpt>
      <trkpt lat="44.88158" lon="5.67578">
        <ele>555.3</ele>
        <time>2013-06-30T14:18:38Z</time>
      </trkpt>
      <trkpt lat="44.88192" lon="5.67574">
        <ele>551.45</ele>
        <time>2013-06-30T14:18:41Z</time>
      </trkpt>
      <trkpt lat="44.88215" lon="5.67573">
        <ele>548.09</ele>
        <time>2013-06-30T14:18:43Z</time>
      </trkpt>
      <trkpt lat="44.8826" lon="5.67567">
        <ele>544.24</ele>
        <time>2013-06-30T14:18:47Z</time>
      </trkpt>
      <trkpt lat="44.88292" lon="5.67558">
        <ele>542.8</ele>
        <time>2013-06-30T14:18:50Z</time>
      </trkpt>
      <trkpt lat="44.88301" lon="5.67553">
        <ele>542.8</ele>
        <time>2013-06-30T14:18:51Z</time>
      </trkpt>
      <trkpt lat="44.88345" lon="5.67515">
        <ele>542.8</ele>
        <time>2013-06-30T14:18:58Z</time>
      </trkpt>
      <trkpt lat="44.8835" lon="5.67511">
        <ele>543.28</ele>
        <time>2013-06-30T14:18:59Z</time>
      </trkpt>
      <trkpt lat="44.8836" lon="5.67503">
        <ele>543.28</ele>
        <time>2013-06-30T14:19:01Z</time>
      </trkpt>
      <trkpt lat="44.88365" lon="5.67499">
        <ele>543.28</ele>
        <time>2013-06-30T14:19:02Z</time>
      </trkpt>
      <trkpt lat="44.88382" lon="5.67491">
        <ele>542.32</ele>
        <time>2013-06-30T14:19:05Z</time>
      </trkpt>
      <trkpt lat="44.88388" lon="5.6749">
        <ele>541.36</ele>
        <time>2013-06-30T14:19:06Z</time>
      </trkpt>
      <trkpt lat="44.88486" lon="5.67465">
        <ele>539.44</ele>
        <time>2013-06-30T14:19:22Z</time>
      </trkpt>
      <trkpt lat="44.88509" lon="5.67456">
        <ele>539.44</ele>
        <time>2013-06-30T14:19:26Z</time>
      </trkpt>
      <trkpt lat="44.88514" lon="5.67452">
        <ele>538.96</ele>
        <time>2013-06-30T14:19:27Z</time>
      </trkpt>
      <trkpt lat="44.88519" lon="5.67447">
        <ele>538.96</ele>
        <time>2013-06-30T14:19:28Z</time>
      </trkpt>
      <trkpt lat="44.88528" lon="5.67437">
        <ele>538.96</ele>
        <time>2013-06-30T14:19:30Z</time>
      </trkpt>
      <trkpt lat="44.88533" lon="5.67433">
        <ele>539.44</ele>
        <time>2013-06-30T14:19:31Z</time>
      </trkpt>
      <trkpt lat="44.88538" lon="5.67431">
        <ele>539.44</ele>
        <time>2013-06-30T14:19:32Z</time>
      </trkpt>
      <trkpt lat="44.88544" lon="5.6743">
        <ele>538.48</ele>
        <time>2013-06-30T14:19:33Z</time>
      </trkpt>
      <trkpt lat="44.88549" lon="5.67429">
        <ele>538.48</ele>
        <time>2013-06-30T14:19:34Z</time>
      </trkpt>
      <trkpt lat="44.88578" lon="5.67424">
        <ele>538.96</ele>
        <time>2013-06-30T14:19:39Z</time>
      </trkpt>
      <trkpt lat="44.88607" lon="5.67418">
        <ele>537.51</ele>
        <time>2013-06-30T14:19:44Z</time>
      </trkpt>
      <trkpt lat="44.88672" lon="5.6741">
        <ele>536.55</ele>
        <time>2013-06-30T14:19:56Z</time>
      </trkpt>
      <trkpt lat="44.88678" lon="5.67408">
        <ele>536.07</ele>
        <time>2013-06-30T14:19:57Z</time>
      </trkpt>
      <trkpt lat="44.88734" lon="5.67389">
        <ele>536.07</ele>
        <time>2013-06-30T14:20:09Z</time>
      </trkpt>
      <trkpt lat="44.88804" lon="5.6737">
        <ele>536.07</ele>
        <time>2013-06-30T14:20:24Z</time>
      </trkpt>
      <trkpt lat="44.88873" lon="5.67357">
        <ele>535.11</ele>
        <time>2013-06-30T14:20:38Z</time>
      </trkpt>
      <trkpt lat="44.88888" lon="5.67355">
        <ele>535.59</ele>
        <time>2013-06-30T14:20:41Z</time>
      </trkpt>
      <trkpt lat="44.88893" lon="5.67353">
        <ele>535.59</ele>
        <time>2013-06-30T14:20:42Z</time>
      </trkpt>
      <trkpt lat="44.88898" lon="5.67348">
        <ele>535.11</ele>
        <time>2013-06-30T14:20:43Z</time>
      </trkpt>
      <trkpt lat="44.88902" lon="5.67342">
        <ele>533.67</ele>
        <time>2013-06-30T14:20:44Z</time>
      </trkpt>
      <trkpt lat="44.88907" lon="5.67336">
        <ele>532.71</ele>
        <time>2013-06-30T14:20:45Z</time>
      </trkpt>
      <trkpt lat="44.88913" lon="5.67332">
        <ele>533.19</ele>
        <time>2013-06-30T14:20:46Z</time>
      </trkpt>
      <trkpt lat="44.88918" lon="5.67331">
        <ele>534.15</ele>
        <time>2013-06-30T14:20:47Z</time>
      </trkpt>
      <trkpt lat="44.88922" lon="5.67331">
        <ele>534.63</ele>
        <time>2013-06-30T14:20:48Z</time>
      </trkpt>
      <trkpt lat="44.88956" lon="5.67334">
        <ele>536.55</ele>
        <time>2013-06-30T14:20:57Z</time>
      </trkpt>
      <trkpt lat="44.88996" lon="5.67329">
        <ele>535.59</ele>
        <time>2013-06-30T14:21:08Z</time>
      </trkpt>
      <trkpt lat="44.89008" lon="5.67328">
        <ele>537.51</ele>
        <time>2013-06-30T14:21:11Z</time>
      </trkpt>
      <trkpt lat="44.89012" lon="5.67328">
        <ele>536.55</ele>
        <time>2013-06-30T14:21:12Z</time>
      </trkpt>
      <trkpt lat="44.89015" lon="5.67328">
        <ele>537.03</ele>
        <time>2013-06-30T14:21:13Z</time>
      </trkpt>
      <trkpt lat="44.89019" lon="5.67328">
        <ele>537.03</ele>
        <time>2013-06-30T14:21:14Z</time>
      </trkpt>
      <trkpt lat="44.89023" lon="5.67328">
        <ele>537.03</ele>
        <time>2013-06-30T14:21:15Z</time>
      </trkpt>
      <trkpt lat="44.89078" lon="5.67325">
        <ele>539.44</ele>
        <time>2013-06-30T14:21:30Z</time>
      </trkpt>
      <trkpt lat="44.89111" lon="5.67321">
        <ele>541.36</ele>
        <time>2013-06-30T14:21:42Z</time>
      </trkpt>
      <trkpt lat="44.89139" lon="5.67314">
        <ele>544.24</ele>
        <time>2013-06-30T14:21:55Z</time>
      </trkpt>
      <trkpt lat="44.89167" lon="5.67303">
        <ele>545.69</ele>
        <time>2013-06-30T14:22:07Z</time>
      </trkpt>
      <trkpt lat="44.89208" lon="5.67294">
        <ele>546.17</ele>
        <time>2013-06-30T14:22:22Z</time>
      </trkpt>
      <trkpt lat="44.89248" lon="5.67299">
        <ele>546.65</ele>
        <time>2013-06-30T14:22:35Z</time>
      </trkpt>
      <trkpt lat="44.89287" lon="5.673">
        <ele>545.2</ele>
        <time>2013-06-30T14:22:47Z</time>
      </trkpt>
      <trkpt lat="44.8934" lon="5.67289">
        <ele>545.69</ele>
        <time>2013-06-30T14:23:01Z</time>
      </trkpt>
      <trkpt lat="44.89393" lon="5.67271">
        <ele>545.2</ele>
        <time>2013-06-30T14:23:16Z</time>
      </trkpt>
      <trkpt lat="44.89398" lon="5.67271">
        <ele>545.2</ele>
        <time>2013-06-30T14:23:17Z</time>
      </trkpt>
      <trkpt lat="44.89402" lon="5.6727">
        <ele>544.72</ele>
        <time>2013-06-30T14:23:18Z</time>
      </trkpt>
      <trkpt lat="44.89434" lon="5.67263">
        <ele>543.28</ele>
        <time>2013-06-30T14:23:25Z</time>
      </trkpt>
      <trkpt lat="44.89492" lon="5.67243">
        <ele>541.84</ele>
        <time>2013-06-30T14:23:39Z</time>
      </trkpt>
      <trkpt lat="44.895" lon="5.67241">
        <ele>541.36</ele>
        <time>2013-06-30T14:23:41Z</time>
      </trkpt>
      <trkpt lat="44.89504" lon="5.6724">
        <ele>541.84</ele>
        <time>2013-06-30T14:23:42Z</time>
      </trkpt>
      <trkpt lat="44.89507" lon="5.67239">
        <ele>540.88</ele>
        <time>2013-06-30T14:23:43Z</time>
      </trkpt>
      <trkpt lat="44.89511" lon="5.67239">
        <ele>541.36</ele>
        <time>2013-06-30T14:23:44Z</time>
      </trkpt>
      <trkpt lat="44.89514" lon="5.67241">
        <ele>540.4</ele>
        <time>2013-06-30T14:23:45Z</time>
      </trkpt>
      <trkpt lat="44.89518" lon="5.67242">
        <ele>540.4</ele>
        <time>2013-06-30T14:23:46Z</time>
      </trkpt>
      <trkpt lat="44.89521" lon="5.67241">
        <ele>540.4</ele>
        <time>2013-06-30T14:23:47Z</time>
      </trkpt>
      <trkpt lat="44.89525" lon="5.6724">
        <ele>541.36</ele>
        <time>2013-06-30T14:23:48Z</time>
      </trkpt>
      <trkpt lat="44.89568" lon="5.67215">
        <ele>541.84</ele>
        <time>2013-06-30T14:24:03Z</time>
      </trkpt>
      <trkpt lat="44.89598" lon="5.67209">
        <ele>541.36</ele>
        <time>2013-06-30T14:24:12Z</time>
      </trkpt>
      <trkpt lat="44.89602" lon="5.67211">
        <ele>540.4</ele>
        <time>2013-06-30T14:24:13Z</time>
      </trkpt>
      <trkpt lat="44.89606" lon="5.67215">
        <ele>539.92</ele>
        <time>2013-06-30T14:24:14Z</time>
      </trkpt>
      <trkpt lat="44.89611" lon="5.67218">
        <ele>538.96</ele>
        <time>2013-06-30T14:24:15Z</time>
      </trkpt>
      <trkpt lat="44.89621" lon="5.67226">
        <ele>537.99</ele>
        <time>2013-06-30T14:24:17Z</time>
      </trkpt>
      <trkpt lat="44.89627" lon="5.67229">
        <ele>537.51</ele>
        <time>2013-06-30T14:24:18Z</time>
      </trkpt>
      <trkpt lat="44.89634" lon="5.67231">
        <ele>536.07</ele>
        <time>2013-06-30T14:24:19Z</time>
      </trkpt>
      <trkpt lat="44.89641" lon="5.6723">
        <ele>536.07</ele>
        <time>2013-06-30T14:24:20Z</time>
      </trkpt>
      <trkpt lat="44.89647" lon="5.67228">
        <ele>536.07</ele>
        <time>2013-06-30T14:24:21Z</time>
      </trkpt>
      <trkpt lat="44.89654" lon="5.67226">
        <ele>535.59</ele>
        <time>2013-06-30T14:24:22Z</time>
      </trkpt>
      <trkpt lat="44.89659" lon="5.67223">
        <ele>535.59</ele>
        <time>2013-06-30T14:24:23Z</time>
      </trkpt>
      <trkpt lat="44.89714" lon="5.67199">
        <ele>537.99</ele>
        <time>2013-06-30T14:24:36Z</time>
      </trkpt>
      <trkpt lat="44.89755" lon="5.67178">
        <ele>538.96</ele>
        <time>2013-06-30T14:24:48Z</time>
      </trkpt>
      <trkpt lat="44.89816" lon="5.67155">
        <ele>539.92</ele>
        <time>2013-06-30T14:25:06Z</time>
      </trkpt>
      <trkpt lat="44.89864" lon="5.67129">
        <ele>541.36</ele>
        <time>2013-06-30T14:25:21Z</time>
      </trkpt>
      <trkpt lat="44.8992" lon="5.67102">
        <ele>542.32</ele>
        <time>2013-06-30T14:25:38Z</time>
      </trkpt>
      <trkpt lat="44.89957" lon="5.67085">
        <ele>543.28</ele>
        <time>2013-06-30T14:25:49Z</time>
      </trkpt>
      <trkpt lat="44.89989" lon="5.67066">
        <ele>543.76</ele>
        <time>2013-06-30T14:26:00Z</time>
      </trkpt>
      <trkpt lat="44.90032" lon="5.6705">
        <ele>544.72</ele>
        <time>2013-06-30T14:26:13Z</time>
      </trkpt>
      <trkpt lat="44.90039" lon="5.6705">
        <ele>544.24</ele>
        <time>2013-06-30T14:26:26Z</time>
      </trkpt>
      <trkpt lat="44.90039" lon="5.6705">
        <ele>544.24</ele>
        <time>2013-06-30T14:26:46Z</time>
      </trkpt>
      <trkpt lat="44.90042" lon="5.67048">
        <ele>543.76</ele>
        <time>2013-06-30T14:27:01Z</time>
      </trkpt>
      <trkpt lat="44.90044" lon="5.67047">
        <ele>543.76</ele>
        <time>2013-06-30T14:27:02Z</time>
      </trkpt>
      <trkpt lat="44.9005" lon="5.67045">
        <ele>542.8</ele>
        <time>2013-06-30T14:27:05Z</time>
      </trkpt>
      <trkpt lat="44.90077" lon="5.67041">
        <ele>544.72</ele>
        <time>2013-06-30T14:27:16Z</time>
      </trkpt>
      <trkpt lat="44.90104" lon="5.67028">
        <ele>546.17</ele>
        <time>2013-06-30T14:27:29Z</time>
      </trkpt>
      <trkpt lat="44.90107" lon="5.67027">
        <ele>541.36</ele>
        <time>2013-06-30T14:27:30Z</time>
      </trkpt>
      <trkpt lat="44.90109" lon="5.67025">
        <ele>546.65</ele>
        <time>2013-06-30T14:27:31Z</time>
      </trkpt>
      <trkpt lat="44.90142" lon="5.66992">
        <ele>547.61</ele>
        <time>2013-06-30T14:27:48Z</time>
      </trkpt>
      <trkpt lat="44.90168" lon="5.66969">
        <ele>548.57</ele>
        <time>2013-06-30T14:27:59Z</time>
      </trkpt>
      <trkpt lat="44.90211" lon="5.66973">
        <ele>549.05</ele>
        <time>2013-06-30T14:28:13Z</time>
      </trkpt>
      <trkpt lat="44.90256" lon="5.66978">
        <ele>551.45</ele>
        <time>2013-06-30T14:28:28Z</time>
      </trkpt>
      <trkpt lat="44.90288" lon="5.66944">
        <ele>552.41</ele>
        <time>2013-06-30T14:28:41Z</time>
      </trkpt>
      <trkpt lat="44.90329" lon="5.66918">
        <ele>553.38</ele>
        <time>2013-06-30T14:28:55Z</time>
      </trkpt>
      <trkpt lat="44.90359" lon="5.66893">
        <ele>555.3</ele>
        <time>2013-06-30T14:29:06Z</time>
      </trkpt>
      <trkpt lat="44.90406" lon="5.66878">
        <ele>555.78</ele>
        <time>2013-06-30T14:29:20Z</time>
      </trkpt>
      <trkpt lat="44.9042" lon="5.66883">
        <ele>556.74</ele>
        <time>2013-06-30T14:29:24Z</time>
      </trkpt>
      <trkpt lat="44.90462" lon="5.6688">
        <ele>556.74</ele>
        <time>2013-06-30T14:29:36Z</time>
      </trkpt>
      <trkpt lat="44.90516" lon="5.66861">
        <ele>558.66</ele>
        <time>2013-06-30T14:29:52Z</time>
      </trkpt>
      <trkpt lat="44.90561" lon="5.66841">
        <ele>560.11</ele>
        <time>2013-06-30T14:30:06Z</time>
      </trkpt>
      <trkpt lat="44.90628" lon="5.66821">
        <ele>562.03</ele>
        <time>2013-06-30T14:30:25Z</time>
      </trkpt>
      <trkpt lat="44.90676" lon="5.66809">
        <ele>563.47</ele>
        <time>2013-06-30T14:30:39Z</time>
      </trkpt>
      <trkpt lat="44.90722" lon="5.66801">
        <ele>564.91</ele>
        <time>2013-06-30T14:30:52Z</time>
      </trkpt>
      <trkpt lat="44.90773" lon="5.668">
        <ele>565.39</ele>
        <time>2013-06-30T14:31:06Z</time>
      </trkpt>
      <trkpt lat="44.90828" lon="5.66801">
        <ele>567.8</ele>
        <time>2013-06-30T14:31:20Z</time>
      </trkpt>
      <trkpt lat="44.90857" lon="5.66793">
        <ele>569.24</ele>
        <time>2013-06-30T14:31:29Z</time>
      </trkpt>
      <trkpt lat="44.90882" lon="5.66777">
        <ele>570.2</ele>
        <time>2013-06-30T14:31:42Z</time>
      </trkpt>
      <trkpt lat="44.90911" lon="5.66761">
        <ele>571.64</ele>
        <time>2013-06-30T14:31:57Z</time>
      </trkpt>
      <trkpt lat="44.90949" lon="5.66742">
        <ele>573.08</ele>
        <time>2013-06-30T14:32:15Z</time>
      </trkpt>
      <trkpt lat="44.9099" lon="5.66724">
        <ele>574.53</ele>
        <time>2013-06-30T14:32:34Z</time>
      </trkpt>
      <trkpt lat="44.91027" lon="5.66707">
        <ele>576.45</ele>
        <time>2013-06-30T14:32:50Z</time>
      </trkpt>
      <trkpt lat="44.91056" lon="5.66679">
        <ele>577.89</ele>
        <time>2013-06-30T14:33:05Z</time>
      </trkpt>
      <trkpt lat="44.91089" lon="5.66648">
        <ele>579.33</ele>
        <time>2013-06-30T14:33:20Z</time>
      </trkpt>
      <trkpt lat="44.91127" lon="5.66627">
        <ele>581.25</ele>
        <time>2013-06-30T14:33:36Z</time>
      </trkpt>
      <trkpt lat="44.91146" lon="5.66583">
        <ele>582.7</ele>
        <time>2013-06-30T14:33:51Z</time>
      </trkpt>
      <trkpt lat="44.91146" lon="5.66579">
        <ele>583.18</ele>
        <time>2013-06-30T14:33:52Z</time>
      </trkpt>
      <trkpt lat="44.91151" lon="5.66534">
        <ele>583.66</ele>
        <time>2013-06-30T14:34:04Z</time>
      </trkpt>
      <trkpt lat="44.91163" lon="5.66469">
        <ele>584.62</ele>
        <time>2013-06-30T14:34:20Z</time>
      </trkpt>
      <trkpt lat="44.9119" lon="5.66417">
        <ele>587.98</ele>
        <time>2013-06-30T14:34:36Z</time>
      </trkpt>
      <trkpt lat="44.91222" lon="5.66355">
        <ele>588.95</ele>
        <time>2013-06-30T14:34:55Z</time>
      </trkpt>
      <trkpt lat="44.91257" lon="5.66312">
        <ele>591.35</ele>
        <time>2013-06-30T14:35:11Z</time>
      </trkpt>
      <trkpt lat="44.91294" lon="5.66263">
        <ele>593.27</ele>
        <time>2013-06-30T14:35:26Z</time>
      </trkpt>
      <trkpt lat="44.91315" lon="5.66196">
        <ele>594.71</ele>
        <time>2013-06-30T14:35:42Z</time>
      </trkpt>
      <trkpt lat="44.91317" lon="5.66134">
        <ele>596.15</ele>
        <time>2013-06-30T14:35:56Z</time>
      </trkpt>
      <trkpt lat="44.91304" lon="5.66059">
        <ele>598.56</ele>
        <time>2013-06-30T14:36:13Z</time>
      </trkpt>
      <trkpt lat="44.91286" lon="5.66012">
        <ele>600.96</ele>
        <time>2013-06-30T14:36:25Z</time>
      </trkpt>
      <trkpt lat="44.91258" lon="5.65956">
        <ele>603.85</ele>
        <time>2013-06-30T14:36:40Z</time>
      </trkpt>
      <trkpt lat="44.91237" lon="5.65916">
        <ele>605.29</ele>
        <time>2013-06-30T14:36:51Z</time>
      </trkpt>
      <trkpt lat="44.91214" lon="5.65861">
        <ele>608.17</ele>
        <time>2013-06-30T14:37:05Z</time>
      </trkpt>
      <trkpt lat="44.91219" lon="5.65818">
        <ele>610.09</ele>
        <time>2013-06-30T14:37:15Z</time>
      </trkpt>
      <trkpt lat="44.91252" lon="5.65765">
        <ele>611.06</ele>
        <time>2013-06-30T14:37:30Z</time>
      </trkpt>
      <trkpt lat="44.91293" lon="5.65724">
        <ele>614.42</ele>
        <time>2013-06-30T14:37:45Z</time>
      </trkpt>
      <trkpt lat="44.91339" lon="5.65734">
        <ele>612.98</ele>
        <time>2013-06-30T14:37:57Z</time>
      </trkpt>
      <trkpt lat="44.91389" lon="5.65744">
        <ele>616.34</ele>
        <time>2013-06-30T14:38:09Z</time>
      </trkpt>
      <trkpt lat="44.91392" lon="5.65745">
        <ele>617.3</ele>
        <time>2013-06-30T14:38:10Z</time>
      </trkpt>
      <trkpt lat="44.91404" lon="5.65747">
        <ele>615.86</ele>
        <time>2013-06-30T14:38:13Z</time>
      </trkpt>
      <trkpt lat="44.91461" lon="5.65764">
        <ele>617.78</ele>
        <time>2013-06-30T14:38:29Z</time>
      </trkpt>
      <trkpt lat="44.91489" lon="5.65805">
        <ele>618.75</ele>
        <time>2013-06-30T14:38:43Z</time>
      </trkpt>
      <trkpt lat="44.91501" lon="5.65837">
        <ele>618.26</ele>
        <time>2013-06-30T14:38:53Z</time>
      </trkpt>
      <trkpt lat="44.91503" lon="5.65837">
        <ele>617.78</ele>
        <time>2013-06-30T14:38:54Z</time>
      </trkpt>
      <trkpt lat="44.91504" lon="5.65837">
        <ele>617.78</ele>
        <time>2013-06-30T14:39:03Z</time>
      </trkpt>
      <trkpt lat="44.91507" lon="5.65837">
        <ele>617.78</ele>
        <time>2013-06-30T14:39:31Z</time>
      </trkpt>
      <trkpt lat="44.91507" lon="5.65837">
        <ele>618.26</ele>
        <time>2013-06-30T14:40:00Z</time>
      </trkpt>
      <trkpt lat="44.91508" lon="5.65837">
        <ele>618.26</ele>
        <time>2013-06-30T14:40:24Z</time>
      </trkpt>
      <trkpt lat="44.91508" lon="5.65836">
        <ele>616.82</ele>
        <time>2013-06-30T14:40:51Z</time>
      </trkpt>
      <trkpt lat="44.91508" lon="5.65837">
        <ele>617.78</ele>
        <time>2013-06-30T14:41:22Z</time>
      </trkpt>
      <trkpt lat="44.91506" lon="5.65836">
        <ele>617.78</ele>
        <time>2013-06-30T14:41:44Z</time>
      </trkpt>
      <trkpt lat="44.91507" lon="5.65832">
        <ele>617.78</ele>
        <time>2013-06-30T14:41:57Z</time>
      </trkpt>
      <trkpt lat="44.91505" lon="5.65833">
        <ele>612.98</ele>
        <time>2013-06-30T14:42:04Z</time>
      </trkpt>
      <trkpt lat="44.91505" lon="5.65834">
        <ele>617.78</ele>
        <time>2013-06-30T14:42:05Z</time>
      </trkpt>
      <trkpt lat="44.91504" lon="5.65835">
        <ele>621.63</ele>
        <time>2013-06-30T14:42:06Z</time>
      </trkpt>
      <trkpt lat="44.91504" lon="5.65835">
        <ele>615.86</ele>
        <time>2013-06-30T14:42:07Z</time>
      </trkpt>
      <trkpt lat="44.91504" lon="5.65836">
        <ele>617.78</ele>
        <time>2013-06-30T14:42:08Z</time>
      </trkpt>
    </trkseg>
  </trk>
</gpx>